# Wetter Temperatur Luftdruck Luftfeuchtigkeit Sichtweite Windgeschwindigkeit Windrichtung Zeit
1 Clear 23 1024 52 10000 0.59 12 11:38 07.10.2022
2 Clear 21 1024 66 10000 1.06 149 09:25 07.10.2022
3 Clouds 20 1002 44 10000 0.45 180 08:29 07.10.2022
4 Clouds 19 1002 43 10000 1.57 149 04:39 07.10.2022
5 Clouds 20 1004 42 10000 0.45 53 23:52 06.10.2022
6 Clouds 21 1005 40 10000 1.86 103 22:50 06.10.2022
7 Clouds 21 1005 33 10000 2.26 90 21:39 06.10.2022
8 Clouds 21 1005 36 10000 2.33 80 20:41 06.10.2022
9 Clouds 23 1004 31 10000 0.89 50 18:58 06.10.2022
10 Clouds 24 1004 31 10000 3.28 53 18:32 06.10.2022
11 Clear 26 1004 30 10000 1.34 360 15:47 06.10.2022
12 Clouds 26 1005 29 10000 2.68 21 13:49 06.10.2022
13 Clouds 23 1027 60 10000 1.92 64 10:43 06.10.2022
14 Clear 19 1004 35 10000 0.45 81 05:20 06.10.2022
15 Clouds 20 1005 36 10000 1.02 174 02:22 06.10.2022
16 Clouds 21 1005 40 10000 0.45 113 22:29 05.10.2022
17 Clouds 22 1004 37 10000 0.45 53 19:54 05.10.2022
18 Clear 25 1004 32 10000 1.34 333 17:48 05.10.2022
19 Clear 24 1024 50 10000 2.58 53 17:27 05.10.2022
20 Clear 27 1004 26 10000 1.79 10 15:37 05.10.2022
21 Clear 26 1004 25 10000 0.45 36 14:38 05.10.2022
22 Clear 27 1004 26 10000 0.89 32 13:39 05.10.2022
23 Clear 26 1004 34 10000 1.34 352 12:19 05.10.2022
24 Clear 20 1003 47 10000 1.52 112 08:31 05.10.2022
25 Clear 20 1003 42 10000 2.08 108 07:22 05.10.2022
26 Clear 21 1002 41 10000 0.45 41 05:35 05.10.2022
27 Clear 21 1002 46 10000 0.45 81 02:40 05.10.2022
28 Clear 22 1002 44 10000 0.45 49 00:41 05.10.2022
29 Clear 22 1002 44 10000 2.26 89 00:23 05.10.2022
30 Clouds 22 1001 47 10000 2.03 82 21:48 04.10.2022
31 Clouds 23 1001 46 10000 0.89 80 20:22 04.10.2022
32 Clouds 23 1000 45 10000 0.45 45 18:56 04.10.2022
33 Clouds 24 1000 45 10000 1.97 64 18:34 04.10.2022
34 Clear 25 999 43 10000 1.79 354 16:58 04.10.2022
35 Clear 26 999 43 10000 0.45 22 16:26 04.10.2022
36 Clear 25 999 42 10000 1.34 4 11:25 04.10.2022
37 Clear 21 998 49 10000 8.05 0 08:42 04.10.2022
38 Clouds 20 996 49 10000 0.89 180 06:25 04.10.2022
39 Clouds 21 1017 73 10000 0.54 276 01:24 04.10.2022
40 Clouds 22 996 46 10000 1.27 276 23:36 03.10.2022
41 Clouds 22 996 45 10000 1.52 275 21:46 03.10.2022
42 Clouds 22 996 44 10000 1.17 305 20:51 03.10.2022
43 Clouds 23 996 43 10000 1.8 331 18:57 03.10.2022
44 Clouds 24 1017 64 10000 3 344 17:39 03.10.2022
45 Clear 26 996 39 10000 0.45 348 16:40 03.10.2022
46 Clear 27 996 39 10000 3.13 348 15:26 03.10.2022
47 Clear 26 1017 54 10000 3.57 316 13:44 03.10.2022
48 Clear 25 997 41 10000 2.95 294 11:47 03.10.2022
49 Clear 25 997 41 10000 2.65 266 10:25 03.10.2022
50 Clear 24 998 42 10000 1.76 249 08:59 03.10.2022
51 Clear 21 1019 67 10000 1.24 202 04:49 03.10.2022
52 Clouds 21 1021 69 10000 1.5 242 01:52 03.10.2022
53 Clear 21 1022 73 10000 0.54 185 22:24 02.10.2022
54 Clear 21 1022 73 10000 0.54 185 22:24 02.10.2022
55 Clear 22 1023 70 10000 0.33 217 20:32 02.10.2022
56 Clear 24 1002 45 10000 0.45 319 18:27 02.10.2022
57 Clear 25 1002 43 10000 2.24 335 17:32 02.10.2022
58 Clear 26 1002 43 10000 0.89 22 16:33 02.10.2022
59 Clear 26 1003 42 10000 0.89 8 15:40 02.10.2022
60 Clear 26 1004 40 10000 1.79 358 13:51 02.10.2022
61 Clear 25 1004 40 10000 1.34 1 12:48 02.10.2022
62 Clear 25 1004 43 10000 0.45 355 12:24 02.10.2022
63 Clear 25 1004 43 10000 0.89 28 11:35 02.10.2022
64 Clear 23 1024 64 10000 1.82 297 10:36 02.10.2022
65 Clear 21 1004 49 10000 0.45 236 08:31 02.10.2022
66 Clear 21 1004 49 10000 0.45 236 08:31 02.10.2022
67 Clear 21 1003 40 10000 0.89 221 06:38 02.10.2022
68 Clear 21 1003 38 10000 2.98 292 02:54 02.10.2022
69 Clouds 20 1003 37 10000 3.38 298 00:45 02.10.2022
70 Clouds 21 1003 43 10000 0.45 93 23:42 01.10.2022
71 Clear 21 1003 42 10000 0.45 186 22:31 01.10.2022
72 Clouds 22 1002 42 10000 1.34 227 19:58 01.10.2022
73 Clouds 22 1001 47 10000 0.89 319 17:49 01.10.2022
74 Clouds 24 1001 47 10000 1.79 281 16:29 01.10.2022
75 Clouds 24 1021 72 10000 4.89 326 14:19 01.10.2022
76 Clouds 25 1020 69 10000 5.22 328 12:57 01.10.2022
77 Clouds 25 1020 71 10000 5.19 328 12:29 01.10.2022
78 Clouds 25 1019 71 10000 3.79 320 11:19 01.10.2022
79 Clouds 24 1019 75 10000 3.79 320 10:31 01.10.2022
80 Clouds 23 998 58 10000 2.24 1 09:27 01.10.2022
81 Clouds 23 997 59 10000 2.24 1 08:41 01.10.2022
82 Clouds 22 994 61 10000 2.24 1 03:55 01.10.2022
83 Clouds 22 994 62 10000 2.24 1 03:28 01.10.2022
84 Clouds 22 994 64 10000 2.24 1 23:33 30.09.2022
85 Rain 22 993 57 10000 2.24 1 22:19 30.09.2022
86 Rain 22 992 56 10000 2.24 1 21:22 30.09.2022
87 Rain 23 992 54 10000 2.24 1 20:43 30.09.2022
88 Rain 25 1013 68 10000 1.82 106 19:32 30.09.2022
89 Clouds 29 988 35 10000 0.89 351 17:27 30.09.2022
90 Clouds 30 989 34 10000 1.79 14 15:26 30.09.2022
91 Clouds 30 989 27 10000 3.58 255 13:27 30.09.2022
92 Clouds 27 1011 52 10000 3.58 159 11:57 30.09.2022
93 Clouds 25 1011 60 10000 4.19 166 10:23 30.09.2022
94 Clouds 23 1010 64 10000 4.47 166 08:23 30.09.2022
95 Clouds 23 1009 65 10000 3.9 171 04:55 30.09.2022
96 Clear 23 1009 59 10000 3.7 178 02:27 30.09.2022
97 Clear 23 988 35 10000 0.89 270 22:26 29.09.2022
98 Clear 23 988 35 10000 3.6 180 21:26 29.09.2022
99 Clear 24 988 34 10000 1.34 42 20:35 29.09.2022
100 Clear 26 1008 46 10000 4.02 210 18:32 29.09.2022
101 Clear 27 1008 43 10000 6.87 211 17:22 29.09.2022
102 Clear 28 1008 41 10000 7 216 16:28 29.09.2022
103 Clear 28 1008 41 10000 7 216 15:35 29.09.2022
104 Clear 27 1008 45 10000 7.23 228 14:25 29.09.2022
105 Clear 25 987 40 10000 4.02 235 09:45 29.09.2022
106 Clouds 21 1008 76 10000 5.25 233 06:45 29.09.2022
107 Clouds 21 1009 71 10000 4.54 211 02:45 29.09.2022
108 Clouds 22 988 43 10000 4.92 224 23:54 28.09.2022
109 Clouds 22 1010 66 10000 3.89 213 22:32 28.09.2022
110 Clouds 22 988 40 10000 0.89 196 21:29 28.09.2022
111 Clouds 23 988 38 10000 4.83 248 20:22 28.09.2022
112 Clouds 24 988 35 10000 0.89 238 18:20 28.09.2022
113 Clear 26 988 33 10000 1.79 249 14:51 28.09.2022
114 Clouds 25 993 41 10000 7.27 271 12:49 28.09.2022
115 Clouds 24 993 49 10000 0.89 335 10:51 28.09.2022
116 Clouds 22 991 48 10000 1.79 218 08:33 28.09.2022
117 Clouds 22 991 48 10000 0.89 298 06:50 28.09.2022
118 Clear 22 992 50 10000 1.79 220 01:56 28.09.2022
119 Clear 22 993 60 10000 4.75 234 01:31 28.09.2022
120 Clear 22 992 49 10000 3.58 200 01:31 28.09.2022
121 Clear 23 991 47 10000 3.13 223 23:19 27.09.2022
122 Clear 23 993 58 10000 5.19 248 21:42 27.09.2022
123 Clear 23 991 40 10000 1.79 235 20:37 27.09.2022
124 Clear 23 991 36 10000 0.89 259 19:47 27.09.2022
125 Clear 25 990 32 10000 0.89 234 18:37 27.09.2022
126 Clear 25 992 44 10000 5.69 276 17:44 27.09.2022
127 Clear 26 990 35 10000 1.79 216 15:31 27.09.2022
128 Clear 26 990 38 10000 1.79 256 14:55 27.09.2022
129 Clouds 25 993 56 10000 5.34 288 12:42 27.09.2022
130 Clouds 26 991 34 10000 1.79 250 11:32 27.09.2022
131 Clouds 23 991 42 10000 0.45 142 08:49 27.09.2022
132 Clouds 22 990 55 10000 0.45 266 06:39 27.09.2022
133 Clouds 23 992 67 10000 0.45 275 01:57 27.09.2022
134 Clouds 23 992 68 10000 0.45 275 01:28 27.09.2022
135 Clouds 24 992 49 10000 3.6 243 23:26 26.09.2022
136 Clouds 24 992 51 10000 3.6 243 22:34 26.09.2022
137 Clouds 24 992 53 10000 2.24 225 20:45 26.09.2022
138 Clouds 25 991 47 10000 1.79 216 19:31 26.09.2022
139 Clouds 26 991 42 10000 2.24 220 18:32 26.09.2022
140 Clouds 26 991 58 10000 1.34 53 16:34 26.09.2022
141 Clouds 26 992 62 10000 1.34 335 14:28 26.09.2022
142 Clouds 21 989 59 10000 4.05 173 11:29 26.09.2022
143 Rain 21 990 59 10000 4.05 173 10:38 26.09.2022
144 Rain 21 990 59 10000 3.38 192 10:20 26.09.2022
145 Rain 21 991 59 10000 3.38 192 09:54 26.09.2022
146 Rain 21 991 53 10000 3.23 200 09:24 26.09.2022
147 Rain 21 991 53 10000 3.23 200 09:24 26.09.2022
148 Rain 22 990 43 10000 2.73 185 07:56 26.09.2022
149 Clouds 25 1014 60 10000 3.53 211 02:54 26.09.2022
150 Clouds 25 1014 57 10000 4.52 187 23:50 25.09.2022
151 Clouds 25 1015 51 10000 3.33 180 22:29 25.09.2022
152 Clouds 25 1015 56 10000 3.33 180 21:35 25.09.2022
153 Clouds 25 1015 56 10000 2.84 179 20:47 25.09.2022
154 Clouds 27 992 33 10000 2.68 262 19:43 25.09.2022
155 Clouds 27 992 30 10000 4.02 169 18:43 25.09.2022
156 Clouds 28 992 28 10000 0.89 180 18:20 25.09.2022
157 Clouds 29 1013 41 10000 4.89 203 16:36 25.09.2022
158 Clear 29 1013 41 10000 4.73 204 15:44 25.09.2022
159 Clouds 29 1015 42 10000 4.69 190 14:22 25.09.2022
160 Clouds 29 994 28 10000 1.79 132 12:55 25.09.2022
161 Clouds 26 994 34 10000 8.05 167 10:32 25.09.2022
162 Clouds 23 1016 59 10000 3.81 180 08:24 25.09.2022
163 Clouds 22 1016 60 10000 3.74 186 05:47 25.09.2022
164 Clouds 22 1017 61 10000 3.58 183 01:55 25.09.2022
165 Clouds 22 1019 60 10000 3.8 170 22:35 24.09.2022
166 Clouds 23 996 36 10000 3.13 185 20:55 24.09.2022
167 Clouds 24 997 34 10000 0.89 16 19:23 24.09.2022
168 Clouds 24 1018 55 10000 4.1 201 17:49 24.09.2022
169 Clouds 25 1018 52 10000 3.41 197 16:27 24.09.2022
170 Clouds 26 1019 49 10000 3.36 196 15:21 24.09.2022
171 Clouds 25 1020 49 10000 3.9 187 13:27 24.09.2022
172 Clouds 26 1000 29 10000 0.45 275 12:51 24.09.2022
173 Clouds 25 1000 30 10000 1.34 247 11:21 24.09.2022
174 Clouds 22 1021 52 10000 3.13 177 09:46 24.09.2022
175 Clouds 19 1002 37 10000 2.66 156 08:45 24.09.2022
176 Clear 19 999 31 10000 2.32 146 07:38 24.09.2022
177 Clear 18 1002 33 10000 2.61 136 04:46 24.09.2022
178 Clear 18 1002 32 10000 2.37 126 02:24 24.09.2022
179 Clear 20 1002 30 10000 2.43 101 22:36 23.09.2022
180 Clear 20 1002 30 10000 2.68 81 21:28 23.09.2022
181 Clear 21 1001 30 10000 0.89 48 20:56 23.09.2022
182 Clear 21 1001 27 10000 0.89 53 20:20 23.09.2022
183 Clear 23 1000 27 10000 0.89 2 18:50 23.09.2022
184 Clear 24 1001 28 10000 1.79 42 14:55 23.09.2022
185 Clear 24 1001 39 10000 3.52 62 10:55 23.09.2022
186 Clear 23 1000 37 10000 1.79 8 09:33 23.09.2022
187 Clear 21 997 38 10000 2.29 40 05:58 23.09.2022
188 Clouds 22 998 42 10000 2.54 77 00:32 23.09.2022
189 Clouds 22 998 40 10000 3.3 75 23:21 22.09.2022
190 Clouds 22 998 39 10000 0.45 45 22:26 22.09.2022
191 Clouds 23 998 38 10000 3.74 84 20:51 22.09.2022
192 Clouds 23 997 34 10000 0.45 36 19:56 22.09.2022
193 Clouds 24 997 39 10000 1.79 32 17:26 22.09.2022
194 Clouds 25 998 42 10000 2.68 342 12:46 22.09.2022
195 Clouds 23 995 44 10000 0.45 36 10:32 22.09.2022
196 Clouds 24 997 49 10000 0.45 270 08:52 22.09.2022
197 Clouds 22 997 50 10000 1.92 56 06:57 22.09.2022
198 Clouds 22 997 51 10000 0.45 187 03:46 22.09.2022
199 Clouds 23 998 55 10000 0.89 164 23:31 21.09.2022
200 Clouds 24 997 48 10000 0.45 63 21:50 21.09.2022
201 Clouds 25 997 41 10000 3.27 60 20:19 21.09.2022
202 Clouds 26 997 38 10000 1.34 12 17:49 21.09.2022
203 Clouds 28 996 32 10000 1.34 22 16:53 21.09.2022
204 Clouds 28 996 31 10000 0.45 11 14:37 21.09.2022
205 Clouds 28 996 33 10000 1.34 344 12:58 21.09.2022
206 Clouds 27 997 39 10000 0.89 339 11:30 21.09.2022
207 Clouds 26 998 54 10000 1.09 40 10:29 21.09.2022
208 Clouds 25 998 59 10000 1.43 70 09:24 21.09.2022
209 Clouds 23 996 52 10000 1.41 98 07:57 21.09.2022
210 Clear 22 995 45 10000 0.89 181 02:49 21.09.2022
211 Clear 23 995 45 10000 0.73 96 02:28 21.09.2022
212 Clear 23 995 45 10000 0.48 101 00:56 21.09.2022
213 Clear 23 995 48 10000 0.45 90 23:18 20.09.2022
214 Clear 24 995 46 10000 1.92 100 20:52 20.09.2022
215 Clear 25 995 45 10000 1.62 79 19:43 20.09.2022
216 Clear 28 995 39 10000 1.34 4 16:41 20.09.2022
217 Clear 28 995 38 10000 0.89 341 14:51 20.09.2022
218 Clear 28 995 38 10000 2.24 6 13:48 20.09.2022
219 Clear 27 997 52 10000 2.28 97 10:41 20.09.2022
220 Clear 23 995 48 10000 2.89 103 08:29 20.09.2022
221 Clear 22 995 45 10000 2.36 113 06:22 20.09.2022
222 Clear 22 995 51 10000 0.45 132 04:28 20.09.2022
223 Clouds 24 996 41 10000 2.04 137 23:32 19.09.2022
224 Clouds 24 996 43 10000 1.91 104 22:23 19.09.2022
225 Clear 25 996 42 10000 1.64 96 20:58 19.09.2022
226 Clear 25 995 41 10000 1.64 96 20:39 19.09.2022
227 Clouds 28 995 35 10000 0.45 354 17:55 19.09.2022
228 Clouds 28 997 42 10000 0.89 358 15:53 19.09.2022
229 Clouds 28 997 41 10000 1.34 1 13:39 19.09.2022
230 Clouds 28 996 32 10000 1.79 268 11:30 19.09.2022
231 Clouds 24 997 49 10000 1.41 202 09:20 19.09.2022
232 Clear 22 996 42 10000 1.58 186 08:20 19.09.2022
233 Clear 21 997 41 10000 0.45 53 02:31 19.09.2022
234 Clear 23 997 37 10000 1.61 118 23:24 18.09.2022
235 Clear 23 997 35 10000 0.89 77 21:47 18.09.2022
236 Clear 23 997 35 10000 0.89 80 20:34 18.09.2022
237 Clouds 24 997 35 10000 0.89 352 18:42 18.09.2022
238 Clouds 26 998 41 10000 1.34 11 17:45 18.09.2022
239 Clouds 27 997 28 10000 2.68 32 16:32 18.09.2022
240 Clouds 27 997 26 10000 2.68 25 14:39 18.09.2022
241 Clouds 27 997 28 10000 1.79 32 12:56 18.09.2022
242 Clouds 26 997 32 10000 1.79 11 11:51 18.09.2022
243 Clear 23 994 43 10000 1.79 319 06:45 18.09.2022
244 Clear 25 993 44 10000 3.66 299 01:32 18.09.2022
245 Clear 25 993 43 10000 0.45 332 00:49 18.09.2022
246 Clear 26 993 38 10000 5.43 296 22:54 17.09.2022
247 Clear 26 991 40 10000 1.34 259 20:50 17.09.2022
248 Clear 27 990 35 10000 1.34 235 19:30 17.09.2022
249 Clear 30 987 28 10000 2.24 227 17:21 17.09.2022
250 Clouds 30 990 31 10000 3.13 231 14:18 17.09.2022
251 Clouds 30 991 34 10000 1.34 242 12:33 17.09.2022
252 Clouds 29 990 41 10000 1.79 320 10:48 17.09.2022
253 Clouds 28 990 49 10000 1.34 231 06:31 17.09.2022
254 Clouds 28 988 36 10000 3.58 185 03:55 17.09.2022
255 Clouds 28 994 62 10000 5.16 247 23:23 16.09.2022
256 Clouds 28 991 54 10000 1.47 248 21:47 16.09.2022
257 Clouds 29 992 53 10000 0.89 50 20:42 16.09.2022
258 Clouds 30 992 47 10000 0.89 347 18:29 16.09.2022
259 Clouds 35 991 20 10000 1.79 15 16:21 16.09.2022
260 Clouds 35 992 21 10000 1.79 354 14:44 16.09.2022
261 Clouds 34 994 23 10000 0.89 348 12:51 16.09.2022
262 Clouds 31 996 30 10000 2.24 28 09:39 16.09.2022
263 Clouds 28 996 34 10000 3.11 249 07:22 16.09.2022
264 Clouds 29 996 34 10000 3.11 249 06:48 16.09.2022
265 Clouds 27 995 39 10000 2.77 226 05:43 16.09.2022
266 Clouds 28 995 49 10000 2.7 188 01:31 16.09.2022
267 Clouds 28 995 46 10000 2.57 152 21:31 15.09.2022
268 Clouds 29 995 42 10000 0.89 174 20:29 15.09.2022
269 Clouds 30 994 37 10000 0.89 334 18:57 15.09.2022
270 Clouds 33 993 36 10000 1.79 353 17:38 15.09.2022
271 Clouds 33 994 36 10000 0.89 330 17:20 15.09.2022
272 Clouds 32 995 42 10000 0.89 359 15:37 15.09.2022
273 Clouds 30 999 58 10000 4.01 2 12:50 15.09.2022
274 Clouds 30 999 41 10000 0.89 5 11:47 15.09.2022
275 Clouds 29 998 54 10000 1.34 15 09:43 15.09.2022
276 Clouds 25 996 41 10000 2.51 189 05:37 15.09.2022
277 Clouds 26 996 42 10000 0.89 75 02:58 15.09.2022
278 Clouds 27 998 42 10000 1.51 151 22:51 14.09.2022
279 Clouds 27 998 41 10000 2.29 130 20:30 14.09.2022
280 Clear 28 997 41 10000 2.28 133 19:32 14.09.2022
281 Clear 31 994 32 10000 1.45 116 17:35 14.09.2022
282 Clear 32 997 29 10000 1.34 337 16:36 14.09.2022
283 Clear 31 999 37 10000 1.51 37 14:50 14.09.2022
284 Clear 30 999 32 10000 0.89 5 12:34 14.09.2022
285 Clear 27 999 37 10000 0.89 184 09:51 14.09.2022
286 Clear 25 998 38 10000 0.89 119 08:21 14.09.2022
287 Clear 23 997 43 10000 0.89 142 06:49 14.09.2022
288 Clear 23 997 42 10000 2.65 135 06:25 14.09.2022
289 Clear 24 998 41 10000 0.45 119 02:19 14.09.2022
290 Clear 24 998 40 10000 2.77 133 01:32 14.09.2022
291 Clear 25 998 40 10000 0.45 158 00:52 14.09.2022
292 Clear 24 998 41 10000 0.89 137 23:54 13.09.2022
293 Clear 25 998 40 10000 2.88 131 23:36 13.09.2022
294 Clear 25 998 40 10000 3.03 121 23:18 13.09.2022
295 Clear 26 998 39 10000 0.89 61 22:22 13.09.2022
296 Clear 26 997 38 10000 0.89 161 20:45 13.09.2022
297 Clear 28 997 34 10000 0.89 354 18:43 13.09.2022
298 Clear 31 997 32 10000 0.89 12 16:19 13.09.2022
299 Clear 30 997 33 10000 2.68 34 15:18 13.09.2022
300 Clouds 30 997 31 10000 0.89 7 13:31 13.09.2022
301 Clouds 27 999 55 10000 2.31 96 09:58 13.09.2022
302 Clear 24 997 52 10000 2.07 119 07:47 13.09.2022
303 Clear 25 997 46 10000 1.59 90 00:58 13.09.2022
304 Clear 26 997 47 10000 1.4 79 23:21 12.09.2022
305 Clear 26 997 47 10000 0.45 58 22:26 12.09.2022
306 Clear 26 997 48 10000 1.51 54 20:54 12.09.2022
307 Clear 27 996 46 10000 0.89 357 19:31 12.09.2022
308 Clear 28 993 37 10000 1.79 6 17:47 12.09.2022
309 Clear 30 997 36 10000 1.79 18 15:41 12.09.2022
310 Clear 29 998 40 10000 2.68 28 12:26 12.09.2022
311 Clear 28 999 53 10000 2.4 30 10:27 12.09.2022
312 Clear 25 997 51 10000 0.53 331 07:21 12.09.2022
313 Clear 25 996 49 10000 0.45 176 04:32 12.09.2022
314 Clear 25 997 47 10000 0.45 99 01:53 12.09.2022
315 Clear 26 997 47 10000 0.68 28 22:46 11.09.2022
316 Clear 26 997 46 10000 1.11 10 21:25 11.09.2022
317 Clear 26 997 46 10000 1.08 33 20:44 11.09.2022
318 Clear 27 997 48 10000 0.89 57 19:27 11.09.2022
319 Clear 27 998 59 10000 2.11 353 18:58 11.09.2022
320 Clear 30 997 40 10000 1.79 8 17:26 11.09.2022
321 Clear 30 999 57 10000 1.79 358 15:51 11.09.2022
322 Clear 31 999 35 10000 3.46 325 13:22 11.09.2022
323 Clear 30 999 30 10000 0.89 337 11:25 11.09.2022
324 Clear 26 997 45 10000 1.14 251 08:19 11.09.2022
325 Clear 25 997 46 10000 1.22 272 05:19 11.09.2022
326 Clear 26 999 56 10000 0.45 178 23:51 10.09.2022
327 Clear 27 998 54 10000 1 267 22:22 10.09.2022
328 Clear 28 998 53 10000 1.45 273 20:33 10.09.2022
329 Clear 29 997 50 10000 0.45 263 19:44 10.09.2022
330 Clear 29 997 51 10000 1.96 313 19:25 10.09.2022
331 Clear 29 1015 69 10000 2.28 319 17:49 10.09.2022
332 Clear 31 998 47 10000 0.89 20 15:35 10.09.2022
333 Clouds 31 999 52 10000 2.68 20 13:41 10.09.2022
334 Clouds 31 999 51 10000 1.79 34 12:30 10.09.2022
335 Clear 30 1001 63 10000 0.89 357 10:34 10.09.2022
336 Clear 29 999 55 10000 0.59 178 08:42 10.09.2022
337 Clear 28 999 51 10000 1.12 178 08:20 10.09.2022
338 Clear 28 999 51 10000 1.12 178 08:20 10.09.2022
339 Clouds 27 998 61 10000 0.45 45 04:30 10.09.2022
340 Clear 28 999 53 10000 0.95 218 23:37 09.09.2022
341 Clouds 29 999 58 10000 0.89 313 22:36 09.09.2022
342 Clouds 29 999 57 10000 0.45 287 20:59 09.09.2022
343 Clouds 29 998 57 10000 1.32 10 20:20 09.09.2022
344 Clouds 29 998 57 10000 0.89 317 19:23 09.09.2022
345 Clouds 30 998 52 10000 0.89 335 17:50 09.09.2022
346 Clear 32 998 48 10000 2.24 22 15:23 09.09.2022
347 Clouds 34 997 34 10000 2.24 11 13:33 09.09.2022
348 Clouds 34 999 28 10000 1.34 345 11:38 09.09.2022
349 Clear 30 998 36 10000 0.89 343 07:58 09.09.2022
350 Clear 30 998 37 10000 0.89 13 03:40 09.09.2022
351 Clear 31 998 34 10000 2.16 187 00:21 09.09.2022
352 Clear 31 998 38 10000 2.14 178 21:52 08.09.2022
353 Clear 31 998 44 10000 1.82 181 20:49 08.09.2022
354 Clear 32 997 33 10000 1.7 164 20:29 08.09.2022
355 Clear 32 996 36 10000 0.89 232 19:25 08.09.2022
356 Clear 34 997 35 10000 0.89 329 17:35 08.09.2022
357 Clouds 35 996 29 10000 0.89 333 16:18 08.09.2022
358 Clouds 35 997 31 10000 1.34 349 13:30 08.09.2022
359 Clouds 33 998 39 10000 0.95 351 12:42 08.09.2022
360 Clouds 33 998 43 10000 0.58 345 11:24 08.09.2022
361 Clouds 31 999 50 10000 0.52 187 09:57 08.09.2022
362 Clouds 27 997 44 10000 2 136 07:38 08.09.2022
363 Clouds 27 997 49 10000 1.64 147 04:53 08.09.2022
364 Clouds 27 998 50 10000 0.89 183 02:36 08.09.2022
365 Clouds 27 997 47 10000 0.45 50 02:18 08.09.2022
366 Clouds 28 999 49 10000 0.45 193 23:25 07.09.2022
367 Clear 28 999 44 10000 1.86 124 21:58 07.09.2022
368 Clear 28 999 47 10000 0.45 340 21:38 07.09.2022
369 Clear 29 999 47 10000 1.69 74 20:30 07.09.2022
370 Clear 29 998 46 10000 0.45 324 19:23 07.09.2022
371 Clear 32 995 35 10000 1.79 2 16:30 07.09.2022
372 Clear 32 1000 41 10000 1.79 354 11:28 07.09.2022
373 Clear 30 1001 55 10000 0.56 85 10:36 07.09.2022
374 Clouds 29 1000 50 10000 1.86 136 08:33 07.09.2022
375 Clouds 27 998 49 10000 0.45 42 06:31 07.09.2022
376 Clouds 27 1001 53 10000 2.69 220 00:49 07.09.2022
377 Clear 28 1001 51 10000 0.89 360 21:58 06.09.2022
378 Clear 28 1001 51 10000 2.47 129 21:36 06.09.2022
379 Clouds 28 1000 51 10000 0.45 287 19:39 06.09.2022
380 Clouds 30 1001 48 10000 1.34 333 18:40 06.09.2022
381 Clouds 31 1001 44 10000 0.89 343 17:50 06.09.2022
382 Clouds 31 1001 44 10000 0.89 343 17:50 06.09.2022
383 Clouds 30 1002 46 10000 1.34 14 16:47 06.09.2022
384 Clouds 31 1001 45 10000 0.89 16 16:25 06.09.2022
385 Clouds 32 1001 42 10000 2.24 344 14:49 06.09.2022
386 Clouds 32 1002 43 10000 2.24 7 13:44 06.09.2022
387 Clouds 31 1002 44 10000 0.89 335 13:19 06.09.2022
388 Clouds 31 1003 46 10000 1.79 356 10:56 06.09.2022
389 Clear 30 1003 49 10000 1.79 336 09:49 06.09.2022
390 Clear 27 1003 51 10000 0.92 148 08:18 06.09.2022
391 Clear 26 1002 50 10000 1.38 98 06:22 06.09.2022
392 Clear 27 1003 52 10000 1.35 181 01:22 06.09.2022
393 Clear 27 1004 72 10000 1.89 129 22:57 05.09.2022
394 Clear 28 1003 54 10000 2.31 116 21:39 05.09.2022
395 Clear 28 1002 53 10000 2.06 98 20:32 05.09.2022
396 Clear 30 1002 47 10000 1.79 331 18:53 05.09.2022
397 Clear 30 1002 45 10000 0.45 340 18:26 05.09.2022
398 Clear 31 1002 41 10000 0.45 355 17:57 05.09.2022
399 Clear 32 1002 42 10000 3.58 341 15:54 05.09.2022
400 Clear 31 1004 57 10000 3.41 55 14:48 05.09.2022
401 Clear 31 1004 41 10000 1.79 8 12:56 05.09.2022
402 Clear 32 1004 36 10000 1.79 6 11:37 05.09.2022
403 Clear 28 1004 63 10000 1.98 78 08:58 05.09.2022
404 Clear 27 1002 45 10000 0.89 181 05:20 05.09.2022
405 Clear 28 1002 41 10000 1.41 63 01:35 05.09.2022
406 Clear 28 1002 41 10000 0.51 243 22:29 04.09.2022
407 Clear 29 1002 43 10000 0.51 243 21:59 04.09.2022
408 Clear 29 1001 41 10000 0.89 246 20:35 04.09.2022
409 Clouds 30 1002 45 10000 0.89 15 18:55 04.09.2022
410 Clouds 32 1002 35 10000 2.86 320 17:43 04.09.2022
411 Clouds 32 1018 40 10000 5.45 309 16:28 04.09.2022
412 Clouds 33 1018 42 10000 5.09 314 14:25 04.09.2022
413 Clouds 35 1000 19 10000 1.79 281 12:52 04.09.2022
414 Clouds 33 1001 25 10000 2.68 4 11:37 04.09.2022
415 Clouds 31 1002 42 10000 0.45 344 09:39 04.09.2022
416 Clouds 29 1001 46 10000 1.85 177 06:40 04.09.2022
417 Clouds 27 999 36 10000 2.1 179 03:18 04.09.2022
418 Clouds 29 1000 42 10000 0.45 131 23:33 03.09.2022
419 Clouds 29 999 41 10000 1.79 136 22:20 03.09.2022
420 Clouds 29 999 41 10000 0.89 73 21:22 03.09.2022
421 Clouds 29 999 41 10000 0.89 73 21:22 03.09.2022
422 Clouds 30 998 41 10000 0.89 340 18:57 03.09.2022
423 Clouds 32 998 37 10000 0.89 351 17:22 03.09.2022
424 Clouds 34 998 33 10000 0.89 352 16:20 03.09.2022
425 Clouds 33 998 33 10000 1.34 239 14:43 03.09.2022
426 Clouds 33 998 31 10000 1.79 15 13:50 03.09.2022
427 Clear 32 999 30 10000 1.79 279 11:34 03.09.2022
428 Clear 29 998 37 10000 0.45 11 09:37 03.09.2022
429 Clouds 26 998 43 10000 2.27 127 07:57 03.09.2022
430 Clouds 25 998 44 10000 0.45 25 04:56 03.09.2022
431 Clear 25 998 45 10000 0.45 82 03:29 03.09.2022
432 Clouds 26 998 47 10000 0.45 62 23:49 02.09.2022
433 Clouds 27 998 47 10000 0.89 60 22:34 02.09.2022
434 Clouds 27 998 47 10000 2.21 98 20:57 02.09.2022
435 Clouds 27 997 47 10000 1.8 61 20:23 02.09.2022
436 Clouds 28 998 57 10000 1.95 40 18:59 02.09.2022
437 Clouds 29 998 56 10000 2.27 17 18:26 02.09.2022
438 Clouds 31 997 37 10000 1.34 335 17:30 02.09.2022
439 Clouds 31 996 35 10000 3.58 8 17:30 02.09.2022
440 Clouds 30 994 31 10000 4.02 12 16:44 02.09.2022
441 Clouds 30 998 39 10000 2.68 26 13:51 02.09.2022
442 Clouds 30 998 43 10000 2.24 50 11:36 02.09.2022
443 Clear 28 998 56 10000 0.45 331 09:46 02.09.2022
444 Clear 27 998 61 10000 1.86 292 08:49 02.09.2022
445 Clear 25 996 50 10000 0.44 201 07:24 02.09.2022
446 Clear 25 996 49 10000 0.45 193 06:34 02.09.2022
447 Clear 26 996 48 10000 0.89 226 02:34 02.09.2022
448 Clear 27 996 45 10000 0.45 221 22:24 01.09.2022
449 Clear 27 996 44 10000 2.27 270 21:39 01.09.2022
450 Clear 27 996 44 10000 0.45 69 21:20 01.09.2022
451 Clear 27 996 46 10000 0.89 300 20:31 01.09.2022
452 Clear 28 996 60 10000 3.31 292 18:37 01.09.2022
453 Clear 30 996 50 10000 5.34 302 16:58 01.09.2022
454 Clear 30 996 46 10000 0.45 344 15:29 01.09.2022
455 Clear 30 996 49 10000 1.34 326 13:44 01.09.2022
456 Clear 30 995 39 10000 1.79 303 12:56 01.09.2022
457 Clear 31 995 33 10000 1.34 272 11:51 01.09.2022
458 Clear 31 995 30 10000 0.89 253 11:29 01.09.2022
459 Clear 30 996 35 10000 3.29 272 09:49 01.09.2022
460 Clouds 27 995 35 10000 0.45 6 07:50 01.09.2022
461 Clouds 26 995 38 10000 0.45 182 05:56 01.09.2022
462 Clouds 28 997 44 10000 0.45 55 01:31 01.09.2022
463 Clouds 28 997 47 10000 0.55 281 23:19 31.08.2022
464 Rain 28 998 45 10000 0.89 215 20:48 31.08.2022
465 Clouds 28 999 47 10000 1.5 332 19:23 31.08.2022
466 Clouds 30 998 39 10000 2.24 351 16:49 31.08.2022
467 Clouds 31 998 38 10000 1.79 8 15:39 31.08.2022
468 Clouds 32 998 39 10000 1.87 349 13:38 31.08.2022
469 Clouds 32 998 39 10000 1.87 349 13:38 31.08.2022
470 Clear 31 999 36 10000 0.89 11 12:18 31.08.2022
471 Clear 28 1000 54 10000 0.46 112 09:39 31.08.2022
472 Clear 26 1000 57 10000 0.81 144 08:31 31.08.2022
473 Clear 25 999 52 10000 0.89 173 02:59 31.08.2022
474 Clear 27 1001 50 10000 2.08 109 22:42 30.08.2022
475 Clear 27 1001 46 10000 1.46 91 21:31 30.08.2022
476 Clear 27 1000 48 10000 0.45 55 20:35 30.08.2022
477 Clear 31 997 30 10000 1.79 17 17:24 30.08.2022
478 Clear 31 1001 36 10000 1.34 14 14:19 30.08.2022
479 Clear 31 1002 39 10000 1.79 4 12:25 30.08.2022
480 Clear 29 1003 57 10000 2.45 67 11:20 30.08.2022
481 Clear 27 1003 62 10000 2.35 73 10:20 30.08.2022
482 Clear 24 1001 53 10000 0.89 69 06:49 30.08.2022
483 Clear 25 1001 49 10000 1.88 85 01:44 30.08.2022
484 Clear 26 1000 46 10000 0.45 67 22:44 29.08.2022
485 Clear 27 1000 46 10000 0.45 47 21:55 29.08.2022
486 Clear 27 1001 46 10000 0.89 51 21:23 29.08.2022
487 Clear 27 1001 46 10000 1.67 64 21:23 29.08.2022
488 Clear 27 1000 46 10000 0.45 26 19:41 29.08.2022
489 Clear 30 996 32 10000 1.79 16 17:42 29.08.2022
490 Clear 30 996 32 10000 0.89 9 17:24 29.08.2022
491 Clear 31 1000 37 10000 3.58 12 15:41 29.08.2022
492 Clear 31 1000 41 10000 0.89 11 13:58 29.08.2022
493 Clear 30 1000 42 10000 1.79 13 12:34 29.08.2022
494 Clear 30 1000 47 10000 1.79 6 10:49 29.08.2022
495 Clear 28 1001 65 10000 1.54 63 09:30 29.08.2022
496 Clear 25 1000 52 10000 1.35 89 07:35 29.08.2022
497 Clear 25 999 55 10000 0.45 68 02:34 29.08.2022
498 Clear 26 999 50 10000 0.87 138 23:50 28.08.2022
499 Clear 26 999 56 10000 1.66 126 21:57 28.08.2022
500 Clear 26 998 54 10000 1.66 126 21:31 28.08.2022
501 Rain 27 998 51 10000 0.45 213 20:24 28.08.2022
502 Rain 28 998 47 10000 0.45 356 18:38 28.08.2022
503 Clouds 29 997 45 10000 1.34 358 18:19 28.08.2022
504 Clouds 30 1014 59 10000 1.64 37 16:55 28.08.2022
505 Clouds 31 994 29 10000 1.79 341 15:42 28.08.2022
506 Clouds 31 998 43 10000 1.79 356 13:34 28.08.2022
507 Clear 30 998 37 10000 1.79 6 12:20 28.08.2022
508 Clear 30 999 51 10000 1.17 230 10:27 28.08.2022
509 Clear 29 998 58 10000 1.17 230 09:38 28.08.2022
510 Clear 27 998 63 10000 2.14 212 08:32 28.08.2022
511 Clouds 25 997 47 10000 1.37 182 07:34 28.08.2022
512 Clouds 26 996 50 10000 0.89 69 01:28 28.08.2022
513 Clouds 26 997 52 10000 0.45 162 00:20 28.08.2022
514 Clear 27 997 46 10000 0.56 215 22:31 27.08.2022
515 Clear 27 996 48 10000 1.12 96 20:53 27.08.2022
516 Clear 28 995 45 10000 0.45 340 19:38 27.08.2022
517 Clear 31 992 33 10000 0.89 355 16:37 27.08.2022
518 Clear 31 994 41 10000 1.34 2 15:31 27.08.2022
519 Clear 31 994 43 10000 0.89 9 14:35 27.08.2022
520 Clear 29 995 38 10000 0.45 24 12:22 27.08.2022
521 Clear 30 996 54 10000 0.89 349 10:33 27.08.2022
522 Clear 29 996 56 10000 1.3 310 09:40 27.08.2022
523 Clear 29 996 56 10000 1.3 310 09:40 27.08.2022
524 Clear 25 994 49 10000 0.45 153 06:55 27.08.2022
525 Clear 25 994 52 10000 1.19 282 02:31 27.08.2022
526 Clear 26 994 50 10000 0.54 196 23:53 26.08.2022
527 Clear 26 994 49 10000 0.71 70 22:24 26.08.2022
528 Clear 27 993 47 10000 0.45 69 20:25 26.08.2022
529 Clear 28 993 43 10000 0.89 8 18:59 26.08.2022
530 Clear 29 991 32 10000 2.68 7 16:46 26.08.2022
531 Clear 30 993 39 10000 1.79 356 15:27 26.08.2022
532 Clear 30 993 39 10000 1.79 356 15:27 26.08.2022
533 Clear 30 994 38 10000 1.34 344 13:46 26.08.2022
534 Clear 30 995 39 10000 2.68 17 12:35 26.08.2022
535 Clear 30 995 41 10000 1.79 6 11:22 26.08.2022
536 Clear 29 996 51 10000 0.45 347 10:25 26.08.2022
537 Clear 25 995 57 10000 0.41 227 06:50 26.08.2022
538 Clear 26 996 53 10000 0.45 185 01:22 26.08.2022
539 Clear 26 996 48 10000 0.89 80 23:29 25.08.2022
540 Clear 27 996 48 10000 0.45 52 21:26 25.08.2022
541 Clear 27 996 48 10000 0.89 45 20:21 25.08.2022
542 Clear 28 997 58 10000 0.45 337 18:49 25.08.2022
543 Clear 29 993 32 10000 1.34 29 17:32 25.08.2022
544 Clear 30 993 32 10000 2.68 33 16:50 25.08.2022
545 Clear 31 996 35 10000 1.79 23 15:39 25.08.2022
546 Clear 30 996 34 10000 1.79 7 14:33 25.08.2022
547 Clear 30 998 49 10000 2.94 31 11:53 25.08.2022
548 Clear 28 998 61 10000 2.86 38 10:46 25.08.2022
549 Clear 26 996 57 10000 0.45 350 08:54 25.08.2022
550 Clear 25 996 60 10000 0.92 18 05:20 25.08.2022
551 Clear 25 997 59 10000 1.13 295 00:59 25.08.2022
552 Clear 26 997 53 10000 0.45 243 23:26 24.08.2022
553 Clear 27 997 52 10000 0.45 183 22:22 24.08.2022
554 Clear 27 997 51 10000 1.14 304 21:34 24.08.2022
555 Clear 27 996 51 10000 0.68 15 20:32 24.08.2022
556 Clear 28 997 58 10000 2.3 347 18:57 24.08.2022
557 Clear 29 1013 58 10000 3.73 336 16:36 24.08.2022
558 Clear 29 1013 60 10000 4.11 335 15:52 24.08.2022
559 Clear 29 996 45 10000 2.24 21 13:33 24.08.2022
560 Clear 29 997 52 10000 2.69 323 11:29 24.08.2022
561 Clear 26 997 76 10000 2.07 302 09:35 24.08.2022
562 Clear 24 993 37 10000 0.89 155 07:50 24.08.2022
563 Clear 26 996 47 10000 0.45 180 02:36 24.08.2022
564 Clear 26 997 46 10000 0.89 53 23:32 23.08.2022
565 Clear 26 996 47 10000 0.62 33 22:32 23.08.2022
566 Clear 27 996 43 10000 1.08 7 21:29 23.08.2022
567 Clear 27 995 44 10000 2.05 13 20:20 23.08.2022
568 Clear 28 995 43 10000 1.34 22 18:46 23.08.2022
569 Clear 29 992 31 10000 4.02 11 17:49 23.08.2022
570 Clear 30 995 39 10000 1.34 2 16:54 23.08.2022
571 Clear 30 994 39 10000 4.02 29 15:39 23.08.2022
572 Clear 30 995 38 10000 2.24 8 13:29 23.08.2022
573 Clear 29 996 52 10000 1.34 1 11:32 23.08.2022
574 Clear 30 996 52 10000 1.84 15 10:48 23.08.2022
575 Clear 29 996 52 10000 0.89 320 10:24 23.08.2022
576 Clear 27 995 62 10000 0.74 27 08:52 23.08.2022
577 Clear 26 995 66 10000 0.52 14 08:21 23.08.2022
578 Clear 25 994 54 10000 0.89 168 07:38 23.08.2022
579 Clear 24 993 54 10000 0.89 151 06:28 23.08.2022
580 Clear 25 993 50 10000 0.89 45 04:45 23.08.2022
581 Clear 26 993 51 10000 0.45 253 00:28 23.08.2022
582 Clear 26 993 48 10000 1.18 20 23:37 22.08.2022
583 Clear 26 993 47 10000 1.1 351 22:45 22.08.2022
584 Clear 27 993 45 10000 0.89 44 21:45 22.08.2022
585 Clouds 28 992 44 10000 2.78 34 19:48 22.08.2022
586 Clouds 29 992 42 10000 1.79 1 19:18 22.08.2022
587 Clouds 30 989 15 10000 1.34 21 17:37 22.08.2022
588 Clouds 30 992 41 10000 2.68 8 15:39 22.08.2022
589 Clouds 30 991 37 10000 2.68 38 14:32 22.08.2022
590 Clouds 29 993 54 10000 0.45 1 10:49 22.08.2022
591 Clear 26 993 62 10000 1.02 147 08:21 22.08.2022
592 Clear 25 992 46 10000 0.45 266 04:30 22.08.2022
593 Clouds 26 993 46 10000 1.74 272 00:49 22.08.2022
594 Clouds 26 994 46 10000 1.88 282 00:26 22.08.2022
595 Clouds 26 994 47 10000 0.89 208 22:53 21.08.2022
596 Clouds 27 994 46 10000 1.84 284 21:36 21.08.2022
597 Clear 27 994 47 10000 0.45 340 20:57 21.08.2022
598 Clear 27 995 61 10000 3.24 341 19:27 21.08.2022
599 Clear 30 995 55 10000 1.79 357 17:39 21.08.2022
600 Clear 30 994 43 10000 2.24 14 15:58 21.08.2022
601 Clear 30 995 55 10000 2.68 4 15:28 21.08.2022
602 Clear 29 996 55 10000 1.79 353 13:58 21.08.2022
603 Clear 30 996 53 10000 3.13 17 13:34 21.08.2022
604 Clear 29 996 56 10000 1.34 18 11:56 21.08.2022
605 Clear 28 997 55 10000 1.9 326 09:32 21.08.2022
606 Clear 28 997 53 10000 2.08 307 08:56 21.08.2022
607 Clear 28 997 54 10000 2.08 307 08:38 21.08.2022
608 Clear 26 996 42 10000 0.45 180 07:28 21.08.2022
609 Clear 26 996 45 10000 0.45 190 04:18 21.08.2022
610 Clear 26 997 46 10000 2.42 227 00:31 21.08.2022
611 Clear 26 997 43 10000 0.45 250 22:59 20.08.2022
612 Clear 27 997 43 10000 1.63 270 21:43 20.08.2022
613 Clear 27 998 58 10000 1.44 303 20:44 20.08.2022
614 Clear 28 997 44 10000 0.89 265 19:41 20.08.2022
615 Clear 29 998 53 10000 3.76 331 18:35 20.08.2022
616 Clear 29 1014 59 10000 3.76 331 17:58 20.08.2022
617 Clear 31 997 34 10000 2.24 359 17:18 20.08.2022
618 Clear 30 998 44 10000 1.34 7 15:51 20.08.2022
619 Clouds 30 998 53 10000 0.45 328 13:39 20.08.2022
620 Clouds 29 999 51 10000 0.89 331 11:53 20.08.2022
621 Clouds 28 999 54 10000 1.79 342 10:36 20.08.2022
622 Clouds 28 997 45 10000 1.79 29 08:53 20.08.2022
623 Clouds 26 996 46 10000 0.45 74 05:59 20.08.2022
624 Clouds 27 996 45 10000 0.89 200 03:57 20.08.2022
625 Clear 27 996 43 10000 0.89 200 00:51 20.08.2022
626 Clear 27 997 43 10000 0.89 214 23:19 19.08.2022
627 Clear 27 997 42 10000 0.89 240 22:35 19.08.2022
628 Clear 27 997 40 10000 0.89 227 20:29 19.08.2022
629 Clear 28 997 49 10000 4.33 292 18:51 19.08.2022
630 Clear 31 997 43 10000 0.45 29 15:51 19.08.2022
631 Clouds 30 998 47 10000 3.13 22 13:40 19.08.2022
632 Clouds 31 997 53 10000 0.45 356 11:39 19.08.2022
633 Clouds 31 998 52 10000 0.45 285 10:29 19.08.2022
634 Clouds 29 996 51 10000 2.47 307 07:21 19.08.2022
635 Clouds 30 994 49 10000 0.89 287 02:23 19.08.2022
636 Clouds 32 992 38 10000 0.89 354 00:32 19.08.2022
637 Clouds 33 992 29 10000 0.89 360 23:48 18.08.2022
638 Clouds 33 990 13 10000 0.89 69 22:52 18.08.2022
639 Clouds 34 993 20 10000 0.45 28 22:18 18.08.2022
640 Clouds 33 993 37 10000 1.34 220 21:40 18.08.2022
641 Clouds 33 993 36 10000 0.45 228 20:32 18.08.2022
642 Clear 35 993 38 10000 0.89 359 19:32 18.08.2022
643 Clouds 37 992 27 10000 1.79 21 18:19 18.08.2022
644 Clouds 43 1009 34 10000 2.07 180 17:19 18.08.2022
645 Clouds 43 1010 33 10000 3.2 172 15:27 18.08.2022
646 Clouds 44 1010 32 10000 2.73 169 14:20 18.08.2022
647 Clouds 42 990 6 10000 1.79 115 13:40 18.08.2022
648 Clouds 40 1011 17 10000 0.75 164 12:27 18.08.2022
649 Clouds 37 994 17 10000 0.89 347 10:25 18.08.2022
650 Clouds 35 995 23 10000 0.45 25 09:42 18.08.2022
651 Clouds 31 995 36 10000 0.89 30 07:26 18.08.2022
652 Clouds 34 1010 39 10000 2.75 193 05:30 18.08.2022
653 Clear 31 996 28 10000 0.89 353 00:23 18.08.2022
654 Clear 33 996 25 10000 2.89 123 22:20 17.08.2022
655 Clouds 33 996 27 10000 3.3 119 20:21 17.08.2022
656 Clouds 33 996 27 10000 3.3 119 20:21 17.08.2022
657 Clear 34 995 26 10000 3.26 118 19:33 17.08.2022
658 Clear 34 995 26 10000 3.26 118 19:33 17.08.2022
659 Clear 36 995 23 10000 1.34 313 18:21 17.08.2022
660 Clear 37 995 20 10000 1.34 316 16:50 17.08.2022
661 Clouds 37 996 21 10000 0.89 327 15:31 17.08.2022
662 Clouds 37 996 20 10000 0.89 34 14:18 17.08.2022
663 Clouds 35 997 22 10000 1.79 337 11:45 17.08.2022
664 Clouds 34 996 29 10000 0.89 312 10:25 17.08.2022
665 Clouds 34 996 29 10000 0.89 312 10:25 17.08.2022
666 Clouds 31 997 39 10000 0.89 329 08:25 17.08.2022
667 Clouds 29 996 40 10000 0.45 59 05:22 17.08.2022
668 Clouds 31 997 36 10000 2.35 135 00:46 17.08.2022
669 Clouds 31 997 37 10000 0.45 90 22:53 16.08.2022
670 Clouds 31 996 38 10000 2.1 127 20:59 16.08.2022
671 Clouds 32 996 36 10000 1.14 78 19:55 16.08.2022
672 Clouds 33 996 35 10000 0.89 339 19:22 16.08.2022
673 Clouds 35 994 27 10000 1.34 331 17:54 16.08.2022
674 Clouds 36 995 29 10000 1.34 323 16:46 16.08.2022
675 Clouds 35 997 40 10000 2.11 276 15:44 16.08.2022
676 Clouds 35 997 42 10000 2.54 303 14:54 16.08.2022
677 Clouds 34 1012 45 10000 2.54 303 14:36 16.08.2022
678 Clouds 34 996 40 10000 0.4 320 11:40 16.08.2022
679 Clouds 34 996 40 10000 0.41 319 11:40 16.08.2022
680 Clouds 33 996 34 10000 1.88 191 10:20 16.08.2022
681 Clouds 31 1012 53 10000 3.09 149 08:49 16.08.2022
682 Clouds 30 1012 45 10000 3.1 193 08:20 16.08.2022
683 Clouds 33 1011 58 10000 1.95 264 05:52 16.08.2022
684 Clouds 31 997 26 10000 5.81 209 23:37 15.08.2022
685 Clouds 29 994 45 10000 0.45 99 22:21 15.08.2022
686 Clouds 29 994 45 10000 0.45 150 21:48 15.08.2022
687 Clouds 30 995 43 10000 0.89 8 20:32 15.08.2022
688 Clouds 32 994 31 10000 1.34 14 19:19 15.08.2022
689 Clouds 33 992 32 10000 0.45 312 17:59 15.08.2022
690 Clouds 33 993 30 10000 1.7 56 16:25 15.08.2022
691 Clear 33 993 30 10000 0.89 351 15:27 15.08.2022
692 Clear 32 995 39 10000 0.82 38 13:45 15.08.2022
693 Clear 32 994 24 10000 1.33 104 10:38 15.08.2022
694 Clear 31 994 26 10000 1.79 134 09:40 15.08.2022
695 Clear 26 994 29 10000 0.89 54 07:32 15.08.2022
696 Clear 26 994 33 10000 0.89 54 04:34 15.08.2022
697 Clear 26 994 41 10000 0.89 54 00:22 15.08.2022
698 Clear 28 995 46 10000 1.79 360 22:29 14.08.2022
699 Clear 28 994 45 10000 1.79 360 21:37 14.08.2022
700 Clouds 29 994 46 10000 0.89 345 19:47 14.08.2022
701 Clouds 30 994 41 10000 0.89 357 18:53 14.08.2022
702 Clouds 31 994 37 10000 3.13 360 18:18 14.08.2022
703 Clouds 31 994 38 10000 2.68 35 16:50 14.08.2022
704 Clouds 31 994 43 10000 2.24 39 15:48 14.08.2022
705 Clear 30 995 61 10000 2.68 15 14:24 14.08.2022
706 Clear 30 995 63 10000 1.34 10 13:49 14.08.2022
707 Clear 31 996 61 10000 2.24 5 13:19 14.08.2022
708 Clear 31 996 52 10000 0.45 283 11:56 14.08.2022
709 Clear 29 996 60 10000 0.45 332 10:40 14.08.2022
710 Clear 29 996 59 10000 2.19 295 08:50 14.08.2022
711 Clear 26 994 45 10000 0.89 204 06:21 14.08.2022
712 Clear 27 995 39 10000 0.45 125 02:47 14.08.2022
713 Clear 28 996 49 10000 0.89 163 23:53 13.08.2022
714 Clear 28 996 47 10000 1.81 271 22:52 13.08.2022
715 Clear 29 995 49 10000 0.89 314 20:58 13.08.2022
716 Clear 29 996 63 10000 0.45 340 20:31 13.08.2022
717 Clear 30 996 57 10000 0.45 324 19:29 13.08.2022
718 Clear 31 1011 61 10000 3.45 304 17:42 13.08.2022
719 Clear 32 1012 52 10000 4.05 303 15:26 13.08.2022
720 Clear 32 996 44 10000 3.22 314 14:27 13.08.2022
721 Clear 32 997 47 10000 3.7 303 13:39 13.08.2022
722 Clear 32 996 31 10000 2.24 271 11:52 13.08.2022
723 Clear 30 998 48 10000 2.27 255 10:21 13.08.2022
724 Clear 28 998 59 10000 2.09 251 08:45 13.08.2022
725 Clear 26 996 52 10000 2.24 240 05:22 13.08.2022
726 Clear 27 998 54 10000 0.89 188 23:58 12.08.2022
727 Clear 27 997 48 10000 0.45 168 21:46 12.08.2022
728 Clear 27 997 47 10000 0.45 170 20:53 12.08.2022
729 Clear 28 996 42 10000 2.91 306 19:40 12.08.2022
730 Clear 29 997 49 10000 0.45 283 18:46 12.08.2022
731 Clear 30 995 33 10000 2.24 10 17:25 12.08.2022
732 Clear 30 998 48 10000 0.89 4 15:52 12.08.2022
733 Clear 30 997 42 10000 1.79 234 14:41 12.08.2022
734 Rain 27 998 45 10000 0.89 319 12:55 12.08.2022
735 Clouds 28 998 40 10000 2.68 16 10:45 12.08.2022
736 Clouds 22 1013 62 10000 1.77 276 07:50 12.08.2022
737 Rain 23 1013 69 10000 1.72 265 06:39 12.08.2022
738 Clear 26 995 32 10000 0.89 56 03:20 12.08.2022
739 Clear 26 995 42 10000 0.72 69 00:27 12.08.2022
740 Clear 26 996 41 10000 0.72 69 23:35 11.08.2022
741 Clear 26 996 40 10000 0.45 186 22:27 11.08.2022
742 Clear 27 995 40 10000 0.45 49 21:43 11.08.2022
743 Clear 27 996 41 10000 0.45 90 20:59 11.08.2022
744 Clouds 28 996 41 10000 1.78 32 20:20 11.08.2022
745 Clouds 29 995 40 10000 0.89 11 19:32 11.08.2022
746 Clouds 30 995 37 10000 1.79 332 17:48 11.08.2022
747 Clouds 30 995 37 10000 2.24 12 16:37 11.08.2022
748 Clouds 31 996 31 10000 1.34 64 15:24 11.08.2022
749 Clear 32 996 30 10000 1.79 344 13:37 11.08.2022
750 Clear 30 997 15 10000 1.34 11 10:58 11.08.2022
751 Clear 26 1014 71 10000 0.91 84 07:47 11.08.2022
752 Clear 25 996 25 10000 0.45 174 03:54 11.08.2022
753 Clear 26 996 37 10000 0.45 62 01:33 11.08.2022
754 Clouds 26 996 37 10000 0.89 205 22:36 10.08.2022
755 Clouds 26 996 36 10000 0.45 14 21:34 10.08.2022
756 Clouds 26 996 44 10000 2.28 96 20:55 10.08.2022
757 Clouds 28 996 42 10000 0.45 264 19:32 10.08.2022
758 Clouds 28 1014 65 10000 2.15 142 18:42 10.08.2022
759 Clouds 26 1014 70 10000 1.24 143 16:55 10.08.2022
760 Clouds 28 1014 65 10000 3.47 0 13:36 10.08.2022
761 Rain 28 1014 51 10000 2.89 352 12:46 10.08.2022
762 Clear 30 996 41 10000 0.45 346 09:55 10.08.2022
763 Clear 29 1015 59 10000 0.99 269 08:35 10.08.2022
764 Clear 27 996 44 10000 1.08 259 07:20 10.08.2022
765 Clear 27 996 40 10000 0.97 263 03:32 10.08.2022
766 Clear 28 996 36 10000 0.45 152 23:58 09.08.2022
767 Clear 28 997 34 10000 1.64 218 23:25 09.08.2022
768 Clear 28 996 35 10000 1.59 164 21:37 09.08.2022
769 Clear 28 996 33 10000 1.84 119 20:40 09.08.2022
770 Clear 30 996 35 10000 2.09 360 18:45 09.08.2022
771 Clear 31 996 35 10000 1.79 19 17:31 09.08.2022
772 Clear 30 996 35 10000 2.68 323 16:42 09.08.2022
773 Clear 30 996 33 10000 3.51 321 15:59 09.08.2022
774 Clear 33 996 38 10000 4.45 336 14:29 09.08.2022
775 Clear 32 997 41 10000 2.68 5 10:45 09.08.2022
776 Clear 29 1015 70 10000 0.17 323 08:51 09.08.2022
777 Clear 28 1015 70 10000 0.37 157 07:54 09.08.2022
778 Clear 26 995 48 10000 0.42 334 04:31 09.08.2022
779 Clear 28 996 46 10000 0.45 35 23:58 08.08.2022
780 Clear 29 996 46 10000 0.45 90 22:58 08.08.2022
781 Clear 29 996 46 10000 1.35 53 22:35 08.08.2022
782 Clear 29 996 45 10000 2.12 32 21:30 08.08.2022
783 Clear 30 995 45 10000 0.89 336 19:57 08.08.2022
784 Clear 30 995 44 10000 0.89 7 19:31 08.08.2022
785 Clear 32 994 42 10000 1.79 39 17:47 08.08.2022
786 Clear 33 995 39 10000 3.58 23 15:46 08.08.2022
787 Clouds 33 994 37 10000 3.58 6 14:45 08.08.2022
788 Clear 32 995 37 10000 1.79 2 12:30 08.08.2022
789 Clear 32 995 41 10000 0.89 346 10:25 08.08.2022
790 Clear 27 1013 70 10000 1.61 93 07:49 08.08.2022
791 Clear 27 1012 69 10000 0.88 105 03:39 08.08.2022
792 Clear 28 995 45 10000 1.69 62 23:28 07.08.2022
793 Clear 29 995 44 10000 0.45 43 21:41 07.08.2022
794 Clear 29 994 44 10000 0.45 41 20:55 07.08.2022
795 Clear 29 994 43 10000 0.45 36 20:18 07.08.2022
796 Clear 30 994 42 10000 1.34 18 19:51 07.08.2022
797 Clear 31 993 40 10000 0.45 11 18:41 07.08.2022
798 Clear 32 993 39 10000 1.79 24 17:21 07.08.2022
799 Clear 33 993 38 10000 0.45 35 16:41 07.08.2022
800 Clear 33 993 37 10000 3.13 23 15:26 07.08.2022
801 Clear 33 994 36 10000 3.58 30 13:47 07.08.2022
802 Clear 32 995 37 10000 1.34 1 12:38 07.08.2022
803 Clear 31 995 43 10000 0.89 13 10:42 07.08.2022
804 Clear 29 1013 68 10000 1.37 28 09:35 07.08.2022
805 Clear 27 994 39 10000 0.45 150 04:33 07.08.2022
806 Clear 27 1013 46 10000 0.99 307 01:59 07.08.2022
807 Clear 28 995 31 10000 0.45 180 22:33 06.08.2022
808 Clear 28 995 32 10000 1.43 85 21:48 06.08.2022
809 Clear 31 1013 43 10000 1.74 56 19:43 06.08.2022
810 Clear 32 1013 35 10000 2.29 11 18:35 06.08.2022
811 Clear 33 995 19 10000 2.68 360 17:45 06.08.2022
812 Clear 35 995 15 10000 2.24 22 16:19 06.08.2022
813 Clear 34 996 18 10000 2.24 20 13:51 06.08.2022
814 Clear 34 996 21 10000 1.79 16 12:27 06.08.2022
815 Clear 32 1014 33 10000 2.22 37 10:53 06.08.2022
816 Clear 31 1014 34 10000 1.81 61 09:31 06.08.2022
817 Clear 27 1013 38 10000 0.83 146 04:38 06.08.2022
818 Clear 28 996 27 10000 0.45 120 00:46 06.08.2022
819 Clear 28 996 34 10000 0.45 259 22:35 05.08.2022
820 Clear 29 996 35 10000 1.89 90 20:50 05.08.2022
821 Clear 32 996 33 10000 1.79 2 18:56 05.08.2022
822 Clear 32 996 31 10000 0.45 360 18:38 05.08.2022
823 Clear 33 996 29 10000 4.92 2 16:52 05.08.2022
824 Clear 34 997 29 10000 0.89 5 15:25 05.08.2022
825 Clear 33 997 32 10000 2.24 14 14:38 05.08.2022
826 Clear 33 998 30 10000 3.58 3 13:38 05.08.2022
827 Clear 33 998 30 10000 3.58 4 13:18 05.08.2022
828 Clear 32 998 34 10000 1.79 2 11:55 05.08.2022
829 Clear 29 1015 58 10000 1.03 338 09:18 05.08.2022
830 Clear 28 1015 51 10000 1.25 281 07:57 05.08.2022
831 Clear 27 997 35 10000 0.45 173 04:48 05.08.2022
832 Clear 28 998 41 10000 2.09 117 23:49 04.08.2022
833 Clear 29 997 41 10000 0.89 168 21:37 04.08.2022
834 Clear 29 997 41 10000 1.74 81 21:18 04.08.2022
835 Clear 29 997 41 10000 1.74 81 20:38 04.08.2022
836 Clear 32 997 38 10000 0.89 348 19:00 04.08.2022
837 Clear 32 997 36 10000 3.13 351 18:34 04.08.2022
838 Clear 35 997 32 10000 1.34 342 15:59 04.08.2022
839 Clear 33 997 31 10000 1.79 347 13:32 04.08.2022
840 Clear 33 998 32 10000 1.79 345 11:42 04.08.2022
841 Clear 32 998 36 10000 1.79 340 10:24 04.08.2022
842 Clear 28 1015 48 10000 1.61 54 07:49 04.08.2022
843 Clear 27 996 35 10000 0.91 157 03:33 04.08.2022
844 Clear 27 997 41 10000 0.45 158 01:42 04.08.2022
845 Clear 28 997 43 10000 1.29 76 23:41 03.08.2022
846 Clear 28 997 43 10000 0.45 181 21:34 03.08.2022
847 Clear 30 996 47 10000 2.36 33 20:22 03.08.2022
848 Clear 31 996 42 10000 1.34 349 19:28 03.08.2022
849 Clear 33 996 36 10000 0.89 12 17:20 03.08.2022
850 Clear 34 997 33 10000 2.68 22 16:23 03.08.2022
851 Clear 33 997 37 10000 2.68 354 14:23 03.08.2022
852 Clear 33 997 30 10000 2.24 7 11:47 03.08.2022
853 Clear 28 1015 48 10000 1.15 3 07:55 03.08.2022
854 Clear 27 996 38 10000 0.89 310 04:46 03.08.2022
855 Clear 27 996 40 10000 1.45 147 03:26 03.08.2022
856 Clear 27 996 40 10000 1.76 104 01:18 03.08.2022
857 Clear 27 997 34 10000 0.45 52 22:53 02.08.2022
858 Clear 28 996 37 10000 0.89 63 21:53 02.08.2022
859 Clear 29 996 36 10000 2.2 50 20:37 02.08.2022
860 Clear 31 996 31 10000 1.79 13 18:48 02.08.2022
861 Clear 32 996 30 10000 0.89 13 16:21 02.08.2022
862 Clear 32 996 41 10000 0.89 22 11:45 02.08.2022
863 Clear 28 1014 64 10000 2.5 30 09:18 02.08.2022
864 Clear 28 1014 64 10000 1.81 40 07:54 02.08.2022
865 Clear 27 996 35 10000 1.59 57 06:43 02.08.2022
866 Clear 26 996 40 10000 0.45 173 04:55 02.08.2022
867 Clear 28 996 38 10000 0.45 47 23:51 01.08.2022
868 Clear 28 996 36 10000 0.89 61 22:25 01.08.2022
869 Clear 29 996 36 10000 1.75 54 20:53 01.08.2022
870 Clear 30 995 41 10000 1.79 14 19:32 01.08.2022
871 Clear 31 996 38 10000 0.89 16 18:42 01.08.2022
872 Clear 32 996 43 10000 1.79 33 16:54 01.08.2022
873 Clear 32 996 41 10000 1.79 24 16:28 01.08.2022
874 Clear 32 996 41 10000 2.68 356 15:30 01.08.2022
875 Clear 32 996 43 10000 0.89 14 14:43 01.08.2022
876 Clear 31 996 46 10000 1.79 27 12:51 01.08.2022
877 Clear 31 996 40 10000 0.89 360 10:22 01.08.2022
878 Clear 28 1014 67 10000 1.47 27 08:34 01.08.2022
879 Clear 26 996 48 10000 0.45 24 06:21 01.08.2022
880 Clear 26 996 47 10000 0.91 7 04:20 01.08.2022
881 Clear 27 996 47 10000 1.31 45 00:49 01.08.2022
882 Clear 28 997 46 10000 0.45 45 22:41 31.07.2022
883 Clear 29 997 45 10000 1.83 57 21:33 31.07.2022
884 Clear 29 996 44 10000 0.89 35 19:58 31.07.2022
885 Clear 30 996 42 10000 0.89 35 18:36 31.07.2022
886 Clear 32 996 38 10000 1.34 27 15:54 31.07.2022
887 Clear 32 996 41 10000 2.68 22 13:51 31.07.2022
888 Clear 32 997 41 10000 1.34 338 12:29 31.07.2022
889 Clear 32 997 51 10000 0.89 8 10:22 31.07.2022
890 Clear 29 1014 64 10000 1.52 70 08:18 31.07.2022
891 Clear 26 997 57 10000 0.45 175 03:49 31.07.2022
892 Clear 27 997 58 10000 0.89 139 00:23 31.07.2022
893 Clear 28 997 57 10000 0.89 51 22:19 30.07.2022
894 Clear 28 997 57 10000 0.45 45 22:19 30.07.2022
895 Clear 28 997 57 10000 0.95 127 21:50 30.07.2022
896 Clear 28 997 58 10000 0.45 200 21:20 30.07.2022
897 Clear 30 997 54 10000 1.34 349 19:59 30.07.2022
898 Clear 31 996 52 10000 1.79 354 19:20 30.07.2022
899 Clear 33 996 48 10000 2.24 15 17:48 30.07.2022
900 Clear 34 996 44 10000 3.13 28 16:21 30.07.2022
901 Clear 33 997 45 10000 1.34 352 15:27 30.07.2022
902 Clear 33 997 50 10000 3.58 346 13:21 30.07.2022
903 Clear 32 997 50 10000 1.79 7 12:20 30.07.2022
904 Clear 32 998 52 10000 1.79 7 10:44 30.07.2022
905 Clear 32 997 53 10000 1.34 360 09:59 30.07.2022
906 Clear 31 997 54 10000 1.34 360 08:44 30.07.2022
907 Clear 27 996 56 10000 1.18 129 06:50 30.07.2022
908 Clear 27 997 55 10000 0.45 41 02:33 30.07.2022
909 Clear 27 998 56 10000 2.68 119 23:30 29.07.2022
910 Clear 28 997 56 10000 0.45 276 21:36 29.07.2022
911 Clear 29 997 55 10000 2.43 99 20:50 29.07.2022
912 Clear 31 997 53 10000 1.79 339 19:34 29.07.2022
913 Clear 33 997 49 10000 1.79 358 16:44 29.07.2022
914 Clear 33 997 50 10000 0.89 353 14:38 29.07.2022
915 Clear 32 998 51 10000 1.79 360 12:41 29.07.2022
916 Clear 29 1015 66 10000 2.11 92 08:52 29.07.2022
917 Clear 29 1015 65 10000 2.4 110 08:22 29.07.2022
918 Clear 26 996 54 10000 0.89 174 05:19 29.07.2022
919 Clear 28 997 54 10000 2.98 106 23:59 28.07.2022
920 Clear 28 996 53 10000 2.78 105 21:39 28.07.2022
921 Clear 29 996 53 10000 2.86 95 20:52 28.07.2022
922 Clear 30 995 52 10000 0.45 297 20:18 28.07.2022
923 Clear 31 995 50 10000 0.89 344 19:40 28.07.2022
924 Clear 33 995 46 10000 0.89 328 18:19 28.07.2022
925 Clear 33 995 46 10000 2.68 6 17:36 28.07.2022
926 Clear 34 995 43 10000 2.68 354 16:41 28.07.2022
927 Clear 33 995 46 10000 1.79 352 13:57 28.07.2022
928 Clear 32 995 48 10000 2.68 20 12:41 28.07.2022
929 Clear 31 995 54 10000 0.89 6 09:21 28.07.2022
930 Clear 28 993 49 10000 1.69 94 05:41 28.07.2022
931 Clear 27 1011 63 10000 1.35 96 05:21 28.07.2022
932 Clear 28 994 55 10000 0.89 45 00:28 28.07.2022
933 Clear 28 993 55 10000 3.17 73 21:58 27.07.2022
934 Clear 30 992 54 10000 0.89 327 20:19 27.07.2022
935 Clear 32 991 53 10000 0.45 328 19:30 27.07.2022
936 Clear 34 992 43 10000 1.79 353 16:33 27.07.2022
937 Clear 34 992 42 10000 1.79 309 15:51 27.07.2022
938 Clear 34 993 44 10000 1.79 358 14:42 27.07.2022
939 Clear 34 993 45 10000 1.34 308 13:57 27.07.2022
940 Clear 33 994 47 10000 1.92 18 11:18 27.07.2022
941 Clear 27 1010 54 10000 1.2 124 07:53 27.07.2022
942 Clear 27 993 53 10000 0.45 169 05:18 27.07.2022
943 Clear 27 994 56 10000 0.45 127 23:41 26.07.2022
944 Clear 28 994 58 10000 1.35 141 22:20 26.07.2022
945 Clear 28 994 58 10000 1.74 114 21:19 26.07.2022
946 Clear 30 994 55 10000 0.89 352 19:39 26.07.2022
947 Clear 32 994 53 10000 0.89 356 18:41 26.07.2022
948 Clear 32 994 53 10000 1.79 356 17:55 26.07.2022
949 Clear 33 995 50 10000 1.79 356 15:47 26.07.2022
950 Clear 33 995 49 10000 2.68 2 14:43 26.07.2022
951 Clear 33 995 52 10000 2.24 5 12:35 26.07.2022
952 Clear 32 995 53 10000 1.79 5 10:35 26.07.2022
953 Clear 30 995 56 10000 0.45 317 08:29 26.07.2022
954 Clear 27 996 56 10000 0.45 161 03:58 26.07.2022
955 Clear 28 996 52 10000 0.45 70 00:22 26.07.2022
956 Clear 28 997 55 10000 1.6 118 22:43 25.07.2022
957 Clear 28 997 55 10000 1.65 110 22:21 25.07.2022
958 Clear 29 996 55 10000 0.45 172 21:31 25.07.2022
959 Clear 29 996 54 10000 1.53 84 20:39 25.07.2022
960 Clear 31 996 50 10000 2.68 347 19:26 25.07.2022
961 Clear 33 996 46 10000 2.24 333 18:18 25.07.2022
962 Clear 33 996 46 10000 2.24 333 18:18 25.07.2022
963 Clear 34 997 42 10000 1.34 347 17:24 25.07.2022
964 Clear 35 998 38 10000 2.24 1 14:19 25.07.2022
965 Clear 35 999 37 10000 0.45 12 10:56 25.07.2022
966 Clear 30 1016 48 10000 1.63 96 08:22 25.07.2022
967 Clear 29 999 42 10000 0.45 124 01:49 25.07.2022
968 Clear 29 1000 41 10000 0.45 132 23:49 24.07.2022
969 Clear 28 1000 46 10000 0.45 128 22:51 24.07.2022
970 Clear 28 1000 47 10000 1.71 111 22:24 24.07.2022
971 Clear 29 999 48 10000 1.31 89 21:18 24.07.2022
972 Clear 29 999 47 10000 1.31 89 20:45 24.07.2022
973 Clear 31 1016 56 10000 1.42 73 19:37 24.07.2022
974 Clear 33 999 44 10000 2.24 322 18:27 24.07.2022
975 Clear 34 1000 44 10000 2.68 349 15:57 24.07.2022
976 Clear 34 1000 43 10000 1.79 20 15:33 24.07.2022
977 Clear 35 1001 40 10000 1.79 326 13:51 24.07.2022
978 Clear 35 1001 38 10000 1.79 355 12:50 24.07.2022
979 Clear 34 1001 40 10000 4.02 355 11:35 24.07.2022
980 Clear 34 1001 43 10000 1.79 320 10:48 24.07.2022
981 Clear 30 1018 58 10000 1.73 65 08:30 24.07.2022
982 Clear 28 1017 63 10000 1.49 76 07:46 24.07.2022
983 Clear 27 1000 45 10000 1.21 106 03:57 24.07.2022
984 Clear 29 1001 48 10000 0.45 81 23:48 23.07.2022
985 Clear 29 1001 51 10000 1.4 94 20:59 23.07.2022
986 Clear 31 1000 49 10000 0.89 355 19:44 23.07.2022
987 Clear 33 1000 48 10000 0.89 337 18:50 23.07.2022
988 Clear 33 1000 44 10000 1.34 349 17:28 23.07.2022
989 Clear 34 1001 44 10000 2.24 13 16:31 23.07.2022
990 Clear 34 1001 42 10000 1.34 8 15:22 23.07.2022
991 Clear 35 1001 43 10000 3.58 354 14:56 23.07.2022
992 Clear 35 1001 42 10000 1.79 11 14:26 23.07.2022
993 Clear 34 1001 41 10000 1.34 359 12:44 23.07.2022
994 Clear 34 1001 45 10000 0.45 5 10:45 23.07.2022
995 Clear 30 1017 56 10000 2.29 76 09:56 23.07.2022
996 Clear 29 1017 58 10000 2.14 87 08:31 23.07.2022
997 Clear 28 1000 35 10000 0.45 148 03:39 23.07.2022
998 Clear 28 1001 42 10000 0.45 118 00:49 23.07.2022
999 Clear 29 1001 46 10000 0.45 161 22:32 22.07.2022
1000 Clear 29 1000 43 10000 2.06 101 20:51 22.07.2022
1001 Clear 31 1000 46 10000 2.24 337 19:34 22.07.2022
1002 Clear 33 1000 38 10000 1.79 11 18:28 22.07.2022
1003 Clear 33 1000 46 10000 3.58 1 16:49 22.07.2022
1004 Clear 33 1001 46 10000 1.79 13 14:51 22.07.2022
1005 Clear 33 1001 41 10000 0.89 4 11:22 22.07.2022
1006 Clear 30 1017 54 10000 2.02 71 09:25 22.07.2022
1007 Clear 29 1017 58 10000 1.8 90 08:32 22.07.2022
1008 Clear 27 999 38 10000 1.35 125 05:19 22.07.2022
1009 Clear 27 1000 46 10000 0.45 184 00:48 22.07.2022
1010 Clear 27 1000 50 10000 0.45 45 22:43 21.07.2022
1011 Clear 28 1000 51 10000 1.68 83 21:33 21.07.2022
1012 Clear 31 1000 48 10000 2.24 360 19:27 21.07.2022
1013 Clear 33 1000 45 10000 1.79 355 17:41 21.07.2022
1014 Clear 33 1000 45 10000 1.79 30 17:19 21.07.2022
1015 Clear 33 1000 45 10000 1.79 30 17:19 21.07.2022
1016 Clear 33 1001 46 10000 1.79 31 15:22 21.07.2022
1017 Clear 34 1001 44 10000 2.24 20 14:37 21.07.2022
1018 Clear 33 1001 45 10000 0.89 18 12:28 21.07.2022
1019 Clear 32 1001 48 10000 1.34 333 11:19 21.07.2022
1020 Clear 30 1018 66 10000 1.61 44 09:38 21.07.2022
1021 Clear 29 1018 65 10000 1.41 71 08:52 21.07.2022
1022 Clear 28 1018 63 10000 1.39 100 07:50 21.07.2022
1023 Clear 27 1000 41 10000 0.89 95 05:47 21.07.2022
1024 Clear 27 1001 51 10000 1.61 103 00:48 21.07.2022
1025 Clear 28 1001 52 10000 0.92 93 22:22 20.07.2022
1026 Clear 29 1001 53 10000 0.99 79 20:59 20.07.2022
1027 Clear 31 1000 52 10000 0.45 309 19:53 20.07.2022
1028 Clear 31 1000 51 10000 1.79 339 19:25 20.07.2022
1029 Clear 32 1000 50 10000 0.89 3 18:51 20.07.2022
1030 Clear 33 1000 50 10000 2.24 8 18:22 20.07.2022
1031 Clear 34 1001 49 10000 2.24 8 16:45 20.07.2022
1032 Clear 34 1001 48 10000 1.79 8 15:32 20.07.2022
1033 Clear 35 1001 42 10000 1.79 360 14:20 20.07.2022
1034 Clear 33 1002 43 10000 0.89 10 11:37 20.07.2022
1035 Clear 32 1001 43 10000 1.79 315 09:43 20.07.2022
1036 Clear 27 1000 47 10000 0.45 128 04:36 20.07.2022
1037 Clear 27 1001 52 10000 0.45 82 00:52 20.07.2022
1038 Clear 27 1001 53 10000 0.45 154 23:41 19.07.2022
1039 Clear 28 1001 52 10000 0.45 180 22:33 19.07.2022
1040 Clear 28 1000 52 10000 0.12 183 21:46 19.07.2022
1041 Clear 30 1000 51 10000 0.28 57 20:48 19.07.2022
1042 Clear 32 1000 48 10000 2.24 360 19:21 19.07.2022
1043 Clear 33 1000 47 10000 1.79 360 18:34 19.07.2022
1044 Clear 33 1000 44 10000 1.34 320 17:49 19.07.2022
1045 Clear 34 1001 31 10000 0.89 339 14:58 19.07.2022
1046 Clear 33 1002 31 10000 4.02 356 11:58 19.07.2022
1047 Clear 33 1002 30 10000 2.68 360 11:31 19.07.2022
1048 Clear 29 1018 58 10000 1.75 347 09:44 19.07.2022
1049 Clear 32 1002 31 10000 1.3 342 08:42 19.07.2022
1050 Clear 27 1018 64 10000 0.68 300 07:19 19.07.2022
1051 Clear 29 1001 21 10000 0.86 290 05:48 19.07.2022
1052 Clear 29 1000 18 10000 0.84 242 04:58 19.07.2022
1053 Clear 28 1001 38 10000 0.45 80 01:58 19.07.2022
1054 Clear 29 1001 36 10000 0.45 185 23:50 18.07.2022
1055 Clear 28 1001 33 10000 0.89 224 23:19 18.07.2022
1056 Clear 29 1002 34 10000 2.75 83 22:23 18.07.2022
1057 Clear 30 1001 23 10000 2.89 61 20:57 18.07.2022
1058 Clear 32 1001 30 10000 1.87 27 19:52 18.07.2022
1059 Clear 33 1001 32 10000 0.89 34 18:24 18.07.2022
1060 Clear 33 1001 34 10000 2.68 292 16:28 18.07.2022
1061 Clear 33 1002 34 10000 2.68 315 15:19 18.07.2022
1062 Clear 34 1002 31 10000 1.79 12 13:31 18.07.2022
1063 Clear 33 1002 30 10000 1.34 360 11:31 18.07.2022
1064 Clear 32 1002 32 10000 0.45 353 09:54 18.07.2022
1065 Clear 28 1018 53 10000 1.92 100 07:49 18.07.2022
1066 Clear 27 1002 26 10000 1.71 113 03:32 18.07.2022
1067 Clear 27 1003 34 10000 0.45 186 22:56 17.07.2022
1068 Clear 27 1003 35 10000 0.45 184 22:29 17.07.2022
1069 Clear 27 1002 35 10000 3 100 21:39 17.07.2022
1070 Clear 28 1002 34 10000 2.53 95 20:46 17.07.2022
1071 Clear 30 1002 33 10000 0.89 320 19:50 17.07.2022
1072 Clear 31 1002 32 10000 0.89 311 19:21 17.07.2022
1073 Clear 32 1002 29 10000 1.34 326 17:43 17.07.2022
1074 Clear 33 1002 27 10000 1.79 344 17:25 17.07.2022
1075 Clear 33 1002 25 10000 1.79 334 16:32 17.07.2022
1076 Clear 33 1002 28 10000 1.34 346 15:49 17.07.2022
1077 Clear 33 1002 30 10000 1.79 357 13:51 17.07.2022
1078 Clear 32 1002 29 10000 1.79 339 12:43 17.07.2022
1079 Clear 32 1002 31 10000 1.79 5 10:20 17.07.2022
1080 Clear 26 1017 71 10000 1.87 88 06:59 17.07.2022
1081 Clear 26 1001 24 10000 0.45 72 02:35 17.07.2022
1082 Clear 26 1001 36 10000 0.89 53 23:28 16.07.2022
1083 Clear 26 1001 35 10000 0.45 60 22:33 16.07.2022
1084 Clear 28 1001 34 10000 2.13 94 20:40 16.07.2022
1085 Clear 30 1000 31 10000 1.34 334 18:58 16.07.2022
1086 Clear 31 1000 30 10000 2.68 350 17:47 16.07.2022
1087 Clear 31 1000 30 10000 4.47 360 15:54 16.07.2022
1088 Clear 32 1001 28 10000 0.89 360 13:26 16.07.2022
1089 Clear 30 1001 32 10000 1.34 357 10:29 16.07.2022
1090 Clear 28 1017 62 10000 2.29 83 09:26 16.07.2022
1091 Clear 28 1017 63 10000 2.3 83 08:41 16.07.2022
1092 Clear 25 1016 66 10000 2.04 109 07:23 16.07.2022
1093 Clear 25 1000 34 10000 0.45 133 03:38 16.07.2022
1094 Clear 25 1000 23 10000 2.22 117 00:48 16.07.2022
1095 Clear 26 1000 36 10000 2.42 112 22:57 15.07.2022
1096 Clear 26 1000 23 10000 0.45 64 22:26 15.07.2022
1097 Clear 27 1000 23 10000 0.45 10 20:44 15.07.2022
1098 Clear 29 999 31 10000 3.13 19 19:35 15.07.2022
1099 Clear 31 999 27 10000 3.58 342 18:23 15.07.2022
1100 Clear 30 1015 47 10000 3.57 43 17:19 15.07.2022
1101 Clear 32 1000 20 10000 4.02 358 14:24 15.07.2022
1102 Clear 31 1001 21 10000 2.68 9 12:38 15.07.2022
1103 Clear 31 1001 25 10000 2.24 14 10:52 15.07.2022
1104 Clear 26 1016 63 10000 1.04 73 07:55 15.07.2022
1105 Clear 23 1000 32 10000 1.24 107 04:54 15.07.2022
1106 Clear 24 1001 20 10000 1.32 82 00:43 15.07.2022
1107 Clear 25 1002 21 10000 1.34 48 23:25 14.07.2022
1108 Clear 26 1002 19 10000 0.89 47 22:32 14.07.2022
1109 Clear 27 1001 28 10000 2.06 62 21:41 14.07.2022
1110 Clear 27 1002 28 10000 0.45 35 21:22 14.07.2022
1111 Clear 27 1001 27 10000 0.45 24 20:43 14.07.2022
1112 Clear 28 1001 26 10000 0.89 34 20:19 14.07.2022
1113 Clear 30 1002 22 10000 3.13 37 18:38 14.07.2022
1114 Clear 31 1003 21 10000 0.89 5 16:20 14.07.2022
1115 Clear 32 1003 21 10000 3.13 11 15:26 14.07.2022
1116 Clear 32 1004 23 10000 0.89 10 13:52 14.07.2022
1117 Clear 31 1004 26 10000 0.89 21 12:39 14.07.2022
1118 Clear 30 1004 31 10000 2.68 355 11:28 14.07.2022
1119 Clear 30 1004 30 10000 0.89 360 10:58 14.07.2022
1120 Clear 28 1020 56 10000 1.52 31 09:29 14.07.2022
1121 Clear 24 1004 27 10000 0.45 167 05:18 14.07.2022
1122 Clear 25 1005 36 10000 0.45 50 01:22 14.07.2022
1123 Clear 25 1005 36 10000 2.04 102 00:52 14.07.2022
1124 Clear 26 1005 35 10000 0.45 180 22:32 13.07.2022
1125 Clear 26 1005 34 10000 2.09 106 21:51 13.07.2022
1126 Clear 27 1004 33 10000 2.19 88 20:44 13.07.2022
1127 Clear 29 1004 31 10000 2.24 360 19:19 13.07.2022
1128 Clear 30 1004 30 10000 0.89 5 17:35 13.07.2022
1129 Clear 31 1004 29 10000 2.24 3 16:23 13.07.2022
1130 Clear 31 1004 29 10000 3.58 17 15:24 13.07.2022
1131 Clear 31 1005 24 10000 3.58 21 12:39 13.07.2022
1132 Clear 31 1005 29 10000 1.79 352 10:45 13.07.2022
1133 Clear 30 1005 32 10000 0.89 347 09:57 13.07.2022
1134 Clear 29 1005 34 10000 1.34 30 09:21 13.07.2022
1135 Clear 25 1004 31 10000 0.45 63 06:19 13.07.2022
1136 Clear 26 1004 32 10000 0.45 97 01:27 13.07.2022
1137 Clear 26 1005 34 10000 0.89 10 23:42 12.07.2022
1138 Clear 26 1005 22 10000 0.45 190 21:55 12.07.2022
1139 Clear 27 1005 22 10000 0.88 58 21:29 12.07.2022
1140 Clear 28 1004 22 10000 0.89 324 20:41 12.07.2022
1141 Clear 30 1004 31 10000 1.34 3 19:26 12.07.2022
1142 Clear 30 1004 31 10000 4.02 9 17:49 12.07.2022
1143 Clear 32 1005 28 10000 0.89 11 16:20 12.07.2022
1144 Clear 31 1006 24 10000 3.58 26 14:31 12.07.2022
1145 Clear 31 1006 28 10000 1.79 28 12:48 12.07.2022
1146 Clear 31 1006 22 10000 1.79 3 11:26 12.07.2022
1147 Clear 29 1020 44 10000 1.4 320 09:42 12.07.2022
1148 Clear 28 1021 46 10000 0.88 245 08:24 12.07.2022
1149 Clear 25 1020 58 10000 1.21 204 06:59 12.07.2022
1150 Clear 24 1004 31 10000 0.89 135 05:42 12.07.2022
1151 Clear 25 1004 31 10000 1.3 156 02:52 12.07.2022
1152 Clear 26 1003 30 10000 2.05 131 23:30 11.07.2022
1153 Clear 26 1003 21 10000 0.45 50 22:31 11.07.2022
1154 Clear 27 1002 21 10000 0.45 39 20:41 11.07.2022
1155 Clear 28 1002 28 10000 0.45 23 19:50 11.07.2022
1156 Clear 30 1002 26 10000 1.79 7 18:32 11.07.2022
1157 Clear 30 1001 25 10000 2.68 6 17:53 11.07.2022
1158 Clear 30 1001 25 10000 0.89 360 16:22 11.07.2022
1159 Clear 31 1002 24 10000 3.58 12 14:49 11.07.2022
1160 Clear 30 1002 24 10000 0.89 9 12:18 11.07.2022
1161 Clear 29 1002 26 10000 2.24 348 10:42 11.07.2022
1162 Clear 29 1002 28 10000 1.79 359 09:54 11.07.2022
1163 Clear 28 1001 29 10000 1.34 39 08:36 11.07.2022
1164 Clear 25 1016 61 10000 2.07 83 07:32 11.07.2022
1165 Clear 24 1000 33 10000 0.56 122 00:47 11.07.2022
1166 Clear 25 1000 33 10000 0.45 54 23:48 10.07.2022
1167 Clear 25 1000 34 10000 0.89 52 22:34 10.07.2022
1168 Clear 26 999 34 10000 0.89 17 20:55 10.07.2022
1169 Clear 27 998 33 10000 0.89 350 20:00 10.07.2022
1170 Clear 28 998 32 10000 1.79 354 19:21 10.07.2022
1171 Clear 28 1014 59 10000 4.12 328 17:51 10.07.2022
1172 Clear 28 1014 57 10000 4.58 327 16:59 10.07.2022
1173 Clear 29 1015 55 10000 4.7 328 16:20 10.07.2022
1174 Clear 29 1015 54 10000 4.49 327 14:44 10.07.2022
1175 Clear 30 1000 27 10000 1.79 25 13:18 10.07.2022
1176 Clear 30 1000 28 10000 0.89 16 11:36 10.07.2022
1177 Clear 27 1016 57 10000 2.06 350 09:44 10.07.2022
1178 Clear 27 1000 31 10000 1.34 219 08:43 10.07.2022
1179 Clear 25 1000 34 10000 1 72 06:36 10.07.2022
1180 Clear 25 1001 21 10000 2.61 43 23:47 09.07.2022
1181 Clear 25 1002 30 10000 0.89 57 22:26 09.07.2022
1182 Clear 26 1001 31 10000 0.89 45 21:41 09.07.2022
1183 Clear 27 1001 28 10000 2.68 38 19:44 09.07.2022
1184 Clear 29 1001 26 10000 1.79 7 18:26 09.07.2022
1185 Clear 29 1001 26 10000 1.79 7 18:26 09.07.2022
1186 Clear 29 1001 27 10000 3.13 28 17:27 09.07.2022
1187 Clear 29 1002 27 10000 1.79 357 16:25 09.07.2022
1188 Clear 29 1002 25 10000 2.24 13 15:38 09.07.2022
1189 Clear 29 1002 25 10000 1.34 353 14:22 09.07.2022
1190 Clear 29 1002 26 10000 1.79 24 13:48 09.07.2022
1191 Clear 29 1003 25 10000 1.79 35 11:54 09.07.2022
1192 Clouds 28 1002 26 10000 2.24 28 10:27 09.07.2022
1193 Clouds 28 1002 28 10000 2.24 22 09:56 09.07.2022
1194 Clouds 26 1002 29 10000 0.89 33 07:44 09.07.2022
1195 Clouds 25 1001 31 10000 5.64 24 04:45 09.07.2022
1196 Clear 26 1001 32 10000 0.45 40 23:43 08.07.2022
1197 Clear 26 1001 35 10000 0.89 38 22:34 08.07.2022
1198 Clear 27 1000 35 10000 3.94 352 21:27 08.07.2022
1199 Clear 27 1000 34 10000 1.34 8 20:38 08.07.2022
1200 Clear 27 999 36 10000 2.68 347 19:48 08.07.2022
1201 Clear 30 999 33 10000 2.68 342 17:56 08.07.2022
1202 Clear 30 999 34 10000 1.79 355 16:37 08.07.2022
1203 Clear 30 999 32 10000 1.79 45 14:51 08.07.2022
1204 Clear 31 999 30 10000 1.34 29 12:42 08.07.2022
1205 Clear 31 999 31 10000 0.89 38 11:24 08.07.2022
1206 Clear 32 999 31 10000 1.34 26 10:21 08.07.2022
1207 Clear 28 1014 64 10000 2.92 297 08:24 08.07.2022
1208 Clear 26 1014 72 10000 2.57 298 06:47 08.07.2022
1209 Clouds 28 1000 40 10000 0.89 227 01:19 08.07.2022
1210 Clouds 28 1000 39 10000 0.89 31 22:57 07.07.2022
1211 Clouds 28 1000 39 10000 1.98 319 22:57 07.07.2022
1212 Clear 30 999 39 10000 0.89 232 21:57 07.07.2022
1213 Clear 30 1014 68 10000 0.48 19 19:53 07.07.2022
1214 Clear 33 1013 38 10000 2.01 2 18:18 07.07.2022
1215 Clear 35 999 17 10000 0.89 356 16:43 07.07.2022
1216 Clouds 34 1000 26 10000 3.58 359 14:32 07.07.2022
1217 Clear 35 1000 17 10000 0.89 348 12:53 07.07.2022
1218 Clear 34 1001 25 10000 1.79 347 12:23 07.07.2022
1219 Clear 34 1001 24 10000 1.79 342 11:35 07.07.2022
1220 Clear 35 1000 23 10000 0.89 343 10:47 07.07.2022
1221 Clear 32 1015 43 10000 2.23 50 10:29 07.07.2022
1222 Clear 32 1015 43 10000 2.23 50 09:52 07.07.2022
1223 Clouds 29 1000 20 10000 0.45 270 06:32 07.07.2022
1224 Clear 29 1001 14 10000 0.45 112 00:31 07.07.2022
1225 Clear 29 1001 14 10000 0.45 54 23:36 06.07.2022
1226 Clear 28 1001 30 10000 1.48 124 23:18 06.07.2022
1227 Clear 28 1001 32 10000 1.48 124 22:52 06.07.2022
1228 Clear 28 1001 33 10000 1.48 124 22:33 06.07.2022
1229 Clear 28 1001 33 10000 1.48 124 22:33 06.07.2022
1230 Clear 30 1000 34 10000 1.4 68 20:30 06.07.2022
1231 Clear 30 1000 34 10000 1.4 68 20:30 06.07.2022
1232 Clear 32 1000 33 10000 0.89 290 19:32 06.07.2022
1233 Clear 35 1000 26 10000 1.34 1 17:22 06.07.2022
1234 Clear 35 1001 29 10000 0.89 35 15:58 06.07.2022
1235 Clear 37 1001 27 10000 0.89 26 12:57 06.07.2022
1236 Clear 36 1001 26 10000 1.79 20 12:21 06.07.2022
1237 Clear 36 1002 26 10000 1.79 33 11:44 06.07.2022
1238 Clear 31 1016 54 10000 1.95 16 09:50 06.07.2022
1239 Clear 28 1016 57 10000 1.01 77 07:44 06.07.2022
1240 Clear 27 1016 60 10000 1.11 110 07:19 06.07.2022
1241 Clear 29 1001 25 10000 0.45 110 00:38 06.07.2022
1242 Clear 28 1001 33 10000 0.05 34 22:43 05.07.2022
1243 Clear 29 1001 37 10000 0.61 267 20:57 05.07.2022
1244 Clear 30 1001 36 10000 0.45 263 20:33 05.07.2022
1245 Clear 31 1001 34 10000 1.79 350 19:39 05.07.2022
1246 Clear 34 1001 28 10000 1.34 329 18:23 05.07.2022
1247 Clear 35 1001 27 10000 1.79 307 17:39 05.07.2022
1248 Clear 34 1001 29 10000 2.24 347 16:36 05.07.2022
1249 Clear 36 1001 23 10000 3.13 4 14:55 05.07.2022
1250 Clear 36 1001 27 10000 1.34 2 13:36 05.07.2022
1251 Clear 36 1002 28 10000 1.34 3 12:41 05.07.2022
1252 Clear 35 1002 33 10000 1.79 354 10:46 05.07.2022
1253 Clear 37 1002 1 10000 1.34 255 09:58 05.07.2022
1254 Clear 29 1002 41 10000 1.35 7 08:23 05.07.2022
1255 Clear 27 1015 67 10000 0.51 117 07:20 05.07.2022
1256 Clear 28 1000 22 10000 0.45 32 04:40 05.07.2022
1257 Clear 28 1001 34 10000 0.45 101 01:54 05.07.2022
1258 Clear 28 1001 43 10000 0.89 89 23:40 04.07.2022
1259 Clear 28 1001 44 10000 1.61 96 22:58 04.07.2022
1260 Clear 28 1001 46 10000 1.28 72 22:19 04.07.2022
1261 Clear 29 1000 45 10000 0.45 201 20:58 04.07.2022
1262 Clear 30 1000 44 10000 0.93 52 20:37 04.07.2022
1263 Clear 30 1000 42 10000 0.89 321 20:18 04.07.2022
1264 Clear 31 1000 42 10000 0.89 340 19:43 04.07.2022
1265 Clear 32 1000 42 10000 0.89 334 19:24 04.07.2022
1266 Clear 33 1000 40 10000 0.89 347 17:23 04.07.2022
1267 Clear 33 1001 41 10000 3.58 4 15:41 04.07.2022
1268 Clear 33 1001 41 10000 1.79 344 14:21 04.07.2022
1269 Clear 32 1002 42 10000 2.24 339 12:56 04.07.2022
1270 Clear 32 1002 35 10000 2.68 347 11:32 04.07.2022
1271 Clear 33 1002 33 10000 0.45 344 10:33 04.07.2022
1272 Clear 31 1001 38 10000 0.89 348 09:33 04.07.2022
1273 Clear 27 1001 41 10000 0.45 347 06:42 04.07.2022
1274 Clear 27 1001 46 10000 0.45 313 02:59 04.07.2022
1275 Clouds 27 1002 49 10000 0.45 80 23:53 03.07.2022
1276 Clouds 27 1002 49 10000 0.45 52 23:53 03.07.2022
1277 Clouds 28 1002 48 10000 0.79 39 22:48 03.07.2022
1278 Clouds 29 1001 45 10000 1.26 76 20:46 03.07.2022
1279 Clouds 30 1001 43 10000 0.89 285 19:59 03.07.2022
1280 Clouds 31 1001 42 10000 0.89 298 19:25 03.07.2022
1281 Clouds 31 1001 41 10000 1.79 340 18:31 03.07.2022
1282 Clouds 33 1001 39 10000 1.79 297 17:42 03.07.2022
1283 Clouds 33 1002 38 10000 1.34 332 15:28 03.07.2022
1284 Clouds 32 1002 40 10000 1.79 352 14:54 03.07.2022
1285 Clear 33 1002 42 10000 2.68 349 13:50 03.07.2022
1286 Clear 32 1003 42 10000 1.79 340 12:51 03.07.2022
1287 Clear 32 1003 42 10000 0.89 3 12:21 03.07.2022
1288 Clear 31 1003 43 10000 1.34 355 10:55 03.07.2022
1289 Clear 31 1003 43 10000 0.89 11 10:36 03.07.2022
1290 Clouds 27 1017 74 10000 1.8 49 08:21 03.07.2022
1291 Clouds 26 1016 76 10000 1.95 64 07:34 03.07.2022
1292 Clear 26 1002 52 10000 0.88 59 01:32 03.07.2022
1293 Clear 27 1002 53 10000 2.25 84 23:38 02.07.2022
1294 Clear 27 1002 50 10000 2.25 66 22:31 02.07.2022
1295 Clear 28 1002 48 10000 1 16 20:37 02.07.2022
1296 Clear 30 1002 44 10000 0.89 342 19:50 02.07.2022
1297 Clear 31 1002 44 10000 0.89 357 19:19 02.07.2022
1298 Clear 32 1002 39 10000 3.13 338 17:40 02.07.2022
1299 Clear 33 1002 38 10000 0.89 356 16:35 02.07.2022
1300 Clear 33 1002 35 10000 1.34 338 13:51 02.07.2022
1301 Clear 32 1004 43 10000 1.79 2 11:51 02.07.2022
1302 Clear 33 1003 36 10000 1.34 18 10:52 02.07.2022
1303 Clear 33 1003 34 10000 1.34 7 10:32 02.07.2022
1304 Clear 30 1003 56 10000 1.89 22 08:39 02.07.2022
1305 Clear 29 1003 62 10000 1.08 23 08:19 02.07.2022
1306 Clear 28 1002 53 10000 0.45 46 05:59 02.07.2022
1307 Clouds 29 1002 46 10000 0.89 210 00:47 02.07.2022
1308 Clouds 30 1002 44 10000 0.89 221 23:31 01.07.2022
1309 Clouds 30 1001 43 10000 3.21 123 22:40 01.07.2022
1310 Clouds 30 1002 45 10000 2.56 101 21:40 01.07.2022
1311 Clouds 30 1001 45 10000 0.89 17 20:59 01.07.2022
1312 Clouds 31 1001 44 10000 1.87 146 20:37 01.07.2022
1313 Clouds 31 1001 44 10000 0.89 278 19:41 01.07.2022
1314 Clouds 34 1002 39 10000 0.89 352 17:45 01.07.2022
1315 Clouds 35 999 35 10000 1.79 345 15:21 01.07.2022
1316 Clouds 35 1000 39 10000 3.2 65 13:54 01.07.2022
1317 Clouds 35 1000 39 10000 1.25 16 13:54 01.07.2022
1318 Clouds 33 1002 42 10000 0.89 18 11:49 01.07.2022
1319 Clouds 30 1001 62 10000 0.45 258 10:19 01.07.2022
1320 Clouds 31 1001 42 10000 2.63 64 08:46 01.07.2022
1321 Clear 27 1000 57 10000 0.89 86 03:18 01.07.2022
1322 Clouds 27 1000 61 10000 2.48 87 00:25 01.07.2022
1323 Clouds 28 1000 59 10000 0.71 152 22:56 30.06.2022
1324 Clouds 28 1000 56 10000 1.5 231 22:33 30.06.2022
1325 Clouds 28 1000 55 10000 1.5 231 21:59 30.06.2022
1326 Clouds 28 999 54 10000 1.5 231 21:35 30.06.2022
1327 Clear 29 999 48 10000 0.89 332 20:29 30.06.2022
1328 Clear 30 999 46 10000 1.92 100 19:54 30.06.2022
1329 Clear 30 998 44 10000 0.89 331 19:19 30.06.2022
1330 Clear 31 999 46 10000 2.04 92 18:42 30.06.2022
1331 Clear 33 999 42 10000 1.34 341 17:38 30.06.2022
1332 Clear 33 999 42 10000 2.24 360 16:48 30.06.2022
1333 Clear 33 999 43 10000 1.34 350 15:38 30.06.2022
1334 Clear 31 999 57 10000 2.53 62 13:34 30.06.2022
1335 Clear 32 999 45 10000 0.45 6 12:35 30.06.2022
1336 Clear 31 999 45 10000 2.68 32 11:37 30.06.2022
1337 Clear 30 1000 57 10000 2.04 96 09:54 30.06.2022
1338 Clear 29 1000 59 10000 2.04 96 09:34 30.06.2022
1339 Clouds 27 1001 65 10000 4.66 104 08:18 30.06.2022
1340 Clouds 26 999 73 10000 3.29 99 06:21 30.06.2022
1341 Clear 26 1000 59 10000 0.45 47 01:42 30.06.2022
1342 Clear 27 998 53 10000 0.45 136 23:34 29.06.2022
1343 Clear 27 999 47 10000 0.45 262 22:40 29.06.2022
1344 Clear 28 999 55 10000 0.45 356 21:39 29.06.2022
1345 Clouds 27 998 45 10000 2.24 37 20:34 29.06.2022
1346 Clouds 29 999 54 10000 1.79 349 19:39 29.06.2022
1347 Clouds 30 1000 53 10000 1.79 359 17:54 29.06.2022
1348 Clouds 32 1000 48 10000 3.13 352 16:43 29.06.2022
1349 Clear 31 1000 49 10000 2.24 341 15:26 29.06.2022
1350 Clear 31 1001 54 10000 2.68 5 12:49 29.06.2022
1351 Clear 30 1001 57 10000 4.47 6 11:47 29.06.2022
1352 Clear 30 1001 57 10000 1.79 350 09:34 29.06.2022
1353 Clear 28 1001 70 10000 1.2 360 08:42 29.06.2022
1354 Clouds 26 1000 64 10000 0.89 332 05:19 29.06.2022
1355 Clouds 28 1001 60 10000 1.8 268 01:48 29.06.2022
1356 Clouds 27 1001 60 10000 0.45 285 00:37 29.06.2022
1357 Clear 28 1001 59 10000 1.35 262 23:26 28.06.2022
1358 Clear 28 1000 54 10000 1.35 262 22:48 28.06.2022
1359 Clear 29 1001 57 10000 0.68 280 21:55 28.06.2022
1360 Clear 28 1001 59 10000 0.45 1 21:33 28.06.2022
1361 Clear 27 1015 78 10000 1.77 308 20:51 28.06.2022
1362 Clouds 28 1014 71 10000 2.74 306 19:43 28.06.2022
1363 Clouds 32 1001 36 10000 3.59 302 19:23 28.06.2022
1364 Clouds 33 1000 36 10000 0.89 345 17:49 28.06.2022
1365 Clouds 34 1002 36 10000 0.89 2 16:29 28.06.2022
1366 Clouds 35 1001 31 10000 1.79 345 15:53 28.06.2022
1367 Clear 35 1002 26 10000 0.89 328 14:22 28.06.2022
1368 Clear 35 1002 27 10000 1.79 347 13:55 28.06.2022
1369 Clear 34 1002 29 10000 1.79 340 13:26 28.06.2022
1370 Clear 33 1003 34 10000 1.79 5 11:37 28.06.2022
1371 Clear 34 1002 29 10000 1.34 296 09:46 28.06.2022
1372 Clear 33 1001 21 10000 0.73 344 08:46 28.06.2022
1373 Clear 31 1001 18 10000 2.14 270 07:58 28.06.2022
1374 Clear 30 1001 22 10000 2.99 257 07:19 28.06.2022
1375 Clear 31 1001 19 10000 2.38 136 01:36 28.06.2022
1376 Clear 32 1002 15 10000 1.8 130 23:45 27.06.2022
1377 Clear 33 1002 15 10000 1.97 135 22:55 27.06.2022
1378 Clear 34 1002 16 10000 0.45 80 21:38 27.06.2022
1379 Clear 34 1002 16 10000 0.45 80 21:38 27.06.2022
1380 Clear 34 1001 17 10000 2.66 142 20:55 27.06.2022
1381 Clouds 34 1015 24 10000 2.11 128 19:44 27.06.2022
1382 Clouds 36 1015 27 10000 1.92 117 18:40 27.06.2022
1383 Clouds 37 1002 20 10000 3.58 1 17:24 27.06.2022
1384 Clouds 37 1002 22 10000 2.68 345 15:43 27.06.2022
1385 Clouds 39 1002 17 10000 0.89 346 13:44 27.06.2022
1386 Clouds 36 1015 22 10000 0.87 355 12:57 27.06.2022
1387 Clouds 36 1002 12 10000 0.89 8 10:51 27.06.2022
1388 Clouds 35 1003 11 10000 1.16 139 09:43 27.06.2022
1389 Clouds 33 1002 16 10000 2.03 161 08:38 27.06.2022
1390 Clear 30 1002 17 10000 1.64 185 07:39 27.06.2022
1391 Clear 29 1001 15 10000 2.72 242 04:40 27.06.2022
1392 Clear 30 1001 21 10000 2.37 137 01:20 27.06.2022
1393 Clear 31 1001 24 10000 0.45 209 22:47 26.06.2022
1394 Clear 32 1001 25 10000 0.45 140 21:23 26.06.2022
1395 Clear 34 1008 19 10000 0.45 270 19:59 26.06.2022
1396 Clear 36 1000 23 10000 0.45 304 18:33 26.06.2022
1397 Clear 36 1001 21 10000 0.89 340 17:37 26.06.2022
1398 Clear 37 1001 10 10000 1.79 360 15:31 26.06.2022
1399 Clear 35 1001 20 10000 0.89 346 13:55 26.06.2022
1400 Clear 35 1001 24 10000 1.79 311 13:23 26.06.2022
1401 Clear 35 1002 19 10000 0.89 335 11:31 26.06.2022
1402 Clear 34 1002 20 10000 1.12 68 10:30 26.06.2022
1403 Clear 32 1002 29 10000 0.55 119 09:45 26.06.2022
1404 Clear 31 1001 25 10000 0.89 253 07:47 26.06.2022
1405 Clear 27 1001 42 10000 2.58 123 04:29 26.06.2022
1406 Clear 28 1001 39 10000 0.45 84 00:36 26.06.2022
1407 Clear 28 1001 41 10000 0.45 84 00:18 26.06.2022
1408 Clear 29 1001 41 10000 3.09 127 23:25 25.06.2022
1409 Clear 29 1001 40 10000 0.89 174 22:28 25.06.2022
1410 Clear 29 1001 40 10000 0.89 174 21:52 25.06.2022
1411 Clear 30 1001 37 10000 2.16 135 21:20 25.06.2022
1412 Clear 31 1001 27 10000 2.16 135 20:32 25.06.2022
1413 Clear 32 1001 23 10000 0.45 58 19:55 25.06.2022
1414 Clear 34 1000 22 10000 0.89 306 18:22 25.06.2022
1415 Clear 35 1000 19 10000 1.79 94 17:26 25.06.2022
1416 Clear 34 1001 23 10000 3.58 40 16:25 25.06.2022
1417 Clear 35 1002 23 10000 1.79 359 14:28 25.06.2022
1418 Clear 32 1003 32 10000 1.79 17 12:43 25.06.2022
1419 Clear 32 1003 39 10000 1.34 355 11:39 25.06.2022
1420 Clear 29 1004 58 10000 1.95 95 09:24 25.06.2022
1421 Clear 30 1003 47 10000 0.45 321 08:48 25.06.2022
1422 Clear 27 1003 65 10000 2.25 106 08:20 25.06.2022
1423 Clouds 26 1002 45 10000 2.31 92 06:26 25.06.2022
1424 Clear 27 1002 59 10000 0.89 53 00:44 25.06.2022
1425 Clear 27 1002 61 10000 2.23 127 23:32 24.06.2022
1426 Clear 28 1002 59 10000 2.2 76 22:22 24.06.2022
1427 Clear 29 1002 55 10000 0.89 42 21:22 24.06.2022
1428 Clear 30 1001 47 10000 2.38 101 20:23 24.06.2022
1429 Clear 32 1001 36 10000 0.45 326 19:24 24.06.2022
1430 Clear 31 1014 53 10000 2.22 94 18:50 24.06.2022
1431 Clear 32 1014 48 10000 2.22 94 18:31 24.06.2022
1432 Clear 32 1014 35 10000 1.91 77 17:47 24.06.2022
1433 Clear 34 1001 17 10000 4.47 338 16:34 24.06.2022
1434 Clear 35 1002 23 10000 1.79 346 14:30 24.06.2022
1435 Clear 33 1002 26 10000 0.89 345 13:58 24.06.2022
1436 Clear 33 1002 30 10000 0.89 334 12:28 24.06.2022
1437 Clear 33 1003 36 10000 1.34 309 11:40 24.06.2022
1438 Clear 32 1003 40 10000 1.79 358 10:34 24.06.2022
1439 Clear 29 1003 66 10000 0.89 10 09:41 24.06.2022
1440 Clear 28 1003 65 10000 1.34 5 08:53 24.06.2022
1441 Clear 28 1002 47 10000 1.34 199 07:39 24.06.2022
1442 Clear 26 1001 48 10000 0.89 1 06:42 24.06.2022
1443 Clear 27 1001 48 10000 0.89 162 06:18 24.06.2022
1444 Clear 27 1001 49 10000 1.72 201 03:47 24.06.2022
1445 Clear 28 1002 35 10000 0.45 42 23:19 23.06.2022
1446 Clear 29 1002 41 10000 0.45 67 22:40 23.06.2022
1447 Clouds 28 1002 51 10000 2.48 133 20:59 23.06.2022
1448 Clouds 29 1002 47 10000 2.48 133 20:35 23.06.2022
1449 Clouds 31 1002 31 10000 0.45 319 19:40 23.06.2022
1450 Clouds 33 1002 34 10000 0.89 326 17:53 23.06.2022
1451 Clouds 34 1002 33 10000 1.34 347 17:33 23.06.2022
1452 Clouds 34 1002 34 10000 3.13 342 15:57 23.06.2022
1453 Clouds 34 1003 22 10000 1.79 351 15:24 23.06.2022
1454 Clear 36 1002 17 10000 1.34 28 13:46 23.06.2022
1455 Clear 34 1003 22 10000 0.89 343 11:27 23.06.2022
1456 Clear 33 1003 27 10000 1.34 358 10:40 23.06.2022
1457 Clear 32 1003 34 10000 0.91 333 09:18 23.06.2022
1458 Clear 27 1001 35 10000 0.45 115 03:51 23.06.2022
1459 Clouds 28 1001 34 10000 0.45 62 00:27 23.06.2022
1460 Clouds 28 1001 34 10000 0.47 179 23:43 22.06.2022
1461 Clouds 28 1001 43 10000 1.58 163 22:50 22.06.2022
1462 Clouds 28 1001 43 10000 0.45 28 21:27 22.06.2022
1463 Clouds 29 1001 42 10000 0.45 56 20:48 22.06.2022
1464 Clear 30 1001 39 10000 2 123 19:58 22.06.2022
1465 Clear 30 1014 49 10000 1.72 103 18:50 22.06.2022
1466 Clear 33 1001 28 10000 0.89 323 17:29 22.06.2022
1467 Clear 34 1001 28 10000 0.89 346 16:37 22.06.2022
1468 Clear 33 1001 26 10000 1.79 339 15:27 22.06.2022
1469 Clear 33 1002 28 10000 0.89 15 14:40 22.06.2022
1470 Clear 32 1002 26 10000 2.68 333 13:45 22.06.2022
1471 Clear 33 1002 26 10000 2.68 5 13:23 22.06.2022
1472 Clear 34 1002 23 10000 1.79 349 11:50 22.06.2022
1473 Clear 35 1002 22 10000 0.45 349 10:58 22.06.2022
1474 Clear 35 1002 22 10000 0.45 349 10:58 22.06.2022
1475 Clear 32 1002 27 10000 0.45 321 10:20 22.06.2022
1476 Clear 31 1001 29 10000 0.89 355 08:48 22.06.2022
1477 Clear 26 1000 33 10000 1.54 157 06:21 22.06.2022
1478 Clear 26 1002 29 10000 1.99 121 01:50 22.06.2022
1479 Clear 26 1002 29 10000 0.45 157 00:56 22.06.2022
1480 Clear 26 1002 43 10000 0.86 136 22:40 21.06.2022
1481 Clear 28 1002 44 10000 2.85 129 20:40 21.06.2022
1482 Clear 30 1002 35 10000 1.34 10 19:18 21.06.2022
1483 Clear 31 1002 29 10000 0.89 345 17:44 21.06.2022
1484 Clear 32 1003 28 10000 0.89 1 16:34 21.06.2022
1485 Clear 31 1004 33 10000 1.79 3 11:56 21.06.2022
1486 Clear 31 1004 33 10000 2.24 356 10:33 21.06.2022
1487 Clear 27 1017 45 10000 0.96 65 08:54 21.06.2022
1488 Clear 25 1017 54 10000 1.09 63 07:35 21.06.2022
1489 Clear 25 1003 26 10000 0.89 139 04:42 21.06.2022
1490 Clear 25 1004 43 10000 1.97 162 23:45 20.06.2022
1491 Clear 25 1004 33 10000 0.45 158 22:21 20.06.2022
1492 Clear 25 1004 44 10000 0.45 180 21:32 20.06.2022
1493 Clear 27 1004 44 10000 1.66 55 20:27 20.06.2022
1494 Clear 27 1004 40 10000 1.34 336 19:23 20.06.2022
1495 Clear 30 1003 39 10000 0.89 358 18:25 20.06.2022
1496 Clear 30 1003 32 10000 0.89 7 17:44 20.06.2022
1497 Clear 31 1004 36 10000 1.79 20 16:24 20.06.2022
1498 Clear 30 1004 39 10000 2.68 18 14:41 20.06.2022
1499 Clear 29 1004 35 10000 1.79 15 11:47 20.06.2022
1500 Clear 27 1016 58 10000 1.65 348 09:55 20.06.2022
1501 Clear 26 1016 58 10000 1.23 321 08:46 20.06.2022
1502 Clear 25 1016 55 10000 0.43 308 07:36 20.06.2022
1503 Clear 23 1002 40 10000 0.67 209 04:56 20.06.2022
1504 Clouds 24 1003 45 10000 0.45 151 01:32 20.06.2022
1505 Clouds 24 1003 45 10000 0.45 64 23:49 19.06.2022
1506 Clouds 25 1003 46 10000 0.15 170 22:25 19.06.2022
1507 Clouds 25 1003 46 10000 0.15 171 21:43 19.06.2022
1508 Clouds 26 1003 44 10000 0.36 351 20:55 19.06.2022
1509 Clouds 27 1003 30 10000 1.34 325 20:25 19.06.2022
1510 Clouds 28 1003 42 10000 1.79 339 19:45 19.06.2022
1511 Clouds 28 1002 39 10000 3.58 352 18:33 19.06.2022
1512 Clouds 28 1015 56 10000 2.21 328 17:48 19.06.2022
1513 Clouds 28 1003 38 10000 3.13 359 17:20 19.06.2022
1514 Clouds 29 1003 38 10000 2.24 25 16:34 19.06.2022
1515 Clouds 29 1003 38 10000 1.34 11 15:35 19.06.2022
1516 Clouds 29 1003 38 10000 4.02 3 14:51 19.06.2022
1517 Clouds 29 1003 38 10000 3.58 360 13:54 19.06.2022
1518 Clouds 29 1003 39 10000 1.79 27 12:39 19.06.2022
1519 Clouds 28 1003 46 10000 2.24 24 10:53 19.06.2022
1520 Clear 29 1003 44 10000 1.79 4 09:34 19.06.2022
1521 Clear 26 1016 62 10000 1.94 257 08:43 19.06.2022
1522 Clear 25 1016 66 10000 1.83 235 07:36 19.06.2022
1523 Clear 23 1002 48 10000 1.34 180 04:41 19.06.2022
1524 Clear 24 1003 52 10000 1.23 178 01:28 19.06.2022
1525 Clear 24 1003 53 10000 0.45 98 00:24 19.06.2022
1526 Clear 24 1003 52 10000 0.8 157 23:35 18.06.2022
1527 Clouds 25 1003 46 10000 0.56 142 22:36 18.06.2022
1528 Clear 26 1003 10 10000 0.45 217 20:55 18.06.2022
1529 Clear 27 1002 34 10000 0.45 339 20:28 18.06.2022
1530 Clear 28 1002 43 10000 2.68 352 19:37 18.06.2022
1531 Clear 29 1002 43 10000 2.68 354 18:45 18.06.2022
1532 Clear 29 1002 38 10000 1.79 3 17:31 18.06.2022
1533 Clear 30 1003 44 10000 0.89 350 16:37 18.06.2022
1534 Clear 29 1003 46 10000 2.24 5 15:30 18.06.2022
1535 Clear 29 1011 52 10000 3.58 90 14:42 18.06.2022
1536 Clouds 29 1004 44 10000 4.47 354 13:22 18.06.2022
1537 Clouds 29 1004 43 10000 0.45 5 11:38 18.06.2022
1538 Clouds 29 1004 43 10000 0.89 30 10:46 18.06.2022
1539 Clouds 25 1017 73 10000 2.68 52 09:22 18.06.2022
1540 Clouds 25 1021 74 10000 2.24 90 08:19 18.06.2022
1541 Clouds 24 1017 75 10000 2.24 69 06:44 18.06.2022
1542 Clouds 25 1004 48 10000 0.89 180 03:24 18.06.2022
1543 Clouds 25 1004 47 10000 0.45 171 01:24 18.06.2022
1544 Clouds 25 1004 41 10000 1.37 132 00:45 18.06.2022
1545 Clouds 25 1005 50 10000 2.08 118 23:52 17.06.2022
1546 Clouds 25 1005 50 10000 2.46 112 23:19 17.06.2022
1547 Clouds 26 1004 49 10000 0.45 337 20:42 17.06.2022
1548 Clouds 28 1004 44 10000 1.79 322 19:31 17.06.2022
1549 Clouds 30 1004 42 10000 2.24 315 18:37 17.06.2022
1550 Clouds 31 1005 35 10000 1.79 355 17:43 17.06.2022
1551 Clouds 32 1004 34 10000 2.24 349 16:43 17.06.2022
1552 Clouds 31 1005 39 10000 0.89 338 15:43 17.06.2022
1553 Clouds 32 1005 37 10000 3.13 333 14:58 17.06.2022
1554 Clear 32 1005 37 10000 3.73 34 14:20 17.06.2022
1555 Clear 31 1006 39 10000 0.89 351 13:45 17.06.2022
1556 Clear 31 1006 39 10000 1.34 348 12:53 17.06.2022
1557 Clear 31 1006 36 10000 2.24 356 11:57 17.06.2022
1558 Clear 31 1014 36 10000 3.58 3 11:36 17.06.2022
1559 Clear 31 1014 35 10000 1.34 335 10:51 17.06.2022
1560 Clear 28 1022 46 10000 0.89 90 08:30 17.06.2022
1561 Clear 28 1022 45 10000 0.45 90 07:47 17.06.2022
1562 Clear 24 1005 38 10000 1.77 105 05:57 17.06.2022
1563 Clear 25 1018 54 10000 1.39 135 02:52 17.06.2022
1564 Clouds 26 1006 40 10000 0.89 217 00:42 17.06.2022
1565 Clouds 25 1019 63 10000 2.49 131 22:45 16.06.2022
1566 Clouds 26 1019 63 10000 2.87 121 22:20 16.06.2022
1567 Clouds 27 1005 44 10000 3.31 77 21:19 16.06.2022
1568 Clouds 27 1005 44 10000 3.31 77 20:50 16.06.2022
1569 Clouds 28 1005 41 10000 2.54 81 19:57 16.06.2022
1570 Clouds 30 1005 35 10000 2.68 341 18:44 16.06.2022
1571 Clouds 30 1005 35 10000 0.89 332 17:44 16.06.2022
1572 Clouds 30 1005 41 10000 1.79 348 16:46 16.06.2022
1573 Clouds 30 1006 39 10000 1.79 316 15:44 16.06.2022
1574 Clouds 29 1006 41 10000 2.68 334 15:20 16.06.2022
1575 Clouds 30 1007 42 10000 1.79 355 13:49 16.06.2022
1576 Rain 30 1014 38 10000 2.24 344 12:38 16.06.2022
1577 Clear 30 1014 35 10000 3.58 135 11:55 16.06.2022
1578 Clear 30 1014 33 10000 3.58 135 11:21 16.06.2022
1579 Clear 30 1014 34 10000 2.68 90 10:35 16.06.2022
1580 Clear 29 1022 39 10000 3.58 90 09:37 16.06.2022
1581 Clear 28 1022 39 10000 1.79 90 08:50 16.06.2022
1582 Clear 28 1022 39 10000 1.79 90 08:50 16.06.2022
1583 Clouds 26 1021 46 10000 0.65 95 07:38 16.06.2022
1584 Clouds 23 1005 33 10000 0.45 112 05:48 16.06.2022
1585 Clouds 24 1005 41 10000 0.45 25 03:44 16.06.2022
1586 Clear 24 1006 43 10000 0.45 252 01:52 16.06.2022
1587 Clear 24 1006 43 10000 0.89 305 01:52 16.06.2022
1588 Clear 25 1006 42 10000 2.28 122 01:22 16.06.2022
1589 Clear 25 1006 37 10000 0.45 169 23:58 15.06.2022
1590 Clear 25 1006 34 10000 0.45 168 22:53 15.06.2022
1591 Clear 25 1006 33 10000 2.2 131 21:34 15.06.2022
1592 Clear 25 1005 25 10000 1.89 101 20:59 15.06.2022
1593 Clear 27 1006 25 10000 1.89 101 20:36 15.06.2022
1594 Clear 28 1006 38 10000 0.89 343 19:57 15.06.2022
1595 Clear 29 1006 33 10000 0.89 320 18:37 15.06.2022
1596 Clear 30 1006 30 10000 1.34 339 17:46 15.06.2022
1597 Clear 31 1006 38 10000 1.79 344 16:27 15.06.2022
1598 Clear 31 1006 39 10000 3.58 354 15:19 15.06.2022
1599 Clear 30 1006 38 10000 0.89 353 13:29 15.06.2022
1600 Clear 29 1006 36 10000 2.24 319 12:47 15.06.2022
1601 Clear 31 1014 31 10000 2.24 344 11:28 15.06.2022
1602 Clear 30 1022 38 10000 2.24 90 10:22 15.06.2022
1603 Clear 28 1018 44 10000 2.21 66 09:34 15.06.2022
1604 Clear 24 1018 53 10000 2.43 100 07:43 15.06.2022
1605 Clear 24 1006 23 10000 1.38 119 05:57 15.06.2022
1606 Clear 24 1005 31 10000 0.45 180 02:56 15.06.2022
1607 Clear 24 1017 48 10000 1.79 116 01:37 15.06.2022
1608 Clear 25 1005 33 10000 0.45 145 00:37 15.06.2022
1609 Clear 25 1005 34 10000 0.45 104 23:38 14.06.2022
1610 Clear 25 1005 37 10000 2.77 124 22:48 14.06.2022
1611 Clear 25 1005 34 10000 2.9 121 21:44 14.06.2022
1612 Clear 25 1004 23 10000 2.48 106 21:21 14.06.2022
1613 Clear 26 1004 23 10000 2.47 106 20:40 14.06.2022
1614 Clear 27 1004 33 10000 1.34 354 19:58 14.06.2022
1615 Clear 29 1003 29 10000 0.89 338 18:45 14.06.2022
1616 Clear 29 1004 27 10000 2.24 349 17:20 14.06.2022
1617 Clear 29 1004 26 10000 2.24 340 16:43 14.06.2022
1618 Clear 30 1004 23 10000 1.79 353 15:49 14.06.2022
1619 Clear 31 1004 20 10000 1.79 345 14:56 14.06.2022
1620 Clear 31 1004 21 10000 1.79 315 14:18 14.06.2022
1621 Clear 30 1005 26 10000 3.58 343 13:29 14.06.2022
1622 Clear 30 1004 27 10000 1.34 27 12:25 14.06.2022
1623 Clear 27 1016 48 10000 2.47 56 10:59 14.06.2022
1624 Clear 30 1004 30 10000 0.89 346 10:59 14.06.2022
1625 Clear 30 1004 32 10000 2.47 56 10:33 14.06.2022
1626 Clear 27 1012 41 10000 2.24 90 09:28 14.06.2022
1627 Clear 27 1012 41 10000 2.24 90 09:28 14.06.2022
1628 Clear 25 1020 59 10000 1.34 90 08:41 14.06.2022
1629 Clear 21 1019 57 10000 0.45 270 06:54 14.06.2022
1630 Clear 21 1003 38 10000 0.45 42 04:28 14.06.2022
1631 Clear 22 1003 28 10000 0.45 56 02:43 14.06.2022
1632 Clear 22 1016 60 10000 1.61 251 00:27 14.06.2022
1633 Clear 23 1016 62 10000 1.72 254 23:18 13.06.2022
1634 Clear 23 1016 71 10000 1.61 263 22:24 13.06.2022
1635 Clear 23 1016 74 10000 1.6 263 21:43 13.06.2022
1636 Clear 25 1015 69 10000 1.56 314 20:19 13.06.2022
1637 Clear 26 1015 65 10000 2.61 316 19:26 13.06.2022
1638 Clear 27 1015 60 10000 2.89 326 17:57 13.06.2022
1639 Clear 27 1015 53 10000 2.89 326 17:35 13.06.2022
1640 Clear 27 1015 56 10000 3.23 327 16:32 13.06.2022
1641 Clear 27 1015 59 10000 3.84 324 15:20 13.06.2022
1642 Clear 27 1015 61 10000 3.85 324 14:41 13.06.2022
1643 Clear 30 1004 34 10000 0.89 18 13:41 13.06.2022
1644 Clear 29 1005 32 10000 1.34 21 12:25 13.06.2022
1645 Clear 28 1021 56 10000 0.89 90 11:25 13.06.2022
1646 Clear 27 1016 52 10000 2.2 320 10:26 13.06.2022
1647 Clear 26 1020 51 10000 0.89 90 09:23 13.06.2022
1648 Clear 24 1016 55 10000 1.26 296 07:34 13.06.2022
1649 Clear 21 1016 63 10000 1.05 222 05:42 13.06.2022
1650 Clear 22 1004 41 10000 0.89 129 02:50 13.06.2022
1651 Clear 22 1013 52 10000 0.89 225 01:37 13.06.2022
1652 Clear 23 1006 43 10000 0.59 49 00:18 13.06.2022
1653 Clear 23 1005 43 10000 0.45 48 23:24 12.06.2022
1654 Clear 23 1005 42 10000 0.45 180 22:22 12.06.2022
1655 Clear 24 1005 41 10000 1.26 328 21:20 12.06.2022
1656 Clear 25 1004 40 10000 1.44 336 20:27 12.06.2022
1657 Clear 24 1016 73 10000 1.44 336 19:30 12.06.2022
1658 Clear 24 1016 73 10000 1.44 336 19:30 12.06.2022
1659 Clear 28 1004 38 10000 2.24 13 17:51 12.06.2022
1660 Clear 26 1016 68 10000 3.19 330 16:24 12.06.2022
1661 Clear 27 1017 45 10000 3.33 335 14:58 12.06.2022
1662 Clear 27 1017 50 10000 3.48 333 14:23 12.06.2022
1663 Clear 27 1017 54 10000 3.39 337 13:55 12.06.2022
1664 Clear 28 1006 35 10000 1.79 16 12:40 12.06.2022
1665 Clear 27 1006 40 10000 0.45 4 11:39 12.06.2022
1666 Clear 27 1006 36 10000 1.79 9 10:38 12.06.2022
1667 Clear 26 1021 55 10000 0.89 90 09:19 12.06.2022
1668 Clear 25 1017 60 10000 2.17 319 08:45 12.06.2022
1669 Clear 23 1017 68 10000 1.27 317 07:33 12.06.2022
1670 Clear 21 1012 48 10000 0.89 90 04:52 12.06.2022
1671 Clear 21 1005 40 10000 0.45 171 03:24 12.06.2022
1672 Clear 22 1006 41 10000 0.89 344 01:42 12.06.2022
1673 Clear 22 1006 42 10000 0.89 166 00:58 12.06.2022
1674 Clear 22 1006 42 10000 2.25 292 00:21 12.06.2022
1675 Clear 23 1006 41 10000 2.25 292 23:44 11.06.2022
1676 Clear 23 1006 39 10000 0.45 56 22:39 11.06.2022
1677 Clear 23 1006 39 10000 2.05 293 21:53 11.06.2022
1678 Clear 24 1017 72 10000 2.09 311 20:38 11.06.2022
1679 Clear 26 1005 37 10000 0.89 351 19:59 11.06.2022
1680 Clear 26 1005 42 10000 1.79 9 19:26 11.06.2022
1681 Clear 27 1005 38 10000 1.34 11 18:34 11.06.2022
1682 Clear 27 1005 37 10000 3.58 2 17:51 11.06.2022
1683 Clear 27 1005 37 10000 0.89 3 17:28 11.06.2022
1684 Clear 27 1005 36 10000 1.79 360 16:57 11.06.2022
1685 Clear 27 1005 37 10000 1.79 30 16:30 11.06.2022
1686 Clear 28 1005 39 10000 2.68 15 15:43 11.06.2022
1687 Clear 28 1005 37 10000 2.68 7 13:53 11.06.2022
1688 Clear 28 1005 33 10000 2.24 346 12:57 11.06.2022
1689 Clear 25 1015 63 10000 3.18 338 10:55 11.06.2022
1690 Clear 25 1015 64 10000 2.77 331 10:19 11.06.2022
1691 Clear 24 1015 69 10000 2.39 326 09:19 11.06.2022
1692 Clear 23 1018 70 10000 0.45 90 07:46 11.06.2022
1693 Clear 22 1003 47 10000 0.45 57 06:30 11.06.2022
1694 Clear 21 1002 46 10000 0.45 174 05:19 11.06.2022
1695 Clear 22 1013 71 10000 2.12 312 01:53 11.06.2022
1696 Clear 22 1013 71 10000 2.05 328 01:33 11.06.2022
1697 Clear 22 1013 72 10000 2.14 298 00:21 11.06.2022
1698 Clear 22 1002 44 10000 0.45 189 22:32 10.06.2022
1699 Clear 22 1001 44 10000 0.89 250 21:52 10.06.2022
1700 Clear 23 1001 43 10000 0.89 204 20:42 10.06.2022
1701 Clear 23 1000 44 10000 0.89 271 20:22 10.06.2022
1702 Clear 24 1000 43 10000 0.89 276 19:48 10.06.2022
1703 Clear 23 1011 71 10000 4.4 328 19:18 10.06.2022
1704 Clear 24 1010 68 10000 5.12 333 18:19 10.06.2022
1705 Clear 25 999 40 10000 2.24 271 17:36 10.06.2022
1706 Clear 24 1010 67 10000 5.66 333 16:55 10.06.2022
1707 Clear 24 1010 66 10000 5.95 335 15:47 10.06.2022
1708 Clear 25 999 34 10000 1.79 353 15:19 10.06.2022
1709 Clouds 26 999 35 10000 3.58 4 13:44 10.06.2022
1710 Clouds 25 998 34 10000 1.79 306 12:28 10.06.2022
1711 Clouds 24 998 34 10000 3.13 347 11:40 10.06.2022
1712 Clouds 24 997 34 10000 1.79 305 10:40 10.06.2022
1713 Clear 23 1004 49 10000 8.94 315 09:43 10.06.2022
1714 Clear 23 997 43 10000 3.13 258 08:23 10.06.2022
1715 Clear 22 996 39 10000 1.34 273 06:52 10.06.2022
1716 Clear 23 996 36 10000 2.24 271 06:32 10.06.2022
1717 Clear 22 1008 69 10000 6.22 298 05:45 10.06.2022
1718 Clear 22 1008 73 10000 5.57 288 03:41 10.06.2022
1719 Clear 22 1008 70 10000 5.15 282 01:38 10.06.2022
1720 Clear 22 1012 71 10000 5.81 315 00:25 10.06.2022
1721 Clear 23 1009 61 10000 5 259 23:25 09.06.2022
1722 Clear 23 1004 41 10000 6.26 225 21:47 09.06.2022
1723 Clear 23 1004 42 10000 6.26 225 21:29 09.06.2022
1724 Clear 23 1004 41 10000 5.36 225 20:54 09.06.2022
1725 Clouds 24 1004 41 10000 5.81 315 19:55 09.06.2022
1726 Clouds 26 1003 40 10000 5.36 292 18:49 09.06.2022
1727 Clouds 26 1004 40 10000 5.36 292 18:21 09.06.2022
1728 Clouds 27 1011 44 10000 4.92 315 16:46 09.06.2022
1729 Clouds 27 1011 50 10000 3.58 315 15:47 09.06.2022
1730 Clouds 27 1012 56 10000 3.58 315 14:35 09.06.2022
1731 Clouds 29 1004 31 10000 4.92 315 13:48 09.06.2022
1732 Clouds 29 1004 31 10000 4.47 225 13:26 09.06.2022
1733 Clouds 28 1005 32 10000 7.6 225 11:54 09.06.2022
1734 Clouds 27 1005 33 10000 5.36 315 10:53 09.06.2022
1735 Clouds 27 1005 39 10000 6.26 315 09:43 09.06.2022
1736 Clouds 27 1005 38 10000 5.81 0 09:23 09.06.2022
1737 Clouds 25 1013 53 10000 2.24 270 07:44 09.06.2022
1738 Clouds 25 1009 48 10000 3.42 222 05:47 09.06.2022
1739 Clouds 24 1006 47 10000 0.45 51 02:20 09.06.2022
1740 Clouds 25 1008 50 10000 1.83 213 23:34 08.06.2022
1741 Clouds 25 1000 42 10000 0.45 138 22:56 08.06.2022
1742 Clouds 25 1000 43 10000 0.45 316 22:26 08.06.2022
1743 Clouds 26 1000 43 10000 1.38 218 21:52 08.06.2022
1744 Clouds 26 1000 25 10000 0.45 37 20:59 08.06.2022
1745 Clouds 27 1000 39 10000 0.45 346 19:55 08.06.2022
1746 Clouds 27 1000 39 10000 0.89 348 19:27 08.06.2022
1747 Clouds 28 999 40 10000 0.89 323 18:42 08.06.2022
1748 Clouds 31 1008 32 10000 1.79 339 16:39 08.06.2022
1749 Clouds 31 1008 33 10000 0.89 356 15:27 08.06.2022
1750 Clouds 30 1008 32 10000 4.02 135 13:37 08.06.2022
1751 Clouds 29 1009 31 10000 3.13 90 11:51 08.06.2022
1752 Clouds 29 1009 30 10000 3.58 90 11:25 08.06.2022
1753 Clouds 28 1017 43 10000 0.89 90 09:48 08.06.2022
1754 Clouds 28 1016 42 10000 2.24 90 09:20 08.06.2022
1755 Clouds 27 1016 40 10000 1.79 90 08:18 08.06.2022
1756 Clear 24 1012 44 10000 1.39 156 05:47 08.06.2022
1757 Clear 25 1001 30 10000 0.89 149 03:20 08.06.2022
1758 Clouds 25 1009 36 10000 2.24 315 00:28 08.06.2022
1759 Clouds 25 1002 37 10000 1.93 261 23:25 07.06.2022
1760 Clouds 25 1014 62 10000 1.93 261 22:42 07.06.2022
1761 Clouds 25 1002 39 10000 0.89 158 22:20 07.06.2022
1762 Clouds 25 1001 38 10000 0.45 180 21:28 07.06.2022
1763 Clouds 26 1001 39 10000 0.89 185 20:53 07.06.2022
1764 Clouds 26 1001 40 10000 0.89 273 20:31 07.06.2022
1765 Clear 28 1009 37 10000 1.79 315 19:27 07.06.2022
1766 Clear 30 1001 27 10000 0.89 25 18:19 07.06.2022
1767 Clear 31 1001 26 10000 2.68 343 17:25 07.06.2022
1768 Clear 31 1009 26 10000 2.68 338 16:42 07.06.2022
1769 Clear 31 1010 30 10000 2.68 351 15:44 07.06.2022
1770 Clear 31 1010 30 10000 3.58 135 15:24 07.06.2022
1771 Clear 31 1010 32 10000 2.68 348 14:46 07.06.2022
1772 Clear 31 1002 32 10000 1.34 8 14:27 07.06.2022
1773 Clear 31 1010 29 10000 3.13 202 13:30 07.06.2022
1774 Clear 29 1013 48 10000 3.19 25 12:45 07.06.2022
1775 Clear 31 1010 27 10000 1.79 323 11:37 07.06.2022
1776 Clear 30 1011 33 10000 3.13 180 10:26 07.06.2022
1777 Clear 27 1019 50 10000 1.34 90 08:49 07.06.2022
1778 Clear 27 1019 52 10000 1.34 90 08:49 07.06.2022
1779 Clear 27 1019 50 10000 1.34 90 08:49 07.06.2022
1780 Clear 23 1015 78 10000 1.56 294 07:32 07.06.2022
1781 Clear 23 1011 48 10000 0.89 270 05:58 07.06.2022
1782 Clear 24 1003 41 10000 0.45 122 03:22 07.06.2022
1783 Clear 24 1012 47 10000 0.89 225 00:44 07.06.2022
1784 Clear 25 1012 48 10000 0.89 48 23:35 06.06.2022
1785 Clear 24 1004 48 10000 0.45 167 22:47 06.06.2022
1786 Clear 25 1004 47 10000 0.41 233 21:56 06.06.2022
1787 Clear 26 1020 73 10000 0.86 294 20:35 06.06.2022
1788 Clouds 28 1012 49 10000 0.89 354 19:24 06.06.2022
1789 Clouds 29 1012 48 10000 2.24 90 18:47 06.06.2022
1790 Clouds 29 1012 47 10000 3.13 315 17:55 06.06.2022
1791 Clouds 30 1012 51 10000 2.68 225 16:51 06.06.2022
1792 Clouds 30 1012 49 10000 2.68 292 15:44 06.06.2022
1793 Clouds 30 1004 47 10000 2.68 341 14:57 06.06.2022
1794 Clouds 30 1012 38 10000 2.24 330 13:40 06.06.2022
1795 Clouds 31 1013 38 10000 2.24 325 13:19 06.06.2022
1796 Clouds 30 1005 45 10000 1.79 354 12:33 06.06.2022
1797 Clouds 31 1013 47 10000 1.34 332 11:45 06.06.2022
1798 Clouds 30 1013 41 10000 0.89 90 09:51 06.06.2022
1799 Clouds 28 1005 43 10000 2.26 286 08:44 06.06.2022
1800 Clouds 26 1005 45 10000 0.89 5 07:44 06.06.2022
1801 Clouds 26 1005 53 10000 3.13 262 06:49 06.06.2022
1802 Clouds 23 1003 56 10000 0.89 84 04:38 06.06.2022
1803 Clouds 24 1020 83 10000 0.89 90 01:53 06.06.2022
1804 Clouds 24 1021 86 10000 0.45 90 00:57 06.06.2022
1805 Clouds 24 1021 85 10000 2.31 188 00:34 06.06.2022
1806 Clouds 23 1017 85 10000 0.79 118 22:59 05.06.2022
1807 Clouds 24 1018 82 10000 1.18 288 22:21 05.06.2022
1808 Clouds 26 1016 73 10000 2.08 287 20:24 05.06.2022
1809 Clouds 28 1016 65 10000 1.61 291 19:23 05.06.2022
1810 Clouds 28 1016 63 10000 2.54 300 18:19 05.06.2022
1811 Clouds 30 1016 65 10000 2.54 300 17:39 05.06.2022
1812 Clouds 30 1017 66 10000 2.86 307 17:20 05.06.2022
1813 Clouds 31 1017 51 10000 2.86 307 16:47 05.06.2022
1814 Clouds 35 1007 27 10000 0.45 270 15:28 05.06.2022
1815 Clear 35 1007 28 10000 0.45 270 14:21 05.06.2022
1816 Clear 34 1007 19 10000 1.79 353 11:59 05.06.2022
1817 Clouds 34 1007 22 10000 1.79 346 10:51 05.06.2022
1818 Clouds 34 1007 22 10000 1.79 1 10:24 05.06.2022
1819 Clouds 32 1017 42 10000 1.12 41 09:44 05.06.2022
1820 Clear 29 1018 44 10000 0.42 243 08:25 05.06.2022
1821 Clear 28 1007 29 10000 0.45 195 06:47 05.06.2022
1822 Clear 27 1006 33 10000 0.89 61 05:20 05.06.2022
1823 Clear 26 1017 62 10000 1.15 188 02:57 05.06.2022
1824 Clear 27 1006 38 10000 2.31 151 01:24 05.06.2022
1825 Clear 27 1006 38 10000 2.31 151 01:24 05.06.2022
1826 Clear 26 1015 48 10000 0.45 315 23:43 04.06.2022
1827 Clear 27 1007 44 10000 2.95 113 21:31 04.06.2022
1828 Clouds 29 1018 48 10000 2.33 95 19:46 04.06.2022
1829 Clouds 32 1018 29 10000 2.52 53 17:50 04.06.2022
1830 Clouds 36 1007 12 10000 1.34 322 16:22 04.06.2022
1831 Clouds 35 1007 18 10000 1.79 352 15:54 04.06.2022
1832 Clouds 36 1007 19 10000 1.34 305 14:36 04.06.2022
1833 Clouds 33 1008 22 10000 1.34 344 11:48 04.06.2022
1834 Clouds 32 1008 22 10000 1.79 356 10:57 04.06.2022
1835 Clouds 32 1008 22 10000 1.34 337 10:20 04.06.2022
1836 Clouds 31 1008 24 10000 1.79 11 09:41 04.06.2022
1837 Clouds 27 1019 41 10000 1.05 309 08:40 04.06.2022
1838 Clouds 28 1007 29 10000 1.45 271 07:38 04.06.2022
1839 Clouds 26 1006 26 10000 0.89 180 04:33 04.06.2022
1840 Clouds 26 1006 26 10000 0.89 180 04:33 04.06.2022
1841 Clouds 26 1006 26 10000 0.89 180 04:33 04.06.2022
1842 Clouds 26 1006 26 10000 0.89 180 04:33 04.06.2022
1843 Clouds 27 1007 31 10000 2.79 119 00:48 04.06.2022
1844 Clouds 26 1018 41 10000 2.04 92 23:35 03.06.2022
1845 Clouds 27 1007 27 10000 0.45 123 22:30 03.06.2022
1846 Clear 29 1007 16 10000 0.45 105 20:52 03.06.2022
1847 Clouds 30 1007 13 10000 0.41 220 20:27 03.06.2022
1848 Clear 33 1007 12 10000 1.34 341 17:39 03.06.2022
1849 Clear 34 1007 9 10000 1.79 325 16:47 03.06.2022
1850 Clear 34 1007 22 10000 1.79 341 15:18 03.06.2022
1851 Clouds 33 1007 35 10000 1.34 7 12:56 03.06.2022
1852 Clouds 32 1007 28 10000 1.34 353 10:54 03.06.2022
1853 Clear 28 1017 54 10000 1.87 85 09:38 03.06.2022
1854 Clear 33 1006 24 10000 0.45 7 08:32 03.06.2022
1855 Clear 23 1017 63 10000 2.14 130 07:26 03.06.2022
1856 Clear 26 1006 29 10000 0.45 137 06:32 03.06.2022
1857 Clear 25 1006 35 10000 0.45 72 05:19 03.06.2022
1858 Clear 27 1006 30 10000 0.89 134 00:25 03.06.2022
1859 Clear 27 1006 33 10000 0.45 148 22:41 02.06.2022
1860 Clear 26 1006 32 10000 0.45 45 21:38 02.06.2022
1861 Clear 27 1005 32 10000 2.71 116 20:22 02.06.2022
1862 Clear 28 1005 30 10000 0.45 290 19:43 02.06.2022
1863 Clear 29 1005 30 10000 0.45 296 19:23 02.06.2022
1864 Clear 31 1015 36 10000 2.86 89 17:32 02.06.2022
1865 Clear 31 1016 32 10000 3 69 16:27 02.06.2022
1866 Clear 31 1016 34 10000 3.91 77 14:19 02.06.2022
1867 Clear 30 1017 35 10000 3.65 64 13:29 02.06.2022
1868 Clear 29 1016 39 10000 3.41 76 11:24 02.06.2022
1869 Clear 27 1016 52 10000 3.19 79 10:20 02.06.2022
1870 Clear 27 1016 59 10000 2.37 67 09:27 02.06.2022
1871 Clear 25 1016 55 10000 1.69 85 08:26 02.06.2022
1872 Clear 24 1016 61 10000 3 111 07:25 02.06.2022
1873 Clear 23 1015 66 10000 3.07 113 04:52 02.06.2022
1874 Clear 23 1016 78 10000 2.46 93 02:38 02.06.2022
1875 Clear 24 1016 72 10000 2.4 120 23:47 01.06.2022
1876 Clear 25 1016 64 10000 2.43 103 22:32 01.06.2022
1877 Clear 25 1016 66 10000 2.41 103 21:35 01.06.2022
1878 Clear 26 1016 55 10000 2.36 113 20:58 01.06.2022
1879 Clear 27 1016 48 10000 2.36 113 20:37 01.06.2022
1880 Clear 28 1015 42 10000 2.97 87 19:28 01.06.2022
1881 Clear 29 1015 53 10000 2.7 78 17:46 01.06.2022
1882 Clear 30 1015 48 10000 2.61 67 16:38 01.06.2022
1883 Clear 31 1004 33 10000 2.67 54 14:59 01.06.2022
1884 Clear 30 1004 36 10000 2.25 44 13:53 01.06.2022
1885 Clear 30 1005 42 10000 0.45 33 12:26 01.06.2022
1886 Clear 29 1004 36 10000 1.84 61 09:48 01.06.2022
1887 Clear 28 1004 41 10000 2.03 79 08:53 01.06.2022
1888 Clear 24 1004 58 10000 1.97 139 07:24 01.06.2022
1889 Clear 22 1004 63 10000 2.03 138 05:52 01.06.2022
1890 Clouds 25 1004 55 10000 2.11 239 00:48 01.06.2022
1891 Clouds 25 1004 57 10000 2.21 237 23:30 31.05.2022
1892 Clouds 25 1004 57 10000 2.21 237 23:30 31.05.2022
1893 Clouds 25 1004 54 10000 1.27 214 22:37 31.05.2022
1894 Clouds 26 1004 52 10000 1.1 170 21:46 31.05.2022
1895 Clear 25 1015 64 10000 1.34 165 20:46 31.05.2022
1896 Clouds 27 1003 45 10000 0.7 112 20:20 31.05.2022
1897 Clouds 29 1003 35 10000 0.73 333 18:53 31.05.2022
1898 Clouds 27 1014 53 10000 1.43 313 17:50 31.05.2022
1899 Clouds 29 1014 50 10000 0.98 302 16:57 31.05.2022
1900 Clouds 32 1003 27 10000 1.34 356 15:41 31.05.2022
1901 Clouds 32 1003 26 10000 1.64 303 14:18 31.05.2022
1902 Clouds 32 1003 22 10000 0.89 354 12:21 31.05.2022
1903 Clouds 32 1003 22 10000 0.98 269 10:55 31.05.2022
1904 Clouds 32 1003 23 10000 0.45 357 10:55 31.05.2022
1905 Clouds 28 1003 38 10000 1.58 190 09:31 31.05.2022
1906 Clouds 24 1003 48 10000 1.63 124 07:25 31.05.2022
1907 Clear 22 1002 59 10000 2.33 144 05:22 31.05.2022
1908 Clouds 25 1002 48 10000 2.47 261 01:35 31.05.2022
1909 Clouds 26 1002 38 10000 2.16 168 23:27 30.05.2022
1910 Clouds 24 1014 54 10000 2.16 168 22:56 30.05.2022
1911 Clouds 23 1013 60 10000 2.45 161 21:59 30.05.2022
1912 Clouds 24 1013 54 10000 2.06 164 21:33 30.05.2022
1913 Clouds 26 1012 54 10000 0.9 155 20:20 30.05.2022
1914 Clouds 28 1012 43 10000 1.33 125 18:41 30.05.2022
1915 Clouds 30 1011 42 10000 1.78 117 17:38 30.05.2022
1916 Clouds 29 1011 46 10000 1.61 146 16:44 30.05.2022
1917 Clouds 30 1011 41 10000 1.32 134 14:51 30.05.2022
1918 Clouds 30 1011 36 10000 1.56 144 12:29 30.05.2022
1919 Clouds 29 1011 25 10000 1.07 150 10:46 30.05.2022
1920 Clouds 30 999 19 10000 1.36 172 09:38 30.05.2022
1921 Clouds 24 998 29 10000 3.03 202 07:22 30.05.2022
1922 Clouds 23 997 32 10000 3.48 209 05:49 30.05.2022
1923 Clear 23 998 34 10000 4.01 208 01:48 30.05.2022
1924 Clear 24 998 31 10000 3.79 207 23:21 29.05.2022
1925 Clear 24 1010 40 10000 3.79 207 22:38 29.05.2022
1926 Clear 24 1009 52 10000 4.07 222 20:57 29.05.2022
1927 Clear 26 1008 35 10000 4.16 247 19:34 29.05.2022
1928 Clear 27 1007 31 10000 5.49 263 18:59 29.05.2022
1929 Clear 26 1007 48 10000 6.38 274 17:32 29.05.2022
1930 Clear 27 1006 52 10000 6.59 273 15:49 29.05.2022
1931 Clear 26 1006 52 10000 6.77 275 15:23 29.05.2022
1932 Clear 26 1006 51 10000 6.35 279 14:18 29.05.2022
1933 Clear 26 1000 45 10000 3.58 225 11:48 29.05.2022
1934 Clear 25 1000 53 10000 2.24 225 10:40 29.05.2022
1935 Clear 24 995 57 10000 1.31 260 09:51 29.05.2022
1936 Clear 19 994 75 10000 3.08 226 06:51 29.05.2022
1937 Clear 18 994 75 10000 3.51 238 04:47 29.05.2022
1938 Clear 18 994 76 10000 3.22 227 04:19 29.05.2022
1939 Clouds 19 999 76 10000 0.45 270 23:53 28.05.2022
1940 Clouds 19 999 75 10000 0.45 270 23:34 28.05.2022
1941 Clouds 20 995 70 10000 1.37 271 22:40 28.05.2022
1942 Clouds 20 998 72 10000 0.89 315 21:40 28.05.2022
1943 Clouds 22 994 61 10000 0.45 222 19:51 28.05.2022
1944 Clouds 22 998 68 10000 0.45 90 19:18 28.05.2022
1945 Clouds 22 994 69 10000 2.03 163 17:44 28.05.2022
1946 Clouds 22 995 73 10000 2.53 184 16:50 28.05.2022
1947 Rain 22 999 72 10000 1.79 90 15:44 28.05.2022
1948 Clouds 22 999 73 8750 2.24 315 14:35 28.05.2022
1949 Clouds 24 1000 58 10000 3.58 270 13:21 28.05.2022
1950 Clouds 24 1000 55 10000 2.24 225 12:40 28.05.2022
1951 Clouds 23 1000 54 10000 1.34 225 11:26 28.05.2022
1952 Clouds 24 1001 52 10000 3.13 202 10:25 28.05.2022
1953 Clouds 23 1001 56 10000 4.92 225 09:22 28.05.2022
1954 Clear 21 1001 65 10000 2.24 248 07:47 28.05.2022
1955 Clear 19 1001 78 10000 0.89 270 06:32 28.05.2022
1956 Clear 20 1003 79 10000 0.89 292 03:53 28.05.2022
1957 Clouds 21 1004 77 10000 3.58 292 00:33 28.05.2022
1958 Clouds 21 1005 71 10000 3.13 270 23:42 27.05.2022
1959 Clouds 22 1015 73 10000 4.47 315 22:24 27.05.2022
1960 Clouds 23 1004 66 10000 4.02 292 20:58 27.05.2022
1961 Clouds 22 1015 72 10000 3.13 270 20:31 27.05.2022
1962 Clouds 22 1015 73 10000 3.13 292 19:55 27.05.2022
1963 Clouds 23 1014 70 10000 2.68 315 19:33 27.05.2022
1964 Clouds 26 1014 63 10000 1.34 315 18:37 27.05.2022
1965 Clouds 26 1015 64 10000 4.47 270 16:42 27.05.2022
1966 Clouds 26 1015 65 10000 2.24 225 15:44 27.05.2022
1967 Clouds 27 1015 60 10000 5.36 315 14:45 27.05.2022
1968 Clouds 28 1012 42 10000 0.44 38 13:30 27.05.2022
1969 Clouds 28 1008 36 10000 1.34 90 11:43 27.05.2022
1970 Clouds 28 1006 29 10000 2.24 90 11:25 27.05.2022
1971 Clouds 28 1007 28 10000 2.24 90 10:35 27.05.2022
1972 Clouds 28 1001 24 10000 1.44 269 09:42 27.05.2022
1973 Clouds 25 1014 47 10000 1.09 199 08:24 27.05.2022
1974 Clouds 24 1014 40 10000 1.19 223 06:50 27.05.2022
1975 Clouds 26 1007 15 10000 0.89 270 02:56 27.05.2022
1976 Clouds 26 1003 28 10000 3.41 140 00:53 27.05.2022
1977 Clouds 26 1004 36 10000 4.46 98 22:50 26.05.2022
1978 Clouds 27 1004 35 10000 3.57 97 21:43 26.05.2022
1979 Clouds 27 1008 34 10000 0.89 270 20:59 26.05.2022
1980 Clouds 29 1009 27 10000 4.02 315 19:29 26.05.2022
1981 Clouds 29 1008 28 10000 0.89 315 18:24 26.05.2022
1982 Clouds 29 1009 28 10000 1.79 90 16:59 26.05.2022
1983 Clouds 29 1009 32 10000 1.34 45 15:52 26.05.2022
1984 Clouds 29 1005 35 10000 4.28 113 15:18 26.05.2022
1985 Clouds 28 1010 55 10000 2.68 90 13:45 26.05.2022
1986 Clouds 29 1011 43 10000 0.89 90 11:47 26.05.2022
1987 Clouds 29 1011 41 10000 2.68 90 10:39 26.05.2022
1988 Clouds 28 1010 38 10000 0.89 90 09:37 26.05.2022
1989 Clouds 26 1010 48 10000 2.05 105 08:38 26.05.2022
1990 Clouds 23 1005 56 10000 2.78 127 05:25 26.05.2022
1991 Clouds 22 1016 60 10000 3.89 131 01:26 26.05.2022
1992 Clouds 23 1017 60 10000 2.19 134 23:41 25.05.2022
1993 Clouds 24 1017 52 10000 1.28 280 22:51 25.05.2022
1994 Clouds 25 1021 46 10000 0.89 270 21:39 25.05.2022
1995 Clouds 25 1020 47 10000 4.92 292 20:43 25.05.2022
1996 Clouds 28 1018 41 10000 0.89 90 19:32 25.05.2022
1997 Clouds 29 1017 38 10000 4.02 315 18:23 25.05.2022
1998 Clouds 31 1013 29 10000 1.47 324 16:53 25.05.2022
1999 Clouds 32 1012 21 10000 1.5 338 16:25 25.05.2022
2000 Clouds 31 1012 27 10000 1.5 338 15:36 25.05.2022
2001 Clouds 33 1012 14 10000 0.93 294 14:42 25.05.2022
2002 Clouds 33 1012 14 10000 0.79 220 14:24 25.05.2022
2003 Clouds 32 1012 17 10000 1.56 138 13:21 25.05.2022
2004 Clouds 32 1007 14 10000 0.89 45 11:32 25.05.2022
2005 Clouds 30 1000 13 10000 1.71 158 10:24 25.05.2022
2006 Clouds 28 1000 16 10000 2.07 170 09:29 25.05.2022
2007 Clouds 24 999 25 10000 2.31 155 07:26 25.05.2022
2008 Clouds 22 999 34 10000 1.97 162 05:41 25.05.2022
2009 Clear 24 1000 35 10000 2.31 201 01:51 25.05.2022
2010 Clouds 24 999 42 10000 2.8 254 23:48 24.05.2022
2011 Clouds 25 1004 41 10000 0.89 270 22:58 24.05.2022
2012 Clouds 26 1004 40 10000 0.45 315 21:57 24.05.2022
2013 Clouds 26 1002 42 10000 0.89 270 21:37 24.05.2022
2014 Clouds 25 1014 49 10000 0.89 90 21:18 24.05.2022
2015 Clouds 28 1014 39 10000 2.2 102 19:23 24.05.2022
2016 Clouds 28 1014 41 10000 0.89 90 18:29 24.05.2022
2017 Clouds 30 1014 38 10000 0.89 90 16:39 24.05.2022
2018 Clouds 30 1014 38 10000 0.89 90 16:39 24.05.2022
2019 Clouds 30 1015 37 10000 2.24 90 15:45 24.05.2022
2020 Clouds 30 1015 39 10000 1.34 158 14:38 24.05.2022
2021 Clouds 30 1003 25 10000 0.45 90 13:47 24.05.2022
2022 Clouds 29 1004 30 10000 3.58 90 12:24 24.05.2022
2023 Clouds 27 1004 38 10000 0.89 90 09:52 24.05.2022
2024 Clouds 26 1004 41 10000 0.89 90 08:52 24.05.2022
2025 Clear 23 1000 51 10000 0.38 198 07:56 24.05.2022
2026 Clear 21 1004 55 10000 0.89 270 06:41 24.05.2022
2027 Clear 21 999 57 10000 1.13 177 03:41 24.05.2022
2028 Clear 23 1004 49 10000 1.34 225 01:47 24.05.2022
2029 Clear 22 1003 54 10000 0.89 270 00:34 24.05.2022
2030 Clear 23 1005 53 10000 0.89 270 22:24 23.05.2022
2031 Clear 23 1005 52 10000 0.45 270 21:53 23.05.2022
2032 Clear 24 1004 52 10000 0.89 90 20:49 23.05.2022
2033 Clear 24 1015 57 10000 0.45 90 19:56 23.05.2022
2034 Clear 26 1004 43 10000 1.48 88 19:27 23.05.2022
2035 Clear 26 1015 51 10000 0.89 90 18:41 23.05.2022
2036 Clear 26 1015 50 10000 0.89 90 17:56 23.05.2022
2037 Clear 27 1015 47 10000 0.89 90 16:40 23.05.2022
2038 Clear 29 1004 42 10000 0.89 112 14:44 23.05.2022
2039 Clear 27 1005 37 10000 1.79 180 11:58 23.05.2022
2040 Clear 27 1005 38 10000 1.34 90 11:20 23.05.2022
2041 Clear 26 1005 38 10000 1.34 90 09:48 23.05.2022
2042 Clear 24 1005 44 10000 0.89 90 08:50 23.05.2022
2043 Clear 24 1016 61 10000 1.44 136 07:41 23.05.2022
2044 Clear 19 1005 56 10000 0.89 270 06:41 23.05.2022
2045 Clear 19 1005 57 10000 0.89 270 04:40 23.05.2022
2046 Clear 20 1006 59 10000 0.89 270 02:19 23.05.2022
2047 Clear 20 1006 61 10000 0.89 270 01:33 23.05.2022
2048 Clear 21 1007 64 10000 0.89 270 23:42 22.05.2022
2049 Clear 21 1007 64 10000 0.45 90 22:34 22.05.2022
2050 Clear 22 1007 61 10000 0.45 90 21:54 22.05.2022
2051 Clear 22 1007 58 10000 0.89 90 20:51 22.05.2022
2052 Clear 22 1006 58 10000 0.89 90 20:23 22.05.2022
2053 Clear 23 1006 53 10000 2.6 113 19:54 22.05.2022
2054 Clear 24 1007 50 10000 0.89 90 18:53 22.05.2022
2055 Clear 24 1018 55 10000 1.34 90 18:24 22.05.2022
2056 Clear 25 1018 52 10000 2.24 90 17:28 22.05.2022
2057 Clear 26 1018 51 10000 2.68 90 15:59 22.05.2022
2058 Clear 27 1008 44 10000 0.45 90 14:48 22.05.2022
2059 Clear 26 1008 47 10000 2.24 90 13:38 22.05.2022
2060 Clear 26 1009 44 10000 1.34 90 12:50 22.05.2022
2061 Clear 26 1009 39 10000 1.79 90 11:37 22.05.2022
2062 Clear 24 1009 39 10000 1.34 90 09:42 22.05.2022
2063 Clear 22 1010 45 10000 0.89 90 08:31 22.05.2022
2064 Clear 19 1006 53 10000 1.79 126 07:21 22.05.2022
2065 Clear 18 1010 48 10000 0.89 270 05:31 22.05.2022
2066 Clear 19 1011 54 10000 0.89 270 01:41 22.05.2022
2067 Clear 19 1012 57 10000 0.89 270 00:43 22.05.2022
2068 Clear 19 1012 60 10000 0.45 90 23:54 21.05.2022
2069 Clear 20 1012 61 10000 0.89 90 22:57 21.05.2022
2070 Clear 20 1012 59 10000 0.45 90 21:42 21.05.2022
2071 Clear 19 1023 70 10000 2.65 130 20:59 21.05.2022
2072 Clear 21 1012 54 10000 1.9 97 20:22 21.05.2022
2073 Clear 22 1013 47 10000 0.45 90 19:30 21.05.2022
2074 Clear 23 1024 54 10000 0.89 90 17:51 21.05.2022
2075 Clear 24 1024 49 10000 3.58 90 16:43 21.05.2022
2076 Clouds 26 1015 34 10000 2.24 90 14:37 21.05.2022
2077 Clouds 25 1015 32 10000 2.24 135 13:42 21.05.2022
2078 Clouds 25 1016 34 10000 2.68 90 12:50 21.05.2022
2079 Clouds 25 1016 35 10000 0.89 90 12:26 21.05.2022
2080 Clouds 24 1017 30 10000 3.13 90 10:34 21.05.2022
2081 Clouds 23 1017 36 10000 1.79 90 09:44 21.05.2022
2082 Clouds 22 1017 43 10000 2.24 90 08:57 21.05.2022
2083 Clouds 19 1016 51 10000 2.24 90 07:54 21.05.2022
2084 Clouds 17 1017 60 10000 0.89 270 04:29 21.05.2022
2085 Clear 19 1019 70 10000 0.45 270 23:54 20.05.2022
2086 Clear 19 1019 65 10000 0.89 270 22:59 20.05.2022
2087 Clear 20 1020 63 10000 0.45 270 22:24 20.05.2022
2088 Clear 17 1030 76 10000 0.45 270 21:47 20.05.2022
2089 Clear 19 1030 70 10000 0.45 225 20:57 20.05.2022
2090 Clear 20 1030 66 10000 0.45 90 20:25 20.05.2022
2091 Clear 23 1019 53 10000 0.45 270 19:26 20.05.2022
2092 Clear 23 1030 62 10000 1.34 270 18:46 20.05.2022
2093 Clear 23 1030 55 10000 3.13 270 17:37 20.05.2022
2094 Clear 25 1031 45 10000 1.79 270 16:20 20.05.2022
2095 Clear 25 1031 46 10000 0.89 270 15:53 20.05.2022
2096 Clear 24 1031 50 10000 2.24 315 14:31 20.05.2022
2097 Clear 25 1021 38 10000 3.13 270 13:55 20.05.2022
2098 Clear 24 1022 46 10000 1.79 315 11:38 20.05.2022
2099 Clear 24 1022 53 10000 1.34 270 10:23 20.05.2022
2100 Clear 22 1021 64 10000 1.34 90 08:45 20.05.2022
2101 Clear 19 1021 66 10000 0.89 90 07:18 20.05.2022
2102 Clear 18 1021 70 10000 0.45 270 06:34 20.05.2022
2103 Clear 18 1020 68 10000 1.79 248 04:59 20.05.2022
2104 Clear 19 1019 70 10000 0.45 270 00:54 20.05.2022
2105 Clear 21 1019 77 10000 2.29 161 22:57 19.05.2022
2106 Clear 21 1019 77 10000 0.89 90 22:25 19.05.2022
2107 Clear 20 1029 82 10000 1.34 90 21:48 19.05.2022
2108 Clear 20 1028 79 10000 0.89 90 21:23 19.05.2022
2109 Clear 20 1028 80 10000 1.79 45 20:40 19.05.2022
2110 Clear 21 1028 78 10000 1.79 90 19:53 19.05.2022
2111 Clear 23 1027 70 10000 3.13 135 18:34 19.05.2022
2112 Clear 24 1027 68 10000 3.58 135 17:31 19.05.2022
2113 Clear 24 1027 65 10000 1.34 180 15:33 19.05.2022
2114 Clear 25 1027 63 10000 2.24 90 14:29 19.05.2022
2115 Clear 26 1016 51 10000 3.58 135 13:50 19.05.2022
2116 Clear 24 1016 62 10000 3.58 90 11:46 19.05.2022
2117 Clear 23 1016 72 10000 3.13 45 09:46 19.05.2022
2118 Clear 22 1015 76 10000 3.58 45 08:27 19.05.2022
2119 Clear 20 1014 63 10000 0.45 90 06:31 19.05.2022
2120 Clear 20 1012 70 10000 0.89 90 02:57 19.05.2022
2121 Clear 20 1014 69 10000 0.45 315 00:47 19.05.2022
2122 Clear 21 1013 68 10000 0.45 248 22:53 18.05.2022
2123 Clear 21 1013 69 10000 1.34 225 22:35 18.05.2022
2124 Clear 21 1013 66 10000 0.45 219 21:31 18.05.2022
2125 Clear 22 1012 64 10000 0.45 220 20:55 18.05.2022
2126 Clear 22 1012 64 10000 0.45 220 20:55 18.05.2022
2127 Clear 22 1012 59 10000 1.34 71 20:19 18.05.2022
2128 Clear 23 1022 61 10000 0.45 90 18:46 18.05.2022
2129 Clear 25 1022 52 10000 1.34 90 17:41 18.05.2022
2130 Clear 25 1015 56 10000 1.79 329 17:23 18.05.2022
2131 Clear 25 1022 47 10000 1.79 90 16:35 18.05.2022
2132 Clear 27 1015 46 10000 2.24 338 15:42 18.05.2022
2133 Clear 27 1015 46 10000 2.24 135 15:19 18.05.2022
2134 Clear 26 1011 36 10000 3.13 90 13:48 18.05.2022
2135 Clouds 26 1012 36 10000 2.68 135 12:53 18.05.2022
2136 Clouds 26 1012 33 10000 3.58 90 11:47 18.05.2022
2137 Clouds 25 1012 32 10000 2.24 135 11:29 18.05.2022
2138 Clouds 23 1012 44 10000 2.24 158 09:59 18.05.2022
2139 Clear 20 1011 49 10000 1.79 90 07:56 18.05.2022
2140 Clear 18 1010 55 10000 0.89 270 06:50 18.05.2022
2141 Clear 19 1009 54 10000 1.34 270 02:44 18.05.2022
2142 Clouds 19 1010 60 10000 0.89 225 00:31 18.05.2022
2143 Clouds 20 1011 66 10000 0.45 90 22:57 17.05.2022
2144 Clear 21 1010 63 10000 2.32 109 21:21 17.05.2022
2145 Clear 21 1010 60 10000 0.45 90 20:38 17.05.2022
2146 Clear 23 1010 51 10000 0.89 341 19:29 17.05.2022
2147 Clouds 25 1010 43 10000 0.89 90 18:22 17.05.2022
2148 Clear 25 1015 53 10000 0.89 324 17:28 17.05.2022
2149 Clear 26 1015 51 10000 1.34 8 16:53 17.05.2022
2150 Clear 26 1015 46 10000 2.68 90 15:45 17.05.2022
2151 Clear 26 1012 36 10000 3.13 135 14:48 17.05.2022
2152 Clear 26 1011 35 10000 2.24 334 14:23 17.05.2022
2153 Clear 25 1012 35 10000 3.58 342 12:36 17.05.2022
2154 Clear 24 1013 39 10000 1.79 342 10:23 17.05.2022
2155 Clear 22 1013 46 10000 1.79 90 08:51 17.05.2022
2156 Clear 20 1014 52 10000 1.34 90 07:41 17.05.2022
2157 Clear 17 1013 58 10000 0.89 270 05:58 17.05.2022
2158 Clouds 18 1014 60 10000 0.89 98 00:47 17.05.2022
2159 Clouds 19 1014 63 10000 0.45 90 22:51 16.05.2022
2160 Clouds 19 1013 65 10000 0.89 90 22:30 16.05.2022
2161 Clear 20 1013 62 10000 0.45 184 20:56 16.05.2022
2162 Clear 21 1013 62 10000 0.45 186 20:33 16.05.2022
2163 Clear 23 1013 50 10000 0.89 90 18:41 16.05.2022
2164 Clear 26 1016 52 10000 2.24 90 16:42 16.05.2022
2165 Clear 27 1017 48 10000 1.79 23 14:58 16.05.2022
2166 Clear 26 1013 38 10000 2.24 4 13:34 16.05.2022
2167 Clear 25 1013 44 10000 3.58 112 12:34 16.05.2022
2168 Clear 24 1014 34 10000 3.58 90 10:35 16.05.2022
2169 Clear 20 1014 56 10000 0.89 90 07:48 16.05.2022
2170 Clouds 18 1012 47 10000 0.89 270 05:44 16.05.2022
2171 Clear 19 1013 44 10000 0.89 248 00:48 16.05.2022
2172 Clear 20 1013 39 10000 0.89 90 22:44 15.05.2022
2173 Clear 21 1012 37 10000 0.89 90 21:59 15.05.2022
2174 Clear 20 1016 39 10000 0.89 90 21:36 15.05.2022
2175 Clear 20 1016 32 10000 0.89 90 20:43 15.05.2022
2176 Clouds 23 1022 39 10000 1.34 90 18:39 15.05.2022
2177 Clouds 25 1016 19 10000 1.34 352 16:54 15.05.2022
2178 Clouds 26 1013 19 10000 4.02 90 14:29 15.05.2022
2179 Clouds 25 1013 27 10000 2.24 90 13:45 15.05.2022
2180 Clouds 24 1013 28 10000 3.58 135 11:59 15.05.2022
2181 Clouds 24 1013 29 10000 2.24 90 10:47 15.05.2022
2182 Clear 22 1013 44 10000 3.13 135 09:46 15.05.2022
2183 Clear 18 1013 57 10000 0.89 90 07:23 15.05.2022
2184 Clear 17 1013 60 10000 0.89 270 06:55 15.05.2022
2185 Clear 18 1013 56 10000 0.89 270 02:55 15.05.2022
2186 Clear 19 1013 49 10000 0.89 90 00:24 15.05.2022
2187 Clear 19 1013 49 10000 0.89 70 23:37 14.05.2022
2188 Clear 17 1023 68 10000 0.89 90 21:50 14.05.2022
2189 Clear 20 1013 48 10000 0.89 90 21:26 14.05.2022
2190 Clear 20 1016 46 10000 0.45 179 20:27 14.05.2022
2191 Clear 23 1012 44 10000 0.89 344 19:20 14.05.2022
2192 Clear 23 1013 47 10000 1.34 90 18:57 14.05.2022
2193 Clear 24 1016 36 10000 2.24 344 17:47 14.05.2022
2194 Clear 25 1017 32 10000 1.79 330 15:58 14.05.2022
2195 Clear 25 1017 32 10000 3.13 350 14:39 14.05.2022
2196 Clear 25 1017 32 10000 4.47 90 14:18 14.05.2022
2197 Clear 25 1013 28 10000 1.79 90 11:46 14.05.2022
2198 Clear 23 1014 41 10000 2.68 90 10:45 14.05.2022
2199 Clear 23 1014 42 10000 2.24 90 10:19 14.05.2022
2200 Clear 22 1014 48 10000 1.34 90 09:25 14.05.2022
2201 Clear 19 1014 55 10000 0.8 95 07:43 14.05.2022
2202 Clear 17 1013 60 10000 0.89 270 04:49 14.05.2022
2203 Clear 18 1014 53 10000 0.89 270 01:42 14.05.2022
2204 Clear 19 1014 52 10000 0.89 90 23:28 13.05.2022
2205 Clear 19 1015 51 10000 0.89 90 22:56 13.05.2022
2206 Clear 19 1014 49 10000 0.89 51 22:22 13.05.2022
2207 Clear 19 1018 46 10000 0.89 90 21:19 13.05.2022
2208 Clear 19 1018 39 10000 0.89 90 20:40 13.05.2022
2209 Clear 20 1018 47 10000 1.51 106 20:21 13.05.2022
2210 Clear 22 1014 50 10000 0.45 90 19:18 13.05.2022
2211 Clear 23 1024 54 10000 1.79 90 17:47 13.05.2022
2212 Clear 24 1017 35 10000 2.24 135 17:23 13.05.2022
2213 Clear 24 1024 47 10000 2.24 90 15:48 13.05.2022
2214 Clear 25 1018 34 10000 1.79 351 14:45 13.05.2022
2215 Clear 24 1015 40 10000 2.24 90 12:54 13.05.2022
2216 Clear 24 1015 30 10000 3.13 339 12:20 13.05.2022
2217 Clear 23 1016 39 10000 2.24 90 10:23 13.05.2022
2218 Clear 22 1016 46 10000 0.89 90 09:29 13.05.2022
2219 Clouds 19 1016 60 10000 0.89 90 07:59 13.05.2022
2220 Clouds 19 1016 60 10000 0.89 90 07:59 13.05.2022
2221 Clouds 18 1016 63 10000 1.16 144 07:26 13.05.2022
2222 Clouds 17 1015 52 10000 0.89 270 05:31 13.05.2022
2223 Clouds 18 1013 52 10000 0.45 142 01:37 13.05.2022
2224 Clouds 19 1013 51 10000 1.58 148 23:34 12.05.2022
2225 Clouds 19 1017 60 10000 0.89 90 22:35 12.05.2022
2226 Clouds 19 1016 61 10000 0.45 54 21:35 12.05.2022
2227 Clear 20 1016 66 10000 1.67 110 19:55 12.05.2022
2228 Clear 21 1026 70 10000 1.34 90 18:29 12.05.2022
2229 Clear 23 1020 44 10000 2.24 90 16:48 12.05.2022
2230 Clear 24 1020 39 10000 3.13 15 15:22 12.05.2022
2231 Clear 25 1021 36 10000 3.13 90 13:52 12.05.2022
2232 Clear 24 1017 33 10000 1.34 90 12:29 12.05.2022
2233 Clear 22 1017 47 10000 0.89 338 10:34 12.05.2022
2234 Clear 20 1017 59 10000 2.24 90 08:58 12.05.2022
2235 Clear 19 1018 65 10000 0.89 90 08:37 12.05.2022
2236 Clouds 17 1018 67 10000 0.45 90 07:36 12.05.2022
2237 Clouds 16 1016 53 10000 0.89 248 04:50 12.05.2022
2238 Clear 17 1016 56 10000 0.89 225 01:55 12.05.2022
2239 Clear 17 1017 57 10000 0.89 114 23:42 11.05.2022
2240 Clear 18 1017 56 10000 0.45 103 22:29 11.05.2022
2241 Clear 19 1016 56 10000 0.45 178 21:29 11.05.2022
2242 Clear 18 1020 54 10000 0.45 90 20:48 11.05.2022
2243 Clear 22 1019 46 10000 1.34 90 17:54 11.05.2022
2244 Clear 21 1025 58 10000 1.34 90 16:47 11.05.2022
2245 Clear 23 1019 39 10000 1.79 14 14:50 11.05.2022
2246 Clear 23 1020 37 10000 2.24 343 14:26 11.05.2022
2247 Clear 23 1015 33 10000 2.68 45 13:44 11.05.2022
2248 Clear 23 1016 37 10000 2.24 90 11:50 11.05.2022
2249 Clear 20 1016 61 10000 2.24 90 09:39 11.05.2022
2250 Clear 18 1016 73 10000 1.05 88 07:53 11.05.2022
2251 Clouds 15 1014 78 10000 0.89 270 04:43 11.05.2022
2252 Clouds 16 1015 71 10000 0.45 90 23:48 10.05.2022
2253 Clouds 17 1015 68 10000 1.45 150 22:30 10.05.2022
2254 Clouds 18 1012 67 10000 1.36 99 21:45 10.05.2022
2255 Clear 18 1014 67 10000 1.38 71 20:48 10.05.2022
2256 Clouds 19 1014 71 10000 1.21 18 19:25 10.05.2022
2257 Clouds 20 1023 68 10000 0.89 90 17:47 10.05.2022
2258 Clouds 20 1023 64 10000 1.34 90 16:41 10.05.2022
2259 Clear 22 1018 45 10000 3.58 135 13:59 10.05.2022
2260 Clear 20 1018 48 10000 3.58 180 12:37 10.05.2022
2261 Clear 19 1018 50 10000 2.24 90 11:49 10.05.2022
2262 Clear 19 1018 53 10000 3.58 90 11:18 10.05.2022
2263 Clear 18 1017 61 10000 2.24 90 09:57 10.05.2022
2264 Clear 18 1017 61 10000 2.24 90 09:25 10.05.2022
2265 Clouds 14 1022 95 10000 0.82 147 06:44 10.05.2022
2266 Clouds 15 1022 94 10000 0.73 136 02:59 10.05.2022
2267 Clouds 15 1023 93 10000 0.89 270 00:24 10.05.2022
2268 Clouds 15 1022 93 10000 0.89 270 22:43 09.05.2022
2269 Clouds 15 1022 93 10000 0.89 225 21:48 09.05.2022
2270 Clouds 16 1015 72 10000 0.45 90 20:25 09.05.2022
2271 Clouds 17 1014 73 10000 2.31 120 18:43 09.05.2022
2272 Clouds 17 1015 71 10000 0.89 90 17:40 09.05.2022
2273 Clouds 17 1015 69 10000 2.52 54 16:29 09.05.2022
2274 Clouds 17 1015 67 10000 2.52 54 15:49 09.05.2022
2275 Clouds 17 1015 70 10000 0.45 225 14:54 09.05.2022
2276 Clouds 17 1015 68 10000 1.34 270 14:22 09.05.2022
2277 Clouds 17 1015 70 10000 1.79 315 13:36 09.05.2022
2278 Clouds 17 1015 67 10000 1.79 270 13:36 09.05.2022
2279 Clouds 18 1015 54 10000 2.68 270 12:18 09.05.2022
2280 Clouds 17 1015 57 10000 1.34 315 10:55 09.05.2022
2281 Clouds 17 1015 56 10000 1.79 270 10:36 09.05.2022
2282 Clouds 17 1014 66 10000 1.34 90 08:31 09.05.2022
2283 Clear 16 1019 90 10000 1.08 235 07:49 09.05.2022
2284 Clear 15 1019 88 10000 0.45 225 02:55 09.05.2022
2285 Clear 15 1018 89 10000 0.89 225 23:34 08.05.2022
2286 Clear 15 1018 88 10000 0.89 270 22:52 08.05.2022
2287 Clear 16 1018 87 10000 0.89 292 21:48 08.05.2022
2288 Clear 16 1018 87 10000 0.89 292 21:48 08.05.2022
2289 Clear 15 1017 86 10000 0.45 90 20:35 08.05.2022
2290 Clouds 17 1005 54 10000 1.74 92 19:43 08.05.2022
2291 Clouds 18 1005 53 10000 1.91 79 18:53 08.05.2022
2292 Clouds 18 1005 54 10000 1.95 64 17:57 08.05.2022
2293 Clouds 18 1005 53 10000 1.76 52 16:42 08.05.2022
2294 Clouds 18 1004 52 10000 1.47 18 15:31 08.05.2022
2295 Clouds 19 1013 70 10000 1.47 18 14:44 08.05.2022
2296 Clouds 20 1004 46 10000 2.25 311 12:25 08.05.2022
2297 Clouds 19 1012 68 10000 1.92 254 10:31 08.05.2022
2298 Clouds 18 1012 69 10000 1.92 254 09:57 08.05.2022
2299 Clouds 18 1012 69 10000 1.92 254 09:57 08.05.2022
2300 Clouds 17 1012 75 10000 2.99 259 08:56 08.05.2022
2301 Clouds 16 1003 51 10000 3.26 251 06:58 08.05.2022
2302 Clouds 15 1011 94 10000 3.39 239 03:35 08.05.2022
2303 Clouds 15 1011 94 10000 3.6 231 02:45 08.05.2022
2304 Clouds 16 1013 89 10000 1.79 225 00:24 08.05.2022
2305 Clouds 16 1013 89 10000 1.79 270 23:49 07.05.2022
2306 Clouds 16 1011 86 10000 1.8 203 22:46 07.05.2022
2307 Clouds 16 1011 85 10000 1.63 199 21:58 07.05.2022
2308 Clouds 16 1011 86 10000 1.63 199 21:34 07.05.2022
2309 Clouds 16 1009 87 10000 2.53 126 20:28 07.05.2022
2310 Clouds 16 1009 87 10000 2.53 126 19:44 07.05.2022
2311 Clouds 17 1000 62 10000 2.97 126 17:35 07.05.2022
2312 Clouds 17 1000 56 10000 2.92 136 15:46 07.05.2022
2313 Clouds 18 1000 54 10000 2.32 120 13:39 07.05.2022
2314 Clouds 17 1000 54 10000 2.52 156 10:46 07.05.2022
2315 Clouds 17 1000 55 10000 2.91 184 09:19 07.05.2022
2316 Clouds 16 1000 61 10000 2.71 183 07:50 07.05.2022
2317 Clouds 16 1000 54 10000 2.08 171 06:43 07.05.2022
2318 Clouds 16 1000 54 10000 2.49 175 04:56 07.05.2022
2319 Clouds 16 1001 45 10000 3.27 183 01:24 07.05.2022
2320 Clouds 17 1006 58 10000 4.02 248 23:37 06.05.2022
2321 Clouds 17 1007 56 10000 3.82 203 22:27 06.05.2022
2322 Clouds 17 1007 56 10000 0.45 309 21:43 06.05.2022
2323 Clouds 17 1006 55 10000 3.58 270 20:33 06.05.2022
2324 Clouds 18 1006 50 10000 3.13 198 19:30 06.05.2022
2325 Clouds 18 1006 48 10000 3.58 225 18:57 06.05.2022
2326 Clouds 18 1006 49 10000 3.13 215 18:18 06.05.2022
2327 Clouds 19 1006 51 10000 4.47 225 16:39 06.05.2022
2328 Clouds 18 1006 58 10000 3.13 0 15:39 06.05.2022
2329 Clouds 17 1006 58 10000 3.13 315 14:46 06.05.2022
2330 Clouds 21 1011 63 10000 0.45 90 12:54 06.05.2022
2331 Clouds 21 1012 63 10000 1.79 90 12:36 06.05.2022
2332 Clouds 21 1012 60 10000 1.34 315 11:42 06.05.2022
2333 Clouds 21 1012 59 10000 0.89 45 10:27 06.05.2022
2334 Clouds 22 1006 39 10000 1.79 45 09:45 06.05.2022
2335 Clouds 20 1011 57 10000 3.58 225 08:27 06.05.2022
2336 Clouds 22 1008 72 10000 6.07 161 06:45 06.05.2022
2337 Clouds 24 1007 65 10000 6.96 154 04:53 06.05.2022
2338 Clear 20 1008 50 10000 9.62 157 02:45 06.05.2022
2339 Clouds 21 1009 44 10000 9.34 145 23:45 05.05.2022
2340 Clear 21 1009 47 10000 7.85 146 21:56 05.05.2022
2341 Clear 21 1009 48 10000 7.66 129 21:19 05.05.2022
2342 Clouds 23 1013 43 10000 4.92 90 19:53 05.05.2022
2343 Clouds 24 1013 42 10000 4.02 90 18:31 05.05.2022
2344 Clouds 27 1015 33 10000 9.39 90 16:20 05.05.2022
2345 Clouds 27 1016 35 10000 4.02 90 14:49 05.05.2022
2346 Clouds 23 1018 52 10000 3.13 68 13:22 05.05.2022
2347 Clouds 25 1012 37 10000 3.13 90 12:49 05.05.2022
2348 Clouds 25 1013 37 10000 3.58 90 10:48 05.05.2022
2349 Clouds 23 1013 41 10000 1.34 90 09:39 05.05.2022
2350 Clouds 20 1013 44 10000 0.45 90 07:35 05.05.2022
2351 Clouds 18 1012 52 10000 0.89 248 04:42 05.05.2022
2352 Clouds 18 1013 52 10000 0.89 270 01:53 05.05.2022
2353 Clouds 18 1014 52 10000 0.45 90 01:24 05.05.2022
2354 Clouds 18 1015 54 10000 0.45 90 23:50 04.05.2022
2355 Clouds 18 1015 54 10000 0.89 90 22:42 04.05.2022
2356 Clouds 19 1009 45 10000 4.1 136 21:50 04.05.2022
2357 Clouds 18 1019 72 10000 3.71 112 21:26 04.05.2022
2358 Clouds 18 1014 54 10000 0.89 90 20:24 04.05.2022
2359 Clouds 19 1015 51 10000 2.28 103 19:53 04.05.2022
2360 Clouds 20 1015 47 10000 1.34 90 18:56 04.05.2022
2361 Clouds 21 1015 47 10000 0.89 90 18:22 04.05.2022
2362 Clouds 20 1015 48 10000 0.89 90 17:38 04.05.2022
2363 Clouds 21 1015 48 10000 2.24 90 15:41 04.05.2022
2364 Clear 21 1016 48 10000 2.24 90 15:23 04.05.2022
2365 Clear 22 1016 47 10000 2.24 90 14:21 04.05.2022
2366 Clouds 22 1016 46 10000 1.79 90 13:33 04.05.2022
2367 Clouds 22 1015 42 10000 4.47 135 12:33 04.05.2022
2368 Clouds 22 1015 41 10000 0.89 90 10:41 04.05.2022
2369 Clear 21 1015 47 10000 2.24 135 09:43 04.05.2022
2370 Clear 18 1020 69 10000 0.45 90 08:46 04.05.2022
2371 Clear 15 1013 48 10000 0.89 90 06:41 04.05.2022
2372 Clear 14 1013 47 10000 0.89 315 02:58 04.05.2022
2373 Clouds 15 1013 58 10000 0.45 225 00:38 04.05.2022
2374 Clouds 16 1013 56 10000 0.89 270 22:37 03.05.2022
2375 Clouds 16 1013 56 10000 0.89 90 21:46 03.05.2022
2376 Clouds 16 1012 51 10000 0.45 90 20:54 03.05.2022
2377 Clouds 17 1018 74 10000 0.89 90 19:59 03.05.2022
2378 Clear 19 1012 49 10000 2.3 74 18:54 03.05.2022
2379 Clear 19 1011 48 10000 1.79 90 18:21 03.05.2022
2380 Clear 20 1011 43 10000 2.24 158 16:44 03.05.2022
2381 Clear 21 1012 42 10000 2.24 90 15:38 03.05.2022
2382 Clouds 21 1011 43 10000 3.13 135 12:47 03.05.2022
2383 Clouds 20 1011 44 10000 2.24 90 12:27 03.05.2022
2384 Clouds 20 1011 47 10000 1.79 90 10:57 03.05.2022
2385 Clouds 18 1016 67 10000 2.24 90 09:35 03.05.2022
2386 Clouds 16 1010 58 10000 0.45 90 07:33 03.05.2022
2387 Clouds 14 1010 58 10000 0.89 225 06:45 03.05.2022
2388 Clouds 14 1010 58 10000 0.45 90 01:47 03.05.2022
2389 Clear 15 1011 50 10000 0.45 90 22:39 02.05.2022
2390 Clear 14 1017 84 10000 0.45 90 21:54 02.05.2022
2391 Clear 15 1017 83 10000 0.3 192 21:23 02.05.2022
2392 Clear 19 1009 50 10000 3.13 315 18:46 02.05.2022
2393 Clear 18 1009 48 10000 2.68 315 18:25 02.05.2022
2394 Clear 20 1009 46 10000 1.79 315 17:37 02.05.2022
2395 Clear 20 1009 43 10000 0.89 90 16:23 02.05.2022
2396 Clear 19 1015 62 10000 2.24 315 15:31 02.05.2022
2397 Clear 20 1009 46 10000 0.45 90 13:58 02.05.2022
2398 Clear 20 1010 44 10000 3.58 90 12:27 02.05.2022
2399 Clear 20 1009 43 10000 2.24 90 10:52 02.05.2022
2400 Clear 18 1015 63 10000 0.89 90 09:31 02.05.2022
2401 Clear 17 1009 49 10000 1.34 90 07:57 02.05.2022
2402 Clear 14 1009 43 10000 1.79 225 04:44 02.05.2022
2403 Clear 14 1011 51 10000 0.45 90 00:25 02.05.2022
2404 Clear 14 1011 51 10000 0.89 90 23:52 01.05.2022
2405 Clear 14 1011 46 10000 0.89 90 22:45 01.05.2022
2406 Clear 14 1011 46 10000 0.89 90 21:30 01.05.2022
2407 Clouds 16 1011 42 10000 0.45 90 20:19 01.05.2022
2408 Clouds 18 1011 51 10000 0.89 270 19:18 01.05.2022
2409 Clouds 18 1017 66 10000 0.89 270 18:50 01.05.2022
2410 Clouds 20 1011 41 10000 1.66 30 17:47 01.05.2022
2411 Clouds 21 1011 36 10000 2.68 90 16:24 01.05.2022
2412 Clouds 21 1011 39 10000 1.79 90 15:43 01.05.2022
2413 Clouds 21 1012 28 10000 2.24 180 14:41 01.05.2022
2414 Clouds 20 1013 42 10000 2.24 90 11:53 01.05.2022
2415 Clouds 19 1013 39 10000 0.45 90 09:33 01.05.2022
2416 Clouds 18 1013 41 10000 1.79 90 08:49 01.05.2022
2417 Clouds 15 1012 38 10000 0.89 270 05:31 01.05.2022
2418 Clouds 16 1014 47 10000 0.89 90 00:43 01.05.2022
2419 Clouds 16 1014 56 10000 0.45 90 21:59 30.04.2022
2420 Clouds 16 1014 56 10000 0.45 90 21:30 30.04.2022
2421 Clouds 16 1014 56 10000 0.45 90 21:30 30.04.2022
2422 Clouds 16 1014 56 10000 0.45 90 21:30 30.04.2022
2423 Clouds 16 1014 56 10000 0.45 90 21:30 30.04.2022
2424 Clouds 17 1014 55 10000 0.89 90 19:47 30.04.2022
2425 Clouds 19 1013 51 10000 1.79 90 18:50 30.04.2022
2426 Clouds 20 1014 42 10000 0.89 90 17:20 30.04.2022
2427 Clouds 21 1015 38 10000 3.58 90 15:50 30.04.2022
2428 Clouds 21 1015 46 10000 0.89 270 14:54 30.04.2022
2429 Clouds 22 1015 43 10000 2.68 225 13:41 30.04.2022
2430 Clouds 21 1016 42 10000 1.79 90 11:35 30.04.2022
2431 Clouds 20 1022 58 10000 2.68 90 10:55 30.04.2022
2432 Clouds 20 1021 56 10000 2.24 90 09:54 30.04.2022
2433 Clouds 15 1020 72 10000 0.45 225 07:35 30.04.2022
2434 Clouds 14 1015 64 10000 0.89 270 03:45 30.04.2022
2435 Clouds 15 1016 64 10000 0.45 248 23:54 29.04.2022
2436 Clouds 15 1016 64 10000 0.89 90 22:35 29.04.2022
2437 Clouds 16 1015 65 10000 0.89 90 21:54 29.04.2022
2438 Clouds 16 1015 66 10000 0.45 90 21:19 29.04.2022
2439 Clouds 17 1009 54 10000 0.38 68 19:52 29.04.2022
2440 Clouds 17 1014 60 10000 1.34 90 18:58 29.04.2022
2441 Clouds 18 1014 57 10000 1.79 90 17:33 29.04.2022
2442 Clouds 20 1014 53 10000 0.89 90 15:58 29.04.2022
2443 Clouds 21 1014 50 10000 0.89 90 14:34 29.04.2022
2444 Clouds 20 1014 48 10000 0.89 90 13:27 29.04.2022
2445 Clouds 20 1014 48 10000 2.68 248 12:26 29.04.2022
2446 Clouds 19 1014 41 10000 2.24 270 09:48 29.04.2022
2447 Clouds 17 1013 45 10000 1.34 270 07:42 29.04.2022
2448 Clouds 17 1013 45 10000 1.34 270 07:42 29.04.2022
2449 Clouds 16 1013 45 10000 0.45 270 07:23 29.04.2022
2450 Clouds 16 1013 33 10000 1.79 225 05:57 29.04.2022
2451 Clouds 16 1015 47 10000 0.89 270 00:51 29.04.2022
2452 Clouds 16 1015 54 10000 0.89 225 23:49 28.04.2022
2453 Clouds 16 1014 55 10000 0.89 90 22:45 28.04.2022
2454 Clouds 16 1014 51 10000 0.97 177 21:59 28.04.2022
2455 Clouds 17 1014 51 10000 0.89 90 21:37 28.04.2022
2456 Clouds 17 1013 51 10000 1.11 146 20:41 28.04.2022
2457 Clouds 17 1013 50 10000 0.88 80 19:49 28.04.2022
2458 Clouds 18 1013 49 10000 1.24 68 19:23 28.04.2022
2459 Clouds 19 1013 45 10000 0.89 90 18:38 28.04.2022
2460 Clouds 20 1013 40 10000 2.24 90 17:32 28.04.2022
2461 Clouds 21 1013 39 10000 1.34 90 16:50 28.04.2022
2462 Clouds 21 1013 41 10000 2.68 90 16:20 28.04.2022
2463 Clouds 22 1013 42 10000 0.89 90 15:41 28.04.2022
2464 Clouds 22 1013 43 10000 1.79 90 14:47 28.04.2022
2465 Clouds 22 1013 40 10000 1.34 90 13:20 28.04.2022
2466 Clouds 21 1014 43 10000 0.89 90 12:28 28.04.2022
2467 Clouds 20 1014 43 10000 2.24 90 10:51 28.04.2022
2468 Clouds 21 1013 39 10000 2.24 90 10:26 28.04.2022
2469 Clouds 19 1013 30 10000 1.79 90 09:41 28.04.2022
2470 Clouds 17 1013 41 10000 2 102 07:40 28.04.2022
2471 Clouds 16 1012 43 10000 2.21 113 06:38 28.04.2022
2472 Clouds 16 1018 60 10000 2.33 105 05:40 28.04.2022
2473 Clouds 16 1012 41 10000 0.45 90 04:42 28.04.2022
2474 Clouds 17 1014 49 10000 0.89 90 00:51 28.04.2022
2475 Clouds 17 1014 47 10000 0.45 90 22:52 27.04.2022
2476 Clouds 17 1014 47 10000 0.89 90 21:58 27.04.2022
2477 Clouds 17 1014 46 10000 2.76 119 21:32 27.04.2022
2478 Clouds 17 1013 42 10000 2.91 117 20:44 27.04.2022
2479 Clouds 18 1019 62 10000 2.87 110 19:41 27.04.2022
2480 Clouds 19 1013 40 10000 0.89 90 19:22 27.04.2022
2481 Clouds 19 1013 40 10000 0.89 90 19:22 27.04.2022
2482 Clouds 19 1019 52 10000 0.89 90 18:38 27.04.2022
2483 Clouds 20 1019 53 10000 1.79 90 17:26 27.04.2022
2484 Clear 22 1013 35 10000 1.79 180 15:56 27.04.2022
2485 Clear 22 1014 40 10000 1.34 135 12:34 27.04.2022
2486 Clear 21 1014 40 10000 3.13 90 11:23 27.04.2022
2487 Clear 21 1013 41 10000 2.24 90 10:26 27.04.2022
2488 Clear 18 1012 53 10000 2.42 106 07:41 27.04.2022
2489 Clear 14 1012 51 10000 0.89 248 06:36 27.04.2022
2490 Clear 16 1012 47 10000 0.89 225 02:25 27.04.2022
2491 Clear 16 1012 49 10000 0.89 270 01:18 27.04.2022
2492 Clear 16 1012 52 10000 0.89 270 00:27 27.04.2022
2493 Clear 16 1013 55 10000 0.89 270 23:23 26.04.2022
2494 Clear 16 1013 57 10000 0.89 270 22:43 26.04.2022
2495 Clear 16 1013 56 10000 0.89 90 21:57 26.04.2022
2496 Clear 17 1013 53 10000 0.45 90 20:58 26.04.2022
2497 Clear 17 1012 52 10000 0.45 90 20:36 26.04.2022
2498 Clear 17 1018 70 10000 0.45 90 19:44 26.04.2022
2499 Clear 19 1012 48 10000 2.28 97 19:24 26.04.2022
2500 Clear 20 1012 44 10000 0.45 90 18:20 26.04.2022
2501 Clear 20 1012 43 10000 0.45 90 17:34 26.04.2022
2502 Clear 21 1012 43 10000 1.34 90 14:59 26.04.2022
2503 Clouds 21 1012 45 10000 2.24 90 13:38 26.04.2022
2504 Clouds 21 1013 48 10000 2.24 90 12:35 26.04.2022
2505 Clouds 20 1013 51 10000 0.89 90 10:57 26.04.2022
2506 Clouds 19 1013 50 10000 2.24 90 10:29 26.04.2022
2507 Clouds 16 1017 76 10000 2.61 105 08:29 26.04.2022
2508 Clouds 14 1010 48 10000 0.89 270 04:39 26.04.2022
2509 Clouds 15 1010 48 10000 0.89 315 03:59 26.04.2022
2510 Clouds 14 1012 54 10000 2.67 120 00:46 26.04.2022
2511 Clouds 15 1012 57 10000 0.89 90 23:48 25.04.2022
2512 Clouds 15 1012 63 10000 2.58 125 21:49 25.04.2022
2513 Clouds 16 1012 62 10000 0.45 90 21:23 25.04.2022
2514 Clouds 16 1012 58 10000 1.34 90 19:39 25.04.2022
2515 Clouds 17 1017 74 10000 1.34 90 18:25 25.04.2022
2516 Clouds 18 1017 68 10000 2.24 90 17:39 25.04.2022
2517 Clouds 20 1011 42 10000 2.24 90 16:30 25.04.2022
2518 Clouds 20 1012 44 10000 0.89 135 15:19 25.04.2022
2519 Clouds 21 1012 39 10000 2.24 112 14:22 25.04.2022
2520 Clouds 20 1012 42 10000 2.24 180 12:40 25.04.2022
2521 Clouds 18 1017 57 10000 0.89 135 10:29 25.04.2022
2522 Clouds 18 1017 57 10000 0.89 135 10:29 25.04.2022
2523 Clouds 19 1011 41 10000 0.89 90 09:39 25.04.2022
2524 Clear 17 1010 40 10000 0.89 270 07:34 25.04.2022
2525 Clear 15 1015 49 10000 2.24 315 05:53 25.04.2022
2526 Clear 16 1016 50 10000 3.58 315 01:27 25.04.2022
2527 Clear 16 1017 55 10000 1.79 292 23:54 24.04.2022
2528 Clear 16 1011 37 10000 2.24 270 23:20 24.04.2022
2529 Clear 16 1011 39 10000 1.79 315 22:37 24.04.2022
2530 Clear 15 1017 61 10000 0.45 315 21:54 24.04.2022
2531 Clear 16 1017 60 10000 0.45 270 21:21 24.04.2022
2532 Clear 16 1016 56 10000 1.34 270 20:41 24.04.2022
2533 Clouds 17 1016 60 10000 2.24 0 19:57 24.04.2022
2534 Clouds 18 1016 58 10000 2.24 0 18:33 24.04.2022
2535 Clouds 20 1010 42 10000 4.02 315 17:41 24.04.2022
2536 Clouds 19 1016 56 10000 2.24 315 17:20 24.04.2022
2537 Clouds 19 1016 56 10000 2.24 315 16:51 24.04.2022
2538 Clouds 20 1016 51 10000 3.58 315 16:22 24.04.2022
2539 Clouds 20 1015 54 10000 4.92 292 15:36 24.04.2022
2540 Clouds 21 1015 60 10000 2.24 270 14:31 24.04.2022
2541 Clouds 21 1009 39 10000 3.58 248 13:26 24.04.2022
2542 Clouds 23 1009 42 10000 4.47 225 12:44 24.04.2022
2543 Clouds 23 1015 42 10000 1.79 270 11:46 24.04.2022
2544 Clouds 22 1012 43 10000 2.53 287 10:33 24.04.2022
2545 Clouds 21 1015 49 10000 1.79 90 09:42 24.04.2022
2546 Clouds 18 1015 51 10000 0.89 270 07:41 24.04.2022
2547 Clouds 19 1011 59 10000 2.58 225 05:32 24.04.2022
2548 Clouds 17 1012 43 10000 3.8 233 01:51 24.04.2022
2549 Clouds 17 1011 59 10000 3.42 188 00:38 24.04.2022
2550 Clouds 16 1011 61 10000 3.95 158 23:45 23.04.2022
2551 Clouds 17 1011 58 10000 3.7 152 23:25 23.04.2022
2552 Clear 17 1008 48 10000 0.45 22 21:56 23.04.2022
2553 Clear 17 1008 49 10000 0.45 270 21:36 23.04.2022
2554 Clear 17 1008 48 10000 0.89 0 20:58 23.04.2022
2555 Clear 18 1008 47 10000 3.28 142 19:54 23.04.2022
2556 Clear 18 1008 51 10000 2.47 132 19:19 23.04.2022
2557 Clear 18 1008 50 10000 0.45 90 18:53 23.04.2022
2558 Clear 19 1008 49 10000 2.49 131 18:28 23.04.2022
2559 Clear 19 1008 50 10000 0.89 90 17:43 23.04.2022
2560 Clear 20 1008 48 10000 0.89 90 16:43 23.04.2022
2561 Clear 21 1008 46 10000 2.68 135 15:32 23.04.2022
2562 Clear 21 1009 45 10000 2.24 90 12:54 23.04.2022
2563 Clear 20 1009 46 10000 1.79 1 10:52 23.04.2022
2564 Clouds 18 1014 63 10000 2.24 135 09:38 23.04.2022
2565 Clouds 15 1008 55 10000 1.79 270 07:38 23.04.2022
2566 Clouds 14 1007 57 10000 1.34 225 03:56 23.04.2022
2567 Clouds 15 1008 58 10000 2.24 315 01:55 23.04.2022
2568 Clouds 16 1007 55 10000 2.24 270 23:33 22.04.2022
2569 Clouds 16 1007 53 10000 3.58 270 22:28 22.04.2022
2570 Clouds 16 1006 55 10000 5.36 292 21:44 22.04.2022
2571 Clouds 16 1001 46 10000 0.89 149 20:55 22.04.2022
2572 Clouds 16 1001 47 10000 1.79 212 20:28 22.04.2022
2573 Clouds 17 999 45 10000 2.24 219 19:22 22.04.2022
2574 Clouds 16 999 45 10000 0.89 205 18:46 22.04.2022
2575 Clouds 17 998 42 10000 1.79 245 17:54 22.04.2022
2576 Clouds 17 1002 56 10000 9.39 0 16:52 22.04.2022
2577 Clouds 17 1002 56 10000 5.36 225 15:47 22.04.2022
2578 Clouds 16 1002 54 10000 3.58 225 15:21 22.04.2022
2579 Clouds 16 1002 51 10000 4.92 225 13:54 22.04.2022
2580 Clouds 17 1002 51 10000 3.58 202 13:27 22.04.2022
2581 Clouds 17 1001 47 10000 5.81 315 12:29 22.04.2022
2582 Clouds 17 1006 59 10000 1.34 90 11:22 22.04.2022
2583 Clouds 17 1005 57 10000 3.58 270 10:52 22.04.2022
2584 Clouds 17 1005 56 10000 0.89 180 10:31 22.04.2022
2585 Clouds 16 1005 58 10000 5.36 180 09:53 22.04.2022
2586 Clouds 16 1005 63 10000 4.02 270 08:56 22.04.2022
2587 Clouds 15 1004 68 10000 4.02 315 07:44 22.04.2022
2588 Clouds 14 1004 75 10000 5.36 315 05:20 22.04.2022
2589 Clouds 15 1005 73 10000 2.68 315 00:53 22.04.2022
2590 Clouds 16 1004 81 10000 4.47 315 23:28 21.04.2022
2591 Clouds 16 1004 83 10000 3.58 315 22:29 21.04.2022
2592 Clouds 17 1002 74 10000 4.02 225 20:55 21.04.2022
2593 Clouds 17 1002 83 10000 3.58 225 20:26 21.04.2022
2594 Clouds 18 1001 73 10000 5.36 225 18:48 21.04.2022
2595 Rain 21 992 38 10000 1.63 135 18:19 21.04.2022
2596 Clouds 23 995 33 10000 2.24 270 16:49 21.04.2022
2597 Clouds 23 996 28 10000 4.92 270 15:23 21.04.2022
2598 Clouds 23 996 27 10000 6.26 315 14:50 21.04.2022
2599 Clouds 23 995 26 10000 4.02 90 13:44 21.04.2022
2600 Clouds 23 997 26 10000 1.79 225 13:18 21.04.2022
2601 Clouds 22 997 24 10000 6.26 135 11:25 21.04.2022
2602 Clouds 21 999 27 10000 1.79 90 08:59 21.04.2022
2603 Clouds 19 1003 43 10000 3.66 150 07:55 21.04.2022
2604 Clouds 17 1004 52 10000 4.02 154 06:21 21.04.2022
2605 Clouds 17 1006 69 10000 2.41 182 03:35 21.04.2022
2606 Clouds 17 1006 68 10000 2.16 225 02:48 21.04.2022
2607 Clouds 16 1007 71 10000 2.06 244 01:50 21.04.2022
2608 Clouds 19 1007 48 10000 4.29 176 23:53 20.04.2022
2609 Clouds 20 1007 44 10000 5.16 164 23:23 20.04.2022
2610 Clouds 20 1007 45 10000 5.15 164 22:51 20.04.2022
2611 Clouds 19 1007 48 10000 5.15 164 22:32 20.04.2022
2612 Clouds 20 1007 48 10000 4.81 154 21:33 20.04.2022
2613 Clouds 19 1008 52 10000 4.06 163 20:42 20.04.2022
2614 Clouds 19 1007 57 10000 3.79 150 19:55 20.04.2022
2615 Clouds 19 1006 57 10000 4.96 136 19:29 20.04.2022
2616 Clouds 19 1011 57 10000 1.34 90 18:33 20.04.2022
2617 Clouds 18 1010 66 10000 4.02 158 16:58 20.04.2022
2618 Clouds 19 1012 61 10000 0.89 90 16:38 20.04.2022
2619 Clouds 20 1013 60 10000 1.79 90 14:48 20.04.2022
2620 Clouds 19 1014 59 10000 0.89 90 11:57 20.04.2022
2621 Clouds 19 1014 57 10000 2.68 135 11:33 20.04.2022
2622 Clouds 20 1014 42 10000 1.34 90 10:29 20.04.2022
2623 Clouds 19 1014 46 10000 0.89 90 09:27 20.04.2022
2624 Clouds 16 1011 55 10000 2.87 161 08:24 20.04.2022
2625 Clouds 14 1011 56 10000 3.05 157 07:43 20.04.2022
2626 Clear 14 1014 64 10000 1.79 248 04:49 20.04.2022
2627 Clear 13 1015 69 10000 1.79 248 01:20 20.04.2022
2628 Clear 13 1016 68 10000 1.79 270 00:20 20.04.2022
2629 Clear 13 1016 74 10000 0.89 225 22:44 19.04.2022
2630 Clear 13 1016 75 10000 0.45 225 22:22 19.04.2022
2631 Clear 13 1016 75 10000 0.89 270 21:38 19.04.2022
2632 Clear 13 1016 74 10000 3.02 152 20:56 19.04.2022
2633 Clear 13 1016 73 10000 0.45 90 20:36 19.04.2022
2634 Clear 14 1016 70 10000 1.98 132 19:32 19.04.2022
2635 Clear 16 1016 67 10000 0.89 90 18:26 19.04.2022
2636 Clear 17 1016 64 10000 1.79 90 16:47 19.04.2022
2637 Clear 17 1016 62 10000 2.24 90 16:24 19.04.2022
2638 Clear 17 1017 60 10000 1.34 158 15:23 19.04.2022
2639 Clear 17 1017 59 10000 0.89 135 14:40 19.04.2022
2640 Clear 17 1017 51 10000 2.24 225 12:52 19.04.2022
2641 Clear 17 1017 50 10000 1.79 225 12:29 19.04.2022
2642 Clear 16 1018 57 10000 1.34 90 11:23 19.04.2022
2643 Clear 14 1017 60 10000 0.89 90 09:27 19.04.2022
2644 Clear 11 1016 73 10000 2.68 292 07:37 19.04.2022
2645 Clear 10 1016 75 10000 1.79 292 04:23 19.04.2022
2646 Clear 12 1017 74 10000 1.79 270 01:18 19.04.2022
2647 Clear 12 1017 73 10000 2.24 270 23:40 18.04.2022
2648 Clear 11 1016 78 10000 2.68 0 21:57 18.04.2022
2649 Clear 11 1016 77 10000 1.79 270 21:25 18.04.2022
2650 Clear 12 1016 72 10000 2.24 270 20:38 18.04.2022
2651 Clouds 13 1015 67 10000 0.89 270 19:59 18.04.2022
2652 Clouds 13 1015 69 10000 0.89 270 19:30 18.04.2022
2653 Clouds 14 1015 61 10000 0.89 292 18:37 18.04.2022
2654 Clouds 15 1014 63 10000 2.24 315 17:39 18.04.2022
2655 Clouds 15 1014 61 10000 2.68 270 17:19 18.04.2022
2656 Clouds 15 1014 59 10000 1.79 248 16:38 18.04.2022
2657 Clouds 15 1014 60 10000 3.13 315 15:30 18.04.2022
2658 Clouds 15 1014 62 10000 3.58 292 14:22 18.04.2022
2659 Clouds 16 1012 58 10000 4.11 3 12:54 18.04.2022
2660 Clouds 16 1012 58 10000 3.84 3 12:23 18.04.2022
2661 Clouds 15 1012 64 10000 3.29 4 10:46 18.04.2022
2662 Clouds 14 1011 71 10000 2.91 357 09:32 18.04.2022
2663 Clouds 13 1010 80 10000 2.72 345 08:39 18.04.2022
2664 Clouds 11 1010 79 10000 2.19 1 06:52 18.04.2022
2665 Clouds 11 1011 90 10000 0.89 270 02:28 18.04.2022
2666 Clouds 12 1009 85 10000 5.11 24 23:21 17.04.2022
2667 Clouds 12 1009 86 10000 5.11 24 22:36 17.04.2022
2668 Clouds 12 1009 86 6683 6.07 19 21:34 17.04.2022
2669 Clouds 12 1008 86 4750 7.3 30 20:51 17.04.2022
2670 Clouds 12 1008 90 8716 3.13 22 20:19 17.04.2022
2671 Clouds 12 1006 86 9389 3.44 346 18:45 17.04.2022
2672 Rain 12 1008 90 10000 4.92 292 17:26 17.04.2022
2673 Clouds 13 1008 86 10000 2.68 270 15:34 17.04.2022
2674 Clouds 12 1009 87 10000 4.92 270 14:45 17.04.2022
2675 Rain 12 1009 87 10000 5.81 315 13:29 17.04.2022
2676 Rain 13 1009 85 10000 4.92 315 12:49 17.04.2022
2677 Clouds 17 1009 73 10000 4.47 248 10:58 17.04.2022
2678 Clouds 16 1009 75 10000 4.92 270 10:29 17.04.2022
2679 Clouds 16 1009 71 10000 4.92 270 09:55 17.04.2022
2680 Clouds 16 1009 73 10000 3.58 270 09:21 17.04.2022
2681 Clouds 16 1009 74 10000 2.68 270 08:41 17.04.2022
2682 Clouds 15 1009 64 10000 4.47 270 06:29 17.04.2022
2683 Clouds 16 1012 58 10000 3.13 315 02:26 17.04.2022
2684 Clouds 16 1013 59 10000 3.58 270 00:42 17.04.2022
2685 Clouds 16 1013 57 10000 3.58 292 23:38 16.04.2022
2686 Clouds 16 1014 57 10000 2.24 315 21:49 16.04.2022
2687 Clouds 16 1013 63 10000 0.89 315 20:54 16.04.2022
2688 Clouds 17 1012 65 10000 1.42 8 19:30 16.04.2022
2689 Clouds 17 1012 57 10000 2.24 90 18:44 16.04.2022
2690 Clouds 19 1012 53 10000 1.34 90 17:21 16.04.2022
2691 Clouds 19 1012 52 10000 3.13 90 16:19 16.04.2022
2692 Clouds 20 1013 52 10000 2.68 45 14:59 16.04.2022
2693 Clouds 20 1014 53 10000 3.58 45 14:41 16.04.2022
2694 Clouds 19 1014 57 10000 2.68 90 13:50 16.04.2022
2695 Clouds 19 1014 58 10000 2.24 90 13:18 16.04.2022
2696 Clouds 19 1015 61 10000 0.89 90 11:50 16.04.2022
2697 Clouds 18 1015 55 10000 0.89 90 10:35 16.04.2022
2698 Clouds 17 1015 58 10000 0.43 189 09:38 16.04.2022
2699 Clouds 17 1015 57 10000 0.62 202 08:52 16.04.2022
2700 Clouds 16 1014 60 10000 0.45 270 07:23 16.04.2022
2701 Clouds 16 1014 56 10000 0.89 90 05:45 16.04.2022
2702 Clouds 16 1017 62 10000 1.79 225 01:49 16.04.2022
2703 Clouds 17 1016 50 10000 0.89 248 23:53 15.04.2022
2704 Clouds 17 1017 47 10000 2.24 225 22:51 15.04.2022
2705 Clouds 17 1017 47 10000 2.24 225 22:31 15.04.2022
2706 Clouds 17 1017 50 10000 0.89 270 21:34 15.04.2022
2707 Clouds 17 1016 51 10000 1.79 270 20:44 15.04.2022
2708 Clouds 17 1016 52 10000 0.89 90 19:49 15.04.2022
2709 Clouds 18 1016 52 10000 0.41 141 19:30 15.04.2022
2710 Clouds 18 1016 47 10000 1.2 114 18:45 15.04.2022
2711 Clouds 18 1016 44 10000 1.63 69 18:23 15.04.2022
2712 Clouds 19 1016 42 10000 0.45 90 17:28 15.04.2022
2713 Clouds 20 1016 42 10000 1.56 108 16:25 15.04.2022
2714 Clouds 20 1016 43 10000 0.45 90 16:25 15.04.2022
2715 Clouds 19 1017 48 10000 0.89 90 15:52 15.04.2022
2716 Clouds 20 1018 45 10000 0.45 90 14:22 15.04.2022
2717 Clouds 21 1018 35 10000 2.24 90 12:53 15.04.2022
2718 Clouds 21 1018 38 10000 1.34 90 12:28 15.04.2022
2719 Clouds 21 1018 35 10000 1.79 90 11:54 15.04.2022
2720 Clouds 19 1018 35 10000 0.89 90 10:48 15.04.2022
2721 Clouds 19 1018 35 10000 0.45 90 10:21 15.04.2022
2722 Clouds 18 1018 34 10000 1.34 90 09:23 15.04.2022
2723 Clouds 17 1019 36 10000 0.45 270 08:57 15.04.2022
2724 Clouds 15 1018 42 10000 2.24 248 06:55 15.04.2022
2725 Clouds 14 1017 45 10000 0.45 270 05:56 15.04.2022
2726 Clouds 17 1018 36 10000 0.89 270 01:33 15.04.2022
2727 Clouds 17 1018 41 10000 0.45 315 23:30 14.04.2022
2728 Clouds 17 1018 43 10000 0.89 225 22:46 14.04.2022
2729 Clouds 17 1018 44 10000 0.45 270 22:27 14.04.2022
2730 Clouds 17 1018 44 10000 0.45 270 22:27 14.04.2022
2731 Clouds 18 1018 44 10000 0.45 225 21:53 14.04.2022
2732 Clouds 17 1017 50 10000 1.34 0 19:57 14.04.2022
2733 Clouds 17 1016 50 10000 1.34 90 19:22 14.04.2022
2734 Clouds 18 1016 52 10000 0.89 90 17:56 14.04.2022
2735 Clouds 18 1016 55 10000 0.89 90 17:27 14.04.2022
2736 Clouds 18 1016 55 10000 4.47 135 16:33 14.04.2022
2737 Clouds 21 1017 49 10000 0.89 90 14:20 14.04.2022
2738 Clouds 21 1017 48 10000 1.79 90 13:31 14.04.2022
2739 Clouds 21 1017 46 10000 3.13 90 12:42 14.04.2022
2740 Clouds 21 1016 45 10000 4.02 90 12:22 14.04.2022
2741 Clouds 19 1013 52 10000 3.6 109 11:21 14.04.2022
2742 Clouds 19 1016 46 10000 1.79 90 10:36 14.04.2022
2743 Clouds 18 1016 48 10000 2.24 90 09:54 14.04.2022
2744 Clouds 16 1016 53 10000 2.84 127 08:40 14.04.2022
2745 Clouds 14 1015 50 10000 0.89 90 06:50 14.04.2022
2746 Clouds 13 1013 56 10000 1.72 159 02:45 14.04.2022
2747 Clouds 14 1015 60 10000 2.14 160 22:52 13.04.2022
2748 Clouds 14 1017 74 10000 2.32 156 21:44 13.04.2022
2749 Clouds 14 1016 72 10000 2.03 144 20:55 13.04.2022
2750 Clouds 14 1016 71 10000 0.89 90 20:22 13.04.2022
2751 Clouds 15 1016 70 10000 1.34 90 19:24 13.04.2022
2752 Clouds 16 1016 63 10000 2.24 90 18:19 13.04.2022
2753 Clouds 17 1017 58 10000 0.89 90 17:23 13.04.2022
2754 Clouds 17 1017 59 10000 1.79 90 16:33 13.04.2022
2755 Clouds 18 1017 52 10000 2.24 90 15:35 13.04.2022
2756 Clouds 18 1017 51 10000 4.47 112 14:50 13.04.2022
2757 Clouds 18 1018 49 10000 2.68 90 14:19 13.04.2022
2758 Clouds 18 1018 50 10000 1.79 180 13:19 13.04.2022
2759 Clouds 19 1018 47 10000 2.68 135 12:25 13.04.2022
2760 Clouds 18 1018 42 10000 2.24 90 10:49 13.04.2022
2761 Clouds 17 1017 48 10000 2.24 90 09:41 13.04.2022
2762 Clouds 16 1017 48 10000 0.89 90 08:41 13.04.2022
2763 Clouds 12 1017 50 10000 0.89 90 06:51 13.04.2022
2764 Clouds 12 1017 57 10000 0.89 270 06:25 13.04.2022
2765 Clouds 12 1017 59 10000 0.45 90 05:20 13.04.2022
2766 Clouds 13 1020 67 10000 0.89 248 00:21 13.04.2022
2767 Clouds 13 1020 66 10000 1.79 45 23:29 12.04.2022
2768 Clouds 14 1020 68 10000 1.34 90 22:18 12.04.2022
2769 Clouds 14 1020 73 10000 0.45 90 21:18 12.04.2022
2770 Clouds 14 1020 72 10000 0.45 90 20:41 12.04.2022
2771 Clouds 14 1020 69 10000 0.45 90 19:49 12.04.2022
2772 Clouds 15 1020 69 10000 0.45 90 19:30 12.04.2022
2773 Clouds 16 1020 65 10000 0.89 90 18:26 12.04.2022
2774 Clouds 16 1020 63 10000 0.89 90 17:28 12.04.2022
2775 Clouds 16 1020 63 10000 0.89 90 17:28 12.04.2022
2776 Clouds 17 1021 60 10000 2.68 90 16:22 12.04.2022
2777 Clouds 18 1021 60 10000 0.89 90 15:33 12.04.2022
2778 Clouds 18 1022 60 10000 3.13 135 14:26 12.04.2022
2779 Clouds 18 1022 60 10000 2.24 90 13:36 12.04.2022
2780 Clouds 17 1022 60 10000 2.24 90 12:52 12.04.2022
2781 Clouds 17 1023 56 10000 1.79 180 11:47 12.04.2022
2782 Clouds 17 1023 56 10000 2.68 135 10:47 12.04.2022
2783 Clouds 15 1022 59 10000 1.79 90 09:21 12.04.2022
2784 Clouds 13 1022 70 10000 0.89 90 07:56 12.04.2022
2785 Clouds 10 1022 77 10000 1.79 225 06:24 12.04.2022
2786 Clouds 9 1022 80 10000 1.79 270 05:31 12.04.2022
2787 Clouds 11 1024 67 10000 0.45 270 23:59 11.04.2022
2788 Clouds 11 1024 68 10000 0.89 270 22:47 11.04.2022
2789 Clouds 11 1024 67 10000 0.89 90 21:41 11.04.2022
2790 Clouds 12 1024 69 10000 0.45 90 20:57 11.04.2022
2791 Clouds 12 1024 64 10000 2.19 118 20:29 11.04.2022
2792 Clouds 12 1024 65 10000 1.98 123 19:54 11.04.2022
2793 Clouds 14 1024 58 10000 0.45 90 19:18 11.04.2022
2794 Clouds 14 1024 62 10000 0.89 158 18:47 11.04.2022
2795 Clouds 15 1024 57 10000 1.34 90 17:57 11.04.2022
2796 Clear 15 1024 51 10000 3.58 90 16:54 11.04.2022
2797 Clear 16 1024 49 10000 1.79 90 15:56 11.04.2022
2798 Clear 16 1025 53 10000 2.24 135 14:24 11.04.2022
2799 Clouds 16 1025 54 10000 3.13 90 12:52 11.04.2022
2800 Clouds 16 1025 52 10000 4.92 90 12:32 11.04.2022
2801 Clouds 15 1025 57 10000 4.02 90 11:33 11.04.2022
2802 Clouds 14 1025 59 10000 3.58 135 10:28 11.04.2022
2803 Clear 14 1024 67 10000 1.79 90 09:20 11.04.2022
2804 Clear 10 1023 78 10000 0.89 90 06:24 11.04.2022
2805 Clear 9 1023 76 10000 0.45 270 01:55 11.04.2022
2806 Clear 10 1023 71 10000 1.34 292 22:37 10.04.2022
2807 Clear 11 1023 67 10000 0.89 315 21:55 10.04.2022
2808 Clouds 11 1022 66 10000 0.89 292 21:29 10.04.2022
2809 Clouds 12 1022 65 10000 0.89 315 20:31 10.04.2022
2810 Clear 12 1021 61 10000 0.89 315 19:44 10.04.2022
2811 Clear 13 1021 59 10000 0.89 338 19:20 10.04.2022
2812 Clear 13 1021 58 10000 2.68 315 18:42 10.04.2022
2813 Clear 14 1020 53 10000 4.02 315 17:52 10.04.2022
2814 Clear 14 1020 52 10000 4.02 270 17:33 10.04.2022
2815 Clear 14 1020 62 10000 3.58 292 16:21 10.04.2022
2816 Clear 15 1020 63 10000 4.47 315 14:59 10.04.2022
2817 Clear 15 1019 54 10000 4.92 270 13:58 10.04.2022
2818 Clear 16 1019 60 10000 4.92 315 12:33 10.04.2022
2819 Clear 16 1019 57 10000 5.81 270 11:46 10.04.2022
2820 Clear 16 1019 57 10000 5.36 270 11:28 10.04.2022
2821 Clear 15 1018 58 10000 5.81 315 10:43 10.04.2022
2822 Clear 14 1018 58 10000 7.6 270 09:55 10.04.2022
2823 Clear 14 1018 59 10000 6.26 315 09:21 10.04.2022
2824 Clear 14 1017 59 10000 7.6 248 08:21 10.04.2022
2825 Clear 13 1017 62 10000 4.92 315 07:18 10.04.2022
2826 Clear 13 1016 75 10000 4.92 270 05:27 10.04.2022
2827 Clear 15 1015 57 10000 7.6 0 02:20 10.04.2022
2828 Clear 16 1015 58 10000 6.26 315 23:54 09.04.2022
2829 Clear 16 1015 58 10000 4.92 270 23:35 09.04.2022
2830 Clear 16 1015 63 10000 6.71 270 22:43 09.04.2022
2831 Clear 17 1015 64 10000 4.92 292 21:32 09.04.2022
2832 Clear 16 1014 73 10000 4.47 270 20:48 09.04.2022
2833 Clouds 17 1014 69 10000 6.26 315 20:23 09.04.2022
2834 Clouds 18 1012 55 10000 4.41 240 19:41 09.04.2022
2835 Clouds 19 1014 49 10000 6.26 315 18:54 09.04.2022
2836 Clouds 20 1014 57 10000 6.71 225 18:18 09.04.2022
2837 Clouds 20 1014 51 10000 5.36 248 17:32 09.04.2022
2838 Clouds 20 1011 59 10000 4.82 253 16:43 09.04.2022
2839 Clouds 20 1011 56 10000 5.38 251 15:53 09.04.2022
2840 Clouds 21 1014 39 10000 6.71 292 15:28 09.04.2022
2841 Clouds 22 1015 36 10000 6.26 315 14:27 09.04.2022
2842 Clouds 22 1014 36 10000 4.92 248 14:27 09.04.2022
2843 Clouds 21 1015 40 10000 6.71 315 13:47 09.04.2022
2844 Clouds 21 1014 40 10000 6.71 248 12:59 09.04.2022
2845 Clouds 20 1015 45 10000 6.26 292 11:56 09.04.2022
2846 Clear 20 1014 42 10000 6.26 315 11:21 09.04.2022
2847 Clear 19 1014 42 10000 5.36 292 10:20 09.04.2022
2848 Clear 18 1014 46 10000 5.36 225 09:37 09.04.2022
2849 Clear 18 1014 48 10000 4.02 248 08:50 09.04.2022
2850 Clear 16 1014 48 10000 4.47 248 05:58 09.04.2022
2851 Clear 18 1015 58 10000 4.67 209 01:31 09.04.2022
2852 Clear 18 1016 57 10000 4.11 205 23:25 08.04.2022
2853 Clear 17 1017 60 10000 4.03 204 21:58 08.04.2022
2854 Clear 17 1019 57 10000 4.02 315 20:47 08.04.2022
2855 Clear 17 1019 55 10000 3.58 292 20:23 08.04.2022
2856 Clear 18 1018 53 10000 3.58 315 19:18 08.04.2022
2857 Clear 20 1018 43 10000 4.92 315 18:28 08.04.2022
2858 Clear 20 1019 41 10000 4.92 292 17:45 08.04.2022
2859 Clear 21 1019 42 10000 4.92 315 17:22 08.04.2022
2860 Clear 17 1016 54 10000 5 266 16:47 08.04.2022
2861 Clear 22 1016 40 10000 5.3 269 15:56 08.04.2022
2862 Clear 21 1016 39 10000 5.72 271 15:25 08.04.2022
2863 Clear 22 1017 37 10000 5.66 273 14:26 08.04.2022
2864 Clear 22 1017 36 10000 5.58 273 13:45 08.04.2022
2865 Clear 22 1020 37 10000 3.58 292 13:27 08.04.2022
2866 Clear 21 1020 39 10000 2.68 270 11:54 08.04.2022
2867 Clear 20 1020 40 10000 3.58 292 10:33 08.04.2022
2868 Clear 18 1020 45 10000 3.58 270 09:37 08.04.2022
2869 Clouds 17 1019 52 10000 4.92 270 08:44 08.04.2022
2870 Clear 15 1017 56 10000 4.84 224 06:54 08.04.2022
2871 Clouds 14 1017 61 10000 5.09 221 04:58 08.04.2022
2872 Clear 14 1019 72 10000 3.58 315 01:27 08.04.2022
2873 Clear 15 1019 64 10000 6.26 292 00:25 08.04.2022
2874 Clear 15 1019 66 10000 4.92 270 22:59 07.04.2022
2875 Clear 15 1019 68 10000 4.92 270 22:39 07.04.2022
2876 Clear 15 1019 70 10000 4.02 315 22:21 07.04.2022
2877 Clear 15 1019 66 10000 6.26 270 21:51 07.04.2022
2878 Clear 15 1019 67 10000 6.26 292 21:19 07.04.2022
2879 Clear 15 1018 65 10000 6.26 292 20:31 07.04.2022
2880 Clear 16 1017 63 10000 5.81 315 18:34 07.04.2022
2881 Clear 17 1017 62 10000 8.05 315 17:26 07.04.2022
2882 Clear 17 1017 63 10000 6.26 292 16:44 07.04.2022
2883 Clear 17 1017 62 10000 8.05 315 16:21 07.04.2022
2884 Clear 17 1016 56 10000 6.26 315 14:50 07.04.2022
2885 Clouds 16 1016 60 10000 6.26 315 13:43 07.04.2022
2886 Clouds 15 1016 63 10000 8.05 248 12:46 07.04.2022
2887 Clouds 14 1015 83 10000 7.15 315 11:30 07.04.2022
2888 Clouds 14 1013 80 10000 5.81 315 09:37 07.04.2022
2889 Clouds 14 1013 76 10000 7.15 315 08:38 07.04.2022
2890 Clouds 14 1011 79 10000 4.92 315 06:43 07.04.2022
2891 Clouds 15 1010 71 10000 7.6 315 02:54 07.04.2022
2892 Clouds 15 1010 70 10000 5.36 315 02:25 07.04.2022
2893 Clouds 15 1011 71 10000 7.6 180 00:28 07.04.2022
2894 Clouds 16 1011 79 10000 4.02 315 22:52 06.04.2022
2895 Clouds 16 1011 81 10000 6.26 270 22:27 06.04.2022
2896 Clouds 17 1011 80 10000 3.58 225 21:45 06.04.2022
2897 Clouds 16 1011 77 10000 1.79 225 20:40 06.04.2022
2898 Clear 15 1010 78 10000 1.34 90 19:54 06.04.2022
2899 Clear 16 1010 74 10000 0.89 270 18:52 06.04.2022
2900 Clear 16 1010 72 10000 2.68 225 18:33 06.04.2022
2901 Clear 17 1010 60 10000 2.68 225 17:35 06.04.2022
2902 Clear 18 1010 63 10000 2.68 292 16:39 06.04.2022
2903 Clear 18 1010 61 10000 2.24 90 15:49 06.04.2022
2904 Clear 19 1010 63 10000 0.89 90 15:21 06.04.2022
2905 Clear 18 1011 64 10000 0.89 90 15:21 06.04.2022
2906 Clear 18 1012 66 10000 2.24 90 13:28 06.04.2022
2907 Clear 18 1013 64 10000 2.24 135 12:27 06.04.2022
2908 Clear 17 1013 66 10000 0.45 90 10:54 06.04.2022
2909 Clear 17 1013 70 10000 1.76 104 10:31 06.04.2022
2910 Clear 16 1013 75 10000 0.89 90 09:42 06.04.2022
2911 Clear 14 1012 77 10000 0.45 90 08:36 06.04.2022
2912 Clear 14 1012 77 10000 0.45 90 08:36 06.04.2022
2913 Clouds 13 1012 82 10000 0.89 90 07:56 06.04.2022
2914 Clouds 13 1014 81 10000 0.89 270 04:42 06.04.2022
2915 Clouds 13 1015 81 10000 0.45 90 23:57 05.04.2022
2916 Clouds 14 1015 79 10000 2.01 143 23:22 05.04.2022
2917 Clouds 14 1015 78 10000 0.45 90 21:31 05.04.2022
2918 Clouds 14 1015 77 10000 0.45 90 20:54 05.04.2022
2919 Clouds 14 1014 77 10000 1.88 140 20:23 05.04.2022
2920 Clouds 15 1014 71 10000 0.89 90 18:26 05.04.2022
2921 Clouds 16 1014 68 10000 2.24 90 17:20 05.04.2022
2922 Clouds 16 1014 67 10000 2.24 135 16:41 05.04.2022
2923 Clouds 17 1014 65 10000 2.24 90 15:50 05.04.2022
2924 Clouds 17 1014 64 10000 3.13 90 15:30 05.04.2022
2925 Clouds 18 1015 59 10000 2.68 135 13:45 05.04.2022
2926 Clear 17 1014 66 10000 3.13 45 11:55 05.04.2022
2927 Clear 16 1014 68 10000 2.24 90 11:33 05.04.2022
2928 Clear 16 1013 70 10000 1.52 27 10:58 05.04.2022
2929 Clouds 14 1013 82 10000 2.24 90 09:31 05.04.2022
2930 Clouds 13 1012 80 10000 1.89 68 08:22 05.04.2022
2931 Clouds 12 1012 85 10000 1.5 124 03:37 05.04.2022
2932 Clouds 12 1013 83 10000 1.79 90 23:38 04.04.2022
2933 Clouds 12 1013 73 10000 3.51 117 22:37 04.04.2022
2934 Clouds 12 1013 71 10000 3.66 106 21:46 04.04.2022
2935 Clouds 13 1014 73 10000 3.85 95 21:18 04.04.2022
2936 Clouds 13 1014 73 10000 3.85 95 20:47 04.04.2022
2937 Clouds 13 1014 74 10000 3.13 90 19:28 04.04.2022
2938 Clouds 13 1014 73 10000 3.13 90 18:40 04.04.2022
2939 Clouds 14 1014 72 10000 4.92 90 17:20 04.04.2022
2940 Clouds 14 1015 71 10000 4.92 112 16:31 04.04.2022
2941 Clouds 15 1015 66 10000 3.58 135 15:33 04.04.2022
2942 Clouds 14 1016 69 10000 2.68 135 14:46 04.04.2022
2943 Clouds 14 1016 69 10000 4.47 90 14:27 04.04.2022
2944 Clouds 15 1016 68 10000 4.92 90 12:58 04.04.2022
2945 Clouds 14 1017 68 10000 4.47 90 11:29 04.04.2022
2946 Clouds 14 1016 68 10000 4.52 91 10:29 04.04.2022
2947 Clouds 10 1017 78 10000 0.89 90 06:58 04.04.2022
2948 Clouds 10 1018 74 10000 0.45 90 03:18 04.04.2022
2949 Clouds 11 1019 70 10000 2.2 109 23:42 03.04.2022
2950 Clouds 11 1019 68 10000 1.82 83 22:18 03.04.2022
2951 Clouds 11 1019 67 10000 0.89 90 21:32 03.04.2022
2952 Clouds 11 1019 69 10000 0.89 90 20:35 03.04.2022
2953 Rain 12 1018 60 10000 0.45 180 18:51 03.04.2022
2954 Clouds 12 1018 60 10000 3.58 270 18:26 03.04.2022
2955 Clouds 12 1018 60 10000 2.68 292 17:41 03.04.2022
2956 Clouds 13 1017 60 10000 3.58 315 16:50 03.04.2022
2957 Clouds 13 1018 59 10000 2.68 292 15:59 03.04.2022
2958 Clouds 14 1018 55 10000 3.13 45 14:27 03.04.2022
2959 Clouds 14 1018 52 10000 3.58 270 13:38 03.04.2022
2960 Clouds 14 1018 52 10000 4.92 270 11:59 03.04.2022
2961 Clouds 13 1017 52 10000 7.15 270 10:32 03.04.2022
2962 Clouds 12 1016 60 10000 7.15 315 09:23 03.04.2022
2963 Clouds 10 1015 63 10000 5.36 315 07:24 03.04.2022
2964 Clouds 9 1014 69 10000 5.36 315 03:46 03.04.2022
2965 Clouds 10 1015 67 10000 9.39 315 00:36 03.04.2022
2966 Clouds 10 1014 67 10000 6.26 315 22:54 02.04.2022
2967 Clouds 10 1014 68 10000 4.92 315 21:57 02.04.2022
2968 Clouds 9 1013 71 10000 7.15 270 21:33 02.04.2022
2969 Clear 9 1013 76 10000 6.26 315 20:51 02.04.2022
2970 Clouds 10 1012 78 10000 10.99 273 19:28 02.04.2022
2971 Clouds 10 1011 76 10000 11.55 265 18:21 02.04.2022
2972 Clouds 10 1011 74 10000 11.55 265 17:47 02.04.2022
2973 Clouds 12 1011 61 10000 11.83 264 16:23 02.04.2022
2974 Clouds 10 1011 72 10000 12.09 260 15:21 02.04.2022
2975 Clouds 11 1011 66 10000 12.09 260 14:47 02.04.2022
2976 Clouds 14 1011 39 10000 11.3 255 13:35 02.04.2022
2977 Clouds 14 1012 42 10000 11.26 252 12:37 02.04.2022
2978 Clouds 13 1011 58 10000 9.32 250 11:23 02.04.2022
2979 Clouds 12 1011 64 10000 6.56 251 08:50 02.04.2022
2980 Clouds 10 1011 72 10000 5.25 244 06:51 02.04.2022
2981 Clouds 12 1010 62 10000 7.74 268 03:52 02.04.2022
2982 Clouds 13 1009 64 10000 9.5 266 23:57 01.04.2022
2983 Clouds 13 1009 68 10000 9.1 249 23:22 01.04.2022
2984 Clear 14 1007 63 10000 7.13 231 21:34 01.04.2022
2985 Clear 14 1006 63 10000 6.12 228 20:51 01.04.2022
2986 Clouds 14 1006 61 10000 6.71 239 20:25 01.04.2022
2987 Clouds 15 1006 59 10000 6.7 239 19:32 01.04.2022
2988 Clouds 15 1005 58 10000 7.76 244 18:48 01.04.2022
2989 Clouds 16 1005 60 10000 8.55 252 17:47 01.04.2022
2990 Clouds 16 1004 61 10000 8.71 256 16:53 01.04.2022
2991 Clouds 15 1004 65 10000 8.69 253 15:41 01.04.2022
2992 Clouds 15 1003 74 10000 9.32 246 14:25 01.04.2022
2993 Clouds 13 1004 73 10000 8.49 248 13:34 01.04.2022
2994 Clouds 13 1003 70 10000 7.36 239 12:32 01.04.2022
2995 Clouds 16 1004 66 10000 5.85 231 11:41 01.04.2022
2996 Clouds 15 1003 69 10000 5.29 235 10:19 01.04.2022
2997 Clouds 13 1003 79 10000 5.01 231 08:58 01.04.2022
2998 Clouds 14 1002 77 10000 4.81 227 06:54 01.04.2022
2999 Clouds 14 1002 76 10000 4.96 228 04:51 01.04.2022
3000 Clouds 14 1002 76 10000 4.95 228 04:33 01.04.2022
3001 Clouds 14 1002 77 10000 5.01 215 01:57 01.04.2022
3002 Clouds 15 1002 74 10000 5.17 212 00:44 01.04.2022
3003 Clouds 15 1002 80 10000 4.48 210 21:54 31.03.2022
3004 Clouds 15 1002 77 10000 3.84 223 21:32 31.03.2022
3005 Clouds 15 1001 81 10000 3.9 240 20:29 31.03.2022
3006 Clouds 15 1001 79 10000 3.9 240 19:50 31.03.2022
3007 Clouds 16 1000 77 10000 3.39 252 18:51 31.03.2022
3008 Clouds 17 1000 72 10000 3.9 270 17:50 31.03.2022
3009 Clouds 18 999 66 10000 4.43 271 16:39 31.03.2022
3010 Clouds 19 999 68 10000 3.9 272 15:46 31.03.2022
3011 Clouds 19 999 71 10000 3.69 270 15:20 31.03.2022
3012 Clouds 18 999 75 10000 3.69 270 14:40 31.03.2022
3013 Clouds 17 999 82 10000 3.18 245 12:30 31.03.2022
3014 Clouds 17 999 80 10000 3.97 255 11:28 31.03.2022
3015 Clouds 16 999 79 10000 4.51 253 09:50 31.03.2022
3016 Clouds 16 999 82 10000 3.37 255 08:29 31.03.2022
3017 Clouds 17 998 72 10000 2.86 192 06:21 31.03.2022
3018 Clouds 21 1002 55 10000 5.9 194 00:46 31.03.2022
3019 Clouds 18 1001 69 10000 7.3 180 23:23 30.03.2022
3020 Clouds 21 1002 58 10000 6.92 192 21:43 30.03.2022
3021 Clouds 21 1002 55 10000 7.33 196 21:25 30.03.2022
3022 Clouds 21 1001 54 10000 7.33 200 20:21 30.03.2022
3023 Clouds 20 1001 56 10000 7.33 200 19:36 30.03.2022
3024 Clouds 24 1002 72 10000 4.77 183 18:34 30.03.2022
3025 Clouds 21 1002 50 10000 6.03 177 17:48 30.03.2022
3026 Clouds 22 1001 51 10000 5.16 167 16:57 30.03.2022
3027 Clouds 21 1001 52 10000 5.14 167 16:38 30.03.2022
3028 Clouds 22 1003 46 10000 6.5 152 15:24 30.03.2022
3029 Clouds 22 1004 50 10000 6.2 156 13:57 30.03.2022
3030 Clouds 21 1005 58 10000 7.78 172 13:18 30.03.2022
3031 Clouds 20 1007 55 10000 8.76 183 11:36 30.03.2022
3032 Clouds 19 1007 55 10000 7 181 10:37 30.03.2022
3033 Clouds 17 1008 52 10000 5.07 176 09:27 30.03.2022
3034 Clouds 16 1008 59 10000 4.95 159 07:41 30.03.2022
3035 Clouds 17 1009 59 10000 3.12 201 05:41 30.03.2022
3036 Clouds 16 1010 67 10000 3.41 171 04:19 30.03.2022
3037 Clouds 15 1013 73 10000 3.25 161 00:42 30.03.2022
3038 Clouds 14 1014 80 10000 3.22 136 22:34 29.03.2022
3039 Clouds 14 1014 79 10000 2.81 139 21:46 29.03.2022
3040 Clouds 14 1014 78 10000 3.1 138 20:54 29.03.2022
3041 Clouds 14 1016 82 10000 2.63 131 20:20 29.03.2022
3042 Clouds 15 1015 80 10000 1.55 134 18:56 29.03.2022
3043 Clouds 15 1016 79 10000 1.34 90 18:31 29.03.2022
3044 Clouds 16 1016 76 10000 0.89 90 17:36 29.03.2022
3045 Clouds 16 1016 73 10000 1.79 74 16:58 29.03.2022
3046 Clouds 16 1017 72 10000 1.79 135 15:58 29.03.2022
3047 Clouds 17 1018 71 10000 2.68 90 14:53 29.03.2022
3048 Clouds 17 1018 70 10000 0.89 90 14:18 29.03.2022
3049 Clouds 18 1019 66 10000 2.68 90 12:53 29.03.2022
3050 Clouds 17 1020 69 10000 0.89 90 11:44 29.03.2022
3051 Clouds 17 1020 68 10000 1.79 90 10:55 29.03.2022
3052 Clouds 16 1020 73 10000 0.89 90 09:49 29.03.2022
3053 Clouds 12 1019 80 10000 0.89 270 07:57 29.03.2022
3054 Clouds 13 1020 80 10000 0.89 225 04:47 29.03.2022
3055 Clear 13 1022 80 10000 0.89 270 00:36 29.03.2022
3056 Clear 13 1022 83 10000 1.79 225 23:24 28.03.2022
3057 Clear 13 1022 83 10000 0.89 90 22:53 28.03.2022
3058 Clear 13 1022 84 10000 0.45 90 22:26 28.03.2022
3059 Clear 14 1022 85 10000 0.45 90 20:58 28.03.2022
3060 Clouds 14 1022 84 10000 1.37 109 20:23 28.03.2022
3061 Clouds 15 1022 80 10000 0.89 90 19:45 28.03.2022
3062 Clouds 15 1021 78 10000 1.79 90 19:27 28.03.2022
3063 Clouds 15 1022 77 10000 0.89 90 18:40 28.03.2022
3064 Clouds 16 1022 69 10000 1.79 90 17:39 28.03.2022
3065 Clouds 17 1022 70 10000 0.89 90 16:21 28.03.2022
3066 Clouds 17 1022 65 10000 1.79 90 14:48 28.03.2022
3067 Clouds 17 1023 66 10000 1.79 90 14:21 28.03.2022
3068 Clouds 18 1024 59 10000 0.89 315 12:24 28.03.2022
3069 Clouds 19 1024 53 10000 1.79 225 11:31 28.03.2022
3070 Clouds 16 1023 61 10000 2.24 270 09:43 28.03.2022
3071 Clouds 16 1023 62 10000 1.79 225 09:19 28.03.2022
3072 Clouds 14 1023 64 10000 2.24 315 08:22 28.03.2022
3073 Clouds 13 1023 65 10000 1.34 180 07:34 28.03.2022
3074 Clouds 15 1023 64 10000 0.89 270 03:52 28.03.2022
3075 Clouds 16 1023 64 10000 0.89 292 23:30 27.03.2022
3076 Clouds 16 1023 64 10000 3.29 194 22:24 27.03.2022
3077 Clouds 16 1022 62 10000 3.29 194 21:42 27.03.2022
3078 Clouds 16 1021 62 10000 3.45 202 20:57 27.03.2022
3079 Clouds 17 1021 60 10000 3.53 174 19:48 27.03.2022
3080 Clouds 17 1021 56 10000 0.89 90 19:24 27.03.2022
3081 Clouds 19 1021 51 10000 3.58 135 18:27 27.03.2022
3082 Clouds 19 1020 50 10000 1.79 158 17:39 27.03.2022
3083 Clouds 20 1020 47 10000 2.93 87 16:28 27.03.2022
3084 Clouds 21 1020 46 10000 1.79 112 15:21 27.03.2022
3085 Clouds 21 1021 49 10000 1.79 90 13:56 27.03.2022
3086 Clouds 20 1021 49 10000 1.34 90 12:31 27.03.2022
3087 Clouds 19 1022 44 10000 3.58 68 10:57 27.03.2022
3088 Clouds 16 1022 46 10000 4.92 45 08:51 27.03.2022
3089 Clouds 15 1021 43 10000 3.13 90 05:54 27.03.2022
3090 Clouds 15 1023 42 10000 3.58 135 00:48 27.03.2022
3091 Clouds 15 1024 44 10000 3.58 90 23:42 26.03.2022
3092 Clouds 15 1024 41 10000 4.02 45 22:36 26.03.2022
3093 Clouds 16 1023 41 10000 4.49 146 21:34 26.03.2022
3094 Clouds 16 1023 47 10000 3.83 155 20:52 26.03.2022
3095 Clouds 16 1023 58 10000 4.05 122 19:21 26.03.2022
3096 Clouds 16 1022 56 10000 4.02 106 17:53 26.03.2022
3097 Clouds 16 1022 54 10000 4.02 106 17:32 26.03.2022
3098 Clouds 17 1022 64 10000 4.16 98 16:27 26.03.2022
3099 Clouds 18 1022 58 10000 3.99 103 14:57 26.03.2022
3100 Clouds 17 1023 54 10000 4.22 103 13:53 26.03.2022
3101 Clouds 18 1023 44 10000 4.03 100 12:51 26.03.2022
3102 Clouds 18 1024 36 10000 3.47 95 11:33 26.03.2022
3103 Clouds 17 1025 45 10000 2.59 129 10:22 26.03.2022
3104 Clouds 14 1025 61 10000 2.34 128 08:33 26.03.2022
3105 Clouds 12 1024 59 10000 2.02 140 05:54 26.03.2022
3106 Clouds 12 1024 57 10000 1.85 144 04:21 26.03.2022
3107 Clouds 12 1026 55 10000 2.53 151 23:51 25.03.2022
3108 Clouds 12 1026 72 10000 2.83 137 21:41 25.03.2022
3109 Clouds 12 1026 71 10000 2.46 146 20:46 25.03.2022
3110 Clouds 13 1026 70 10000 2.12 147 19:36 25.03.2022
3111 Clouds 13 1025 70 10000 1.73 140 18:47 25.03.2022
3112 Clouds 14 1025 63 10000 1.29 113 17:37 25.03.2022
3113 Clouds 15 1025 61 10000 1.11 88 16:50 25.03.2022
3114 Clouds 15 1025 59 10000 1.15 68 16:18 25.03.2022
3115 Clouds 16 1025 53 10000 1.28 47 14:23 25.03.2022
3116 Clouds 16 1026 54 10000 1.36 46 12:33 25.03.2022
3117 Clear 15 1027 47 10000 0.79 76 09:57 25.03.2022
3118 Clear 14 1027 48 10000 0.89 108 09:27 25.03.2022
3119 Clear 12 1027 48 10000 1.17 123 07:53 25.03.2022
3120 Clear 11 1027 54 10000 1.56 160 07:26 25.03.2022
3121 Clear 10 1027 48 10000 1.5 172 05:35 25.03.2022
3122 Clear 11 1028 50 10000 1.98 166 00:42 25.03.2022
3123 Clear 11 1028 57 10000 1.6 159 22:30 24.03.2022
3124 Clear 11 1028 56 10000 1.12 160 21:35 24.03.2022
3125 Clear 11 1028 59 10000 0.45 176 19:51 24.03.2022
3126 Clear 12 1028 60 10000 0.45 176 19:33 24.03.2022
3127 Clouds 14 1027 58 10000 1.36 21 17:46 24.03.2022
3128 Clouds 15 1027 54 10000 1.98 11 16:54 24.03.2022
3129 Clouds 17 1027 47 10000 2.74 1 15:21 24.03.2022
3130 Clouds 17 1027 45 10000 2.74 1 14:43 24.03.2022
3131 Clear 16 1027 45 10000 2.76 351 13:59 24.03.2022
3132 Clear 16 1028 42 10000 2.48 344 12:47 24.03.2022
3133 Clear 16 1028 43 10000 2.01 335 11:33 24.03.2022
3134 Clear 14 1028 48 10000 1.31 295 09:51 24.03.2022
3135 Clear 13 1028 44 10000 1.05 264 08:40 24.03.2022
3136 Clear 10 1027 49 10000 1.4 201 06:48 24.03.2022
3137 Clear 10 1028 48 10000 1.99 164 02:18 24.03.2022
3138 Clear 10 1029 64 10000 1.64 138 23:18 23.03.2022
3139 Clear 10 1029 70 10000 1.94 164 21:27 23.03.2022
3140 Clear 10 1029 70 10000 1.94 164 20:49 23.03.2022
3141 Clear 11 1028 69 10000 1.77 148 19:45 23.03.2022
3142 Clear 11 1028 64 10000 1.46 122 18:36 23.03.2022
3143 Clear 13 1027 59 10000 1.72 69 17:36 23.03.2022
3144 Clear 15 1026 55 10000 2.38 37 16:21 23.03.2022
3145 Clear 15 1026 58 10000 2.21 29 14:51 23.03.2022
3146 Clear 15 1027 60 10000 1.75 34 14:24 23.03.2022
3147 Clear 15 1028 57 10000 1.58 37 12:45 23.03.2022
3148 Clear 12 1029 60 10000 1.27 44 09:38 23.03.2022
3149 Clear 8 1029 62 10000 0.33 181 06:41 23.03.2022
3150 Clear 8 1029 61 10000 1.09 182 04:31 23.03.2022
3151 Clear 8 1031 63 10000 1.09 117 00:29 23.03.2022
3152 Clear 8 1031 63 10000 1.14 125 22:46 22.03.2022
3153 Clear 9 1031 62 10000 1.7 106 21:29 22.03.2022
3154 Clear 9 1031 60 10000 1.72 106 20:40 22.03.2022
3155 Clear 9 1031 58 10000 2.14 93 19:41 22.03.2022
3156 Clear 9 1030 56 10000 2.94 91 19:18 22.03.2022
3157 Clear 11 1030 51 10000 3.36 78 18:22 22.03.2022
3158 Clear 12 1029 49 10000 4.26 72 17:29 22.03.2022
3159 Clear 13 1029 43 10000 4.56 75 16:21 22.03.2022
3160 Clear 14 1029 41 10000 4.43 78 15:22 22.03.2022
3161 Clear 13 1029 45 10000 4.43 78 14:46 22.03.2022
3162 Clear 13 1030 42 10000 4.4 79 14:27 22.03.2022
3163 Clear 13 1030 40 10000 3.74 73 13:27 22.03.2022
3164 Clear 13 1030 47 10000 3.22 70 11:52 22.03.2022
3165 Clear 13 1031 50 10000 2.85 70 10:35 22.03.2022
3166 Clear 10 1031 58 10000 1.95 90 08:29 22.03.2022
3167 Clear 7 1031 69 10000 1.47 152 05:25 22.03.2022
3168 Clear 7 1031 69 10000 1.89 156 03:47 22.03.2022
3169 Clouds 8 1031 68 10000 2.3 117 00:22 22.03.2022
3170 Clouds 8 1031 72 10000 2.58 116 22:29 21.03.2022
3171 Clouds 8 1031 70 10000 2.87 106 20:57 21.03.2022
3172 Clouds 8 1031 69 10000 2.86 106 20:38 21.03.2022
3173 Clouds 10 1031 66 10000 3.35 92 19:58 21.03.2022
3174 Clouds 10 1031 65 10000 3.1 90 19:33 21.03.2022
3175 Clouds 11 1030 61 10000 3.7 74 18:22 21.03.2022
3176 Clouds 12 1029 54 10000 4.28 72 17:19 21.03.2022
3177 Clouds 12 1029 52 10000 4.24 72 16:44 21.03.2022
3178 Clouds 12 1029 55 10000 4.37 64 15:55 21.03.2022
3179 Clouds 13 1029 54 10000 4.17 57 15:19 21.03.2022
3180 Clouds 13 1030 54 10000 3.83 51 14:25 21.03.2022
3181 Clouds 13 1030 55 10000 3.06 36 12:42 21.03.2022
3182 Clouds 12 1031 62 10000 2.55 29 11:53 21.03.2022
3183 Clouds 11 1031 68 10000 1.78 35 10:40 21.03.2022
3184 Clouds 11 1031 73 10000 0.71 53 08:55 21.03.2022
3185 Clouds 8 1031 82 10000 0.97 172 06:54 21.03.2022
3186 Clouds 8 1030 83 10000 2.06 195 02:55 21.03.2022
3187 Clouds 9 1031 69 10000 2.34 194 00:35 21.03.2022
3188 Clouds 9 1031 69 10000 2.43 181 22:54 20.03.2022
3189 Clouds 10 1031 65 10000 2.65 178 21:57 20.03.2022
3190 Clouds 11 1031 66 10000 2.79 178 21:29 20.03.2022
3191 Clouds 11 1031 65 10000 2.79 178 20:45 20.03.2022
3192 Clouds 12 1030 64 10000 2.84 179 19:59 20.03.2022
3193 Clouds 12 1030 63 10000 2.84 179 19:38 20.03.2022
3194 Clouds 12 1030 64 10000 2.7 173 18:40 20.03.2022
3195 Clouds 13 1030 63 10000 2.65 162 17:37 20.03.2022
3196 Clouds 13 1029 63 10000 2.52 147 16:57 20.03.2022
3197 Clouds 14 1029 61 10000 2.18 118 15:52 20.03.2022
3198 Clouds 14 1029 57 10000 2.28 99 14:36 20.03.2022
3199 Clouds 14 1029 54 10000 2.14 121 13:18 20.03.2022
3200 Clouds 13 1030 57 10000 2.28 132 11:32 20.03.2022
3201 Clouds 12 1029 69 10000 2.57 131 09:40 20.03.2022
3202 Clouds 10 1028 74 10000 2.27 136 07:50 20.03.2022
3203 Clouds 11 1028 70 10000 2.72 151 05:49 20.03.2022
3204 Clouds 11 1026 74 10000 2.96 158 02:53 20.03.2022
3205 Clouds 11 1027 71 10000 3.99 155 00:48 20.03.2022
3206 Clouds 12 1027 67 10000 3.57 151 23:21 19.03.2022
3207 Clouds 12 1027 63 10000 3.71 142 21:54 19.03.2022
3208 Clouds 12 1026 64 10000 3.89 135 21:20 19.03.2022
3209 Clouds 12 1025 67 10000 3.84 146 19:21 19.03.2022
3210 Clouds 13 1024 67 10000 4.67 157 18:25 19.03.2022
3211 Clouds 13 1024 64 10000 4.67 157 17:41 19.03.2022
3212 Clouds 14 1023 60 10000 4.3 151 16:40 19.03.2022
3213 Clouds 15 1023 59 10000 4.45 137 15:21 19.03.2022
3214 Clouds 15 1023 59 10000 5.12 131 13:40 19.03.2022
3215 Clouds 16 1023 57 10000 5.4 122 12:42 19.03.2022
3216 Clouds 16 1024 57 10000 5.32 120 12:19 19.03.2022
3217 Clouds 16 1024 57 10000 5.32 120 11:42 19.03.2022
3218 Clouds 15 1024 69 10000 4 123 08:57 19.03.2022
3219 Clouds 15 1023 61 10000 3.38 136 04:42 19.03.2022
3220 Clouds 15 1023 58 10000 3.73 138 02:32 19.03.2022
3221 Clouds 15 1023 58 10000 3.09 133 23:50 18.03.2022
3222 Rain 16 1023 58 10000 3 139 22:48 18.03.2022
3223 Clouds 16 1023 59 10000 2.92 160 22:21 18.03.2022
3224 Clouds 16 1022 58 10000 3.33 151 20:25 18.03.2022
3225 Clouds 16 1022 58 10000 3.33 151 20:25 18.03.2022
3226 Clouds 16 1022 58 10000 3.33 151 20:25 18.03.2022
3227 Clouds 16 1021 56 10000 3.28 145 19:24 18.03.2022
3228 Clouds 16 1021 54 10000 3.28 145 18:43 18.03.2022
3229 Clouds 18 1020 47 10000 4.15 114 16:54 18.03.2022
3230 Clouds 18 1020 44 10000 4.96 109 16:23 18.03.2022
3231 Clouds 19 1020 46 10000 5.29 107 14:27 18.03.2022
3232 Clouds 19 1020 52 10000 5.29 107 13:39 18.03.2022
3233 Clouds 17 1021 51 10000 4.36 102 11:35 18.03.2022
3234 Clouds 17 1021 58 10000 4.23 107 10:21 18.03.2022
3235 Clouds 14 1021 63 10000 4.58 118 08:46 18.03.2022
3236 Clouds 13 1020 62 10000 3.27 140 06:45 18.03.2022
3237 Clouds 13 1020 67 10000 3.54 126 04:55 18.03.2022
3238 Rain 13 1020 66 10000 2.78 151 00:55 18.03.2022
3239 Clouds 13 1020 64 10000 3.07 191 23:52 17.03.2022
3240 Rain 13 1020 65 10000 3.09 187 22:45 17.03.2022
3241 Clouds 13 1019 65 10000 2.75 176 22:19 17.03.2022
3242 Rain 13 1019 66 10000 2.75 176 21:30 17.03.2022
3243 Clouds 13 1019 67 10000 2.52 179 20:53 17.03.2022
3244 Clouds 13 1019 69 10000 2.31 155 20:19 17.03.2022
3245 Clouds 13 1019 73 10000 2.31 155 19:38 17.03.2022
3246 Clouds 13 1018 73 10000 2.38 143 18:52 17.03.2022
3247 Clouds 15 1017 73 10000 2.92 124 17:40 17.03.2022
3248 Clouds 16 1016 72 10000 4.64 84 16:20 17.03.2022
3249 Clouds 16 1016 69 10000 4.64 84 15:43 17.03.2022
3250 Clouds 16 1018 68 10000 4.08 107 14:59 17.03.2022
3251 Clouds 17 1018 62 10000 2.33 102 13:45 17.03.2022
3252 Clouds 17 1019 56 10000 2.23 99 12:46 17.03.2022
3253 Clouds 17 1019 57 10000 1.78 98 11:33 17.03.2022
3254 Clouds 17 1020 57 10000 1.87 95 10:44 17.03.2022
3255 Clouds 15 1020 61 10000 1.83 71 09:37 17.03.2022
3256 Clouds 14 1021 64 10000 0.45 90 08:19 17.03.2022
3257 Clouds 11 1022 73 10000 0.89 90 05:51 17.03.2022
3258 Clouds 11 1022 75 10000 0.45 270 04:40 17.03.2022
3259 Clouds 12 1024 78 10000 0.45 270 00:27 17.03.2022
3260 Clouds 12 1024 78 10000 1.79 90 22:56 16.03.2022
3261 Clouds 12 1024 78 10000 2.38 141 22:36 16.03.2022
3262 Clouds 12 1024 78 10000 0.89 90 21:56 16.03.2022
3263 Clouds 12 1025 82 10000 0.45 90 20:40 16.03.2022
3264 Clouds 13 1024 80 10000 2.05 147 19:23 16.03.2022
3265 Clouds 14 1024 78 10000 1.99 147 18:42 16.03.2022
3266 Clouds 14 1025 76 10000 0.89 90 17:49 16.03.2022
3267 Clouds 14 1025 75 10000 0.45 90 17:31 16.03.2022
3268 Clouds 15 1025 72 10000 0.89 135 16:35 16.03.2022
3269 Clouds 16 1025 69 10000 2.24 90 14:58 16.03.2022
3270 Clouds 16 1026 66 10000 1.79 180 13:36 16.03.2022
3271 Clouds 17 1027 61 10000 1.34 180 12:55 16.03.2022
3272 Clouds 17 1028 62 10000 3.13 135 11:23 16.03.2022
3273 Clouds 15 1028 66 10000 1.79 180 10:37 16.03.2022
3274 Clouds 15 1029 68 10000 0.89 90 09:57 16.03.2022
3275 Clear 13 1029 73 10000 1.34 90 08:24 16.03.2022
3276 Clouds 11 1030 73 10000 1.79 270 02:46 16.03.2022
3277 Clouds 11 1031 81 10000 0.89 270 22:56 15.03.2022
3278 Clouds 11 1031 81 10000 0.89 292 22:36 15.03.2022
3279 Clouds 13 1032 68 10000 2.54 158 21:19 15.03.2022
3280 Clouds 11 1032 78 10000 2.35 140 19:46 15.03.2022
3281 Clouds 15 1032 71 10000 1.72 87 17:47 15.03.2022
3282 Clouds 16 1032 65 10000 1.67 68 16:41 15.03.2022
3283 Clouds 18 1031 53 10000 1.73 56 15:42 15.03.2022
3284 Clouds 18 1032 53 10000 1.45 31 14:54 15.03.2022
3285 Clouds 18 1032 54 10000 1 20 13:57 15.03.2022
3286 Clouds 18 1033 53 10000 0.43 117 13:23 15.03.2022
3287 Clouds 17 1034 55 10000 0.7 160 11:34 15.03.2022
3288 Clouds 16 1034 59 10000 1.22 153 10:53 15.03.2022
3289 Clouds 14 1034 64 10000 2.05 169 09:29 15.03.2022
3290 Clouds 12 1034 64 10000 2.23 164 08:27 15.03.2022
3291 Clouds 12 1034 71 10000 2.23 164 07:38 15.03.2022
3292 Clouds 11 1034 74 10000 2.41 169 06:32 15.03.2022
3293 Clear 12 1033 72 10000 2.33 183 00:58 15.03.2022
3294 Clear 12 1033 73 10000 2.18 179 23:30 14.03.2022
3295 Clouds 12 1033 74 10000 2.12 170 22:52 14.03.2022
3296 Clouds 12 1033 77 10000 2.43 153 21:55 14.03.2022
3297 Clouds 12 1032 76 10000 2.29 138 20:59 14.03.2022
3298 Clouds 13 1031 75 10000 2.38 122 20:28 14.03.2022
3299 Clouds 13 1031 75 10000 2.38 122 19:33 14.03.2022
3300 Clouds 14 1030 71 10000 2.46 105 17:59 14.03.2022
3301 Clouds 14 1030 70 10000 2.46 105 17:41 14.03.2022
3302 Clouds 15 1029 67 10000 2.57 94 16:33 14.03.2022
3303 Clouds 15 1031 70 10000 2.24 135 14:52 14.03.2022
3304 Clouds 15 1031 68 10000 3.58 135 13:58 14.03.2022
3305 Clouds 16 1031 68 10000 2.24 90 11:27 14.03.2022
3306 Clouds 15 1031 71 10000 0.89 90 09:57 14.03.2022
3307 Clouds 15 1030 73 10000 0.89 90 09:35 14.03.2022
3308 Clouds 14 1030 76 10000 0.89 90 08:58 14.03.2022
3309 Clouds 14 1030 79 10000 0.89 90 08:30 14.03.2022
3310 Clouds 10 1029 85 10000 0.45 270 06:47 14.03.2022
3311 Clouds 11 1027 80 10000 1.34 315 03:27 14.03.2022
3312 Clouds 10 1027 81 10000 0.89 270 01:39 14.03.2022
3313 Clouds 10 1027 80 10000 1.34 270 00:29 14.03.2022
3314 Clouds 11 1027 79 10000 1.79 270 21:51 13.03.2022
3315 Clouds 11 1026 79 10000 0.89 270 21:22 13.03.2022
3316 Clouds 11 1026 78 10000 1.34 270 20:46 13.03.2022
3317 Clouds 11 1026 78 10000 1.79 225 20:22 13.03.2022
3318 Clouds 11 1026 78 10000 1.79 270 19:42 13.03.2022
3319 Clouds 11 1025 77 10000 1.34 270 19:22 13.03.2022
3320 Clouds 12 1025 76 10000 0.45 90 18:45 13.03.2022
3321 Clouds 13 1025 73 10000 3.17 140 18:26 13.03.2022
3322 Clouds 13 1025 70 10000 3.17 140 17:38 13.03.2022
3323 Clouds 13 1024 70 10000 3.35 132 16:45 13.03.2022
3324 Clouds 13 1024 68 10000 0.89 90 16:23 13.03.2022
3325 Clouds 13 1024 69 10000 0.89 90 15:42 13.03.2022
3326 Clouds 13 1024 69 10000 3.43 134 14:41 13.03.2022
3327 Clouds 12 1024 74 10000 1.34 180 13:29 13.03.2022
3328 Clouds 11 1023 70 10000 4.93 149 12:23 13.03.2022
3329 Clouds 11 1024 78 10000 1.34 90 11:39 13.03.2022
3330 Clouds 11 1024 80 10000 1.34 90 10:50 13.03.2022
3331 Clouds 11 1024 82 10000 0.89 90 10:29 13.03.2022
3332 Clouds 10 1024 82 10000 0.89 90 09:42 13.03.2022
3333 Clouds 9 1024 83 8986 1.79 90 08:50 13.03.2022
3334 Clouds 9 1024 84 8986 0.89 90 08:30 13.03.2022
3335 Clouds 8 1023 84 10000 2.24 135 07:19 13.03.2022
3336 Clouds 8 1022 87 9251 1.79 90 04:58 13.03.2022
3337 Clouds 9 1022 82 10000 0.89 90 01:47 13.03.2022
3338 Clouds 10 1022 78 10000 0.89 90 23:26 12.03.2022
3339 Clouds 11 1022 74 10000 0.45 90 21:39 12.03.2022
3340 Clouds 11 1022 73 10000 0.89 90 20:19 12.03.2022
3341 Clouds 11 1022 74 10000 0.89 90 19:46 12.03.2022
3342 Clouds 11 1023 73 10000 1.79 90 18:40 12.03.2022
3343 Clouds 11 1023 75 10000 0.89 90 17:49 12.03.2022
3344 Clouds 12 1023 74 10000 2.24 90 16:28 12.03.2022
3345 Clouds 12 1023 73 10000 1.79 135 15:48 12.03.2022
3346 Clouds 12 1023 73 10000 2.24 90 15:19 12.03.2022
3347 Clouds 12 1024 70 10000 1.79 90 13:53 12.03.2022
3348 Clouds 13 1025 67 10000 2.68 90 12:27 12.03.2022
3349 Clouds 13 1025 68 10000 2.24 90 11:52 12.03.2022
3350 Clouds 13 1025 67 10000 2.24 90 11:32 12.03.2022
3351 Clouds 13 1025 66 10000 3.13 135 10:24 12.03.2022
3352 Clouds 12 1024 69 10000 2.68 180 09:43 12.03.2022
3353 Clouds 11 1024 78 10000 0.89 90 07:52 12.03.2022
3354 Clouds 8 1024 79 10000 0.89 270 06:30 12.03.2022
3355 Clouds 10 1024 74 10000 0.45 90 00:31 12.03.2022
3356 Clouds 10 1024 75 10000 2.6 132 23:41 11.03.2022
3357 Clouds 10 1024 74 10000 0.45 90 22:32 11.03.2022
3358 Clouds 10 1025 76 10000 1.79 90 21:24 11.03.2022
3359 Clouds 10 1025 76 10000 1.79 90 21:24 11.03.2022
3360 Clouds 10 1025 75 10000 1.79 90 20:46 11.03.2022
3361 Clouds 11 1025 73 10000 0.89 90 20:26 11.03.2022
3362 Clouds 11 1025 73 10000 0.89 90 19:32 11.03.2022
3363 Clouds 12 1024 68 10000 3.13 135 17:53 11.03.2022
3364 Clouds 12 1024 67 10000 1.34 90 17:24 11.03.2022
3365 Clouds 13 1024 60 10000 1.34 90 15:59 11.03.2022
3366 Clouds 14 1024 59 10000 3.58 135 15:32 11.03.2022
3367 Clouds 14 1024 60 10000 2.68 90 13:42 11.03.2022
3368 Clouds 14 1025 55 10000 2.68 135 12:39 11.03.2022
3369 Clouds 15 1025 54 10000 2.24 112 12:19 11.03.2022
3370 Clouds 14 1026 58 10000 1.28 124 10:44 11.03.2022
3371 Clouds 12 1025 62 10000 1.34 90 09:34 11.03.2022
3372 Clouds 11 1025 75 10000 3.13 90 08:28 11.03.2022
3373 Clouds 10 1025 80 10000 2.24 90 07:48 11.03.2022
3374 Clouds 9 1025 78 10000 0.45 90 06:42 11.03.2022
3375 Clouds 8 1024 79 10000 0.45 270 04:37 11.03.2022
3376 Clouds 8 1024 77 10000 0.89 315 01:29 11.03.2022
3377 Clear 10 1025 75 10000 0.89 270 22:32 10.03.2022
3378 Clear 9 1025 76 10000 1.79 315 21:53 10.03.2022
3379 Clear 10 1025 78 10000 0.89 315 21:25 10.03.2022
3380 Clear 10 1025 80 10000 1.34 315 20:34 10.03.2022
3381 Clear 10 1026 76 10000 1.79 315 19:20 10.03.2022
3382 Clear 11 1025 68 10000 1.79 315 17:51 10.03.2022
3383 Clear 12 1025 65 10000 4.47 270 16:52 10.03.2022
3384 Clear 13 1025 60 10000 6.26 315 15:28 10.03.2022
3385 Clear 13 1026 57 10000 2.68 315 13:45 10.03.2022
3386 Clear 13 1026 48 10000 4.92 315 12:41 10.03.2022
3387 Clear 13 1027 48 10000 4.02 292 11:28 10.03.2022
3388 Clear 12 1027 62 10000 2.68 292 09:43 10.03.2022
3389 Clear 10 1027 68 10000 1.79 292 08:23 10.03.2022
3390 Clear 7 1026 72 10000 1.79 315 05:32 10.03.2022
3391 Clear 8 1026 68 10000 1.79 315 02:33 10.03.2022
3392 Clouds 9 1025 64 10000 0.89 315 23:32 09.03.2022
3393 Clouds 9 1025 59 10000 1.34 292 22:28 09.03.2022
3394 Clouds 9 1024 63 10000 0.89 270 21:47 09.03.2022
3395 Clouds 9 1024 71 10000 2.68 292 20:44 09.03.2022
3396 Clouds 9 1024 67 10000 3.38 348 18:50 09.03.2022
3397 Clouds 10 1023 53 10000 1.79 0 17:28 09.03.2022
3398 Clouds 10 1022 51 10000 0.89 68 16:39 09.03.2022
3399 Clouds 10 1022 49 10000 2.68 90 15:37 09.03.2022
3400 Clouds 10 1022 47 10000 4.47 45 14:23 09.03.2022
3401 Clouds 10 1022 47 10000 3.58 90 13:25 09.03.2022
3402 Clouds 10 1022 48 10000 5.36 90 12:20 09.03.2022
3403 Clouds 10 1022 47 10000 1.79 45 11:45 09.03.2022
3404 Clouds 10 1022 47 10000 2.24 338 10:50 09.03.2022
3405 Clouds 9 1022 48 10000 2.68 45 09:22 09.03.2022
3406 Clouds 9 1022 48 10000 1.34 90 08:42 09.03.2022
3407 Clouds 8 1013 51 10000 1.79 0 05:36 09.03.2022
3408 Clouds 9 1013 48 10000 1.79 0 00:56 09.03.2022
3409 Clouds 9 1012 51 10000 1.34 90 23:37 08.03.2022
3410 Clouds 9 1012 57 10000 1.79 90 22:45 08.03.2022
3411 Clouds 9 1012 67 10000 1.79 90 21:43 08.03.2022
3412 Clouds 8 1012 72 10000 0.89 90 21:18 08.03.2022
3413 Clouds 8 1011 77 10000 1.34 90 20:18 08.03.2022
3414 Clouds 9 1010 52 10000 3.58 315 18:53 08.03.2022
3415 Clear 10 1009 54 10000 5.81 315 17:51 08.03.2022
3416 Clear 12 1005 49 10000 0.89 355 16:37 08.03.2022
3417 Clear 13 1009 44 10000 3.58 315 14:24 08.03.2022
3418 Clouds 12 1009 56 10000 1.34 351 13:22 08.03.2022
3419 Clouds 11 1009 62 10000 4.02 292 12:19 08.03.2022
3420 Clouds 10 1009 73 10000 1.79 292 11:41 08.03.2022
3421 Clouds 9 1010 72 10000 1.79 315 10:27 08.03.2022
3422 Clouds 11 1009 59 10000 1.34 225 08:30 08.03.2022
3423 Clouds 9 1008 62 10000 0.89 0 05:48 08.03.2022
3424 Clouds 9 1009 59 10000 3.58 315 01:48 08.03.2022
3425 Clouds 9 1009 68 10000 1.79 315 22:24 07.03.2022
3426 Clouds 9 1009 68 10000 1.79 270 21:35 07.03.2022
3427 Clouds 10 1009 67 10000 1.79 315 20:55 07.03.2022
3428 Clouds 10 1010 68 10000 2.24 315 20:26 07.03.2022
3429 Clouds 10 1009 66 10000 1.34 315 19:41 07.03.2022
3430 Clouds 10 1009 66 10000 2.24 292 18:48 07.03.2022
3431 Clouds 11 1009 66 10000 1.34 270 18:25 07.03.2022
3432 Clouds 12 1005 59 10000 3.47 330 16:56 07.03.2022
3433 Clouds 11 1008 60 10000 2.68 292 16:34 07.03.2022
3434 Clouds 11 1016 69 10000 2.68 292 14:41 07.03.2022
3435 Clear 13 1009 52 10000 2.24 315 12:34 07.03.2022
3436 Clear 12 1009 47 10000 2.24 292 10:48 07.03.2022
3437 Clear 12 1010 47 10000 1.34 315 10:25 07.03.2022
3438 Clear 8 1009 67 10000 1.79 270 07:42 07.03.2022
3439 Clouds 9 1009 63 10000 4.47 292 00:37 07.03.2022
3440 Clouds 9 1009 63 10000 4.47 315 00:19 07.03.2022
3441 Clouds 9 1009 63 10000 2.68 270 23:19 06.03.2022
3442 Clouds 9 1009 63 10000 1.79 270 22:25 06.03.2022
3443 Clouds 9 1009 61 10000 1.79 315 21:22 06.03.2022
3444 Clouds 9 1008 60 10000 2.24 315 20:29 06.03.2022
3445 Clouds 10 1008 59 10000 2.68 315 19:35 06.03.2022
3446 Clouds 10 1008 55 10000 3.13 315 18:40 06.03.2022
3447 Clouds 11 1008 55 10000 2.68 315 17:36 06.03.2022
3448 Clouds 11 1008 52 10000 4.92 315 17:18 06.03.2022
3449 Clouds 12 1008 49 10000 3.58 270 16:26 06.03.2022
3450 Clouds 12 1008 47 10000 2.68 315 15:25 06.03.2022
3451 Clouds 12 1015 51 10000 4.92 315 14:42 06.03.2022
3452 Clouds 13 1008 47 10000 3.13 315 13:48 06.03.2022
3453 Clouds 13 1008 47 10000 2.24 270 12:39 06.03.2022
3454 Clouds 12 1008 50 10000 3.58 270 11:39 06.03.2022
3455 Clouds 12 1008 52 10000 3.13 315 10:39 06.03.2022
3456 Clouds 11 1008 54 10000 4.02 0 09:18 06.03.2022
3457 Clouds 10 1007 58 10000 3.58 270 08:27 06.03.2022
3458 Clouds 9 1007 60 10000 4.92 292 07:23 06.03.2022
3459 Clear 9 1006 55 10000 5.81 315 01:54 06.03.2022
3460 Clouds 9 1006 54 10000 5.36 315 00:34 06.03.2022
3461 Clouds 10 1006 57 10000 4.92 315 23:57 05.03.2022
3462 Clouds 10 1006 60 10000 3.58 315 23:18 05.03.2022
3463 Clouds 10 1005 67 10000 4.02 270 22:32 05.03.2022
3464 Clouds 10 1005 67 10000 3.13 292 21:29 05.03.2022
3465 Clouds 10 1005 66 10000 2.68 270 20:27 05.03.2022
3466 Clouds 10 1004 67 10000 1.79 225 19:18 05.03.2022
3467 Clouds 11 1004 67 10000 1.79 225 18:37 05.03.2022
3468 Clouds 11 1003 67 10000 1.79 315 17:31 05.03.2022
3469 Clouds 11 1003 67 10000 0.89 7 16:18 05.03.2022
3470 Clouds 13 1003 60 10000 4.47 270 14:54 05.03.2022
3471 Clouds 12 1002 63 10000 3.58 270 14:36 05.03.2022
3472 Clouds 13 1003 62 10000 3.58 292 13:39 05.03.2022
3473 Clouds 13 1003 61 10000 2.68 315 12:40 05.03.2022
3474 Clouds 12 1004 68 10000 4.92 270 11:20 05.03.2022
3475 Clouds 12 1004 71 10000 3.13 315 10:52 05.03.2022
3476 Clouds 11 1003 79 10000 4.92 315 09:31 05.03.2022
3477 Clouds 11 1003 85 10000 4.92 315 08:24 05.03.2022
3478 Clouds 10 1002 87 10000 3.58 225 07:21 05.03.2022
3479 Clouds 11 1002 78 10000 3.13 315 05:25 05.03.2022
3480 Clouds 11 1004 77 10000 0.89 270 00:33 05.03.2022
3481 Clouds 11 1005 80 10000 0.45 90 22:45 04.03.2022
3482 Clouds 11 1005 79 10000 0.89 90 22:25 04.03.2022
3483 Clouds 12 1005 78 10000 1.63 131 21:43 04.03.2022
3484 Clouds 12 1006 76 10000 0.99 124 20:42 04.03.2022
3485 Clouds 12 1006 75 10000 0.3 108 19:37 04.03.2022
3486 Clouds 12 1006 73 10000 0.43 355 18:58 04.03.2022
3487 Clouds 12 1006 73 10000 0.56 349 18:35 04.03.2022
3488 Clouds 13 1006 70 10000 0.45 90 17:29 04.03.2022
3489 Clouds 14 1006 65 10000 1.34 135 15:58 04.03.2022
3490 Clouds 14 1006 62 10000 0.89 90 15:27 04.03.2022
3491 Clear 14 1007 64 10000 2.24 270 13:36 04.03.2022
3492 Clouds 15 1007 61 10000 3.13 270 12:48 04.03.2022
3493 Clear 14 1007 64 10000 1.79 292 11:37 04.03.2022
3494 Clear 14 1008 66 10000 1.34 6 10:26 04.03.2022
3495 Clear 13 1008 74 10000 1.79 292 09:28 04.03.2022
3496 Clear 10 1007 82 10000 1.34 225 07:49 04.03.2022
3497 Clouds 9 1007 82 10000 1.79 315 06:26 04.03.2022
3498 Clouds 10 1007 82 10000 2.24 315 02:26 04.03.2022
3499 Clouds 10 1008 83 10000 1.79 315 23:43 03.03.2022
3500 Clouds 10 1009 79 10000 3.58 225 22:18 03.03.2022
3501 Clouds 10 1009 74 10000 1.79 292 21:36 03.03.2022
3502 Clouds 11 1010 69 10000 3.58 338 20:50 03.03.2022
3503 Clouds 11 1009 69 10000 0.89 90 19:34 03.03.2022
3504 Clouds 11 1010 67 10000 0.45 90 18:44 03.03.2022
3505 Clouds 11 1010 63 10000 1.96 124 17:43 03.03.2022
3506 Clouds 12 1010 63 10000 1.63 113 17:24 03.03.2022
3507 Clouds 12 1011 59 10000 0.45 90 15:47 03.03.2022
3508 Clouds 12 1011 59 10000 0.45 90 14:51 03.03.2022
3509 Clouds 12 1011 59 10000 1.07 132 14:32 03.03.2022
3510 Clouds 13 1013 50 10000 0.89 180 12:44 03.03.2022
3511 Clouds 13 1013 49 10000 0.89 90 11:39 03.03.2022
3512 Clouds 12 1014 54 10000 2.24 90 10:40 03.03.2022
3513 Clouds 9 1014 72 10000 1.79 135 08:45 03.03.2022
3514 Clouds 6 1014 77 10000 2.68 315 06:58 03.03.2022
3515 Clouds 6 1014 77 10000 2.24 315 06:33 03.03.2022
3516 Clouds 7 1016 74 10000 2.24 315 00:43 03.03.2022
3517 Clear 7 1016 73 10000 0.89 0 23:28 02.03.2022
3518 Clear 8 1017 72 10000 0.89 315 22:49 02.03.2022
3519 Clear 8 1017 73 10000 1.34 315 21:25 02.03.2022
3520 Clear 8 1017 71 10000 1.34 315 20:40 02.03.2022
3521 Clear 8 1016 70 10000 0.89 315 19:56 02.03.2022
3522 Clear 8 1017 70 10000 1.79 315 19:33 02.03.2022
3523 Clouds 9 1016 68 10000 1.34 315 18:44 02.03.2022
3524 Clouds 10 1016 64 10000 2.73 306 17:50 02.03.2022
3525 Clouds 10 1016 62 10000 0.89 315 17:21 02.03.2022
3526 Clouds 11 1016 59 10000 0.89 270 16:42 02.03.2022
3527 Clouds 11 1017 58 10000 1.34 15 14:43 02.03.2022
3528 Clouds 10 1017 64 10000 0.89 315 13:24 02.03.2022
3529 Clouds 10 1014 63 10000 3.2 327 12:42 02.03.2022
3530 Clouds 10 1015 62 10000 3.21 339 11:40 02.03.2022
3531 Clouds 10 1015 60 10000 0.89 3 11:21 02.03.2022
3532 Clouds 10 1014 64 10000 4.08 348 09:41 02.03.2022
3533 Clouds 10 1014 66 10000 4.44 343 08:54 02.03.2022
3534 Clouds 9 1014 63 10000 0.45 311 07:28 02.03.2022
3535 Clouds 9 1014 63 10000 5.08 317 06:40 02.03.2022
3536 Clouds 7 1018 60 10000 0.45 225 01:32 02.03.2022
3537 Clouds 9 1015 53 10000 6.49 13 23:49 01.03.2022
3538 Clouds 8 1015 56 10000 0.45 332 22:45 01.03.2022
3539 Clouds 8 1015 55 10000 0.45 31 21:58 01.03.2022
3540 Clouds 8 1015 56 10000 1.34 12 21:24 01.03.2022
3541 Clouds 8 1014 57 10000 6.4 20 20:30 01.03.2022
3542 Clouds 8 1014 57 10000 6.4 20 20:30 01.03.2022
3543 Clouds 8 1014 61 10000 5.42 10 19:44 01.03.2022
3544 Clouds 7 1013 70 10000 4.85 7 18:50 01.03.2022
3545 Clouds 7 1013 69 10000 5.01 2 18:21 01.03.2022
3546 Clouds 7 1022 74 10000 5.01 2 17:30 01.03.2022
3547 Clouds 8 1022 85 10000 5.28 10 16:34 01.03.2022
3548 Clouds 8 1021 88 10000 7.69 8 15:41 01.03.2022
3549 Clouds 8 1021 81 8534 8.11 358 14:40 01.03.2022
3550 Clouds 9 1021 75 10000 8.41 329 13:58 01.03.2022
3551 Clouds 10 1021 68 10000 8.33 322 13:25 01.03.2022
3552 Clouds 11 1021 66 10000 9.04 312 12:33 01.03.2022
3553 Clouds 11 1022 75 10000 6.18 318 10:37 01.03.2022
3554 Clouds 10 1022 75 10000 2.95 302 08:45 01.03.2022
3555 Clouds 8 1018 84 10000 3.13 270 07:54 01.03.2022
3556 Clear 7 1018 89 10000 1.79 315 06:26 01.03.2022
3557 Clear 8 1015 78 10000 0.48 36 02:44 01.03.2022
3558 Clouds 9 1015 76 10000 1.68 98 00:36 01.03.2022
3559 Clouds 9 1016 75 10000 2.02 88 23:33 28.02.2022
3560 Clouds 10 1016 73 10000 2.07 86 22:24 28.02.2022
3561 Clouds 8 1016 74 10000 2.07 86 21:39 28.02.2022
3562 Clouds 9 1015 72 10000 1.78 36 20:28 28.02.2022
3563 Clouds 10 1015 72 10000 1.78 36 19:41 28.02.2022
3564 Clouds 10 1015 70 10000 2.28 22 18:49 28.02.2022
3565 Clouds 11 1014 63 10000 2.73 14 17:33 28.02.2022
3566 Clouds 13 1014 63 10000 0.45 326 16:53 28.02.2022
3567 Clouds 12 1021 58 10000 3.39 13 15:58 28.02.2022
3568 Clouds 13 1021 61 10000 2.84 7 14:32 28.02.2022
3569 Clouds 12 1021 67 10000 2.38 352 13:48 28.02.2022
3570 Clouds 12 1021 72 10000 1.94 359 12:53 28.02.2022
3571 Clouds 11 1022 66 10000 1.55 341 11:59 28.02.2022
3572 Clouds 12 1022 66 10000 1.54 356 11:19 28.02.2022
3573 Clouds 12 1021 72 10000 2.37 355 10:22 28.02.2022
3574 Clouds 11 1021 75 10000 2.37 355 09:43 28.02.2022
3575 Clouds 9 1022 79 10000 1.34 315 08:51 28.02.2022
3576 Clouds 7 1017 88 10000 0.45 315 07:57 28.02.2022
3577 Clouds 8 1016 85 10000 1.34 315 05:53 28.02.2022
3578 Clouds 8 1016 84 10000 1.34 0 04:30 28.02.2022
3579 Clouds 10 1015 67 10000 3.13 315 00:52 28.02.2022
3580 Clouds 10 1014 59 10000 0.45 323 22:45 27.02.2022
3581 Clouds 10 1014 62 10000 0.45 21 22:26 27.02.2022
3582 Clouds 10 1014 57 10000 0.45 307 21:37 27.02.2022
3583 Clouds 10 1015 59 10000 6.71 315 20:43 27.02.2022
3584 Clouds 10 1013 58 10000 6.54 302 20:18 27.02.2022
3585 Clouds 10 1015 59 10000 6.26 315 19:48 27.02.2022
3586 Clouds 10 1013 58 10000 0.45 347 19:21 27.02.2022
3587 Clouds 10 1013 65 10000 6.05 299 18:33 27.02.2022
3588 Clouds 10 1013 68 10000 6.86 308 17:49 27.02.2022
3589 Clouds 11 1012 60 10000 0.89 327 16:25 27.02.2022
3590 Clouds 10 1012 82 10000 7.61 311 15:21 27.02.2022
3591 Clouds 9 1015 80 10000 4.92 315 12:37 27.02.2022
3592 Clouds 9 1015 80 10000 4.92 292 11:51 27.02.2022
3593 Clouds 9 1015 83 10000 5.81 292 10:37 27.02.2022
3594 Clouds 9 1015 84 10000 3.58 315 09:58 27.02.2022
3595 Clouds 9 1012 84 10000 5.84 300 09:24 27.02.2022
3596 Clouds 9 1012 87 10000 5.84 300 08:48 27.02.2022
3597 Clouds 8 1013 83 10000 4.02 270 06:30 27.02.2022
3598 Clouds 10 1009 68 10000 1.34 297 04:19 27.02.2022
3599 Clouds 8 1011 77 10000 6.71 315 00:31 27.02.2022
3600 Clouds 9 1011 63 10000 7.6 270 22:48 26.02.2022
3601 Clouds 10 1011 65 10000 10.28 292 21:34 26.02.2022
3602 Clouds 10 1011 61 10000 9.39 315 20:43 26.02.2022
3603 Clouds 10 1011 64 10000 6.71 0 19:58 26.02.2022
3604 Clouds 10 1009 62 10000 0.89 310 19:33 26.02.2022
3605 Clouds 11 1009 59 10000 0.89 354 18:40 26.02.2022
3606 Clouds 11 1009 61 10000 0.45 352 17:38 26.02.2022
3607 Clouds 11 1009 63 10000 0.89 325 16:48 26.02.2022
3608 Clouds 12 1008 65 10000 1.79 141 15:45 26.02.2022
3609 Clouds 12 1008 67 10000 8.24 310 15:20 26.02.2022
3610 Clouds 12 1008 67 10000 1.34 34 14:51 26.02.2022
3611 Clouds 12 1008 73 10000 0.45 205 14:24 26.02.2022
3612 Clouds 14 1008 67 10000 1.34 324 13:18 26.02.2022
3613 Clouds 14 1009 65 10000 1.34 3 11:54 26.02.2022
3614 Clouds 14 1009 66 10000 1.34 315 11:28 26.02.2022
3615 Clouds 14 1009 68 10000 0.89 346 10:31 26.02.2022
3616 Clouds 13 1009 68 10000 4.22 220 08:45 26.02.2022
3617 Clouds 11 1011 74 10000 3.13 225 06:46 26.02.2022
3618 Clouds 10 1013 75 10000 1.79 292 00:50 26.02.2022
3619 Clouds 10 1014 75 10000 0.89 270 22:47 25.02.2022
3620 Clouds 11 1015 73 10000 2.24 315 21:40 25.02.2022
3621 Clouds 11 1015 73 10000 1.79 315 21:21 25.02.2022
3622 Clouds 11 1016 71 10000 2.68 315 20:32 25.02.2022
3623 Clear 12 1016 68 10000 1.23 193 18:41 25.02.2022
3624 Clear 13 1015 61 10000 1.34 14 17:27 25.02.2022
3625 Clear 14 1020 59 10000 0.89 90 16:24 25.02.2022
3626 Clear 14 1021 56 10000 1.34 135 15:43 25.02.2022
3627 Clear 15 1021 56 10000 0.89 135 15:20 25.02.2022
3628 Clear 15 1015 50 10000 1.34 340 14:42 25.02.2022
3629 Clear 15 1015 52 10000 1.79 180 13:36 25.02.2022
3630 Clear 15 1016 54 10000 0.89 135 12:56 25.02.2022
3631 Clear 14 1017 57 10000 0.4 56 11:28 25.02.2022
3632 Clear 14 1014 60 10000 0.51 156 10:29 25.02.2022
3633 Clear 14 1014 61 10000 0.51 156 09:57 25.02.2022
3634 Clear 13 1014 61 10000 1.33 137 09:18 25.02.2022
3635 Clear 10 1014 63 10000 1.75 151 07:41 25.02.2022
3636 Clouds 10 1013 56 10000 1.9 187 05:49 25.02.2022
3637 Clouds 10 1014 55 10000 2.16 211 04:32 25.02.2022
3638 Clouds 10 1017 53 10000 2.16 194 23:47 24.02.2022
3639 Clouds 12 1018 52 10000 0.45 315 21:58 24.02.2022
3640 Clouds 12 1018 52 10000 0.45 315 21:58 24.02.2022
3641 Clouds 12 1018 52 10000 1.34 270 21:39 24.02.2022
3642 Clouds 12 1018 51 10000 1.34 225 21:19 24.02.2022
3643 Clouds 13 1017 57 10000 3.58 270 19:42 24.02.2022
3644 Clouds 13 1017 58 10000 4.47 315 18:44 24.02.2022
3645 Clouds 13 1023 63 10000 3.58 315 18:19 24.02.2022
3646 Clouds 14 1018 55 10000 0.85 206 17:34 24.02.2022
3647 Clouds 14 1023 54 10000 0.48 278 16:50 24.02.2022
3648 Clouds 15 1023 51 10000 0.45 90 16:24 24.02.2022
3649 Clouds 15 1024 47 10000 0.89 135 14:56 24.02.2022
3650 Clouds 15 1024 47 10000 0.89 135 14:36 24.02.2022
3651 Clouds 16 1018 39 10000 1.34 90 13:40 24.02.2022
3652 Clouds 16 1019 39 10000 0.45 90 13:21 24.02.2022
3653 Clouds 15 1021 55 10000 1.79 90 10:41 24.02.2022
3654 Clouds 13 1021 66 10000 2.24 90 09:24 24.02.2022
3655 Clouds 12 1021 70 10000 1.34 90 08:41 24.02.2022
3656 Clear 9 1020 79 10000 0.89 270 05:58 24.02.2022
3657 Clear 10 1021 73 10000 1.34 270 02:59 24.02.2022
3658 Clear 11 1020 64 10000 0.89 45 23:40 23.02.2022
3659 Clear 11 1021 69 10000 1.79 180 21:53 23.02.2022
3660 Clear 11 1020 65 10000 0.89 90 20:32 23.02.2022
3661 Clear 12 1020 64 10000 0.45 292 19:49 23.02.2022
3662 Clear 12 1020 64 10000 2.68 315 18:42 23.02.2022
3663 Clear 13 1017 54 10000 3.49 20 17:45 23.02.2022
3664 Clear 14 1023 55 10000 4.92 12 15:26 23.02.2022
3665 Clear 15 1015 50 10000 1.34 327 13:34 23.02.2022
3666 Clear 15 1016 49 10000 1.34 359 12:26 23.02.2022
3667 Clear 14 1016 41 10000 1.34 355 10:45 23.02.2022
3668 Clear 13 1018 45 10000 4.92 135 09:24 23.02.2022
3669 Clear 12 1017 50 10000 1.34 16 08:27 23.02.2022
3670 Clear 12 1014 55 10000 6.68 14 07:18 23.02.2022
3671 Clear 13 1011 49 10000 0.45 349 01:22 23.02.2022
3672 Clear 13 1010 49 10000 10.04 18 23:40 22.02.2022
3673 Clear 13 1010 64 10000 2.24 13 22:59 22.02.2022
3674 Clear 13 1010 63 10000 0.45 335 21:58 22.02.2022
3675 Clear 13 1010 62 10000 0.45 326 21:40 22.02.2022
3676 Clear 13 1010 59 10000 6.77 19 21:18 22.02.2022
3677 Clear 13 1009 58 10000 6.77 19 20:31 22.02.2022
3678 Clear 13 1009 58 10000 7.31 17 19:53 22.02.2022
3679 Clear 13 1008 57 10000 7.31 17 19:33 22.02.2022
3680 Clear 13 1008 59 10000 7.91 358 18:27 22.02.2022
3681 Clear 13 1006 59 10000 1.34 21 17:26 22.02.2022
3682 Clear 14 1006 54 10000 2.24 13 16:42 22.02.2022
3683 Clear 14 1005 50 10000 0.89 53 15:59 22.02.2022
3684 Clear 15 1004 49 10000 3.58 355 14:52 22.02.2022
3685 Clear 15 1004 50 10000 0.89 347 13:37 22.02.2022
3686 Clouds 14 1007 52 10000 3.58 338 10:54 22.02.2022
3687 Clouds 14 1003 59 10000 1.79 31 09:22 22.02.2022
3688 Clouds 13 1002 65 10000 0.45 325 07:28 22.02.2022
3689 Clouds 13 1003 66 10000 0.89 313 06:53 22.02.2022
3690 Clouds 13 1003 55 10000 2.24 26 02:48 22.02.2022
3691 Clouds 14 1007 56 10000 7.15 315 23:18 21.02.2022
3692 Clouds 14 1007 60 10000 2.68 303 21:56 21.02.2022
3693 Clouds 14 1006 64 10000 3.13 354 20:38 21.02.2022
3694 Clouds 13 1010 66 10000 9.83 292 18:47 21.02.2022
3695 Clouds 14 1007 61 10000 1.34 7 18:18 21.02.2022
3696 Clouds 15 1008 61 10000 0.89 312 15:49 21.02.2022
3697 Clouds 16 1009 62 10000 0.89 330 14:22 21.02.2022
3698 Clouds 16 1009 66 10000 2.24 335 13:31 21.02.2022
3699 Clouds 16 1010 61 10000 0.89 295 12:41 21.02.2022
3700 Clouds 15 1013 61 10000 5.36 315 12:20 21.02.2022
3701 Clouds 14 1015 66 10000 4.02 315 10:26 21.02.2022
3702 Clear 11 1013 78 10000 3.37 236 06:25 21.02.2022
3703 Clouds 12 1015 81 10000 3.27 239 00:35 21.02.2022
3704 Clouds 13 1015 81 10000 3.29 266 22:32 20.02.2022
3705 Clouds 13 1017 83 10000 1.79 292 21:43 20.02.2022
3706 Clouds 13 1017 83 10000 1.79 270 21:21 20.02.2022
3707 Clouds 14 1014 82 10000 3.23 264 20:43 20.02.2022
3708 Clouds 14 1014 82 10000 2.66 255 19:49 20.02.2022
3709 Clouds 14 1014 81 10000 0.45 9 18:55 20.02.2022
3710 Clouds 15 1013 80 10000 2.99 268 18:34 20.02.2022
3711 Clouds 15 1013 79 10000 3.21 279 17:55 20.02.2022
3712 Clouds 16 1013 78 10000 0.89 330 16:59 20.02.2022
3713 Clouds 17 1012 71 10000 1.34 330 14:55 20.02.2022
3714 Clouds 17 1015 71 10000 0.89 270 13:58 20.02.2022
3715 Clouds 17 1012 70 10000 1.72 292 12:42 20.02.2022
3716 Clouds 17 1012 65 10000 1.38 291 11:30 20.02.2022
3717 Clouds 17 1012 62 10000 1.32 281 10:21 20.02.2022
3718 Clouds 16 1012 62 10000 1.16 254 09:24 20.02.2022
3719 Clouds 14 1010 59 10000 2.38 212 06:28 20.02.2022
3720 Clouds 17 1010 51 10000 3 176 00:32 20.02.2022
3721 Clouds 16 1010 54 10000 3 176 23:32 19.02.2022
3722 Clouds 16 1010 58 10000 2.21 202 22:24 19.02.2022
3723 Clouds 17 1010 62 10000 2.14 203 21:45 19.02.2022
3724 -273 0 0 0 0 0 20:26 19.02.2022
3725 Clouds 15 1010 75 10000 2.47 147 20:25 19.02.2022
3726 Clouds 15 1010 80 10000 2.47 147 19:34 19.02.2022
3727 Clouds 15 1010 80 10000 3.09 151 18:39 19.02.2022
3728 Clouds 15 1010 83 10000 3.41 144 17:54 19.02.2022
3729 Clouds 16 1010 80 10000 3.11 131 16:47 19.02.2022
3730 Clouds 17 1010 76 10000 1.35 120 15:20 19.02.2022
3731 Clouds 17 1010 76 10000 1.35 120 14:53 19.02.2022
3732 Clouds 18 1011 73 10000 1.15 145 13:50 19.02.2022
3733 Clouds 16 1012 76 10000 1.3 130 11:42 19.02.2022
3734 Clouds 15 1013 81 10000 0.75 195 10:45 19.02.2022
3735 Clear 12 1012 90 10000 1.1 193 08:54 19.02.2022
3736 Clear 11 1019 84 10000 2.06 213 06:45 19.02.2022
3737 Clear 12 1012 81 10000 1.54 188 00:23 19.02.2022
3738 Clear 12 1013 78 10000 2.08 159 22:24 18.02.2022
3739 Clear 12 1013 77 10000 2.21 140 21:18 18.02.2022
3740 Clear 13 1013 75 10000 2.28 135 19:56 18.02.2022
3741 Clear 14 1013 71 10000 1.95 149 18:51 18.02.2022
3742 Clear 14 1013 70 10000 1.97 130 18:25 18.02.2022
3743 Clear 15 1013 69 10000 1.97 130 17:56 18.02.2022
3744 Clear 17 1019 60 10000 1.63 89 15:35 18.02.2022
3745 Clear 18 1012 57 10000 2.05 82 13:56 18.02.2022
3746 Clear 17 1012 57 10000 2.11 79 13:28 18.02.2022
3747 Clear 17 1012 60 10000 2.11 78 12:42 18.02.2022
3748 Clear 16 1013 62 10000 1.58 75 11:56 18.02.2022
3749 Clear 15 1013 66 10000 1.67 98 10:42 18.02.2022
3750 Clear 10 1011 85 10000 1.57 132 06:58 18.02.2022
3751 Clear 10 1011 84 10000 1 120 05:42 18.02.2022
3752 Clouds 11 1010 79 10000 1.29 175 23:53 17.02.2022
3753 Clouds 11 1011 77 10000 1.63 191 21:56 17.02.2022
3754 Clouds 12 1010 76 10000 1.54 191 21:27 17.02.2022
3755 Clouds 12 1010 75 10000 1.56 192 20:40 17.02.2022
3756 Clouds 12 1010 74 10000 1.33 224 19:54 17.02.2022
3757 Clouds 13 1010 72 10000 1.49 226 18:57 17.02.2022
3758 Clouds 13 1009 68 10000 0.97 213 17:59 17.02.2022
3759 Clouds 15 1016 63 10000 0.77 295 16:43 17.02.2022
3760 Clouds 15 1017 63 10000 1.45 297 15:44 17.02.2022
3761 Clouds 15 1017 60 10000 2.48 301 14:29 17.02.2022
3762 Clouds 15 1009 59 10000 2.38 302 12:51 17.02.2022
3763 Clouds 15 1010 62 10000 1.34 347 11:30 17.02.2022
3764 Clouds 14 1011 74 10000 1.34 7 09:38 17.02.2022
3765 Clouds 11 1009 79 10000 2.56 251 06:37 17.02.2022
3766 Clouds 10 1010 73 10000 0.45 346 23:21 16.02.2022
3767 Clouds 9 1014 74 10000 3.58 292 22:20 16.02.2022
3768 Clouds 10 1014 75 10000 1.79 315 20:19 16.02.2022
3769 Clouds 10 1013 75 10000 2.68 0 18:50 16.02.2022
3770 Clouds 11 1013 73 10000 3.58 315 17:54 16.02.2022
3771 Clouds 11 1017 68 10000 1.79 315 15:58 16.02.2022
3772 Clouds 12 1016 63 10000 5.38 305 15:20 16.02.2022
3773 Clouds 11 1010 68 10000 0.89 342 13:31 16.02.2022
3774 Clouds 11 1013 75 10000 0.89 0 12:21 16.02.2022
3775 Clouds 11 1011 82 10000 4.69 297 11:35 16.02.2022
3776 Clouds 10 1011 77 10000 4.1 274 10:34 16.02.2022
3777 Rain 10 1011 73 10000 0.89 280 08:58 16.02.2022
3778 Clouds 9 1013 72 10000 4.92 292 06:43 16.02.2022
3779 Clouds 11 1015 76 10000 2.68 315 23:46 15.02.2022
3780 Clouds 12 1015 79 10000 2.68 315 22:34 15.02.2022
3781 Clouds 11 1015 81 10000 2.24 315 21:49 15.02.2022
3782 Clouds 11 1015 80 10000 2.68 315 21:29 15.02.2022
3783 Clouds 11 1015 81 10000 3.13 315 20:56 15.02.2022
3784 Clouds 11 1015 80 10000 2.24 270 20:19 15.02.2022
3785 Clouds 12 1016 79 10000 1.79 315 19:33 15.02.2022
3786 Clouds 12 1015 80 10000 2.68 0 18:24 15.02.2022
3787 Clouds 11 1015 83 10000 6.71 315 17:52 15.02.2022
3788 Clouds 11 1015 85 10000 5.36 315 17:26 15.02.2022
3789 Rain 12 1011 83 10000 1.34 41 15:34 15.02.2022
3790 Clouds 13 1011 73 10000 1.34 345 13:29 15.02.2022
3791 Clouds 14 1011 70 10000 1.34 42 12:59 15.02.2022
3792 Clouds 14 1021 66 10000 3.58 292 11:41 15.02.2022
3793 Clouds 16 1015 57 10000 2.24 225 09:54 15.02.2022
3794 Clouds 13 1011 69 10000 2.41 198 07:00 15.02.2022
3795 Clouds 12 1011 72 10000 2.73 201 06:19 15.02.2022
3796 Clouds 12 1015 74 10000 0.89 315 23:34 14.02.2022
3797 Clouds 12 1015 75 10000 1.79 292 21:55 14.02.2022
3798 Clouds 12 1016 79 10000 0.45 225 20:51 14.02.2022
3799 Clouds 13 1016 80 10000 0.45 270 19:46 14.02.2022
3800 Clouds 13 1016 75 10000 1.96 154 19:26 14.02.2022
3801 Clouds 13 1016 77 10000 0.45 270 18:23 14.02.2022
3802 Clouds 14 1015 76 10000 0.45 10 17:27 14.02.2022
3803 Clouds 15 1015 71 10000 0.89 19 16:27 14.02.2022
3804 Clouds 15 1022 60 10000 1.79 90 14:43 14.02.2022
3805 Clouds 16 1016 59 10000 2.24 90 13:34 14.02.2022
3806 Clouds 16 1017 58 10000 1.34 135 12:58 14.02.2022
3807 Clouds 16 1017 58 10000 0.89 90 12:58 14.02.2022
3808 Clouds 15 1018 59 10000 0.89 90 11:57 14.02.2022
3809 Clouds 15 1018 61 10000 0.89 225 11:38 14.02.2022
3810 Clouds 13 1016 71 10000 1.66 174 09:37 14.02.2022
3811 Clouds 9 1019 80 10000 0.45 270 07:37 14.02.2022
3812 Clouds 9 1019 80 10000 1.79 248 07:19 14.02.2022
3813 Clouds 10 1017 76 10000 1.87 184 22:48 13.02.2022
3814 Clouds 10 1017 76 10000 1.94 179 22:29 13.02.2022
3815 Clouds 11 1017 75 10000 1.94 179 21:48 13.02.2022
3816 Clouds 11 1017 74 10000 1.86 174 21:20 13.02.2022
3817 Clouds 11 1019 77 10000 0.45 270 20:27 13.02.2022
3818 Clouds 12 1019 75 10000 0.77 180 18:58 13.02.2022
3819 Clouds 12 1020 74 10000 0.89 90 18:40 13.02.2022
3820 Clouds 12 1020 71 10000 0.89 90 16:53 13.02.2022
3821 Clouds 15 1017 63 10000 1.61 322 15:51 13.02.2022
3822 Clouds 15 1023 63 10000 1.89 323 14:50 13.02.2022
3823 Clear 15 1017 61 10000 0.45 346 13:27 13.02.2022
3824 Clear 15 1018 60 10000 1.33 325 12:42 13.02.2022
3825 Clear 14 1019 69 10000 0.37 300 10:43 13.02.2022
3826 Clear 13 1022 72 10000 1.34 90 10:23 13.02.2022
3827 Clear 10 1022 81 10000 0.89 90 08:55 13.02.2022
3828 Clouds 9 1020 68 10000 0.89 270 01:26 13.02.2022
3829 Clouds 9 1018 70 10000 1.63 170 00:21 13.02.2022
3830 Clouds 10 1018 76 10000 1.79 152 22:34 12.02.2022
3831 Clouds 10 1018 79 10000 2.18 143 22:00 12.02.2022
3832 Clouds 11 1017 77 10000 2.35 139 20:55 12.02.2022
3833 Clouds 11 1017 77 10000 2.32 133 20:23 12.02.2022
3834 Clouds 11 1020 79 10000 0.89 90 18:54 12.02.2022
3835 Clouds 11 1020 78 10000 0.89 90 18:36 12.02.2022
3836 Clouds 12 1019 76 10000 1.79 90 17:39 12.02.2022
3837 Clouds 13 1019 72 10000 1.34 90 16:46 12.02.2022
3838 Clouds 14 1019 68 10000 1.79 90 15:59 12.02.2022
3839 Clouds 14 1018 66 10000 3.13 135 15:21 12.02.2022
3840 Clouds 15 1018 61 10000 2.68 135 14:29 12.02.2022
3841 Clouds 14 1020 60 10000 1.34 90 11:34 12.02.2022
3842 Clouds 13 1020 66 10000 0.45 90 10:33 12.02.2022
3843 Clouds 12 1019 65 10000 0.89 90 09:38 12.02.2022
3844 Clouds 11 1019 70 10000 0.89 90 08:47 12.02.2022
3845 Clouds 9 1019 76 10000 0.89 248 07:45 12.02.2022
3846 Clouds 9 1015 72 10000 1.79 130 05:31 12.02.2022
3847 Clouds 9 1015 70 10000 1.31 127 02:19 12.02.2022
3848 Clouds 10 1016 65 10000 1.52 148 23:56 11.02.2022
3849 Clouds 10 1018 64 10000 1.79 270 22:23 11.02.2022
3850 Clouds 10 1016 69 10000 1.63 145 21:37 11.02.2022
3851 Clouds 11 1016 72 10000 1.35 142 20:29 11.02.2022
3852 Clouds 11 1019 67 10000 1.79 270 19:29 11.02.2022
3853 Clouds 11 1019 68 10000 0.89 270 18:47 11.02.2022
3854 Clouds 13 1018 67 10000 0.45 90 17:27 11.02.2022
3855 Clouds 14 1018 65 10000 0.93 93 16:56 11.02.2022
3856 Clouds 14 1025 62 10000 0.45 90 15:26 11.02.2022
3857 Clouds 15 1025 59 10000 0.45 90 14:38 11.02.2022
3858 Clouds 15 1025 58 10000 0.89 135 14:20 11.02.2022
3859 Clouds 16 1019 52 10000 0.45 353 13:47 11.02.2022
3860 Clouds 15 1019 51 10000 0.89 3 13:28 11.02.2022
3861 Clear 14 1021 44 10000 0.45 90 11:26 11.02.2022
3862 Clear 12 1021 49 10000 1.34 90 09:39 11.02.2022
3863 Clear 11 1027 53 10000 0.45 90 08:39 11.02.2022
3864 Clear 10 1022 55 10000 1.09 156 08:21 11.02.2022
3865 Clear 9 1027 45 10000 1.79 270 06:31 11.02.2022
3866 Clear 9 1027 43 10000 2.24 270 02:25 11.02.2022
3867 Clear 9 1022 51 10000 1.34 270 00:46 11.02.2022
3868 Clear 10 1020 61 10000 2.34 143 22:45 10.02.2022
3869 Clear 10 1021 67 10000 2.7 139 21:44 10.02.2022
3870 Clear 11 1021 66 10000 2.87 131 20:52 10.02.2022
3871 Clear 11 1021 66 10000 2.96 126 20:24 10.02.2022
3872 Clear 11 1025 65 10000 0.89 315 19:24 10.02.2022
3873 Clear 12 1021 64 10000 2.95 121 18:43 10.02.2022
3874 Clear 13 1024 61 10000 0.89 90 17:26 10.02.2022
3875 Clear 14 1024 52 10000 2.46 92 16:47 10.02.2022
3876 Clear 14 1030 48 10000 0.45 90 15:45 10.02.2022
3877 Clear 15 1030 48 10000 0.89 90 15:25 10.02.2022
3878 Clear 15 1030 43 10000 1.34 90 14:44 10.02.2022
3879 Clear 16 1024 40 10000 1.79 135 14:22 10.02.2022
3880 Clear 15 1025 40 10000 2.24 90 13:20 10.02.2022
3881 Clear 15 1026 39 10000 1.79 135 11:58 10.02.2022
3882 Clear 14 1026 41 10000 1.79 180 11:33 10.02.2022
3883 Clear 14 1027 44 10000 0.45 90 10:35 10.02.2022
3884 Clear 13 1027 45 10000 1.34 90 09:49 10.02.2022
3885 Clear 11 1027 51 10000 1.34 90 08:53 10.02.2022
3886 Clear 8 1027 52 10000 1.34 270 06:42 10.02.2022
3887 Clear 8 1026 52 10000 0.89 270 03:39 10.02.2022
3888 Clear 9 1027 47 10000 0.45 270 01:43 10.02.2022
3889 Clear 10 1024 49 10000 1.08 124 00:42 10.02.2022
3890 Clear 10 1024 48 10000 1.1 128 00:24 10.02.2022
3891 Clear 10 1025 51 10000 1.07 124 22:58 09.02.2022
3892 Clear 10 1027 50 10000 0.89 270 22:33 09.02.2022
3893 Clear 10 1027 49 10000 0.45 90 21:49 09.02.2022
3894 Clear 11 1025 53 10000 1.22 137 21:28 09.02.2022
3895 Clear 11 1025 58 10000 1.22 137 20:45 09.02.2022
3896 Clear 11 1025 64 10000 1.17 124 20:23 09.02.2022
3897 Clear 12 1025 64 10000 1.16 124 19:43 09.02.2022
3898 Clear 12 1025 62 10000 1.11 99 18:58 09.02.2022
3899 Clear 12 1028 54 10000 1.41 75 17:32 09.02.2022
3900 Clear 14 1034 46 10000 0.89 90 16:26 09.02.2022
3901 Clear 14 1034 50 10000 1.79 90 15:32 09.02.2022
3902 Clear 15 1029 59 10000 1.79 315 13:57 09.02.2022
3903 Clear 14 1029 52 10000 1.79 135 12:25 09.02.2022
3904 Clear 13 1027 57 10000 0.46 20 10:37 09.02.2022
3905 Clear 12 1030 58 10000 1.79 135 09:57 09.02.2022
3906 Clear 11 1030 61 10000 2.24 90 09:23 09.02.2022
3907 Clear 10 1030 64 10000 1.79 90 08:51 09.02.2022
3908 Clear 9 1027 64 10000 0.69 117 07:28 09.02.2022
3909 Clear 9 1026 59 10000 1.23 69 05:29 09.02.2022
3910 Clear 10 1026 57 10000 2.1 60 03:49 09.02.2022
3911 Clear 11 1025 49 10000 0.45 317 00:21 09.02.2022
3912 Clear 11 1026 46 10000 5.2 34 23:29 08.02.2022
3913 Clear 11 1025 45 10000 0.89 341 22:43 08.02.2022
3914 Clear 11 1025 45 10000 5.77 38 22:20 08.02.2022
3915 Clear 11 1025 45 10000 5.77 38 21:38 08.02.2022
3916 Clear 11 1025 45 10000 1.79 28 21:19 08.02.2022
3917 Clear 11 1024 46 10000 1.34 2 20:41 08.02.2022
3918 Clear 11 1025 45 10000 6.68 41 19:41 08.02.2022
3919 Clear 11 1024 43 10000 5.32 43 18:24 08.02.2022
3920 Clear 12 1023 43 10000 5.32 43 17:33 08.02.2022
3921 Clear 13 1030 40 10000 6.92 38 15:52 08.02.2022
3922 Clear 13 1030 38 10000 7.92 39 15:28 08.02.2022
3923 Clear 13 1025 36 10000 4.02 45 13:54 08.02.2022
3924 Clear 13 1022 32 10000 1.34 26 12:39 08.02.2022
3925 Clear 13 1022 32 10000 2.24 16 11:20 08.02.2022
3926 Clear 12 1022 40 10000 0.89 359 09:51 08.02.2022
3927 Clear 12 1021 40 10000 0.89 26 08:54 08.02.2022
3928 Clouds 11 1020 41 10000 1.34 2 07:27 08.02.2022
3929 Clouds 11 1017 48 10000 0.45 10 04:40 08.02.2022
3930 Clouds 11 1017 47 10000 1.34 31 04:22 08.02.2022
3931 Clouds 12 1017 49 10000 0.89 32 03:36 08.02.2022
3932 Clouds 12 1016 50 10000 0.45 26 03:18 08.02.2022
3933 Clouds 12 1016 54 10000 8.01 41 02:59 08.02.2022
3934 Clouds 12 1016 56 10000 0.45 18 02:37 08.02.2022
3935 Clouds 12 1015 56 10000 0.45 7 02:18 08.02.2022
3936 Clouds 12 1015 61 10000 8.52 37 01:45 08.02.2022
3937 Clouds 12 1015 61 10000 0.89 12 01:25 08.02.2022
3938 Clouds 12 1015 70 10000 0.45 358 00:55 08.02.2022
3939 Clouds 12 1016 79 10000 1.79 45 00:36 08.02.2022
3940 Clouds 13 1013 81 10000 0.89 347 23:45 07.02.2022
3941 Clouds 13 1013 82 10000 0.45 2 23:18 07.02.2022
3942 Clouds 13 1013 79 10000 0.45 84 22:59 07.02.2022
3943 Clouds 14 1012 76 10000 1.34 323 22:19 07.02.2022
3944 Clouds 14 1012 75 10000 5.71 323 21:51 07.02.2022
3945 Clouds 14 1012 74 10000 7.82 302 21:28 07.02.2022
3946 Clouds 13 1011 75 10000 1.34 292 20:52 07.02.2022
3947 Clouds 13 1011 76 10000 1.34 290 20:34 07.02.2022
3948 Clouds 13 1011 76 10000 1.79 248 19:47 07.02.2022
3949 Clouds 13 1011 76 10000 1.79 248 19:47 07.02.2022
3950 Clouds 13 1011 76 10000 0.89 342 19:20 07.02.2022
3951 Clouds 13 1010 75 10000 0.45 336 17:39 07.02.2022
3952 Clouds 13 1010 75 10000 2.24 205 16:52 07.02.2022
3953 Clouds 14 1010 70 10000 1.79 43 15:49 07.02.2022
3954 Clouds 14 1010 67 10000 1.34 309 14:41 07.02.2022
3955 Clouds 15 1010 62 10000 1.79 340 13:27 07.02.2022
3956 Clouds 15 1011 60 10000 1.79 5 12:37 07.02.2022
3957 Clouds 15 1011 61 10000 0.45 282 11:55 07.02.2022
3958 Clouds 14 1012 62 10000 2.68 300 11:26 07.02.2022
3959 Clouds 14 1012 62 10000 0.45 175 10:45 07.02.2022
3960 Clouds 14 1012 62 10000 0.45 260 10:26 07.02.2022
3961 Clouds 13 1012 63 10000 0.45 82 09:52 07.02.2022
3962 Clouds 13 1012 64 10000 0.89 35 09:18 07.02.2022
3963 Clouds 12 1011 69 10000 0.89 337 07:59 07.02.2022
3964 Clouds 11 1012 73 10000 5.55 228 06:35 07.02.2022
3965 Clouds 12 1012 72 10000 4.69 220 05:26 07.02.2022
3966 Clouds 12 1014 76 10000 5.25 229 02:56 07.02.2022
3967 Clouds 12 1015 77 10000 4.5 214 00:33 07.02.2022
3968 Clouds 12 1016 78 10000 4.1 216 23:40 06.02.2022
3969 Clouds 13 1016 79 10000 3.91 217 22:46 06.02.2022
3970 Clouds 12 1017 79 10000 3.86 221 21:51 06.02.2022
3971 Clouds 12 1016 80 10000 3.96 227 21:26 06.02.2022
3972 Clouds 12 1016 81 10000 3.96 227 20:52 06.02.2022
3973 Clouds 12 1016 82 10000 3.68 242 20:24 06.02.2022
3974 Clouds 13 1016 81 10000 3.76 242 19:30 06.02.2022
3975 Clouds 13 1019 81 10000 1.79 225 18:38 06.02.2022
3976 Clouds 13 1018 80 10000 0.45 90 17:54 06.02.2022
3977 Clouds 14 1016 75 10000 2.92 271 16:53 06.02.2022
3978 Clouds 15 1015 73 10000 2.15 272 16:32 06.02.2022
3979 Clouds 15 1015 71 10000 2.16 272 15:47 06.02.2022
3980 Clouds 15 1016 71 10000 0.45 353 15:26 06.02.2022
3981 Clouds 15 1015 68 10000 0.45 1 14:27 06.02.2022
3982 Clouds 15 1016 68 10000 0.45 2 13:24 06.02.2022
3983 Clouds 16 1016 68 10000 0.52 314 12:49 06.02.2022
3984 Clouds 15 1017 68 10000 0.5 164 11:23 06.02.2022
3985 Clouds 14 1017 75 10000 1.03 168 09:56 06.02.2022
3986 Clouds 12 1017 83 10000 1.69 157 08:49 06.02.2022
3987 Clouds 10 1016 85 10000 2.1 156 07:36 06.02.2022
3988 Clouds 10 1015 82 10000 1.8 147 05:30 06.02.2022
3989 Clouds 11 1016 80 10000 0.77 218 02:26 06.02.2022
3990 Clouds 11 1016 81 10000 0.77 218 01:47 06.02.2022
3991 Clouds 12 1016 82 10000 1.45 228 00:26 06.02.2022
3992 Clouds 12 1015 83 10000 1.63 249 22:20 05.02.2022
3993 Clouds 12 1015 82 10000 1.62 251 20:59 05.02.2022
3994 Clouds 13 1015 82 10000 1.82 254 20:24 05.02.2022
3995 Clouds 13 1014 81 10000 1.81 254 19:45 05.02.2022
3996 Clouds 14 1014 79 10000 2.13 263 18:52 05.02.2022
3997 Clouds 14 1013 75 10000 2.41 274 17:38 05.02.2022
3998 Clouds 15 1012 74 10000 0.45 313 16:48 05.02.2022
3999 Clouds 16 1018 69 10000 3.4 280 15:34 05.02.2022
4000 Clouds 16 1018 64 10000 3.56 279 14:53 05.02.2022
4001 Clouds 17 1011 56 10000 3.64 271 12:47 05.02.2022
4002 Clouds 17 1012 54 10000 3 253 11:49 05.02.2022
4003 Clouds 16 1012 59 10000 0.45 356 10:47 05.02.2022
4004 Clouds 16 1012 59 10000 3.06 230 09:53 05.02.2022
4005 Clouds 16 1012 61 10000 3.06 230 09:30 05.02.2022
4006 Clouds 13 1011 65 10000 3.5 219 07:38 05.02.2022
4007 Clouds 13 1011 64 10000 3.36 214 06:56 05.02.2022
4008 Clear 14 1011 51 10000 3.49 209 04:28 05.02.2022
4009 Clear 15 1010 47 10000 3.09 202 01:19 05.02.2022
4010 Clear 15 1011 47 10000 3.06 204 00:51 05.02.2022
4011 Clear 15 1010 45 10000 3.07 200 23:39 04.02.2022
4012 Clear 16 1010 44 10000 2.96 198 23:21 04.02.2022
4013 Clear 16 1010 43 10000 3.09 195 21:54 04.02.2022
4014 Clear 15 1010 45 10000 3.04 198 21:36 04.02.2022
4015 Clear 15 1011 47 10000 3.07 197 21:18 04.02.2022
4016 Clear 13 1011 62 10000 3.05 200 19:36 04.02.2022
4017 Clouds 17 1011 49 10000 2.26 176 17:28 04.02.2022
4018 Clouds 18 1019 43 10000 2.1 182 15:39 04.02.2022
4019 Clouds 18 1019 40 10000 2.35 192 14:52 04.02.2022
4020 Clouds 19 1012 34 10000 1.34 10 13:24 04.02.2022
4021 Clouds 18 1012 35 10000 0.89 2 12:43 04.02.2022
4022 Clouds 18 1013 36 10000 0.45 4 11:41 04.02.2022
4023 Clouds 17 1014 38 10000 0.89 359 10:34 04.02.2022
4024 Clouds 13 1015 37 10000 0.89 9 08:34 04.02.2022
4025 Clouds 12 1023 36 10000 3.27 204 06:18 04.02.2022
4026 Clouds 11 1023 31 10000 2.33 181 02:42 04.02.2022
4027 Clear 11 1024 32 10000 2.47 184 01:22 04.02.2022
4028 Clear 10 1018 55 10000 2.73 166 23:29 03.02.2022
4029 Clear 10 1018 59 10000 2.73 166 22:33 03.02.2022
4030 Clear 10 1018 62 10000 2.89 165 21:49 03.02.2022
4031 Clear 11 1018 62 10000 2.85 158 20:38 03.02.2022
4032 Clear 11 1018 62 10000 2.62 158 20:18 03.02.2022
4033 Clear 11 1018 62 10000 2.62 158 19:30 03.02.2022
4034 Clear 12 1018 60 10000 3.03 153 18:34 03.02.2022
4035 Clear 13 1018 56 10000 2.34 129 17:32 03.02.2022
4036 Clear 15 1017 48 10000 2.22 111 16:25 03.02.2022
4037 Clear 15 1024 50 10000 2.1 88 14:37 03.02.2022
4038 Clear 15 1018 50 10000 2.82 70 12:51 03.02.2022
4039 Clear 14 1018 59 10000 0.45 13 10:58 03.02.2022
4040 Clear 11 1015 90 10000 4.56 86 08:36 03.02.2022
4041 Clouds 10 1011 87 10000 1.99 17 04:27 03.02.2022
4042 Clear 11 1010 75 10000 2.39 314 00:31 03.02.2022
4043 Clear 11 1010 71 10000 2.07 314 23:36 02.02.2022
4044 Clear 11 1008 63 10000 0.92 348 21:54 02.02.2022
4045 Clear 11 1008 63 10000 0.92 348 21:30 02.02.2022
4046 Clear 11 1008 58 10000 1.28 342 20:40 02.02.2022
4047 Clear 11 1010 60 10000 4.47 315 19:58 02.02.2022
4048 Clear 11 1007 63 10000 1.8 355 19:27 02.02.2022
4049 Clear 11 1010 64 10000 4.02 292 18:39 02.02.2022
4050 Clear 12 1006 59 10000 0.45 3 17:44 02.02.2022
4051 Clear 13 1006 61 10000 1.89 345 17:19 02.02.2022
4052 Clear 14 1006 57 10000 1.89 345 16:31 02.02.2022
4053 Clear 14 1006 56 10000 1.34 349 12:57 02.02.2022
4054 Clear 14 1005 53 10000 0.89 265 12:20 02.02.2022
4055 Clear 14 1006 52 10000 0.89 10 11:32 02.02.2022
4056 Clear 13 1006 62 10000 4.89 320 09:47 02.02.2022
4057 Clear 12 1006 59 10000 0.89 340 07:33 02.02.2022
4058 Clouds 11 1006 55 10000 0.45 339 22:51 01.02.2022
4059 Clouds 11 1005 55 10000 1.34 10 21:50 01.02.2022
4060 Clouds 12 1003 50 10000 2.24 19 19:58 01.02.2022
4061 Clouds 12 1002 51 10000 1.34 4 17:43 01.02.2022
4062 Clouds 12 1001 54 10000 0.45 355 16:39 01.02.2022
4063 Clouds 12 1001 54 10000 0.45 355 16:39 01.02.2022
4064 Clouds 11 999 68 10000 0.89 7 14:24 01.02.2022
4065 Clouds 11 998 74 10000 8.78 352 12:43 01.02.2022
4066 Rain 11 999 69 9093 0.89 17 11:30 01.02.2022
4067 Rain 10 997 88 10000 1.34 352 04:53 01.02.2022
4068 Clouds 12 997 71 10000 2.24 38 23:41 31.01.2022
4069 Clouds 13 998 68 10000 3.13 9 22:57 31.01.2022
4070 Clouds 13 999 66 10000 2.24 3 21:40 31.01.2022
4071 Clouds 13 998 65 10000 2.24 338 21:19 31.01.2022
4072 Clouds 13 998 66 10000 1.34 269 20:29 31.01.2022
4073 Clouds 13 998 67 10000 3.58 193 19:29 31.01.2022
4074 Clouds 14 1000 66 10000 2.68 354 18:26 31.01.2022
4075 Clouds 14 1001 63 10000 2.24 33 17:33 31.01.2022
4076 Clouds 15 1001 61 10000 1.34 317 16:29 31.01.2022
4077 Clouds 15 1011 60 10000 7.38 246 15:41 31.01.2022
4078 Clouds 15 1004 60 10000 8.16 251 14:22 31.01.2022
4079 Clouds 15 1007 64 10000 0.89 283 12:39 31.01.2022
4080 Clouds 15 1008 66 10000 0.45 251 11:55 31.01.2022
4081 Clouds 13 1010 77 10000 7.2 249 10:50 31.01.2022
4082 Clouds 13 1010 77 10000 7.2 249 10:30 31.01.2022
4083 Clouds 12 1010 79 10000 4.36 220 09:26 31.01.2022
4084 Clouds 12 1011 77 10000 4.36 220 08:50 31.01.2022
4085 Clouds 12 1011 77 10000 3.87 218 08:20 31.01.2022
4086 Clouds 12 1011 74 10000 4.03 243 06:18 31.01.2022
4087 Clouds 12 1015 75 10000 4.02 270 02:18 31.01.2022
4088 Clouds 11 1016 74 10000 1.79 292 23:18 30.01.2022
4089 Clouds 12 1016 72 10000 0.45 356 22:29 30.01.2022
4090 Clouds 12 1014 71 10000 3.67 212 21:42 30.01.2022
4091 Clouds 12 1017 72 10000 0.89 225 21:19 30.01.2022
4092 Clouds 12 1018 71 10000 0.45 239 20:49 30.01.2022
4093 Clouds 12 1018 71 10000 4.92 315 20:29 30.01.2022
4094 Clouds 12 1018 72 10000 0.45 261 19:52 30.01.2022
4095 Clear 12 1018 69 10000 3.58 315 18:44 30.01.2022
4096 Clear 13 1015 65 10000 3.87 242 18:20 30.01.2022
4097 Clear 13 1015 63 10000 3.52 252 17:27 30.01.2022
4098 Clear 14 1015 59 10000 3.52 252 16:40 30.01.2022
4099 Clear 15 1015 58 10000 3.08 264 16:22 30.01.2022
4100 Clear 14 1024 62 10000 3.58 270 15:51 30.01.2022
4101 Clear 13 1024 61 10000 2.68 315 15:32 30.01.2022
4102 Clear 14 1024 59 10000 4.92 292 14:46 30.01.2022
4103 Clear 15 1020 42 10000 0.45 217 12:54 30.01.2022
4104 Clear 15 1020 43 10000 3.13 315 12:33 30.01.2022
4105 Clear 13 1019 57 10000 0.45 97 10:36 30.01.2022
4106 Clear 12 1019 60 10000 3.21 290 09:56 30.01.2022
4107 Clear 11 1019 65 10000 2.67 295 08:58 30.01.2022
4108 Clear 9 1022 67 10000 3.58 248 07:56 30.01.2022
4109 Clear 9 1022 63 10000 3.58 0 02:42 30.01.2022
4110 Clear 10 1020 63 10000 3.7 7 01:39 30.01.2022
4111 Clear 11 1021 59 10000 4.1 354 23:21 29.01.2022
4112 Clear 11 1020 56 10000 0.45 329 22:34 29.01.2022
4113 Clear 11 1021 48 10000 0.45 16 21:27 29.01.2022
4114 Clear 11 1021 47 10000 4.81 354 20:38 29.01.2022
4115 Clear 11 1021 46 10000 0.89 2 19:36 29.01.2022
4116 Clouds 11 1021 45 10000 1.34 7 19:00 29.01.2022
4117 Clouds 11 1021 42 10000 2.24 4 18:30 29.01.2022
4118 Clear 11 1020 39 10000 1.34 20 17:41 29.01.2022
4119 Clouds 11 1020 40 10000 0.89 9 16:42 29.01.2022
4120 Clouds 13 1020 41 10000 1.79 17 14:33 29.01.2022
4121 Clouds 12 1021 42 10000 2.24 3 13:45 29.01.2022
4122 Clouds 13 1021 44 10000 1.34 25 13:25 29.01.2022
4123 Clouds 12 1024 46 10000 2.68 18 13:25 29.01.2022
4124 Clouds 12 1021 45 10000 8.69 42 12:36 29.01.2022
4125 Clouds 12 1021 45 10000 1.34 15 11:38 29.01.2022
4126 Clouds 12 1021 47 10000 0.89 3 10:21 29.01.2022
4127 Clouds 10 1019 77 10000 0.89 351 06:57 29.01.2022
4128 Clouds 12 1016 69 10000 4.02 336 01:35 29.01.2022
4129 Clouds 12 1017 70 10000 3.24 323 00:31 29.01.2022
4130 Clouds 12 1017 70 10000 2.4 287 22:53 28.01.2022
4131 Clouds 12 1017 69 10000 2.5 266 22:29 28.01.2022
4132 Clouds 12 1017 68 10000 2.5 266 21:53 28.01.2022
4133 Clouds 12 1018 67 10000 2.81 255 20:40 28.01.2022
4134 Clouds 12 1017 66 10000 3.19 243 19:51 28.01.2022
4135 Clouds 12 1018 67 10000 3.52 250 18:49 28.01.2022
4136 Clouds 12 1018 66 10000 3.01 252 17:45 28.01.2022
4137 Clouds 13 1019 67 10000 2.85 277 15:45 28.01.2022
4138 Clouds 14 1018 57 10000 3.34 281 14:20 28.01.2022
4139 Clouds 13 1020 62 10000 1.34 307 12:35 28.01.2022
4140 Clouds 13 1024 63 10000 3.58 315 11:38 28.01.2022
4141 Clouds 12 1021 72 10000 2.32 249 10:22 28.01.2022
4142 Clouds 12 1021 72 10000 2.32 249 10:22 28.01.2022
4143 Clouds 11 1021 78 10000 2.32 249 09:45 28.01.2022
4144 Clouds 7 1024 84 10000 2.68 315 07:40 28.01.2022
4145 Clouds 7 1024 83 10000 1.34 270 05:24 28.01.2022
4146 Clouds 8 1024 83 10000 1.34 270 03:47 28.01.2022
4147 Clouds 8 1024 83 10000 1.79 315 02:23 28.01.2022
4148 Clouds 8 1024 83 10000 0.89 315 01:35 28.01.2022
4149 Clouds 9 1024 81 10000 1.79 270 23:47 27.01.2022
4150 Clouds 10 1024 80 10000 1.79 315 21:54 27.01.2022
4151 Clouds 10 1024 81 10000 1.79 315 21:32 27.01.2022
4152 Clouds 10 1024 80 10000 3.13 315 20:55 27.01.2022
4153 Clouds 10 1024 80 10000 0.89 315 19:35 27.01.2022
4154 Clouds 12 1021 75 10000 1.5 272 17:56 27.01.2022
4155 Clouds 13 1021 74 10000 1.34 319 15:31 27.01.2022
4156 Clouds 12 1022 74 10000 2.13 290 13:39 27.01.2022
4157 Clouds 12 1022 73 10000 2.42 287 12:46 27.01.2022
4158 Clouds 12 1023 67 10000 1.81 282 10:57 27.01.2022
4159 Clouds 10 1025 75 10000 0.89 315 09:20 27.01.2022
4160 Clouds 9 1025 78 10000 1.79 270 08:38 27.01.2022
4161 Clouds 8 1025 80 10000 1.79 270 07:22 27.01.2022
4162 Clear 7 1022 80 10000 0.88 238 02:59 27.01.2022
4163 Clear 8 1025 78 10000 2.24 315 23:45 26.01.2022
4164 Clear 8 1025 77 10000 0.89 315 22:26 26.01.2022
4165 Clear 8 1026 76 10000 2.24 315 21:37 26.01.2022
4166 Clouds 8 1026 74 10000 3.13 292 20:41 26.01.2022
4167 Clouds 8 1026 74 10000 1.79 292 20:23 26.01.2022
4168 Clear 9 1026 72 10000 0.89 315 19:27 26.01.2022
4169 Clear 9 1026 73 10000 1.79 315 18:46 26.01.2022
4170 Clear 9 1025 70 10000 0.89 270 17:51 26.01.2022
4171 Clear 11 1023 67 10000 1.15 326 17:24 26.01.2022
4172 Clear 11 1022 62 10000 1.16 326 16:35 26.01.2022
4173 Clear 12 1029 59 10000 1.61 328 15:49 26.01.2022
4174 Clear 13 1023 58 10000 0.45 356 14:21 26.01.2022
4175 Clear 12 1024 59 10000 0.89 26 11:54 26.01.2022
4176 Clear 11 1024 63 10000 0.45 7 10:43 26.01.2022
4177 Clear 10 1024 68 10000 1.12 311 09:48 26.01.2022
4178 Clear 7 1027 72 10000 1.79 315 08:27 26.01.2022
4179 Clear 6 1027 71 10000 1.34 315 05:42 26.01.2022
4180 Clear 5 1027 64 10000 1.79 270 23:59 25.01.2022
4181 Clear 6 1027 64 10000 0.89 315 23:20 25.01.2022
4182 Clear 6 1028 62 10000 1.34 292 22:26 25.01.2022
4183 Clear 6 1028 61 10000 0.89 315 21:59 25.01.2022
4184 Clear 6 1028 59 10000 0.89 292 21:22 25.01.2022
4185 Clear 5 1028 61 10000 0.89 270 20:44 25.01.2022
4186 Clear 6 1028 56 10000 0.89 292 19:53 25.01.2022
4187 Clear 6 1028 56 10000 0.89 292 19:53 25.01.2022
4188 Clear 6 1025 55 10000 0.28 75 18:43 25.01.2022
4189 Clear 7 1024 51 10000 0.83 67 17:45 25.01.2022
4190 Clear 8 1027 45 10000 1.43 55 16:47 25.01.2022
4191 Clear 9 1024 41 10000 1.76 54 16:21 25.01.2022
4192 Clear 10 1031 46 10000 1.76 54 15:38 25.01.2022
4193 Clear 10 1031 44 10000 2.15 58 14:58 25.01.2022
4194 Clear 10 1023 44 10000 2.58 54 13:47 25.01.2022
4195 Clear 10 1025 47 10000 4.35 60 10:59 25.01.2022
4196 Clear 8 1024 56 10000 4.29 54 09:20 25.01.2022
4197 Clear 6 1023 56 10000 3.97 50 07:30 25.01.2022
4198 Clouds 6 1023 55 10000 3.8 50 06:51 25.01.2022
4199 Clouds 6 1025 55 10000 2.24 90 05:22 25.01.2022
4200 Clouds 9 1022 59 10000 7.19 66 23:37 24.01.2022
4201 Clouds 9 1025 59 10000 0.45 350 23:19 24.01.2022
4202 Clouds 9 1025 55 10000 3.58 45 23:00 24.01.2022
4203 Clouds 10 1021 52 10000 0.89 5 22:41 24.01.2022
4204 Clouds 10 1021 52 10000 7.21 59 21:57 24.01.2022
4205 Clouds 10 1021 56 10000 1.34 349 21:32 24.01.2022
4206 Clouds 10 1021 58 10000 0.45 356 20:33 24.01.2022
4207 Clouds 10 1021 62 10000 0.45 339 19:57 24.01.2022
4208 Clouds 10 1021 63 10000 5.53 38 19:35 24.01.2022
4209 Clouds 9 1023 63 10000 1.79 90 18:35 24.01.2022
4210 Clouds 10 1020 62 10000 0.45 325 17:24 24.01.2022
4211 Clouds 11 1020 62 10000 5.24 43 16:55 24.01.2022
4212 Clouds 10 1022 63 10000 1.79 90 16:29 24.01.2022
4213 Clouds 11 1019 80 10000 4.89 40 14:49 24.01.2022
4214 Clouds 10 1019 82 10000 3.82 37 13:38 24.01.2022
4215 Clouds 10 1023 76 10000 2.24 135 12:32 24.01.2022
4216 Clouds 11 1023 71 10000 3.13 0 11:21 24.01.2022
4217 Clouds 11 1023 70 10000 3.58 270 09:49 24.01.2022
4218 Clouds 11 1023 71 10000 1.79 315 09:25 24.01.2022
4219 Clear 9 1023 73 10000 0.45 344 07:28 24.01.2022
4220 Clear 7 1024 70 10000 2.24 315 01:34 24.01.2022
4221 Clouds 7 1024 69 10000 0.89 315 00:47 24.01.2022
4222 Clouds 7 1024 70 10000 2.24 315 00:28 24.01.2022
4223 Clouds 8 1022 64 10000 1.4 73 22:46 23.01.2022
4224 Clouds 8 1025 64 10000 0.45 90 21:51 23.01.2022
4225 Clouds 8 1025 63 10000 1.34 90 21:27 23.01.2022
4226 Clouds 8 1025 62 10000 0.89 90 20:54 23.01.2022
4227 Clouds 9 1025 59 10000 0.45 90 19:55 23.01.2022
4228 Clear 9 1025 57 10000 2.24 45 18:52 23.01.2022
4229 Clear 9 1025 52 10000 0.89 90 17:54 23.01.2022
4230 Clear 11 1022 45 10000 4.05 50 16:54 23.01.2022
4231 Clear 12 1028 44 10000 4.45 44 15:45 23.01.2022
4232 Clear 13 1022 43 10000 0.45 3 14:34 23.01.2022
4233 Clear 13 1022 49 10000 1.34 17 13:43 23.01.2022
4234 Clouds 13 1022 55 10000 0.89 357 12:40 23.01.2022
4235 Clouds 13 1023 58 10000 0.45 338 12:18 23.01.2022
4236 Clear 12 1026 72 10000 0.45 330 11:25 23.01.2022
4237 Clear 11 1026 73 10000 1.34 315 10:57 23.01.2022
4238 Clear 11 1023 77 10000 0.89 352 10:24 23.01.2022
4239 Clear 9 1023 78 10000 0.83 13 09:25 23.01.2022
4240 Clear 6 1022 77 10000 1.14 105 06:18 23.01.2022
4241 Clear 7 1021 74 10000 1.38 95 03:20 23.01.2022
4242 Clear 7 1021 71 10000 1.62 89 01:36 23.01.2022
4243 Clear 7 1021 70 10000 2.3 82 00:46 23.01.2022
4244 Clear 7 1021 69 10000 2.67 71 23:58 22.01.2022
4245 Clear 8 1021 69 10000 2.91 64 22:48 22.01.2022
4246 Clear 8 1021 68 10000 2.67 55 22:19 22.01.2022
4247 Clear 8 1021 63 10000 2.6 50 20:33 22.01.2022
4248 Clear 9 1020 59 10000 2.75 46 19:41 22.01.2022
4249 Clear 9 1020 58 10000 2.72 47 18:37 22.01.2022
4250 Clear 10 1019 55 10000 2.55 45 17:46 22.01.2022
4251 Clear 10 1019 55 10000 2.54 41 17:24 22.01.2022
4252 Clear 11 1018 56 10000 2.54 41 16:54 22.01.2022
4253 Clear 12 1025 61 10000 2.56 43 15:45 22.01.2022
4254 Clear 12 1025 60 10000 2.15 55 14:52 22.01.2022
4255 Clear 12 1018 65 10000 3.29 52 13:30 22.01.2022
4256 Clouds 12 1018 70 10000 0.45 8 12:40 22.01.2022
4257 Clouds 12 1018 70 10000 4.04 45 12:20 22.01.2022
4258 Clouds 12 1018 81 10000 3.42 56 10:54 22.01.2022
4259 Clouds 11 1018 87 10000 3.34 62 10:25 22.01.2022
4260 Clouds 10 1017 93 10000 3.76 56 08:59 22.01.2022
4261 Clouds 10 1017 93 10000 3.76 56 08:39 22.01.2022
4262 Clouds 9 1018 91 10000 0.89 270 06:46 22.01.2022
4263 Clouds 9 1017 85 10000 5.81 315 02:40 22.01.2022
4264 Clouds 10 1015 84 10000 4.34 297 23:52 21.01.2022
4265 Clouds 10 1015 84 10000 0.45 323 23:21 21.01.2022
4266 Clouds 11 1014 76 10000 3.16 270 21:45 21.01.2022
4267 Clouds 11 1013 65 10000 4.57 248 19:48 21.01.2022
4268 Clouds 12 1013 59 10000 4.85 254 17:53 21.01.2022
4269 Clouds 12 1013 63 10000 5.74 278 16:37 21.01.2022
4270 Clouds 13 1012 61 10000 6.54 268 15:23 21.01.2022
4271 Clouds 13 1013 63 10000 5.46 279 12:51 21.01.2022
4272 Clouds 13 1014 64 10000 5.85 268 11:29 21.01.2022
4273 Clouds 13 1014 67 10000 0.89 341 10:51 21.01.2022
4274 Clouds 11 1014 77 10000 5.55 259 09:24 21.01.2022
4275 Clouds 11 1014 76 10000 5.28 256 08:20 21.01.2022
4276 Clouds 12 1013 67 10000 5.01 245 04:36 21.01.2022
4277 Clouds 11 1018 69 10000 2.68 292 22:52 20.01.2022
4278 Clouds 11 1018 70 10000 0.89 270 21:49 20.01.2022
4279 Clouds 11 1018 69 10000 1.34 270 21:27 20.01.2022
4280 Clouds 12 1018 68 10000 0.89 45 19:55 20.01.2022
4281 Clouds 12 1018 66 10000 0.89 270 19:19 20.01.2022
4282 Clouds 13 1016 58 10000 3.7 233 17:38 20.01.2022
4283 Clouds 14 1016 55 10000 0.89 324 16:35 20.01.2022
4284 Clouds 15 1016 54 10000 3.55 241 15:40 20.01.2022
4285 Clouds 15 1016 55 10000 3.65 242 14:40 20.01.2022
4286 Clouds 15 1017 59 10000 3.31 233 13:18 20.01.2022
4287 Clouds 15 1017 58 10000 1.34 237 12:30 20.01.2022
4288 Clouds 14 1019 60 10000 0.89 223 11:20 20.01.2022
4289 Clouds 13 1022 63 10000 5.36 270 10:19 20.01.2022
4290 Clouds 11 1022 73 10000 3.58 315 09:19 20.01.2022
4291 Clouds 9 1022 75 10000 1.79 270 07:24 20.01.2022
4292 Clouds 10 1023 75 10000 4.02 292 00:41 20.01.2022
4293 Clouds 10 1024 79 10000 0.98 207 22:50 19.01.2022
4294 Clouds 11 1022 78 10000 0.93 190 21:44 19.01.2022
4295 Clouds 11 1024 79 10000 0.45 270 21:22 19.01.2022
4296 Clouds 12 1022 78 10000 0.96 175 20:45 19.01.2022
4297 Clouds 12 1023 77 10000 0.95 134 19:26 19.01.2022
4298 Clouds 12 1023 74 10000 0.67 72 17:51 19.01.2022
4299 Clouds 13 1022 74 10000 0.67 72 17:32 19.01.2022
4300 Clouds 14 1022 67 10000 1.32 4 15:44 19.01.2022
4301 Clouds 15 1023 61 10000 0.84 344 13:38 19.01.2022
4302 Clear 14 1027 62 10000 0.89 225 12:24 19.01.2022
4303 Clear 14 1028 64 10000 1.34 180 11:38 19.01.2022
4304 Clear 13 1025 73 10000 0.93 124 10:20 19.01.2022
4305 Clear 12 1028 82 10000 0.89 90 09:33 19.01.2022
4306 Clear 9 1028 87 10000 0.45 270 06:34 19.01.2022
4307 Clear 10 1028 82 10000 0.45 270 01:55 19.01.2022
4308 Clouds 11 1028 81 10000 1.79 315 23:19 18.01.2022
4309 Clouds 10 1028 81 10000 0.45 315 21:56 18.01.2022
4310 Clouds 11 1025 78 10000 1.17 359 20:55 18.01.2022
4311 Clouds 11 1025 76 10000 1.51 358 19:54 18.01.2022
4312 Clouds 12 1025 75 10000 0.7 336 19:35 18.01.2022
4313 Clouds 12 1025 74 10000 0.91 350 18:36 18.01.2022
4314 Clouds 12 1024 73 10000 1.73 358 17:51 18.01.2022
4315 Clouds 13 1023 71 10000 2.19 351 16:35 18.01.2022
4316 Clouds 14 1023 67 10000 2.54 347 15:39 18.01.2022
4317 Clouds 14 1023 66 10000 1.34 3 15:19 18.01.2022
4318 Clouds 14 1024 62 10000 2.11 332 11:53 18.01.2022
4319 Clouds 14 1024 64 10000 2.1 330 10:43 18.01.2022
4320 Clouds 11 1023 73 10000 1.56 300 08:49 18.01.2022
4321 Clouds 10 1025 74 10000 1.34 315 07:46 18.01.2022
4322 Clouds 12 1021 70 10000 2.5 312 02:31 18.01.2022
4323 Clouds 12 1021 72 10000 2.96 325 23:22 17.01.2022
4324 Clouds 12 1023 76 10000 0.45 335 22:23 17.01.2022
4325 Clouds 11 1023 75 10000 2.68 270 21:33 17.01.2022
4326 Clouds 12 1020 75 10000 3.07 303 19:56 17.01.2022
4327 Clear 12 1020 74 10000 3.06 322 18:29 17.01.2022
4328 Clear 12 1022 75 10000 0.45 349 17:24 17.01.2022
4329 Clear 13 1019 70 10000 2.6 327 16:35 17.01.2022
4330 Clear 15 1019 66 10000 2.63 307 14:59 17.01.2022
4331 Clear 15 1019 64 10000 1.34 311 14:33 17.01.2022
4332 Clear 14 1022 64 10000 2.24 225 13:20 17.01.2022
4333 Clear 14 1023 64 10000 1.34 3 12:54 17.01.2022
4334 Clear 14 1023 64 10000 0.45 90 11:48 17.01.2022
4335 Clear 13 1021 71 10000 1.22 262 10:21 17.01.2022
4336 Clear 11 1021 80 10000 1.51 233 08:51 17.01.2022
4337 Clouds 10 1021 81 10000 1.18 229 07:22 17.01.2022
4338 Clouds 12 1021 77 10000 1.65 275 02:54 17.01.2022
4339 Clouds 12 1021 76 10000 2.08 275 00:54 17.01.2022
4340 Clouds 12 1021 76 10000 2.04 267 21:44 16.01.2022
4341 Clouds 12 1021 75 10000 1.8 260 20:33 16.01.2022
4342 Clouds 12 1021 75 10000 1.8 260 20:33 16.01.2022
4343 Clouds 12 1020 76 10000 1.68 276 18:50 16.01.2022
4344 Clouds 13 1020 74 10000 1.54 294 17:57 16.01.2022
4345 Clouds 13 1020 74 10000 1.77 313 16:59 16.01.2022
4346 Clouds 13 1019 73 10000 2.35 324 16:20 16.01.2022
4347 Clouds 14 1019 72 10000 2.53 331 14:30 16.01.2022
4348 Clouds 14 1019 73 10000 0.89 4 13:34 16.01.2022
4349 Clouds 14 1020 74 10000 1.7 330 12:27 16.01.2022
4350 Clouds 14 1020 76 10000 1.7 330 11:40 16.01.2022
4351 Clouds 14 1020 81 10000 1.35 334 10:46 16.01.2022
4352 Clouds 12 1023 87 10000 0.89 90 09:59 16.01.2022
4353 Clouds 12 1020 89 10000 1.18 337 09:40 16.01.2022
4354 Clouds 11 1023 90 10000 0.92 336 09:21 16.01.2022
4355 Clouds 10 1022 91 10000 1.79 315 07:23 16.01.2022
4356 Clear 9 1021 87 10000 0.89 292 00:38 16.01.2022
4357 Clear 9 1019 85 10000 0.45 270 23:22 15.01.2022
4358 Clear 10 1018 83 10000 0.62 343 21:23 15.01.2022
4359 Clear 10 1018 83 10000 0.62 343 20:56 15.01.2022
4360 Clear 10 1018 82 10000 0.62 343 20:36 15.01.2022
4361 Clear 11 1017 80 10000 0.89 16 19:28 15.01.2022
4362 Clear 11 1017 78 10000 1.64 25 18:28 15.01.2022
4363 Clear 13 1017 73 10000 2 18 16:49 15.01.2022
4364 Clear 14 1017 68 10000 1.34 340 15:38 15.01.2022
4365 Clear 13 1017 68 10000 1.34 9 13:35 15.01.2022
4366 Clear 13 1018 68 10000 0.89 8 11:46 15.01.2022
4367 Clear 11 1019 81 10000 2.11 344 09:49 15.01.2022
4368 Clear 8 1020 80 10000 2.24 315 05:26 15.01.2022
4369 Clouds 9 1022 75 10000 1.34 315 23:40 14.01.2022
4370 Clear 9 1023 70 10000 1.34 270 21:29 14.01.2022
4371 Clear 9 1024 68 10000 0.45 315 20:37 14.01.2022
4372 Clear 9 1022 65 10000 2.18 22 19:56 14.01.2022
4373 Clear 9 1022 60 10000 2.19 17 18:43 14.01.2022
4374 Clear 10 1022 57 10000 2.34 14 17:53 14.01.2022
4375 Clear 11 1022 54 10000 2.71 10 16:47 14.01.2022
4376 Clear 12 1028 49 10000 2.76 2 15:33 14.01.2022
4377 Clear 13 1029 49 10000 2.01 355 14:29 14.01.2022
4378 Clear 12 1023 48 10000 0.45 357 12:59 14.01.2022
4379 Clear 12 1023 52 10000 0.45 351 11:59 14.01.2022
4380 Clear 11 1024 54 10000 0.89 358 10:46 14.01.2022
4381 Clear 9 1024 73 10000 0.91 118 08:54 14.01.2022
4382 Clear 8 1026 70 10000 1.24 129 07:46 14.01.2022
4383 Clouds 9 1024 68 10000 1.68 73 03:19 14.01.2022
4384 Clouds 10 1024 65 10000 1.57 79 00:35 14.01.2022
4385 Clouds 11 1024 67 10000 1.78 79 21:57 13.01.2022
4386 Clouds 11 1024 67 10000 1.78 79 21:30 13.01.2022
4387 Clouds 11 1023 70 10000 1.71 82 20:33 13.01.2022
4388 Clouds 11 1023 73 10000 1.85 85 19:32 13.01.2022
4389 Clouds 11 1022 74 10000 2.81 77 18:51 13.01.2022
4390 Clouds 12 1022 74 10000 3.11 69 17:23 13.01.2022
4391 Clouds 12 1021 71 10000 0.45 355 16:18 13.01.2022
4392 Clouds 13 1021 71 10000 3.29 59 15:31 13.01.2022
4393 Clouds 12 1020 75 10000 0.89 15 13:42 13.01.2022
4394 Clouds 12 1021 91 10000 4.19 50 11:43 13.01.2022
4395 Clouds 10 1020 91 10000 4.94 47 09:38 13.01.2022
4396 Clouds 9 1020 91 10000 4.46 46 08:54 13.01.2022
4397 Clouds 9 1019 91 10000 0.45 238 08:22 13.01.2022
4398 Clouds 10 1019 90 10000 4 42 07:21 13.01.2022
4399 Clouds 9 1018 90 10000 4.68 44 05:56 13.01.2022
4400 Clouds 9 1018 90 10000 4.07 51 05:18 13.01.2022
4401 Clouds 9 1016 89 10000 0.35 123 01:46 13.01.2022
4402 Clouds 8 1016 89 10000 0.89 189 23:54 12.01.2022
4403 Clouds 9 1016 89 10000 0.89 189 23:35 12.01.2022
4404 Clouds 8 1016 89 10000 1.07 143 22:56 12.01.2022
4405 Clouds 8 1016 89 10000 1 104 21:56 12.01.2022
4406 Clouds 8 1015 88 10000 0.95 126 21:21 12.01.2022
4407 Clouds 8 1015 87 10000 0.95 126 20:56 12.01.2022
4408 Clouds 8 1015 85 10000 0.83 213 19:35 12.01.2022
4409 Clouds 8 1014 84 10000 0.95 324 18:29 12.01.2022
4410 Clouds 9 1013 80 10000 1.33 302 16:59 12.01.2022
4411 Clouds 9 1012 76 10000 1.9 272 15:58 12.01.2022
4412 Clouds 10 1012 72 10000 2.35 275 14:47 12.01.2022
4413 Clouds 10 1012 80 10000 4.07 307 12:58 12.01.2022
4414 Clouds 10 1011 85 10000 0.64 210 09:59 12.01.2022
4415 Clouds 10 1009 81 10000 0.75 225 08:36 12.01.2022
4416 Clouds 9 1009 80 10000 0.74 256 07:34 12.01.2022
4417 Clouds 10 1008 77 10000 1.38 347 06:21 12.01.2022
4418 Clouds 12 1008 72 10000 3.65 11 23:31 11.01.2022
4419 Clouds 12 1007 73 10000 3.75 13 22:49 11.01.2022
4420 Clouds 12 1007 73 10000 3.9 19 22:21 11.01.2022
4421 Clouds 12 1007 75 10000 4.85 24 20:51 11.01.2022
4422 Clouds 12 1006 71 10000 5.82 21 19:45 11.01.2022
4423 Clouds 12 1006 70 10000 0.89 349 18:31 11.01.2022
4424 Clouds 12 1005 69 10000 0.89 1 17:24 11.01.2022
4425 Clouds 12 1005 69 10000 0.45 16 16:37 11.01.2022
4426 Clouds 12 1004 70 10000 0.45 5 15:34 11.01.2022
4427 Clouds 12 1004 70 10000 0.89 28 14:41 11.01.2022
4428 Clouds 12 1003 70 10000 6.31 17 13:54 11.01.2022
4429 Clouds 12 1003 68 10000 1.34 8 13:32 11.01.2022
4430 Clouds 12 1003 68 10000 1.34 34 12:42 11.01.2022
4431 Clouds 12 1003 69 10000 1.34 6 11:40 11.01.2022
4432 Clouds 12 1002 69 10000 1.34 19 09:28 11.01.2022
4433 Clouds 11 999 69 10000 1.34 19 06:36 11.01.2022
4434 Clouds 9 997 75 10000 0.89 358 00:31 11.01.2022
4435 Clouds 9 999 74 10000 1.34 270 23:41 10.01.2022
4436 Clouds 9 998 71 10000 0.89 270 22:51 10.01.2022
4437 Clouds 9 998 75 10000 0.45 306 22:19 10.01.2022
4438 Clouds 9 998 74 10000 1.34 315 21:54 10.01.2022
4439 Clouds 9 998 74 10000 0.45 307 21:20 10.01.2022
4440 Clouds 9 996 73 10000 5.37 355 20:56 10.01.2022
4441 Clouds 9 996 74 10000 0.45 331 20:28 10.01.2022
4442 Clouds 9 995 74 10000 0.45 280 19:42 10.01.2022
4443 Clouds 9 995 75 10000 0.45 298 19:20 10.01.2022
4444 Clouds 10 995 72 10000 0.45 279 18:48 10.01.2022
4445 Clouds 8 997 84 10000 3.58 270 17:41 10.01.2022
4446 Clouds 9 1001 75 10000 6.45 347 16:42 10.01.2022
4447 Clouds 9 993 78 10000 2.68 1 15:45 10.01.2022
4448 Clouds 10 992 76 10000 2.24 2 14:26 10.01.2022
4449 Clouds 8 992 88 6926 0.89 6 11:58 10.01.2022
4450 Clouds 8 991 88 5913 8.86 341 11:25 10.01.2022
4451 Clouds 8 992 89 10000 1.79 38 09:50 10.01.2022
4452 Clouds 9 990 70 10000 0.45 333 07:18 10.01.2022
4453 Clouds 9 991 75 10000 0.45 352 05:49 10.01.2022
4454 Clouds 9 991 75 10000 0.45 352 05:49 10.01.2022
4455 Clouds 9 994 79 10000 0.45 5 01:30 10.01.2022
4456 Clouds 12 995 65 10000 0.45 346 00:25 10.01.2022
4457 Clouds 12 995 63 10000 1.34 293 23:33 09.01.2022
4458 Clouds 11 996 68 10000 1.79 41 22:38 09.01.2022
4459 Clouds 13 996 59 10000 1.79 312 21:46 09.01.2022
4460 Clouds 13 996 55 10000 1.34 13 21:23 09.01.2022
4461 Clouds 13 997 52 10000 0.89 96 20:52 09.01.2022
4462 Clear 13 997 53 10000 0.45 286 20:34 09.01.2022
4463 Clear 13 997 55 10000 2.68 330 19:45 09.01.2022
4464 Clouds 13 997 55 10000 1.34 273 19:23 09.01.2022
4465 Clouds 13 997 54 10000 1.34 340 18:56 09.01.2022
4466 Clouds 13 997 52 10000 0.89 347 18:35 09.01.2022
4467 Clouds 14 997 45 10000 0.45 331 17:45 09.01.2022
4468 Clouds 14 998 57 10000 2.24 352 17:21 09.01.2022
4469 Clouds 14 998 62 10000 2.24 340 15:59 09.01.2022
4470 Clouds 14 998 62 10000 1.34 356 15:36 09.01.2022
4471 Clouds 14 998 64 10000 1.34 253 14:41 09.01.2022
4472 Clouds 14 999 63 10000 1.34 354 13:56 09.01.2022
4473 Clouds 14 1000 64 10000 3.13 328 13:36 09.01.2022
4474 Clouds 14 1001 61 10000 1.79 163 11:56 09.01.2022
4475 Clouds 14 1002 64 10000 1.34 312 11:19 09.01.2022
4476 Clouds 12 1006 69 10000 1.34 294 09:51 09.01.2022
4477 Clouds 11 1006 72 10000 0.45 317 08:54 09.01.2022
4478 Clouds 10 1006 71 10000 3.58 292 05:54 09.01.2022
4479 Clouds 10 1005 66 10000 5.61 315 01:26 09.01.2022
4480 Clouds 10 1007 66 10000 4.92 270 00:37 09.01.2022
4481 Clouds 10 1007 70 10000 1.79 315 23:27 08.01.2022
4482 Clouds 11 1005 68 10000 4.64 322 22:35 08.01.2022
4483 Clouds 11 1005 72 10000 5.35 327 21:27 08.01.2022
4484 Clouds 10 1005 73 10000 0.45 325 20:43 08.01.2022
4485 Clouds 10 1006 69 10000 5.6 336 20:21 08.01.2022
4486 Clouds 11 1005 64 10000 5.06 340 18:46 08.01.2022
4487 Clouds 11 1008 66 10000 0.45 1 17:24 08.01.2022
4488 Clouds 11 1005 64 10000 5.68 342 16:40 08.01.2022
4489 Clouds 11 1005 69 10000 1.34 17 14:52 08.01.2022
4490 Clouds 11 1008 72 10000 0.45 354 13:56 08.01.2022
4491 Clouds 10 1008 86 10000 0.45 2 11:30 08.01.2022
4492 Clouds 10 1008 86 10000 3.13 315 10:33 08.01.2022
4493 Clouds 10 1008 88 10000 1.34 328 09:57 08.01.2022
4494 Clouds 10 1008 90 10000 0.89 353 09:30 08.01.2022
4495 Clouds 10 1007 89 8206 1.79 315 05:39 08.01.2022
4496 Clouds 12 1007 84 10000 0.89 318 00:59 08.01.2022
4497 Clouds 12 1005 85 6744 0.89 332 23:30 07.01.2022
4498 Clouds 12 1005 84 10000 0.89 330 23:30 07.01.2022
4499 Clouds 13 1005 80 10000 4.17 344 21:47 07.01.2022
4500 Clouds 12 1008 80 10000 1.34 356 20:26 07.01.2022
4501 Clouds 12 1009 79 10000 0.89 334 19:26 07.01.2022
4502 Clouds 12 1008 81 10000 3.13 315 18:46 07.01.2022
4503 Clouds 12 1008 80 10000 1.79 45 18:18 07.01.2022
4504 Clouds 12 1008 76 10000 0.89 348 17:23 07.01.2022
4505 Clouds 12 1008 78 10000 1.79 0 14:55 07.01.2022
4506 Clouds 13 1008 79 10000 1.34 90 13:52 07.01.2022
4507 Clouds 12 1008 79 10000 1.34 90 12:51 07.01.2022
4508 Clouds 12 1007 89 10000 2.49 62 10:21 07.01.2022
4509 Clouds 11 1008 82 10000 1.79 315 02:59 07.01.2022
4510 Clouds 11 1008 82 10000 1.79 315 02:59 07.01.2022
4511 Clouds 11 1008 81 10000 1.79 292 02:22 07.01.2022
4512 Clouds 11 1007 82 10000 2.68 292 01:48 07.01.2022
4513 Clouds 11 1005 83 10000 2.03 314 01:25 07.01.2022
4514 Clouds 12 1006 82 10000 1.44 316 00:30 07.01.2022
4515 Clouds 11 1008 78 10000 0.89 338 22:33 06.01.2022
4516 Clouds 12 1007 76 10000 3.13 315 20:43 06.01.2022
4517 Clouds 12 1007 76 10000 2.24 315 20:18 06.01.2022
4518 Clouds 12 1005 73 10000 2.34 297 19:36 06.01.2022
4519 Clouds 13 1004 70 10000 2.68 302 17:51 06.01.2022
4520 Clouds 13 1003 69 10000 3.27 303 17:23 06.01.2022
4521 Clouds 13 1003 67 10000 3.27 303 16:32 06.01.2022
4522 Clouds 14 1003 65 10000 0.45 344 15:44 06.01.2022
4523 Clouds 15 1003 63 10000 3.74 297 15:21 06.01.2022
4524 Clouds 14 1002 64 10000 0.89 315 14:20 06.01.2022
4525 Clouds 15 1002 64 10000 0.45 246 13:39 06.01.2022
4526 Clouds 15 1003 62 10000 0.45 1 12:20 06.01.2022
4527 Clouds 15 1003 63 10000 0.45 258 11:30 06.01.2022
4528 Clouds 14 1003 66 10000 3.99 263 10:50 06.01.2022
4529 Clouds 13 1003 75 10000 3.51 259 06:38 06.01.2022
4530 Clouds 14 1003 70 10000 4.67 225 00:34 06.01.2022
4531 Clouds 14 1003 70 10000 4.69 215 23:33 05.01.2022
4532 Clouds 14 1003 69 10000 4.71 213 22:48 05.01.2022
4533 Clouds 14 1003 69 10000 4.6 217 22:28 05.01.2022
4534 Clouds 14 1004 67 10000 0.45 244 21:43 05.01.2022
4535 Clouds 15 1003 65 10000 0.45 256 20:44 05.01.2022
4536 Clouds 15 1004 63 10000 4.66 215 19:46 05.01.2022
4537 Clear 16 1003 62 10000 1.34 351 18:27 05.01.2022
4538 Clear 17 1002 58 10000 1.34 207 16:58 05.01.2022
4539 Clear 17 1002 52 10000 0.45 306 16:21 05.01.2022
4540 Clear 18 1009 48 10000 4.34 244 15:20 05.01.2022
4541 Clear 19 1002 49 10000 1.34 229 13:35 05.01.2022
4542 Clear 19 1002 43 10000 2.68 356 12:46 05.01.2022
4543 Clear 14 1010 39 10000 2.59 191 08:47 05.01.2022
4544 Clear 13 1010 40 10000 2.81 169 07:20 05.01.2022
4545 Clear 12 1013 86 10000 2.59 161 01:58 05.01.2022
4546 Clear 13 1014 69 10000 2.39 172 23:44 04.01.2022
4547 Clear 13 1015 69 10000 2.37 176 23:26 04.01.2022
4548 Clear 12 1015 89 10000 2.41 172 22:21 04.01.2022
4549 Clear 12 1008 92 10000 2.36 166 20:50 04.01.2022
4550 Clear 12 1009 87 10000 2.46 165 18:46 04.01.2022
4551 Clear 13 1012 77 10000 1.79 248 17:37 04.01.2022
4552 Clear 13 1010 81 10000 2.39 173 16:39 04.01.2022
4553 Clear 14 1010 80 10000 1.87 173 16:20 04.01.2022
4554 Clear 17 1010 69 10000 1.65 188 14:51 04.01.2022
4555 Clear 17 1010 71 10000 1.65 188 14:33 04.01.2022
4556 Clear 15 1011 76 10000 1.51 222 13:26 04.01.2022
4557 Clear 13 1013 89 10000 1.53 186 10:29 04.01.2022
4558 Clear 10 1021 97 10000 0.45 90 08:59 04.01.2022
4559 Clear 10 1021 86 10000 1.87 192 08:23 04.01.2022
4560 Clouds 11 1015 86 10000 1.41 235 01:19 04.01.2022
4561 Clouds 11 1015 85 10000 1.14 233 00:40 04.01.2022
4562 Clouds 12 1015 82 10000 1.57 176 22:41 03.01.2022
4563 Clouds 12 1016 80 10000 2.07 171 21:42 03.01.2022
4564 Clouds 12 1016 79 10000 0.5 78 21:23 03.01.2022
4565 Clouds 12 1018 79 10000 0.44 168 19:47 03.01.2022
4566 Clouds 13 1019 78 10000 0.89 225 18:33 03.01.2022
4567 Clouds 13 1019 76 10000 0.68 198 17:40 03.01.2022
4568 Clouds 13 1019 76 10000 0.68 198 17:40 03.01.2022
4569 Clear 14 1016 73 10000 0.23 29 16:58 03.01.2022
4570 Clear 14 1025 69 10000 1.34 315 14:55 03.01.2022
4571 Clear 14 1025 68 10000 0.89 90 14:29 03.01.2022
4572 Clouds 14 1020 69 10000 0.89 352 12:35 03.01.2022
4573 Clouds 14 1021 69 10000 0.45 90 11:33 03.01.2022
4574 Clouds 13 1022 71 10000 1.79 90 10:25 03.01.2022
4575 Clouds 12 1019 77 10000 0.63 142 08:46 03.01.2022
4576 Clouds 12 1022 79 10000 0.56 39 07:32 03.01.2022
4577 Clouds 12 1024 81 10000 0.89 270 23:54 02.01.2022
4578 Clouds 12 1021 79 10000 0.52 22 23:18 02.01.2022
4579 Clouds 12 1021 79 10000 0.52 22 22:43 02.01.2022
4580 Clouds 12 1021 80 10000 0.97 347 21:38 02.01.2022
4581 Clouds 13 1021 80 10000 0.7 3 20:31 02.01.2022
4582 Clouds 13 1021 80 10000 0.68 359 19:53 02.01.2022
4583 Clouds 13 1021 79 10000 0.62 346 19:26 02.01.2022
4584 Clear 13 1021 79 10000 0.53 127 18:33 02.01.2022
4585 Clear 13 1021 79 10000 0.64 88 17:43 02.01.2022
4586 Clear 13 1021 79 10000 0.91 61 17:21 02.01.2022
4587 Clear 13 1021 78 10000 0.92 62 16:53 02.01.2022
4588 Clear 13 1024 79 10000 0.89 90 16:23 02.01.2022
4589 Clear 14 1024 75 10000 0.89 90 14:19 02.01.2022
4590 Clouds 14 1024 77 10000 0.45 90 12:34 02.01.2022
4591 Clouds 14 1022 76 10000 1.55 28 11:56 02.01.2022
4592 Clouds 14 1022 77 10000 1.29 33 11:20 02.01.2022
4593 Clouds 13 1022 79 10000 1.29 33 10:37 02.01.2022
4594 Clouds 11 1024 85 10000 0.89 90 08:27 02.01.2022
4595 Clouds 12 1022 83 10000 1.77 61 03:22 02.01.2022
4596 Clouds 12 1022 84 10000 1.58 46 23:58 01.01.2022
4597 Clouds 12 1022 84 10000 1.58 46 23:39 01.01.2022
4598 Clouds 12 1022 84 10000 1.35 58 22:45 01.01.2022
4599 Clouds 12 1024 87 10000 0.89 90 22:19 01.01.2022
4600 Clouds 13 1022 85 10000 1.75 51 21:43 01.01.2022
4601 Clouds 13 1021 86 10000 1.29 47 20:52 01.01.2022
4602 Clouds 13 1022 86 10000 1.58 41 19:55 01.01.2022
4603 Clouds 13 1022 86 10000 1.12 59 18:58 01.01.2022
4604 Clouds 13 1021 87 10000 0.49 107 17:56 01.01.2022
4605 Clouds 13 1020 86 10000 1.25 40 16:35 01.01.2022
4606 Clear 13 1021 85 10000 0.45 1 15:57 01.01.2022
4607 Clear 14 1020 84 10000 0.89 2 14:57 01.01.2022
4608 Clear 14 1020 84 10000 1.88 302 13:42 01.01.2022
4609 Clear 14 1021 84 10000 1.7 331 12:49 01.01.2022
4610 Clear 14 1021 85 10000 1.46 327 11:47 01.01.2022
4611 Clear 13 1024 88 10000 0.89 90 11:21 01.01.2022
4612 Clear 13 1022 92 10000 1.04 236 10:26 01.01.2022
4613 Clear 13 1026 75 10000 1.04 236 09:41 01.01.2022
4614 Clear 12 1026 84 10000 0.7 315 08:25 01.01.2022
4615 Clear 11 1026 84 10000 0.7 315 07:43 01.01.2022
4616 Clear 11 1026 83 10000 0.99 284 06:46 01.01.2022
4617 Clear 12 1025 83 10000 1.04 248 05:26 01.01.2022
4618 Clear 12 1025 83 10000 1.04 248 04:37 01.01.2022
4619 Clear 13 1026 81 10000 1.23 263 00:53 01.01.2022
4620 Clear 12 1029 78 10000 0.89 292 23:35 31.12.2021
4621 Clear 13 1027 77 10000 1.12 280 21:52 31.12.2021
4622 Clear 13 1027 79 10000 1.02 249 20:33 31.12.2021
4623 Clear 13 1027 84 10000 0.83 271 19:30 31.12.2021
4624 Clear 15 1026 83 10000 1.2 276 18:32 31.12.2021
4625 Clear 14 1028 75 10000 3.13 315 17:38 31.12.2021
4626 Clear 14 1028 77 10000 3.13 315 17:18 31.12.2021
4627 Clear 14 1027 83 10000 0.89 270 16:24 31.12.2021
4628 Clear 15 1027 82 10000 0.89 90 15:56 31.12.2021
4629 Clear 15 1027 81 10000 0.45 90 15:28 31.12.2021
4630 Clear 16 1027 79 10000 0.89 90 14:52 31.12.2021
4631 Clear 16 1027 78 10000 1.34 90 14:29 31.12.2021
4632 Clear 16 1027 78 10000 1.34 90 13:36 31.12.2021
4633 Clear 16 1027 75 10000 1.79 90 12:45 31.12.2021
4634 Clear 16 1027 69 10000 3.58 90 11:47 31.12.2021
4635 Clear 16 1027 73 10000 0.89 90 11:29 31.12.2021
4636 Clear 15 1027 68 10000 0.89 90 10:35 31.12.2021
4637 Clear 15 1027 70 10000 1.34 180 09:54 31.12.2021
4638 Clear 14 1027 73 10000 0.89 90 09:32 31.12.2021
4639 Clear 12 1026 76 10000 0.45 270 08:27 31.12.2021
4640 Clear 13 1024 79 10000 1.3 86 07:31 31.12.2021
4641 Clear 12 1023 80 10000 0.89 90 23:32 30.12.2021
4642 Clear 12 1023 78 10000 0.45 90 22:33 30.12.2021
4643 Clear 13 1022 78 10000 0.45 315 21:56 30.12.2021
4644 Clear 13 1022 79 10000 2.68 292 21:37 30.12.2021
4645 Clear 13 1022 79 10000 0.89 315 20:47 30.12.2021
4646 Clear 13 1022 79 10000 1.34 292 20:27 30.12.2021
4647 Clear 13 1021 81 10000 2.24 270 19:47 30.12.2021
4648 Clear 13 1021 79 10000 1.34 270 18:48 30.12.2021
4649 Clear 13 1021 83 10000 1.34 45 18:19 30.12.2021
4650 Clear 15 1018 82 10000 1.99 341 16:20 30.12.2021
4651 Clear 15 1018 80 10000 1.99 341 15:52 30.12.2021
4652 Clear 16 1020 78 10000 3.13 315 14:40 30.12.2021
4653 Clear 16 1019 77 10000 4.02 315 13:55 30.12.2021
4654 Clouds 15 1019 80 10000 0.89 315 12:44 30.12.2021
4655 Clouds 14 1019 88 10000 0.45 90 10:59 30.12.2021
4656 Clouds 15 1017 86 10000 1.59 327 09:59 30.12.2021
4657 Clouds 14 1016 84 10000 1.21 294 09:23 30.12.2021
4658 Clouds 13 1016 78 10000 3.58 315 06:54 30.12.2021
4659 Clouds 15 1014 82 10000 3.13 275 04:20 30.12.2021
4660 Clouds 15 1014 82 10000 3.13 275 04:20 30.12.2021
4661 Clouds 15 1014 81 10000 3.13 275 03:39 30.12.2021
4662 Clouds 16 1013 78 10000 3.42 279 00:35 30.12.2021
4663 Clouds 16 1013 77 10000 3.87 292 23:31 29.12.2021
4664 Clouds 16 1013 78 10000 5.15 281 22:24 29.12.2021
4665 Clouds 15 1013 78 10000 5.16 281 21:53 29.12.2021
4666 Clouds 15 1013 77 10000 4.42 267 20:56 29.12.2021
4667 Clouds 15 1013 76 10000 4.33 259 19:54 29.12.2021
4668 Clouds 16 1013 75 10000 4.3 255 19:30 29.12.2021
4669 Clouds 16 1006 77 10000 4.65 262 18:26 29.12.2021
4670 Clouds 16 1006 78 10000 0.45 271 17:29 29.12.2021
4671 Clouds 16 1006 77 10000 5.05 270 16:58 29.12.2021
4672 Clouds 17 1006 75 10000 1.34 263 16:19 29.12.2021
4673 Clouds 17 1005 71 10000 0.45 2 14:47 29.12.2021
4674 Clouds 17 1005 72 10000 0.89 206 12:50 29.12.2021
4675 Clouds 17 1005 71 10000 1.79 6 12:30 29.12.2021
4676 Clouds 17 1006 72 10000 0.89 42 10:53 29.12.2021
4677 Clouds 16 1008 74 10000 0.89 319 08:56 29.12.2021
4678 Clouds 15 1014 71 10000 10.28 315 06:59 29.12.2021
4679 Clouds 15 1013 72 10000 7.6 128 06:30 29.12.2021
4680 Clouds 16 1012 73 10000 5.13 235 05:51 29.12.2021
4681 Clouds 15 1009 75 10000 2.24 357 03:47 29.12.2021
4682 Clouds 14 1009 77 10000 6.26 315 00:32 29.12.2021
4683 Clouds 14 1009 78 10000 4.92 270 23:57 28.12.2021
4684 Clouds 14 1009 79 10000 4.47 292 22:56 28.12.2021
4685 Clouds 14 1009 79 10000 4.02 270 22:25 28.12.2021
4686 Clouds 14 1009 79 10000 0.89 322 21:54 28.12.2021
4687 Clouds 14 1009 80 10000 0.89 1 21:34 28.12.2021
4688 Clouds 15 1006 77 10000 3.93 249 19:53 28.12.2021
4689 Clouds 15 1006 78 10000 0.45 318 18:53 28.12.2021
4690 Clouds 15 1006 77 10000 1.79 229 18:25 28.12.2021
4691 Clouds 15 1005 75 10000 1.34 349 17:29 28.12.2021
4692 Clouds 16 1005 73 10000 0.45 6 15:53 28.12.2021
4693 Clouds 16 1005 72 10000 0.89 278 15:29 28.12.2021
4694 Clouds 16 1005 70 10000 0.89 324 14:55 28.12.2021
4695 Clouds 17 1004 68 10000 0.45 347 14:37 28.12.2021
4696 Clouds 16 1004 69 10000 6.37 281 14:18 28.12.2021
4697 Clouds 16 1005 70 10000 0.45 351 13:37 28.12.2021
4698 Clouds 16 1005 67 10000 1.34 353 12:56 28.12.2021
4699 Clouds 17 1004 65 10000 0.45 321 12:20 28.12.2021
4700 Clear 16 1005 62 10000 0.89 325 10:19 28.12.2021
4701 Clear 15 1004 71 10000 0.89 304 07:33 28.12.2021
4702 Clouds 15 1003 74 10000 1.34 336 03:35 28.12.2021
4703 Clouds 16 1001 81 10000 0.45 326 23:40 27.12.2021
4704 Clouds 15 1003 84 10000 1.34 12 22:21 27.12.2021
4705 Clouds 15 1004 83 10000 1.79 320 21:30 27.12.2021
4706 Clouds 15 1004 80 10000 4.52 207 20:39 27.12.2021
4707 Clouds 15 1005 77 10000 4.88 211 19:49 27.12.2021
4708 Clouds 15 1005 76 10000 4.48 199 19:27 27.12.2021
4709 Clouds 16 1005 75 10000 4.01 213 17:54 27.12.2021
4710 Clouds 16 1005 75 10000 4.01 213 17:54 27.12.2021
4711 Clouds 16 1005 76 10000 3.71 234 17:28 27.12.2021
4712 Clouds 16 1005 78 10000 3.39 248 16:26 27.12.2021
4713 Clouds 16 1005 77 10000 3.38 248 15:49 27.12.2021
4714 Clouds 17 1005 74 10000 0.89 335 14:26 27.12.2021
4715 Clouds 16 1008 74 10000 4.47 315 13:31 27.12.2021
4716 Clouds 16 1006 79 10000 0.45 252 11:20 27.12.2021
4717 Clouds 16 1006 80 10000 3.59 223 10:27 27.12.2021
4718 Clouds 16 1006 82 10000 3.79 212 09:27 27.12.2021
4719 Clouds 15 1005 84 10000 4.04 210 07:34 27.12.2021
4720 Clouds 15 1005 82 10000 4.13 210 06:29 27.12.2021
4721 Clouds 16 1004 72 10000 0.89 342 01:58 27.12.2021
4722 Clouds 15 1005 74 10000 0.89 259 23:50 26.12.2021
4723 Clouds 15 1005 74 10000 4.78 182 23:32 26.12.2021
4724 Clouds 16 1006 69 10000 0.45 252 21:48 26.12.2021
4725 Clouds 17 1005 61 10000 3.66 226 20:25 26.12.2021
4726 Clouds 17 1005 57 10000 3.26 221 19:27 26.12.2021
4727 Clouds 17 1008 60 10000 0.89 252 18:23 26.12.2021
4728 Clouds 18 1006 56 10000 0.45 254 15:55 26.12.2021
4729 Clouds 19 1007 52 10000 2.24 250 13:52 26.12.2021
4730 Clouds 19 1007 50 10000 1.79 235 13:32 26.12.2021
4731 Clouds 19 1007 52 10000 1.79 219 12:38 26.12.2021
4732 Clouds 19 1008 52 10000 1.34 208 11:57 26.12.2021
4733 Clouds 17 1006 56 10000 3.36 186 09:52 26.12.2021
4734 Clear 17 1006 61 10000 3.62 188 09:18 26.12.2021
4735 Clear 15 1009 60 10000 0.89 90 08:39 26.12.2021
4736 Clouds 14 1009 61 10000 2.24 315 06:47 26.12.2021
4737 Clouds 14 1009 65 10000 3.58 315 00:58 26.12.2021
4738 Clouds 14 1009 64 10000 4.92 315 23:50 25.12.2021
4739 Clouds 15 1006 66 10000 3.69 190 23:26 25.12.2021
4740 Clouds 15 1006 65 10000 3.39 204 22:23 25.12.2021
4741 Clouds 15 1009 62 10000 5.81 292 20:48 25.12.2021
4742 Clouds 16 1006 61 10000 3.66 192 19:22 25.12.2021
4743 Clouds 16 1006 60 10000 3.64 193 18:54 25.12.2021
4744 Clouds 17 1013 59 10000 3.75 184 17:28 25.12.2021
4745 Clouds 17 1013 56 10000 3.76 184 16:35 25.12.2021
4746 Clouds 18 1005 52 10000 0.45 356 14:38 25.12.2021
4747 Clouds 18 1009 54 10000 2.24 199 12:49 25.12.2021
4748 Clouds 18 1009 58 10000 1.34 284 11:45 25.12.2021
4749 Clouds 17 1011 61 10000 5.36 315 09:50 25.12.2021
4750 Clouds 15 1016 67 10000 4.44 170 08:19 25.12.2021
4751 Clouds 12 1010 73 10000 3.82 175 02:22 25.12.2021
4752 Clouds 12 1014 71 10000 0.89 90 00:33 25.12.2021
4753 Clouds 12 1014 71 10000 0.45 241 23:39 24.12.2021
4754 Clear 12 1016 71 10000 0.89 270 19:40 24.12.2021
4755 Clear 13 1013 71 10000 2.49 165 19:22 24.12.2021
4756 Clear 14 1017 64 10000 1.79 135 16:50 24.12.2021
4757 Clear 15 1017 62 10000 1.34 315 16:21 24.12.2021
4758 Clear 15 1016 59 10000 0.45 354 15:46 24.12.2021
4759 Clear 16 1022 56 10000 3.13 225 14:46 24.12.2021
4760 Clear 16 1022 56 10000 2.24 248 14:23 24.12.2021
4761 Clear 16 1017 56 10000 0.89 12 13:37 24.12.2021
4762 Clear 16 1018 57 10000 3.58 225 12:48 24.12.2021
4763 Clear 15 1018 60 10000 3.58 292 11:58 24.12.2021
4764 Clear 15 1018 62 10000 1.79 270 11:27 24.12.2021
4765 Clear 14 1019 66 10000 3.58 225 10:53 24.12.2021
4766 Clear 13 1019 70 10000 0.45 358 10:22 24.12.2021
4767 Clear 10 1020 78 10000 2.24 292 08:25 24.12.2021
4768 Clear 10 1025 74 10000 2.24 292 07:50 24.12.2021
4769 Clear 9 1020 78 10000 2.24 292 03:21 24.12.2021
4770 Clear 9 1020 78 10000 0.89 225 00:19 24.12.2021
4771 Clear 10 1020 78 10000 2.68 315 23:23 23.12.2021
4772 Clear 9 1020 78 10000 1.34 270 22:39 23.12.2021
4773 Clear 10 1020 77 10000 3.13 292 22:20 23.12.2021
4774 Clear 10 1018 78 10000 1.6 226 21:33 23.12.2021
4775 Clouds 10 1018 79 10000 1.37 197 20:20 23.12.2021
4776 Clouds 11 1017 75 10000 1.23 193 18:37 23.12.2021
4777 Clouds 11 1017 74 10000 0.29 216 17:57 23.12.2021
4778 Clouds 12 1017 70 10000 0.64 343 16:57 23.12.2021
4779 Clouds 13 1017 67 10000 1.32 350 16:25 23.12.2021
4780 Clouds 13 1025 65 10000 0.45 90 15:31 23.12.2021
4781 Clouds 13 1025 65 10000 0.45 90 15:31 23.12.2021
4782 Clouds 14 1025 64 10000 0.45 90 14:54 23.12.2021
4783 Clouds 14 1025 63 10000 0.89 90 14:36 23.12.2021
4784 Clear 14 1020 61 10000 0.45 90 13:19 23.12.2021
4785 Clear 13 1021 67 10000 0.89 90 10:53 23.12.2021
4786 Clear 11 1021 75 10000 0.89 90 09:47 23.12.2021
4787 Clear 10 1021 78 10000 0.89 90 09:19 23.12.2021
4788 Clear 9 1017 81 10000 1.99 175 06:59 23.12.2021
4789 Clear 9 1023 74 10000 1.83 143 04:35 23.12.2021
4790 Clouds 10 1017 81 10000 0.45 228 23:26 22.12.2021
4791 Clouds 10 1017 81 10000 2.42 112 22:48 22.12.2021
4792 Clouds 11 1017 81 10000 2.53 105 21:57 22.12.2021
4793 Clouds 10 1020 82 10000 0.45 90 21:29 22.12.2021
4794 Clouds 11 1017 79 10000 2.46 106 20:50 22.12.2021
4795 Clouds 11 1017 79 10000 2.46 106 20:30 22.12.2021
4796 Clouds 11 1017 78 10000 2.37 104 19:35 22.12.2021
4797 Clouds 12 1016 75 10000 2.19 101 18:18 22.12.2021
4798 Clouds 12 1016 74 10000 2.18 101 17:35 22.12.2021
4799 Clouds 14 1015 65 10000 1.91 63 15:46 22.12.2021
4800 Clouds 15 1015 64 10000 0.45 6 13:44 22.12.2021
4801 Clouds 15 1015 60 10000 0.77 60 12:41 22.12.2021
4802 Clouds 14 1019 61 10000 1.79 90 10:46 22.12.2021
4803 Clouds 12 1020 69 10000 0.89 90 09:40 22.12.2021
4804 Clear 10 1019 74 10000 3.13 315 07:48 22.12.2021
4805 Clear 10 1016 78 10000 2.36 199 05:51 22.12.2021
4806 Clear 10 1019 78 10000 2.68 315 05:28 22.12.2021
4807 Clear 10 1018 78 10000 3.13 292 04:54 22.12.2021
4808 Clear 10 1016 79 10000 2.49 199 04:30 22.12.2021
4809 Clear 10 1016 79 10000 2.49 199 04:30 22.12.2021
4810 Clouds 10 1018 78 10000 1.79 315 03:34 22.12.2021
4811 Clouds 10 1018 78 10000 3.13 292 01:37 22.12.2021
4812 Clouds 10 1016 80 10000 2.99 209 23:33 21.12.2021
4813 Clouds 11 1016 79 10000 2.43 225 22:29 21.12.2021
4814 Clouds 11 1017 79 10000 2.43 225 21:51 21.12.2021
4815 Clouds 11 1016 79 10000 1.87 235 21:24 21.12.2021
4816 Clouds 11 1016 80 10000 1.48 235 20:23 21.12.2021
4817 Clouds 11 1016 79 10000 1.48 235 19:46 21.12.2021
4818 Clouds 12 1016 78 10000 1.32 238 19:19 21.12.2021
4819 Clouds 12 1016 77 10000 0.81 263 18:22 21.12.2021
4820 Clouds 12 1016 77 10000 0.81 263 17:47 21.12.2021
4821 Clouds 13 1016 74 10000 0.86 303 16:35 21.12.2021
4822 Clouds 14 1015 69 10000 0.45 355 15:29 21.12.2021
4823 Clouds 14 1015 68 10000 0.45 2 13:51 21.12.2021
4824 Clouds 15 1015 67 10000 0.45 5 13:31 21.12.2021
4825 Clear 15 1016 68 10000 0.81 281 11:57 21.12.2021
4826 Clear 13 1017 74 10000 0.42 200 10:37 21.12.2021
4827 Clear 11 1016 82 10000 1.2 175 09:35 21.12.2021
4828 Clear 9 1016 84 10000 1.2 175 08:30 21.12.2021
4829 Clear 9 1022 75 10000 1.52 183 07:32 21.12.2021
4830 Clear 10 1021 75 10000 1.64 183 06:54 21.12.2021
4831 Clear 9 1015 83 10000 1.82 187 03:20 21.12.2021
4832 Clear 9 1014 83 10000 1.63 197 01:18 21.12.2021
4833 Clear 10 1014 82 10000 1.73 198 23:34 20.12.2021
4834 Clear 10 1014 82 10000 1.74 198 22:34 20.12.2021
4835 Clear 10 1014 80 10000 1.6 198 21:48 20.12.2021
4836 Clear 11 1014 80 10000 1.23 210 21:24 20.12.2021
4837 Clear 11 1014 79 10000 1.23 210 20:48 20.12.2021
4838 Clear 11 1014 78 10000 1.8 236 19:55 20.12.2021
4839 Clear 11 1014 78 10000 1.8 236 19:55 20.12.2021
4840 Clear 11 1014 77 10000 1.8 236 19:34 20.12.2021
4841 Clear 11 1013 75 10000 1.52 237 18:55 20.12.2021
4842 Clear 12 1013 74 10000 1.47 262 18:25 20.12.2021
4843 Clear 12 1013 73 10000 1.47 262 17:46 20.12.2021
4844 Clear 13 1013 69 10000 1.83 279 16:44 20.12.2021
4845 Clear 14 1012 64 10000 2.24 281 15:52 20.12.2021
4846 Clear 14 1019 62 10000 2.38 280 14:58 20.12.2021
4847 Clear 15 1012 61 10000 2.01 287 13:31 20.12.2021
4848 Clear 14 1014 62 10000 1.78 264 11:36 20.12.2021
4849 Clear 12 1015 74 10000 2.06 236 09:56 20.12.2021
4850 Clear 12 1014 76 10000 2.06 236 09:32 20.12.2021
4851 Clear 10 1014 81 10000 0.45 337 08:43 20.12.2021
4852 Clear 8 1017 80 10000 4.47 315 07:59 20.12.2021
4853 Clear 8 1017 80 10000 4.92 315 07:31 20.12.2021
4854 Clear 9 1014 80 10000 2.81 236 06:32 20.12.2021
4855 Clear 9 1015 78 10000 3.17 238 00:19 20.12.2021
4856 Clear 9 1016 75 10000 2.78 242 22:56 19.12.2021
4857 Clear 10 1016 73 10000 2.44 243 21:58 19.12.2021
4858 Clear 10 1016 73 10000 2.44 243 21:32 19.12.2021
4859 Clear 10 1017 72 10000 2.03 246 20:35 19.12.2021
4860 Clear 10 1017 71 10000 1.66 262 19:53 19.12.2021
4861 Clear 10 1017 71 10000 1.66 262 19:34 19.12.2021
4862 Clear 11 1017 69 10000 1.77 270 18:35 19.12.2021
4863 Clear 11 1017 68 10000 2.11 282 17:53 19.12.2021
4864 Clear 11 1017 68 10000 1.95 303 17:28 19.12.2021
4865 Clear 12 1017 63 10000 1.9 325 16:27 19.12.2021
4866 Clear 12 1017 63 10000 1.9 325 16:27 19.12.2021
4867 Clear 12 1017 61 10000 1.27 306 15:51 19.12.2021
4868 Clear 13 1017 58 10000 1.15 334 15:23 19.12.2021
4869 Clear 13 1017 57 10000 0.45 2 14:45 19.12.2021
4870 Clouds 13 1018 56 10000 1.8 19 13:26 19.12.2021
4871 Clouds 13 1018 55 10000 1.34 5 12:50 19.12.2021
4872 Clouds 13 1018 56 10000 1.34 6 12:28 19.12.2021
4873 Clouds 13 1019 56 10000 1.34 14 11:30 19.12.2021
4874 Clouds 13 1019 57 10000 3.19 32 10:47 19.12.2021
4875 Clear 12 1022 61 10000 1.79 90 10:21 19.12.2021
4876 Clear 10 1020 64 10000 3.64 31 08:46 19.12.2021
4877 Clear 10 1019 58 10000 4.22 38 05:37 19.12.2021
4878 Clear 10 1020 54 10000 5.29 59 01:45 19.12.2021
4879 Clear 11 1020 54 10000 6.28 58 00:54 19.12.2021
4880 Clear 11 1020 54 10000 7.79 53 22:51 18.12.2021
4881 Clear 11 1020 53 10000 8.89 53 22:24 18.12.2021
4882 Clear 11 1020 49 10000 0.45 343 21:41 18.12.2021
4883 Clear 11 1020 49 10000 0.45 338 21:22 18.12.2021
4884 Clear 11 1020 45 10000 9.05 53 20:25 18.12.2021
4885 Clear 11 1021 44 10000 9.05 53 19:34 18.12.2021
4886 Clear 12 1020 46 10000 0.45 354 18:24 18.12.2021
4887 Clear 12 1020 48 10000 6.57 48 17:49 18.12.2021
4888 Clear 12 1020 45 10000 6.85 51 16:27 18.12.2021
4889 Clear 13 1020 41 10000 0.89 31 15:48 18.12.2021
4890 Clear 13 1025 43 10000 7.77 49 14:53 18.12.2021
4891 Clear 14 1019 39 10000 2.68 346 13:44 18.12.2021
4892 Clouds 14 1020 51 10000 0.89 356 11:55 18.12.2021
4893 Clouds 13 1020 71 10000 8.48 44 09:54 18.12.2021
4894 Clear 13 1020 80 10000 9.1 47 09:30 18.12.2021
4895 Clear 13 1019 82 10000 8.98 46 08:36 18.12.2021
4896 Clear 13 1019 82 10000 8.97 47 08:36 18.12.2021
4897 Clouds 11 1021 84 10000 0.89 315 06:28 18.12.2021
4898 Clouds 11 1021 81 10000 1.79 292 00:59 18.12.2021
4899 Clear 11 1022 80 10000 1.34 270 23:49 17.12.2021
4900 Clear 12 1020 77 10000 2.56 28 22:39 17.12.2021
4901 Clouds 12 1020 75 10000 2.84 23 21:29 17.12.2021
4902 Clouds 12 1020 75 10000 2.84 23 20:43 17.12.2021
4903 Clouds 12 1020 72 10000 2.78 14 19:56 17.12.2021
4904 Clouds 13 1021 70 10000 2.52 23 18:39 17.12.2021
4905 Clouds 13 1021 70 10000 3.25 21 17:50 17.12.2021
4906 Clouds 13 1020 68 10000 3.34 18 16:51 17.12.2021
4907 Clouds 14 1020 67 10000 3.27 15 16:27 17.12.2021
4908 Clouds 14 1020 63 10000 3.31 14 15:49 17.12.2021
4909 Clouds 15 1020 62 10000 3.41 12 14:43 17.12.2021
4910 Clouds 15 1020 65 10000 3.39 17 13:51 17.12.2021
4911 Clouds 14 1021 66 10000 0.89 8 12:36 17.12.2021
4912 Clouds 14 1022 74 10000 0.89 4 10:42 17.12.2021
4913 Clouds 12 1025 81 10000 1.79 90 09:47 17.12.2021
4914 Clouds 11 1022 83 10000 4.28 24 08:32 17.12.2021
4915 Clouds 11 1021 83 10000 3.79 26 07:38 17.12.2021
4916 Clouds 11 1020 84 10000 3.21 22 04:41 17.12.2021
4917 Clouds 10 1020 82 10000 1.45 90 00:28 17.12.2021
4918 Clouds 11 1020 80 10000 2 86 22:44 16.12.2021
4919 Clouds 11 1020 79 10000 2.23 77 22:22 16.12.2021
4920 Clouds 12 1020 77 10000 2.23 77 21:43 16.12.2021
4921 Clouds 11 1020 77 10000 2.46 75 20:40 16.12.2021
4922 Clouds 11 1020 76 10000 2.79 69 20:21 16.12.2021
4923 Clouds 11 1020 76 10000 3.02 65 19:27 16.12.2021
4924 Clouds 11 1019 73 10000 2.73 57 18:31 16.12.2021
4925 Clouds 12 1019 68 10000 3.04 51 17:36 16.12.2021
4926 Clouds 13 1018 64 10000 2.88 34 16:24 16.12.2021
4927 Clouds 14 1018 61 10000 2.78 31 15:26 16.12.2021
4928 Clouds 14 1018 67 10000 2.73 33 13:45 16.12.2021
4929 Clouds 14 1019 70 10000 1.76 22 11:56 16.12.2021
4930 Clouds 14 1022 70 10000 0.45 1 11:18 16.12.2021
4931 Clouds 13 1022 73 10000 0.45 350 10:39 16.12.2021
4932 Clouds 12 1019 81 10000 1.1 336 09:42 16.12.2021
4933 Clouds 10 1018 83 10000 0.49 232 06:23 16.12.2021
4934 Clouds 10 1018 83 10000 0.64 201 03:54 16.12.2021
4935 Clouds 10 1019 79 10000 1.04 184 23:36 15.12.2021
4936 Clouds 10 1019 79 10000 1.17 174 22:49 15.12.2021
4937 Clouds 10 1019 79 10000 0.97 157 22:20 15.12.2021
4938 Clouds 11 1019 77 10000 0.97 157 21:31 15.12.2021
4939 Clear 12 1019 76 10000 0.96 122 20:41 15.12.2021
4940 Clear 12 1019 74 10000 1.27 100 19:53 15.12.2021
4941 Clear 11 1021 74 10000 1.32 79 18:50 15.12.2021
4942 Clear 11 1021 72 10000 1.86 64 18:18 15.12.2021
4943 Clear 13 1018 69 10000 1.83 65 17:43 15.12.2021
4944 Clear 13 1018 67 10000 2.23 57 17:21 15.12.2021
4945 Clear 14 1020 60 10000 2.22 55 15:48 15.12.2021
4946 Clear 15 1017 56 10000 2.31 45 15:29 15.12.2021
4947 Clear 15 1023 61 10000 2.31 45 14:44 15.12.2021
4948 Clouds 15 1017 61 10000 1.35 54 13:28 15.12.2021
4949 Clouds 14 1020 68 10000 0.89 90 11:41 15.12.2021
4950 Clouds 14 1018 80 10000 2.25 51 10:18 15.12.2021
4951 Clouds 11 1017 91 10000 2.64 48 07:55 15.12.2021
4952 Clouds 11 1018 90 10000 1.34 270 04:22 15.12.2021
4953 Clear 11 1018 88 10000 1.79 315 00:32 15.12.2021
4954 Clear 11 1018 88 10000 2.24 292 23:21 14.12.2021
4955 Clear 12 1016 88 10000 1.7 46 22:42 14.12.2021
4956 Clear 11 1019 87 10000 1.34 292 21:38 14.12.2021
4957 Clear 12 1019 85 10000 1.79 270 20:20 14.12.2021
4958 Clear 12 1018 85 10000 2.24 315 19:26 14.12.2021
4959 Clear 13 1018 84 10000 2.68 315 18:38 14.12.2021
4960 Clear 13 1015 83 10000 2.42 352 17:53 14.12.2021
4961 Clear 14 1015 82 10000 0.45 345 16:43 14.12.2021
4962 Clear 14 1015 82 10000 0.45 345 16:43 14.12.2021
4963 Clear 14 1015 81 10000 0.45 2 16:18 14.12.2021
4964 Clear 16 1015 74 10000 0.89 29 13:58 14.12.2021
4965 Clouds 15 1015 76 10000 0.89 13 12:48 14.12.2021
4966 Clouds 15 1016 78 10000 1.34 12 11:25 14.12.2021
4967 Clouds 15 1017 79 10000 0.45 7 10:45 14.12.2021
4968 Clouds 14 1017 83 10000 0.89 349 09:54 14.12.2021
4969 Clouds 13 1020 85 10000 0.89 0 08:49 14.12.2021
4970 Clouds 12 1020 86 10000 1.34 315 08:21 14.12.2021
4971 Clouds 12 1017 82 10000 3.38 322 07:23 14.12.2021
4972 Clouds 12 1020 77 10000 4.02 315 23:51 13.12.2021
4973 Clear 12 1020 76 10000 1.34 0 22:24 13.12.2021
4974 Clear 12 1020 76 10000 2.68 292 21:39 13.12.2021
4975 Clear 11 1021 73 10000 2.68 315 20:51 13.12.2021
4976 Clear 11 1021 73 10000 2.68 315 20:51 13.12.2021
4977 Clear 11 1021 71 10000 2.24 315 20:21 13.12.2021
4978 Clear 11 1021 69 10000 3.58 292 19:49 13.12.2021
4979 Clear 12 1018 71 10000 3.56 316 17:27 13.12.2021
4980 Clear 12 1018 70 10000 3.56 316 16:32 13.12.2021
4981 Clear 13 1017 65 10000 0.45 329 15:43 13.12.2021
4982 Clear 14 1023 63 10000 3.86 315 14:42 13.12.2021
4983 Clear 14 1017 65 10000 0.89 8 13:37 13.12.2021
4984 Clear 14 1018 63 10000 2.87 343 12:39 13.12.2021
4985 Clear 13 1021 66 10000 2.68 0 11:52 13.12.2021
4986 Clear 13 1018 66 10000 3.48 5 11:29 13.12.2021
4987 Clear 13 1019 67 10000 3.48 5 10:36 13.12.2021
4988 Clouds 10 1021 80 10000 0.89 248 08:43 13.12.2021
4989 Clouds 10 1021 81 10000 0.89 248 08:43 13.12.2021
4990 Clouds 10 1017 85 10000 2.91 28 06:55 13.12.2021
4991 Clouds 10 1017 90 10000 3.29 41 05:19 13.12.2021
4992 Clouds 11 1016 83 10000 3.08 18 23:55 12.12.2021
4993 Clouds 11 1015 81 10000 3.59 21 21:58 12.12.2021
4994 Clouds 11 1015 82 10000 0.45 266 21:24 12.12.2021
4995 Clouds 10 1017 81 10000 1.79 315 19:35 12.12.2021
4996 Clouds 10 1016 82 10000 1.34 315 18:22 12.12.2021
4997 Clouds 12 1012 75 10000 3.64 7 16:32 12.12.2021
4998 Clouds 12 1012 74 10000 2.72 5 15:55 12.12.2021
4999 Clouds 13 1011 73 10000 2.34 12 15:28 12.12.2021
5000 Clouds 13 1011 74 10000 2.34 12 14:51 12.12.2021
5001 Clouds 12 1011 72 10000 2.65 341 14:18 12.12.2021
5002 Clouds 13 1011 66 10000 0.45 45 12:48 12.12.2021
5003 Clouds 13 1011 68 10000 1.34 340 11:59 12.12.2021
5004 Clouds 13 1011 68 10000 3.57 318 11:32 12.12.2021
5005 Clouds 13 1010 68 10000 0.45 10 10:44 12.12.2021
5006 Clouds 13 1010 67 10000 4.03 313 10:20 12.12.2021
5007 Clouds 11 1011 73 10000 0.45 345 08:46 12.12.2021
5008 Clouds 11 1010 78 10000 0.89 292 07:28 12.12.2021
5009 Clouds 10 1009 80 10000 3.13 315 05:29 12.12.2021
5010 Clouds 10 1008 82 10000 0.45 38 04:51 12.12.2021
5011 Clouds 10 1004 83 10000 0.45 33 00:57 12.12.2021
5012 Clouds 10 1005 78 10000 1.34 267 23:26 11.12.2021
5013 Clouds 10 1005 75 10000 1.34 316 22:21 11.12.2021
5014 Clouds 10 1004 79 10000 1.34 354 21:35 11.12.2021
5015 Clouds 10 1003 82 10000 6.71 315 20:19 11.12.2021
5016 Clouds 11 1002 76 10000 1.34 338 19:21 11.12.2021
5017 Clouds 10 1002 78 10000 1.34 276 18:48 11.12.2021
5018 Clouds 10 1001 85 10000 0.45 303 17:54 11.12.2021
5019 Clouds 10 1000 81 10000 2.24 23 16:39 11.12.2021
5020 Clouds 11 997 80 10000 3.13 215 15:46 11.12.2021
5021 Clouds 11 998 75 10000 2.24 54 14:46 11.12.2021
5022 Rain 9 996 87 2716 0.45 326 12:41 11.12.2021
5023 Clouds 10 996 68 10000 3.13 336 10:58 11.12.2021
5024 Clouds 8 996 75 10000 1.34 266 09:44 11.12.2021
5025 Clouds 12 993 69 10000 1.79 19 05:36 11.12.2021
5026 Clouds 11 995 70 10000 2.68 196 00:50 11.12.2021
5027 Clouds 11 997 79 10000 0.45 202 23:44 10.12.2021
5028 Clouds 10 998 89 10000 1.34 28 22:50 10.12.2021
5029 Clouds 11 998 92 10000 3.6 276 21:51 10.12.2021
5030 Clouds 12 998 92 8650 5.65 283 20:35 10.12.2021
5031 Rain 13 1002 81 10000 8.82 264 19:19 10.12.2021
5032 Clouds 13 996 90 2351 0.89 290 17:54 10.12.2021
5033 Clouds 13 997 84 4221 0.89 258 16:55 10.12.2021
5034 Clouds 13 998 80 2244 8.39 225 15:47 10.12.2021
5035 Clouds 13 998 81 2794 6.75 208 15:29 10.12.2021
5036 Clouds 12 999 84 2797 1.34 222 14:57 10.12.2021
5037 Clouds 12 1000 80 4823 0.89 214 13:50 10.12.2021
5038 Clouds 13 1001 76 10000 0.45 205 13:20 10.12.2021
5039 Clouds 13 1010 73 10000 5.82 192 12:23 10.12.2021
5040 Clouds 13 1004 69 10000 0.45 290 11:27 10.12.2021
5041 Clouds 12 1008 64 10000 3.13 315 09:54 10.12.2021
5042 Clouds 12 1005 63 10000 5.93 221 09:54 10.12.2021
5043 Clouds 10 1008 67 10000 3.58 270 08:23 10.12.2021
5044 Clouds 10 1007 69 10000 0.45 340 05:46 10.12.2021
5045 Clouds 10 1006 68 10000 2.24 317 02:47 10.12.2021
5046 Clouds 8 1006 81 10000 0.89 19 23:44 09.12.2021
5047 Clouds 9 1004 83 10000 0.45 266 22:59 09.12.2021
5048 Clouds 9 1003 81 9784 1.34 327 22:24 09.12.2021
5049 Clouds 8 1004 84 9783 10.5 277 21:48 09.12.2021
5050 Clouds 9 1011 74 10000 10.93 275 20:41 09.12.2021
5051 Clouds 9 1010 74 10000 9.64 268 20:20 09.12.2021
5052 Clouds 9 1010 73 10000 8.52 266 19:21 09.12.2021
5053 Clouds 9 1003 78 10000 8.36 269 18:35 09.12.2021
5054 Clouds 10 1002 71 10000 0.89 300 17:51 09.12.2021
5055 Clouds 10 1002 68 10000 1.79 8 17:25 09.12.2021
5056 Clouds 10 1002 68 10000 1.79 8 17:25 09.12.2021
5057 Rain 11 1002 66 10000 0.89 264 16:53 09.12.2021
5058 Clouds 12 1001 63 10000 1.34 65 15:31 09.12.2021
5059 Clouds 12 1001 66 10000 1.34 319 14:44 09.12.2021
5060 Clouds 12 1000 63 10000 0.89 28 13:19 09.12.2021
5061 Clouds 13 1001 61 10000 2.24 13 12:35 09.12.2021
5062 Clouds 12 1002 64 10000 1.34 359 10:58 09.12.2021
5063 Clouds 10 1001 75 10000 5.75 237 08:49 09.12.2021
5064 Clouds 9 1003 88 6369 0.45 321 06:21 09.12.2021
5065 Clouds 12 1002 82 6527 0.89 326 02:58 09.12.2021
5066 Clear 14 1004 68 10000 0.45 325 23:43 08.12.2021
5067 Clear 14 1004 68 10000 5.81 180 23:21 08.12.2021
5068 Clear 14 1005 68 10000 0.45 4 22:46 08.12.2021
5069 Clear 14 1005 65 10000 4.02 180 21:40 08.12.2021
5070 Clear 14 1006 63 10000 2.68 315 20:59 08.12.2021
5071 Clear 15 1006 63 10000 3.13 225 19:58 08.12.2021
5072 Clear 15 1006 63 10000 3.13 225 19:58 08.12.2021
5073 Clouds 15 1006 63 10000 1.34 225 19:33 08.12.2021
5074 Clouds 15 1007 60 10000 4.47 270 18:40 08.12.2021
5075 Clouds 17 1003 56 10000 0.45 271 17:34 08.12.2021
5076 Clouds 18 1006 50 10000 1.34 203 15:49 08.12.2021
5077 Clouds 18 1006 48 10000 1.34 210 15:26 08.12.2021
5078 Clouds 18 1012 50 10000 6.71 248 14:30 08.12.2021
5079 Clouds 16 1009 66 10000 0.45 265 10:55 08.12.2021
5080 Clouds 16 1006 75 10000 4.47 196 10:31 08.12.2021
5081 Clouds 15 1009 70 10000 0.45 350 10:31 08.12.2021
5082 Clouds 12 1010 83 10000 6.71 248 08:55 08.12.2021
5083 Clear 11 1010 83 10000 3.13 248 07:25 08.12.2021
5084 Clear 10 1008 86 10000 2.21 216 02:30 08.12.2021
5085 Clouds 11 1011 81 10000 1.34 315 23:33 07.12.2021
5086 Clouds 13 1009 77 10000 2.97 315 21:43 07.12.2021
5087 Clouds 13 1009 78 10000 3.9 324 21:23 07.12.2021
5088 Clear 13 1009 79 10000 0.45 329 20:20 07.12.2021
5089 Clouds 13 1008 81 10000 6.03 324 18:43 07.12.2021
5090 Clouds 13 1008 89 10000 8.56 315 17:52 07.12.2021
5091 Clouds 13 1008 89 10000 9.16 304 17:19 07.12.2021
5092 Clouds 12 1010 93 10000 4.92 315 16:31 07.12.2021
5093 Clouds 12 1007 92 10000 9.06 301 15:33 07.12.2021
5094 Clouds 12 1008 85 10000 0.45 336 14:18 07.12.2021
5095 Clouds 12 1006 73 10000 0.89 314 12:49 07.12.2021
5096 Clouds 13 1007 57 10000 8.69 300 11:29 07.12.2021
5097 Clouds 13 1007 53 10000 2.24 296 10:33 07.12.2021
5098 Clear 12 1009 63 10000 5.36 292 08:26 07.12.2021
5099 Clouds 11 1008 64 10000 1.34 227 06:20 07.12.2021
5100 Clouds 11 1007 63 10000 0.89 307 05:37 07.12.2021
5101 Clouds 10 1002 90 10000 0.89 2 23:47 06.12.2021
5102 Rain 9 1002 90 7304 0.89 356 22:57 06.12.2021
5103 Clouds 10 1001 90 7304 3.58 315 22:35 06.12.2021
5104 Clouds 9 1000 93 10000 1.34 341 21:51 06.12.2021
5105 Clouds 9 999 91 10000 0.45 346 20:34 06.12.2021
5106 Clouds 9 999 90 4983 0.45 29 19:56 06.12.2021
5107 Clouds 9 997 86 6256 0.45 349 19:21 06.12.2021
5108 Clouds 9 996 84 9315 5.51 262 18:28 06.12.2021
5109 Clouds 9 996 86 9315 5.51 262 17:40 06.12.2021
5110 Clouds 8 998 83 10000 4.47 315 16:48 06.12.2021
5111 Clouds 10 998 71 10000 5.36 315 15:39 06.12.2021
5112 Clouds 11 995 70 10000 1.34 68 13:46 06.12.2021
5113 Clouds 12 995 71 10000 7.8 271 12:39 06.12.2021
5114 Clouds 11 996 71 10000 8.44 281 11:38 06.12.2021
5115 Clouds 10 996 78 10000 8.23 279 08:51 06.12.2021
5116 Clouds 11 996 74 10000 0.89 229 06:43 06.12.2021
5117 Clouds 11 1000 70 10000 0.89 270 23:44 05.12.2021
5118 Clouds 11 999 76 10000 5.32 229 21:52 05.12.2021
5119 Clouds 11 999 77 10000 5.5 228 21:19 05.12.2021
5120 Clouds 10 1000 81 10000 5.39 240 20:19 05.12.2021
5121 Clouds 11 1001 79 10000 5.39 240 19:36 05.12.2021
5122 Clouds 11 1001 82 10000 1.34 230 19:18 05.12.2021
5123 Clouds 12 1001 84 10000 1.34 349 18:20 05.12.2021
5124 Clouds 11 1000 87 10000 0.45 343 17:48 05.12.2021
5125 Clouds 12 1007 76 10000 9.34 232 16:50 05.12.2021
5126 Clouds 12 1001 79 10000 0.45 348 16:27 05.12.2021
5127 Clouds 13 1001 79 10000 0.45 14 15:49 05.12.2021
5128 Clouds 13 1002 79 10000 1.34 265 14:43 05.12.2021
5129 Clouds 15 1002 74 10000 2.24 345 14:25 05.12.2021
5130 Clouds 15 1010 74 10000 5.81 216 13:22 05.12.2021
5131 Clouds 15 1002 74 10000 1.34 21 12:40 05.12.2021
5132 Clouds 15 1003 76 10000 0.45 205 12:18 05.12.2021
5133 Clouds 15 1004 73 10000 0.89 269 11:34 05.12.2021
5134 Clouds 15 1004 70 10000 6.75 217 10:18 05.12.2021
5135 Clouds 14 1005 69 10000 0.45 259 08:29 05.12.2021
5136 Clouds 14 1009 78 10000 5.36 292 03:39 05.12.2021
5137 Clouds 14 1008 83 10000 4.45 221 00:48 05.12.2021
5138 Clouds 14 1009 79 10000 3.77 223 22:18 04.12.2021
5139 Clouds 13 1011 79 10000 4.92 315 21:18 04.12.2021
5140 Clouds 13 1010 75 10000 3.31 234 20:27 04.12.2021
5141 Clouds 12 1012 75 10000 3.58 292 19:32 04.12.2021
5142 Clouds 13 1010 67 10000 3.91 261 18:22 04.12.2021
5143 Clouds 13 1010 66 10000 3.91 261 17:42 04.12.2021
5144 Clouds 14 1010 66 10000 4.69 270 17:19 04.12.2021
5145 Clouds 14 1010 65 10000 0.45 246 16:42 04.12.2021
5146 Clouds 14 1010 64 10000 0.45 323 16:23 04.12.2021
5147 Clouds 15 1010 55 10000 6.3 308 11:55 04.12.2021
5148 Clouds 15 1010 56 10000 6.3 308 11:33 04.12.2021
5149 Clouds 14 1010 60 10000 6.52 311 10:56 04.12.2021
5150 Clouds 14 1009 68 10000 0.45 2 08:52 04.12.2021
5151 Clouds 13 1008 69 10000 7.26 327 07:22 04.12.2021
5152 Clouds 13 1009 79 10000 0.45 15 04:42 04.12.2021
5153 Clouds 12 1006 72 10000 4.92 315 00:47 04.12.2021
5154 Clouds 12 1006 72 10000 0.45 330 23:27 03.12.2021
5155 Clouds 12 1005 75 10000 0.89 309 22:48 03.12.2021
5156 Clouds 11 1005 91 10000 1.34 16 21:42 03.12.2021
5157 Clouds 10 1005 92 10000 0.45 330 20:55 03.12.2021
5158 Clouds 10 1005 91 10000 4.47 315 20:26 03.12.2021
5159 Clouds 10 1004 83 10000 4.02 315 18:49 03.12.2021
5160 Clouds 11 1001 79 10000 0.45 352 18:20 03.12.2021
5161 Clouds 10 1000 88 10000 4.84 286 16:43 03.12.2021
5162 Rain 11 999 93 5062 0.45 344 13:34 03.12.2021
5163 Clouds 12 998 89 7178 0.45 322 12:20 03.12.2021
5164 Clouds 13 998 82 7797 4.61 289 10:58 03.12.2021
5165 Clouds 14 997 77 10000 0.89 304 08:31 03.12.2021
5166 Clouds 14 997 76 10000 0.45 294 07:43 03.12.2021
5167 Clouds 14 996 78 10000 5.46 208 06:40 03.12.2021
5168 Clouds 15 997 71 10000 5.53 193 00:49 03.12.2021
5169 Clouds 15 998 69 10000 5.57 187 23:48 02.12.2021
5170 Clouds 15 999 68 10000 5.77 183 22:48 02.12.2021
5171 Clouds 15 999 67 10000 5.48 183 21:41 02.12.2021
5172 Clouds 15 999 67 10000 5.48 183 21:41 02.12.2021
5173 Clouds 15 999 66 10000 5.34 186 20:45 02.12.2021
5174 Clouds 15 999 65 10000 5.35 189 20:22 02.12.2021
5175 Clouds 15 999 65 10000 5.48 192 18:50 02.12.2021
5176 Clouds 16 998 59 10000 6.75 197 16:53 02.12.2021
5177 Clouds 17 999 51 10000 7.17 198 15:41 02.12.2021
5178 Clouds 16 1007 51 10000 1.34 202 14:53 02.12.2021
5179 Clear 18 999 51 10000 6.7 192 13:39 02.12.2021
5180 Clouds 17 1000 54 10000 3.13 208 12:46 02.12.2021
5181 Clouds 17 1001 55 10000 0.89 255 11:45 02.12.2021
5182 Clouds 15 1003 64 10000 0.45 278 09:27 02.12.2021
5183 Clouds 14 1006 67 10000 4.92 135 08:19 02.12.2021
5184 Clear 13 1010 70 10000 0.45 225 01:38 02.12.2021
5185 Clouds 13 1010 70 10000 0.45 273 00:50 02.12.2021
5186 Clouds 13 1010 70 10000 4.7 203 22:33 01.12.2021
5187 Clouds 13 1011 69 10000 4.39 207 21:54 01.12.2021
5188 Clouds 13 1011 71 10000 3.95 209 20:35 01.12.2021
5189 Clouds 13 1011 72 10000 0.45 328 19:47 01.12.2021
5190 Clouds 14 1012 71 10000 4.28 226 18:55 01.12.2021
5191 Clouds 14 1012 70 10000 0.45 251 17:32 01.12.2021
5192 Clouds 14 1012 65 10000 0.45 225 16:36 01.12.2021
5193 Clouds 15 1019 58 10000 3.93 260 14:48 01.12.2021
5194 Clouds 15 1014 56 10000 0.45 262 13:38 01.12.2021
5195 Clouds 14 1015 62 10000 1.34 240 11:26 01.12.2021
5196 Clouds 14 1015 62 10000 0.45 219 10:40 01.12.2021
5197 Clouds 12 1016 69 10000 3.93 234 08:53 01.12.2021
5198 Clouds 12 1016 70 10000 4.09 228 08:26 01.12.2021
5199 Clouds 11 1016 70 10000 4.25 232 07:32 01.12.2021
5200 Clouds 10 1018 68 10000 2.68 315 04:18 01.12.2021
5201 Clouds 10 1016 67 10000 3.65 231 03:38 01.12.2021
5202 Clouds 10 1017 69 10000 3.64 214 00:48 01.12.2021
5203 Clouds 11 1018 66 10000 1.34 331 23:35 30.11.2021
5204 Clouds 11 1018 66 10000 1.34 357 22:42 30.11.2021
5205 Clouds 11 1018 73 10000 4.29 229 20:53 30.11.2021
5206 Clouds 11 1018 72 10000 3.88 239 20:34 30.11.2021
5207 Clouds 11 1018 70 10000 3.78 238 19:51 30.11.2021
5208 Clouds 11 1017 69 10000 0.45 333 19:27 30.11.2021
5209 Clouds 11 1017 65 10000 3.54 272 18:24 30.11.2021
5210 Clouds 12 1016 60 10000 3.94 279 16:34 30.11.2021
5211 Clouds 13 1015 58 10000 4.71 291 14:35 30.11.2021
5212 Clouds 14 1018 51 10000 3.58 315 13:52 30.11.2021
5213 Clouds 14 1015 54 10000 4.4 295 13:24 30.11.2021
5214 Clouds 14 1015 54 10000 4.4 295 13:24 30.11.2021
5215 Clouds 13 1015 56 10000 4.32 308 12:44 30.11.2021
5216 Clouds 13 1015 56 10000 0.89 14 11:27 30.11.2021
5217 Clouds 13 1015 56 10000 0.45 349 10:53 30.11.2021
5218 Clouds 13 1015 56 10000 6.54 320 10:30 30.11.2021
5219 Clouds 12 1016 58 10000 0.89 67 08:51 30.11.2021
5220 Clouds 11 1015 60 10000 4.92 315 08:20 30.11.2021
5221 Clouds 10 1014 62 10000 0.89 346 07:40 30.11.2021
5222 Clouds 10 1007 80 10000 1.34 4 01:58 30.11.2021
5223 Rain 10 1006 78 10000 0.89 280 01:38 30.11.2021
5224 Clouds 9 1007 69 10000 2.68 306 23:57 29.11.2021
5225 Rain 9 1006 74 8891 0.45 298 23:22 29.11.2021
5226 Clouds 10 1006 73 8891 0.45 339 22:48 29.11.2021
5227 Clouds 10 1006 74 6281 0.45 30 22:29 29.11.2021
5228 Rain 9 1004 75 10000 6.71 292 21:22 29.11.2021
5229 Rain 9 1004 78 10000 1.79 19 20:56 29.11.2021
5230 Rain 9 1003 75 10000 1.79 13 20:23 29.11.2021
5231 Rain 9 1002 77 10000 1.34 282 19:54 29.11.2021
5232 Rain 9 1002 77 10000 3.13 359 19:33 29.11.2021
5233 Clouds 9 999 75 10000 0.45 268 18:48 29.11.2021
5234 Clouds 10 1003 76 10000 11.61 258 17:22 29.11.2021
5235 Clouds 10 1003 76 10000 11.62 258 16:59 29.11.2021
5236 Clouds 10 1003 83 4951 10.33 255 16:29 29.11.2021
5237 Clouds 10 1003 83 4947 10.32 255 15:45 29.11.2021
5238 Clouds 10 1003 80 10000 7.66 245 14:42 29.11.2021
5239 Clouds 10 1003 82 5781 10.74 243 13:32 29.11.2021
5240 Clouds 11 1003 73 10000 9.71 246 12:28 29.11.2021
5241 Clouds 11 1004 73 10000 10.93 250 11:35 29.11.2021
5242 Clouds 11 1004 73 10000 10.92 250 10:41 29.11.2021
5243 Clouds 11 1003 80 10000 9.18 232 09:25 29.11.2021
5244 Clouds 10 1001 80 10000 9.69 228 06:20 29.11.2021
5245 Clouds 10 1003 82 10000 5.79 223 01:40 29.11.2021
5246 Rain 11 1004 78 10000 6.93 235 00:39 29.11.2021
5247 Clouds 11 1004 77 10000 6.54 246 23:43 28.11.2021
5248 Clouds 12 1005 77 10000 7.05 253 22:49 28.11.2021
5249 Clouds 13 1004 74 10000 6.56 255 21:47 28.11.2021
5250 Clouds 13 1005 75 10000 6.17 252 21:20 28.11.2021
5251 Clouds 12 1004 74 10000 6.42 255 20:23 28.11.2021
5252 Clouds 14 1003 82 10000 5.84 265 18:46 28.11.2021
5253 Clouds 13 1002 84 10000 7.88 267 18:27 28.11.2021
5254 Clouds 14 1002 84 10000 7.88 267 17:54 28.11.2021
5255 Clouds 14 1002 84 10000 7.88 267 17:31 28.11.2021
5256 Clouds 15 1001 78 10000 8.21 241 16:37 28.11.2021
5257 Clouds 15 1001 71 10000 10.09 242 16:18 28.11.2021
5258 Clouds 16 1001 64 10000 9.42 233 15:31 28.11.2021
5259 Clouds 15 1001 64 10000 9.41 233 14:44 28.11.2021
5260 Clouds 17 1001 64 10000 9.8 222 13:18 28.11.2021
5261 Clouds 17 1001 66 10000 9.7 222 12:46 28.11.2021
5262 Clouds 16 1003 66 10000 9.83 213 10:58 28.11.2021
5263 Clouds 15 1003 65 10000 8.34 212 10:21 28.11.2021
5264 Clouds 15 1003 65 10000 8.34 212 09:37 28.11.2021
5265 Clouds 15 1003 68 10000 6.52 210 07:32 28.11.2021
5266 Clouds 15 1006 81 10000 4.32 199 23:58 27.11.2021
5267 Clouds 14 1006 81 10000 6.06 229 20:57 27.11.2021
5268 Clouds 15 1006 81 10000 6.1 233 19:23 27.11.2021
5269 Clouds 16 1004 77 10000 5.96 232 17:27 27.11.2021
5270 Clouds 16 1004 75 10000 6.03 235 15:57 27.11.2021
5271 Clouds 15 1004 76 10000 5.39 244 13:48 27.11.2021
5272 Clouds 14 1004 79 10000 6.23 243 12:57 27.11.2021
5273 Clouds 13 1005 83 10000 6.94 226 10:52 27.11.2021
5274 Clouds 12 1005 77 10000 7.33 229 09:53 27.11.2021
5275 Rain 16 1005 69 10000 8.66 227 08:43 27.11.2021
5276 Clouds 17 1003 73 10000 6.86 197 06:34 27.11.2021
5277 Clouds 17 1006 74 10000 4.55 188 01:58 27.11.2021
5278 Clouds 16 1007 76 10000 4.74 208 23:38 26.11.2021
5279 Clouds 16 1008 78 10000 6.11 221 22:25 26.11.2021
5280 Clouds 16 1008 78 10000 6.1 221 21:38 26.11.2021
5281 Clouds 15 1008 79 10000 6.65 230 21:18 26.11.2021
5282 Clouds 15 1008 78 10000 7.17 235 20:29 26.11.2021
5283 Clouds 15 1008 78 10000 7.17 235 19:49 26.11.2021
5284 Clouds 15 1007 78 10000 7.8 238 18:43 26.11.2021
5285 Clouds 15 1007 77 10000 7.5 235 17:24 26.11.2021
5286 Clouds 15 1007 77 10000 7.5 235 17:24 26.11.2021
5287 Clouds 17 1007 74 10000 8.35 237 16:29 26.11.2021
5288 Clouds 17 999 65 10000 2.68 310 13:37 26.11.2021
5289 Clouds 17 999 65 10000 2.68 310 12:55 26.11.2021
5290 Clouds 16 999 69 10000 1.34 327 10:42 26.11.2021
5291 Clouds 15 1000 71 10000 0.89 353 09:41 26.11.2021
5292 Clouds 15 999 73 10000 0.45 319 08:49 26.11.2021
5293 Clouds 14 999 76 10000 5.91 228 08:19 26.11.2021
5294 Clouds 13 1003 82 10000 1.34 179 06:29 26.11.2021
5295 Clear 12 999 83 10000 5.13 238 04:52 26.11.2021
5296 Clear 13 1000 83 10000 1.34 40 03:32 26.11.2021
5297 Clouds 13 999 88 10000 4.61 239 23:30 25.11.2021
5298 Clouds 13 1003 92 10000 1.79 338 22:19 25.11.2021
5299 Rain 14 1000 94 10000 0.45 1 20:41 25.11.2021
5300 Clouds 14 999 94 10000 0.45 348 19:21 25.11.2021
5301 Clouds 14 999 93 4898 2.89 253 18:19 25.11.2021
5302 Rain 15 1000 91 9078 2.56 225 17:27 25.11.2021
5303 Clouds 15 999 89 9398 2.53 226 16:44 25.11.2021
5304 Clouds 16 1000 82 10000 2.97 141 15:58 25.11.2021
5305 Clouds 17 1003 70 10000 0.89 225 14:30 25.11.2021
5306 Clouds 18 1004 64 10000 1.79 180 12:55 25.11.2021
5307 Clouds 18 1002 65 10000 3.64 148 11:56 25.11.2021
5308 Clouds 17 1004 70 10000 3.88 151 10:34 25.11.2021
5309 Clouds 15 1004 73 10000 3.53 164 08:21 25.11.2021
5310 Clouds 14 1009 69 10000 1.34 180 02:58 25.11.2021
5311 Clouds 14 1007 75 10000 2.71 175 00:37 25.11.2021
5312 Clouds 15 1008 78 10000 2.4 174 22:29 24.11.2021
5313 Clouds 15 1008 79 10000 2.41 174 21:48 24.11.2021
5314 Clear 15 1008 79 10000 2.3 166 21:22 24.11.2021
5315 Clear 15 1008 83 10000 2.19 162 20:27 24.11.2021
5316 Clouds 16 1009 81 10000 1.99 156 19:36 24.11.2021
5317 Clouds 17 1009 78 10000 1.81 126 18:19 24.11.2021
5318 Clouds 17 1012 77 10000 0.89 225 16:47 24.11.2021
5319 Clouds 19 1012 71 10000 0.45 359 14:58 24.11.2021
5320 Clouds 19 1008 70 10000 0.45 3 14:21 24.11.2021
5321 Clouds 19 1012 69 10000 0.89 315 13:35 24.11.2021
5322 Clouds 19 1012 66 10000 0.89 300 11:34 24.11.2021
5323 Clouds 18 1013 70 10000 1.79 225 10:58 24.11.2021
5324 Clouds 18 1013 74 10000 0.89 315 10:36 24.11.2021
5325 Clouds 17 1013 77 10000 1.79 225 09:33 24.11.2021
5326 Clouds 15 1013 83 10000 1.34 315 07:41 24.11.2021
5327 Clouds 15 1012 82 10000 3.58 248 05:41 24.11.2021
5328 Clouds 15 1012 81 10000 3.58 315 03:44 24.11.2021
5329 Clear 15 1010 81 10000 2.53 210 23:33 23.11.2021
5330 Clear 16 1010 79 10000 2.42 212 22:39 23.11.2021
5331 Clear 15 1009 79 10000 2.56 202 21:45 23.11.2021
5332 Clear 16 1009 78 10000 2.82 191 20:36 23.11.2021
5333 Clear 16 1008 77 10000 2.82 197 19:34 23.11.2021
5334 Clouds 16 1008 76 10000 3.04 219 18:34 23.11.2021
5335 Clouds 17 1008 75 10000 3.23 231 17:57 23.11.2021
5336 Clouds 18 1007 73 10000 3.41 246 16:37 23.11.2021
5337 Clouds 19 1007 65 10000 4.7 258 15:27 23.11.2021
5338 Clouds 17 1015 70 10000 2.68 225 14:56 23.11.2021
5339 Clouds 19 1007 67 10000 3.73 240 13:29 23.11.2021
5340 Clouds 18 1010 71 10000 0.45 338 10:40 23.11.2021
5341 Clouds 17 1007 78 10000 4.17 209 09:48 23.11.2021
5342 Clouds 16 1007 79 10000 4.13 197 08:43 23.11.2021
5343 Clouds 14 1008 82 10000 1.34 0 05:25 23.11.2021
5344 Clouds 16 1009 74 10000 0.45 311 03:37 23.11.2021
5345 Clear 15 1009 75 10000 1.34 225 23:42 22.11.2021
5346 Clear 16 1005 76 10000 3.11 185 23:20 22.11.2021
5347 Clear 15 1008 74 10000 1.79 270 22:31 22.11.2021
5348 Clear 16 1008 74 10000 4.02 180 21:45 22.11.2021
5349 Clear 16 1008 73 10000 2.24 180 21:21 22.11.2021
5350 Clear 16 1008 74 10000 3.58 135 20:43 22.11.2021
5351 Clear 17 1008 73 10000 1.79 180 19:24 22.11.2021
5352 Clear 17 1004 74 10000 2.61 195 18:41 22.11.2021
5353 Clear 17 1004 74 10000 2.61 195 18:41 22.11.2021
5354 Clear 17 1007 74 10000 0.89 90 18:22 22.11.2021
5355 Clear 18 1004 70 10000 2.16 199 16:45 22.11.2021
5356 Clear 20 1003 64 10000 1.95 204 15:39 22.11.2021
5357 Clouds 20 1006 64 10000 2.68 338 12:52 22.11.2021
5358 Clouds 19 1007 69 10000 2.24 270 11:39 22.11.2021
5359 Clouds 18 1007 76 10000 1.79 225 10:27 22.11.2021
5360 Clouds 15 1011 82 10000 3.67 184 08:44 22.11.2021
5361 Clouds 14 1007 87 10000 0.89 225 08:24 22.11.2021
5362 Rain 15 1004 80 10000 3.16 181 01:43 22.11.2021
5363 Clouds 16 1009 73 10000 2.68 270 23:22 21.11.2021
5364 Clouds 16 1009 73 10000 2.68 225 22:46 21.11.2021
5365 Clouds 16 1009 76 10000 1.79 225 21:33 21.11.2021
5366 Clouds 15 1010 77 10000 3.13 225 20:38 21.11.2021
5367 Clouds 16 1007 79 10000 2.84 156 19:43 21.11.2021
5368 Clouds 16 1007 79 10000 2.84 156 19:43 21.11.2021
5369 Clouds 16 1007 82 10000 2.66 150 17:59 21.11.2021
5370 Clouds 16 1007 82 10000 2.66 150 17:36 21.11.2021
5371 Clouds 18 1007 74 10000 2.74 244 15:21 21.11.2021
5372 Clouds 18 1008 71 10000 2.74 244 14:42 21.11.2021
5373 Clouds 18 1008 73 10000 2.83 256 13:31 21.11.2021
5374 Clouds 18 1009 74 10000 0.45 355 12:27 21.11.2021
5375 Clouds 18 1009 75 10000 2.44 248 11:39 21.11.2021
5376 Clouds 18 1010 78 10000 1.43 214 10:20 21.11.2021
5377 Clouds 17 1011 82 10000 1.43 214 09:59 21.11.2021
5378 Clear 14 1011 89 10000 1.2 192 08:35 21.11.2021
5379 Clear 13 1014 91 10000 2.68 315 07:57 21.11.2021
5380 Clear 12 1014 91 10000 0.89 315 07:39 21.11.2021
5381 Clear 13 1011 90 10000 1.02 180 05:47 21.11.2021
5382 Clear 14 1011 90 10000 0.95 194 04:37 21.11.2021
5383 Clear 14 1012 90 10000 1.03 196 03:18 21.11.2021
5384 Clear 14 1013 90 10000 1.03 196 02:42 21.11.2021
5385 Clear 14 1013 90 10000 1.16 187 00:53 21.11.2021
5386 Clear 15 1014 90 10000 1.23 168 23:22 20.11.2021
5387 Clear 15 1015 88 10000 1.13 145 21:39 20.11.2021
5388 Clear 15 1014 87 10000 0.71 129 20:50 20.11.2021
5389 Clear 16 1015 84 10000 0.8 81 18:46 20.11.2021
5390 Clear 16 1015 84 10000 0.8 81 18:46 20.11.2021
5391 Clear 17 1015 84 10000 0.91 54 18:25 20.11.2021
5392 Clear 17 1015 81 10000 1.17 28 17:22 20.11.2021
5393 Clear 17 1015 80 10000 1.17 28 17:22 20.11.2021
5394 Clear 18 1015 78 10000 1.17 28 16:41 20.11.2021
5395 Clear 18 1020 73 10000 0.89 356 14:40 20.11.2021
5396 Clear 17 1024 73 10000 0.89 90 14:21 20.11.2021
5397 Clear 18 1021 73 10000 1.34 6 11:56 20.11.2021
5398 Clear 18 1019 77 10000 1.96 27 10:29 20.11.2021
5399 Clear 16 1019 91 10000 1.7 23 08:57 20.11.2021
5400 Clear 14 1022 92 10000 1.79 315 07:22 20.11.2021
5401 Clear 14 1018 90 10000 1.36 355 05:26 20.11.2021
5402 Clear 15 1019 91 10000 1.38 355 04:50 20.11.2021
5403 Clear 15 1020 88 10000 1.14 15 01:48 20.11.2021
5404 Clear 15 1020 87 10000 1.29 35 00:40 20.11.2021
5405 Clear 15 1020 88 10000 1.67 40 22:55 19.11.2021
5406 Clear 16 1020 88 10000 1.96 36 21:58 19.11.2021
5407 Clear 16 1020 88 10000 2.04 34 20:58 19.11.2021
5408 Clear 16 1020 87 10000 2.04 34 20:36 19.11.2021
5409 Clear 16 1020 86 10000 2.59 33 19:50 19.11.2021
5410 Clouds 17 1020 84 10000 2.48 28 18:54 19.11.2021
5411 Clouds 17 1020 83 10000 2.67 28 18:22 19.11.2021
5412 Clouds 16 1023 82 10000 1.79 270 17:26 19.11.2021
5413 Clouds 18 1022 73 10000 1.34 315 15:32 19.11.2021
5414 Clouds 19 1019 73 10000 3.03 23 13:28 19.11.2021
5415 Clouds 17 1023 84 10000 0.89 90 10:27 19.11.2021
5416 Clouds 17 1022 88 10000 1.34 90 09:37 19.11.2021
5417 Clouds 16 1020 93 10000 2.15 32 08:20 19.11.2021
5418 Clouds 15 1018 93 10000 2.08 23 04:51 19.11.2021
5419 Clouds 15 1018 91 10000 1.84 359 02:35 19.11.2021
5420 Clouds 15 1018 87 10000 1.36 324 23:51 18.11.2021
5421 Clouds 15 1018 84 10000 1.12 279 21:56 18.11.2021
5422 Clouds 15 1017 83 10000 1.34 282 20:49 18.11.2021
5423 Clouds 15 1017 82 10000 1.34 282 20:31 18.11.2021
5424 Clouds 16 1017 81 10000 1.59 278 19:52 18.11.2021
5425 Clouds 16 1017 81 10000 1.59 278 19:33 18.11.2021
5426 Clouds 17 1016 78 10000 1.4 237 18:33 18.11.2021
5427 Clouds 17 1016 77 10000 1.66 264 17:51 18.11.2021
5428 Clouds 18 1015 74 10000 2.17 277 16:45 18.11.2021
5429 Clouds 19 1015 71 10000 2.58 288 15:49 18.11.2021
5430 Clouds 20 1014 64 10000 2.6 292 13:59 18.11.2021
5431 Clouds 19 1014 62 10000 2.29 279 12:34 18.11.2021
5432 Clouds 19 1017 65 10000 2.24 270 11:43 18.11.2021
5433 Clouds 19 1015 64 10000 2.46 228 11:24 18.11.2021
5434 Clouds 18 1014 75 10000 2.79 211 09:59 18.11.2021
5435 Clouds 15 1013 83 10000 2.73 195 07:35 18.11.2021
5436 Clouds 15 1015 83 10000 1.79 0 05:59 18.11.2021
5437 Clouds 15 1015 83 10000 3.13 315 05:39 18.11.2021
5438 Clear 15 1014 80 10000 2.68 315 01:24 18.11.2021
5439 Clear 15 1014 80 10000 1.34 0 01:24 18.11.2021
5440 Clear 15 1014 80 10000 1.79 292 23:25 17.11.2021
5441 Clear 15 1011 81 10000 3.55 209 22:34 17.11.2021
5442 Clear 15 1011 81 10000 3.74 209 21:54 17.11.2021
5443 Clear 15 1011 81 10000 3.74 209 21:34 17.11.2021
5444 Clouds 16 1009 79 10000 3.66 210 19:27 17.11.2021
5445 Clouds 17 1008 75 10000 3.77 220 17:31 17.11.2021
5446 Clouds 19 1006 68 10000 3.65 246 15:23 17.11.2021
5447 Clouds 19 1006 68 10000 2.85 185 12:51 17.11.2021
5448 Clouds 19 1006 65 10000 1.34 350 12:25 17.11.2021
5449 Clouds 18 1007 72 10000 4.16 145 10:51 17.11.2021
5450 Clouds 17 1014 69 10000 3.82 132 09:29 17.11.2021
5451 Clouds 14 1014 76 10000 1.79 45 07:46 17.11.2021
5452 Rain 14 1013 77 10000 1.79 90 06:42 17.11.2021
5453 Rain 14 1009 87 10000 2.54 171 02:47 17.11.2021
5454 Clouds 15 1015 75 10000 1.79 128 23:46 16.11.2021
5455 Clouds 15 1015 67 10000 1.34 225 22:20 16.11.2021
5456 -273 0 0 0 0 0 20:19 16.11.2021
5457 Clouds 15 1013 82 10000 3.59 155 20:18 16.11.2021
5458 Clouds 15 1013 85 10000 3.56 143 18:53 16.11.2021
5459 Clouds 15 1013 85 10000 3.56 143 18:30 16.11.2021
5460 Rain 15 1012 67 10000 3.63 141 17:38 16.11.2021
5461 Rain 16 1012 67 10000 3.64 133 16:37 16.11.2021
5462 Rain 18 1012 65 10000 3.51 142 15:50 16.11.2021
5463 Rain 17 1012 72 10000 2.76 152 15:26 16.11.2021
5464 Clear 20 1009 65 10000 2.68 90 11:29 16.11.2021
5465 Clear 18 1007 71 10000 2.65 145 09:46 16.11.2021
5466 Clear 15 1010 81 10000 0.89 248 08:27 16.11.2021
5467 Clear 15 1013 75 10000 2.66 152 07:32 16.11.2021
5468 Clear 14 1006 82 10000 1.79 160 02:20 16.11.2021
5469 Clouds 15 1007 81 10000 2.25 165 23:22 15.11.2021
5470 Clouds 16 1007 81 10000 2.18 149 22:33 15.11.2021
5471 Clouds 16 1007 80 10000 2.15 149 21:53 15.11.2021
5472 Clouds 16 1007 80 10000 2.07 141 21:28 15.11.2021
5473 Clouds 17 1007 77 10000 2.06 126 19:49 15.11.2021
5474 Clouds 17 1007 75 10000 1.99 109 18:47 15.11.2021
5475 Clouds 18 1006 71 10000 1.3 67 16:54 15.11.2021
5476 Clouds 19 1013 67 10000 1.32 37 15:42 15.11.2021
5477 Clouds 19 1013 65 10000 1.55 27 15:24 15.11.2021
5478 Clouds 20 1007 63 10000 1.14 44 13:32 15.11.2021
5479 Clouds 19 1010 63 10000 1.1 65 11:53 15.11.2021
5480 Clouds 18 1008 73 10000 0.73 184 09:28 15.11.2021
5481 Clouds 16 1010 79 10000 0.45 90 07:55 15.11.2021
5482 Clouds 15 1010 78 10000 0.89 270 05:23 15.11.2021
5483 Clear 16 1008 69 10000 2.65 192 00:18 15.11.2021
5484 Clear 17 1008 70 10000 2.56 191 22:38 14.11.2021
5485 Clear 17 1011 72 10000 3.58 180 20:32 14.11.2021
5486 Clear 18 1007 72 10000 2.38 150 19:18 14.11.2021
5487 Clear 17 1010 72 10000 0.89 225 18:54 14.11.2021
5488 Clear 17 1007 71 10000 2.38 150 18:36 14.11.2021
5489 Clear 18 1007 71 10000 2.18 140 18:18 14.11.2021
5490 Clear 18 1007 71 10000 2.18 140 17:57 14.11.2021
5491 Clear 18 1007 69 10000 2.18 140 17:39 14.11.2021
5492 Clear 18 1010 70 10000 0.89 90 17:21 14.11.2021
5493 Clear 19 1007 66 10000 1.89 134 16:49 14.11.2021
5494 Clear 19 1009 66 10000 1.76 122 16:21 14.11.2021
5495 Clear 20 1009 59 10000 1.76 122 15:46 14.11.2021
5496 Clear 19 1015 60 10000 0.89 90 15:18 14.11.2021
5497 Clear 20 1015 53 10000 0.45 90 14:32 14.11.2021
5498 Clear 21 1015 51 10000 0.89 315 13:59 14.11.2021
5499 Clear 21 1015 49 10000 0.45 0 13:40 14.11.2021
5500 Clear 21 1010 51 10000 0.92 114 12:45 14.11.2021
5501 Clear 20 1010 51 10000 0.45 225 12:18 14.11.2021
5502 Clear 20 1011 58 10000 1.34 90 10:50 14.11.2021
5503 Clear 19 1011 59 10000 1.34 90 10:27 14.11.2021
5504 Clear 17 1012 62 10000 0.89 225 08:57 14.11.2021
5505 Clear 16 1012 65 10000 0.89 225 08:23 14.11.2021
5506 Clear 16 1017 51 10000 3.13 270 02:20 14.11.2021
5507 Clouds 16 1017 58 10000 2.1 182 22:27 13.11.2021
5508 Clouds 15 1011 65 10000 2.1 182 21:57 13.11.2021
5509 Clouds 15 1011 66 10000 2.13 174 21:27 13.11.2021
5510 Clouds 16 1011 70 10000 2.02 168 20:24 13.11.2021
5511 Clear 16 1013 67 10000 0.45 90 18:48 13.11.2021
5512 Clear 16 1014 69 10000 0.89 270 18:26 13.11.2021
5513 Clear 18 1010 65 10000 0.74 140 16:48 13.11.2021
5514 Clear 20 1013 55 10000 0.89 90 15:42 13.11.2021
5515 Clear 21 1010 55 10000 0.22 330 14:36 13.11.2021
5516 Clear 21 1010 54 10000 0.52 292 13:46 13.11.2021
5517 Clouds 20 1014 52 10000 0.89 90 12:38 13.11.2021
5518 Clouds 20 1015 52 10000 0.89 270 11:45 13.11.2021
5519 Clouds 19 1015 56 10000 1.34 90 10:48 13.11.2021
5520 Clouds 19 1015 59 10000 1.34 90 10:29 13.11.2021
5521 Clouds 17 1015 66 10000 0.89 90 09:42 13.11.2021
5522 Clouds 16 1015 70 10000 0.89 90 09:18 13.11.2021
5523 Clouds 16 1018 67 10000 1.26 176 08:40 13.11.2021
5524 Clouds 15 1017 65 10000 1.43 184 06:55 13.11.2021
5525 Clouds 14 1019 64 10000 2.24 315 04:34 13.11.2021
5526 Clouds 14 1012 88 10000 1.55 168 01:55 13.11.2021
5527 Clouds 15 1011 87 10000 2.29 163 23:27 12.11.2021
5528 Clouds 15 1012 83 10000 2.43 152 21:51 12.11.2021
5529 Clouds 15 1012 80 10000 2.19 130 20:20 12.11.2021
5530 Clouds 16 1012 77 10000 2.19 130 19:31 12.11.2021
5531 Clouds 16 1012 76 10000 2.03 120 18:53 12.11.2021
5532 Clear 17 1011 71 10000 1.73 108 17:34 12.11.2021
5533 Clear 19 1011 61 10000 1.48 60 15:51 12.11.2021
5534 Clouds 20 1011 55 10000 0.69 15 13:26 12.11.2021
5535 Clouds 19 1014 50 10000 1.79 90 11:23 12.11.2021
5536 Clouds 17 1015 60 10000 0.89 225 09:54 12.11.2021
5537 Clouds 15 1020 57 10000 0.45 225 08:50 12.11.2021
5538 Clouds 13 1019 60 10000 1.34 270 06:35 12.11.2021
5539 Clear 15 1018 68 10000 2.07 206 23:55 11.11.2021
5540 Clear 14 1012 86 10000 2.15 204 22:49 11.11.2021
5541 Clear 15 1012 88 10000 2.15 199 21:43 11.11.2021
5542 Clear 15 1012 88 10000 2.14 182 20:52 11.11.2021
5543 Clear 16 1012 93 10000 2.61 158 19:48 11.11.2021
5544 Clouds 16 1011 94 10000 3.21 130 18:25 11.11.2021
5545 Clouds 17 1011 94 10000 3.2 130 17:40 11.11.2021
5546 Clouds 19 1010 93 10000 2.37 98 15:29 11.11.2021
5547 Clouds 18 1010 95 10000 0.45 223 14:39 11.11.2021
5548 Clouds 18 1011 95 10000 1.7 113 14:20 11.11.2021
5549 Clouds 17 1011 94 10000 1.7 113 13:35 11.11.2021
5550 Rain 16 1012 93 3086 2.16 231 12:26 11.11.2021
5551 Clouds 16 1013 93 5118 1.66 227 09:55 11.11.2021
5552 Rain 16 1013 92 10000 0.45 247 08:47 11.11.2021
5553 Clouds 16 1012 90 10000 2.21 135 06:55 11.11.2021
5554 Rain 17 1013 97 10000 2.76 140 00:38 11.11.2021
5555 Rain 17 1014 95 10000 2.45 168 22:42 10.11.2021
5556 Rain 17 1014 97 10000 2.72 171 21:53 10.11.2021
5557 Rain 17 1013 97 10000 2.48 170 20:55 10.11.2021
5558 Rain 17 1012 95 10000 1.77 161 20:18 10.11.2021
5559 Rain 17 1020 94 10000 2.59 165 19:39 10.11.2021
5560 Rain 17 1018 77 10000 3.24 90 17:22 10.11.2021
5561 Rain 16 1018 71 10000 3.86 103 15:46 10.11.2021
5562 Rain 18 1018 69 10000 4.86 103 14:24 10.11.2021
5563 Clouds 19 1012 94 10000 4.86 103 13:37 10.11.2021
5564 Clouds 19 1019 83 10000 4.51 116 12:24 10.11.2021
5565 Clouds 18 1014 89 10000 4.19 127 09:21 10.11.2021
5566 Clouds 18 1019 82 10000 4.19 127 08:41 10.11.2021
5567 Clouds 16 1012 92 10000 4.58 131 06:50 10.11.2021
5568 Clouds 17 1012 92 10000 4.41 133 05:58 10.11.2021
5569 Clouds 17 1013 93 10000 5.06 135 04:58 10.11.2021
5570 Clouds 17 1018 87 10000 2.47 132 22:29 09.11.2021
5571 Clouds 17 1012 94 10000 2.64 144 20:50 09.11.2021
5572 Clouds 17 1012 95 10000 3.56 121 19:36 09.11.2021
5573 Clouds 17 1012 96 10000 3.5 117 18:50 09.11.2021
5574 Clouds 17 1012 95 10000 2.84 125 17:22 09.11.2021
5575 Rain 18 1011 96 10000 3.19 134 15:37 09.11.2021
5576 Rain 18 1010 96 10000 3.32 119 13:53 09.11.2021
5577 Rain 18 1010 95 10000 2.61 142 12:49 09.11.2021
5578 Rain 18 1009 94 10000 2.48 152 11:33 09.11.2021
5579 Rain 18 1010 94 10000 2.36 156 10:30 09.11.2021
5580 Rain 18 1009 92 10000 1.5 113 09:21 09.11.2021
5581 Clouds 18 1008 91 10000 1.45 92 07:55 09.11.2021
5582 Clouds 17 1007 90 10000 1.69 60 03:45 09.11.2021
5583 Clouds 17 1007 91 10000 1.84 27 01:58 09.11.2021
5584 Clouds 17 1007 91 10000 1.84 27 01:36 09.11.2021
5585 Clouds 17 1006 93 8376 1.18 331 23:32 08.11.2021
5586 Clouds 17 1006 93 8030 1.14 332 22:47 08.11.2021
5587 Clouds 17 1006 93 9793 1.43 295 21:45 08.11.2021
5588 Clouds 17 1006 93 10000 1.93 343 20:36 08.11.2021
5589 Clouds 18 1006 94 10000 1.89 344 19:43 08.11.2021
5590 Clouds 18 1005 95 10000 2.61 325 17:48 08.11.2021
5591 Clouds 18 1004 96 10000 2.91 298 15:58 08.11.2021
5592 Clouds 18 1004 96 10000 2.84 283 14:57 08.11.2021
5593 Clouds 18 1003 96 10000 2.84 283 14:34 08.11.2021
5594 Clouds 18 1004 96 10000 1.34 248 13:20 08.11.2021
5595 Clouds 17 1004 96 10000 0.76 183 11:55 08.11.2021
5596 Clouds 17 1005 94 10000 1.29 110 10:50 08.11.2021
5597 Clouds 18 1005 93 10000 2.85 114 09:31 08.11.2021
5598 Clouds 17 1005 94 10000 2.79 115 08:52 08.11.2021
5599 Clouds 16 1005 95 10000 0.45 357 06:57 08.11.2021
5600 Clouds 17 1006 96 10000 3.42 40 03:38 08.11.2021
5601 Clouds 17 1006 96 10000 1.49 318 03:19 08.11.2021
5602 Clouds 20 1007 93 10000 0.71 86 23:43 07.11.2021
5603 Rain 20 1008 92 10000 1.08 199 21:42 07.11.2021
5604 Clouds 20 1007 91 10000 0.61 328 20:51 07.11.2021
5605 Clouds 21 1006 83 10000 0.45 249 19:22 07.11.2021
5606 Clouds 22 1006 79 10000 2.56 199 17:49 07.11.2021
5607 Clouds 23 1015 67 10000 1.79 45 16:49 07.11.2021
5608 Clouds 23 1015 63 10000 3.58 135 15:44 07.11.2021
5609 Clouds 24 1014 61 10000 0.89 225 14:28 07.11.2021
5610 Clouds 24 1015 59 10000 1.79 135 12:57 07.11.2021
5611 Clouds 24 1015 57 10000 1.79 90 11:42 07.11.2021
5612 Clouds 24 1009 51 10000 0.89 246 09:26 07.11.2021
5613 Clear 22 1005 50 10000 3.36 166 06:46 07.11.2021
5614 Clear 22 1008 49 10000 4.02 68 02:32 07.11.2021
5615 Clear 22 1006 65 10000 4.62 150 23:22 06.11.2021
5616 Clear 21 1005 75 10000 4.59 150 22:42 06.11.2021
5617 Clear 20 1009 74 10000 0.89 338 21:32 06.11.2021
5618 Clear 20 1008 78 10000 2.24 315 20:50 06.11.2021
5619 Clouds 19 1009 89 10000 0.89 270 18:56 06.11.2021
5620 Rain 20 1007 90 10000 3.48 93 16:44 06.11.2021
5621 Clouds 21 1008 94 10000 4.79 78 14:37 06.11.2021
5622 Rain 20 1011 95 10000 0.45 90 13:38 06.11.2021
5623 Rain 20 1011 95 10000 0.45 90 13:38 06.11.2021
5624 Clouds 20 1012 94 10000 2.68 90 11:25 06.11.2021
5625 Clouds 19 1009 95 10000 3.05 121 09:22 06.11.2021
5626 Clouds 19 1008 94 10000 1.78 76 04:57 06.11.2021
5627 Clouds 19 1008 94 10000 2.52 66 01:27 06.11.2021
5628 Clouds 19 1008 93 10000 2.45 97 23:34 05.11.2021
5629 Clouds 19 1008 93 10000 2.64 84 22:33 05.11.2021
5630 Clouds 19 1008 92 10000 2.43 67 20:50 05.11.2021
5631 Clouds 19 1008 92 10000 2.97 62 20:19 05.11.2021
5632 Clouds 19 1008 92 10000 3.09 50 19:37 05.11.2021
5633 Clouds 19 1007 92 10000 2.34 45 18:39 05.11.2021
5634 Clouds 20 1007 92 10000 3.21 66 17:26 05.11.2021
5635 Clouds 21 1007 89 10000 2.25 75 15:20 05.11.2021
5636 Clouds 21 1007 86 10000 2.33 67 13:35 05.11.2021
5637 Clouds 21 1007 83 10000 1.67 40 10:37 05.11.2021
5638 Clouds 19 1007 91 10000 1 140 08:39 05.11.2021
5639 Clouds 18 1007 92 10000 0.76 84 07:21 05.11.2021
5640 Clouds 18 1006 92 10000 0.67 340 04:43 05.11.2021
5641 Clouds 18 1006 92 10000 2.42 152 02:24 05.11.2021
5642 Clouds 18 1006 93 10000 2.79 135 00:40 05.11.2021
5643 Clouds 18 1006 92 10000 2.04 94 22:59 04.11.2021
5644 Clouds 18 1006 92 10000 1.98 68 22:19 04.11.2021
5645 Clouds 18 1006 93 10000 2.42 48 21:32 04.11.2021
5646 Clouds 18 1006 93 10000 2.37 48 20:40 04.11.2021
5647 Clouds 18 1006 93 10000 2.74 41 20:20 04.11.2021
5648 Clouds 18 1005 92 10000 2.74 41 19:40 04.11.2021
5649 Clouds 18 1005 91 10000 2.81 50 18:44 04.11.2021
5650 Clouds 19 1005 86 10000 2.9 49 17:37 04.11.2021
5651 Clouds 19 1004 83 10000 2.69 44 16:41 04.11.2021
5652 Clouds 20 1006 80 10000 0.45 90 14:28 04.11.2021
5653 Clouds 21 1004 75 10000 2.36 38 12:32 04.11.2021
5654 Clouds 21 1005 72 10000 1.86 52 09:31 04.11.2021
5655 Clouds 20 1005 70 10000 1.78 73 08:30 04.11.2021
5656 Clouds 20 1004 70 10000 0.82 342 07:34 04.11.2021
5657 Clouds 24 1007 62 10000 6.97 173 23:59 03.11.2021
5658 Clouds 24 1007 59 10000 7.26 172 22:50 03.11.2021
5659 Clouds 23 1007 62 10000 7.33 174 21:48 03.11.2021
5660 Clouds 24 1007 63 10000 7.26 168 21:28 03.11.2021
5661 Clouds 24 1007 63 10000 6.78 168 20:35 03.11.2021
5662 Clouds 23 1007 63 10000 5.89 170 19:58 03.11.2021
5663 Clear 23 1007 64 10000 5.67 167 18:56 03.11.2021
5664 Clear 24 1003 59 10000 2.68 270 18:21 03.11.2021
5665 Clear 24 1003 60 10000 0.89 234 17:35 03.11.2021
5666 Clear 24 1003 61 10000 1.34 223 16:25 03.11.2021
5667 Clear 24 1010 60 10000 7.15 248 15:42 03.11.2021
5668 Clear 25 1004 61 10000 0.89 244 13:55 03.11.2021
5669 Clear 24 1005 65 10000 1.79 212 11:54 03.11.2021
5670 Clear 24 1005 66 10000 1.34 222 11:25 03.11.2021
5671 Clear 23 1006 67 10000 1.34 220 10:41 03.11.2021
5672 Clear 23 1006 65 10000 1.79 224 09:30 03.11.2021
5673 Clear 22 1006 67 10000 1.79 197 08:22 03.11.2021
5674 Clear 21 1006 70 10000 0.45 265 07:39 03.11.2021
5675 Clouds 19 1007 79 10000 4.47 180 04:45 03.11.2021
5676 Clouds 19 1008 72 10000 1.79 248 02:28 03.11.2021
5677 Clouds 19 1009 76 10000 4.47 292 23:47 02.11.2021
5678 Clouds 19 1006 73 10000 3.49 194 22:35 02.11.2021
5679 Clouds 19 1009 72 10000 2.68 180 21:25 02.11.2021
5680 Clouds 19 1009 68 10000 1.79 315 20:32 02.11.2021
5681 Clouds 19 1009 67 10000 1.79 270 19:51 02.11.2021
5682 Clouds 19 1009 67 10000 2.22 195 18:59 02.11.2021
5683 Clouds 20 1006 62 10000 1.8 227 17:59 02.11.2021
5684 Clear 19 1009 62 10000 2.24 315 17:38 02.11.2021
5685 Clear 22 1006 56 10000 3.14 274 16:30 02.11.2021
5686 Clear 22 1012 58 10000 3.14 274 15:30 02.11.2021
5687 Clear 22 1012 57 10000 4.21 275 14:22 02.11.2021
5688 Clear 22 1006 56 10000 0.45 336 13:27 02.11.2021
5689 Clear 22 1006 59 10000 0.45 26 12:39 02.11.2021
5690 Clear 21 1006 60 10000 0.45 60 11:33 02.11.2021
5691 Clear 21 1006 61 10000 0.45 334 10:52 02.11.2021
5692 Clear 21 1006 60 10000 0.89 310 10:26 02.11.2021
5693 Clear 20 1006 63 10000 0.45 256 08:43 02.11.2021
5694 Clouds 19 1005 68 10000 5.53 263 06:53 02.11.2021
5695 Clouds 20 1002 67 10000 1.34 335 03:49 02.11.2021
5696 Clouds 21 1002 71 10000 1.79 314 02:21 02.11.2021
5697 Clouds 22 1001 76 8869 1.79 292 22:47 01.11.2021
5698 Clouds 22 1001 82 10000 1.34 6 21:23 01.11.2021
5699 Clouds 22 1001 79 10000 0.45 208 20:38 01.11.2021
5700 Clouds 22 1008 78 10000 5.63 206 19:55 01.11.2021
5701 Clouds 22 1001 79 10000 1.34 216 19:29 01.11.2021
5702 Clouds 22 1000 82 10000 0.45 348 18:21 01.11.2021
5703 Clouds 22 1004 81 10000 1.34 328 17:21 01.11.2021
5704 Clouds 22 1004 79 10000 1.34 247 16:50 01.11.2021
5705 Clouds 22 1004 72 10000 3.58 315 15:47 01.11.2021
5706 Clouds 23 1004 70 10000 0.45 90 15:21 01.11.2021
5707 Clouds 23 1004 70 10000 0.45 234 15:21 01.11.2021
5708 Clouds 22 1009 72 10000 2.24 270 14:42 01.11.2021
5709 Clouds 22 1009 70 10000 5.36 225 14:20 01.11.2021
5710 Clouds 22 1010 70 10000 3.13 315 13:25 01.11.2021
5711 Clouds 23 1005 72 10000 2.24 225 12:25 01.11.2021
5712 Clouds 22 1006 82 10000 2.68 315 10:33 01.11.2021
5713 Clouds 20 1007 89 10000 1.79 270 09:25 01.11.2021
5714 Clouds 18 1006 90 10000 2.24 315 07:49 01.11.2021
5715 Clouds 17 1006 90 10000 3.13 248 05:57 01.11.2021
5716 Clouds 17 1006 91 10000 1.79 270 03:44 01.11.2021
5717 Clouds 17 1006 93 10000 2.89 148 00:27 01.11.2021
5718 Clouds 17 1009 92 10000 2.55 165 21:55 31.10.2021
5719 Clouds 17 1007 94 10000 0.45 352 20:36 31.10.2021
5720 Rain 17 1008 92 9537 2.72 170 18:57 31.10.2021
5721 Rain 17 1008 92 9537 2.72 170 18:35 31.10.2021
5722 Rain 17 1008 89 10000 2.5 184 16:53 31.10.2021
5723 Rain 18 1009 81 10000 2.08 209 15:41 31.10.2021
5724 Clouds 20 1011 73 10000 1.79 135 13:38 31.10.2021
5725 Clouds 21 1009 70 10000 1.83 216 12:44 31.10.2021
5726 Clouds 20 1011 76 10000 2.35 220 10:57 31.10.2021
5727 Clouds 20 1011 78 10000 2.35 220 10:36 31.10.2021
5728 Clouds 19 1011 86 10000 3 222 09:19 31.10.2021
5729 Clouds 17 1011 88 10000 2.03 240 06:59 31.10.2021
5730 Clouds 17 1014 88 10000 0.89 315 00:48 31.10.2021
5731 Clouds 18 1012 89 10000 0.38 45 22:33 30.10.2021
5732 Clouds 18 1012 88 10000 0.32 122 21:33 30.10.2021
5733 Clouds 19 1011 92 10000 0.91 99 20:21 30.10.2021
5734 Clouds 19 1011 81 10000 0.58 47 18:36 30.10.2021
5735 Clouds 21 1010 72 10000 1.6 65 16:42 30.10.2021
5736 Clouds 20 1018 70 10000 3.13 90 14:43 30.10.2021
5737 Clouds 20 1013 69 10000 1.79 135 13:39 30.10.2021
5738 Clouds 20 1013 70 10000 1.79 112 13:21 30.10.2021
5739 Clouds 20 1012 74 10000 0.45 347 11:51 30.10.2021
5740 Clouds 20 1011 74 10000 1.97 73 11:32 30.10.2021
5741 Clouds 19 1014 78 10000 0.89 90 10:24 30.10.2021
5742 Clouds 17 1011 90 10000 2.06 52 08:48 30.10.2021
5743 Clouds 16 1010 90 10000 2.31 32 06:26 30.10.2021
5744 Clouds 17 1010 90 10000 2.31 32 05:39 30.10.2021
5745 Clouds 16 1010 92 10000 3.96 45 00:43 30.10.2021
5746 Clouds 16 1010 92 10000 1.98 83 22:37 29.10.2021
5747 Clouds 16 1010 91 10000 2.3 76 21:52 29.10.2021
5748 Rain 16 1010 92 10000 2.44 52 20:44 29.10.2021
5749 Rain 16 1010 93 2316 4.68 16 19:49 29.10.2021
5750 Rain 16 1009 93 8905 3.17 351 18:27 29.10.2021
5751 Rain 16 1009 92 10000 2.42 352 16:51 29.10.2021
5752 Clouds 16 1016 94 4024 1.34 90 14:32 29.10.2021
5753 Clouds 17 1016 82 8350 3.16 41 10:57 29.10.2021
5754 Clouds 17 1010 91 8350 3.16 41 10:34 29.10.2021
5755 Clouds 16 1009 91 10000 3.81 40 08:19 29.10.2021
5756 Clouds 18 1010 81 10000 1.77 80 00:36 29.10.2021
5757 Clouds 17 1010 82 10000 1.76 80 00:36 29.10.2021
5758 Clouds 18 1011 80 10000 0.97 99 22:54 28.10.2021
5759 Clouds 18 1011 78 10000 1.24 73 21:55 28.10.2021
5760 Clouds 18 1011 77 10000 1.39 55 20:29 28.10.2021
5761 Clouds 19 1011 75 10000 1.87 73 19:46 28.10.2021
5762 Clouds 19 1011 70 10000 2.04 46 18:18 28.10.2021
5763 Clouds 20 1011 62 10000 1.73 23 16:58 28.10.2021
5764 Clouds 20 1019 72 10000 1.79 90 15:20 28.10.2021
5765 Clouds 21 1011 74 10000 1.73 15 13:45 28.10.2021
5766 Clouds 21 1012 74 10000 1.28 12 13:21 28.10.2021
5767 Clouds 21 1012 76 10000 1.28 12 12:39 28.10.2021
5768 Clouds 20 1012 85 10000 0.86 46 10:54 28.10.2021
5769 Clouds 18 1012 88 10000 0.67 51 09:38 28.10.2021
5770 Clouds 17 1012 88 10000 0.39 59 08:58 28.10.2021
5771 Clouds 17 1012 88 10000 0.39 59 08:34 28.10.2021
5772 Clouds 17 1012 87 10000 0.69 116 04:48 28.10.2021
5773 Clouds 18 1013 89 10000 1.7 119 23:50 27.10.2021
5774 Clouds 19 1013 83 10000 1.81 128 22:31 27.10.2021
5775 Clouds 19 1013 82 10000 1.8 128 21:33 27.10.2021
5776 Clouds 19 1013 80 10000 2.3 122 20:53 27.10.2021
5777 Clouds 19 1013 79 10000 0.58 235 19:57 27.10.2021
5778 Clouds 19 1013 79 10000 0.58 235 19:38 27.10.2021
5779 Clouds 20 1013 78 10000 1.16 167 18:39 27.10.2021
5780 Clouds 21 1012 71 10000 2 136 16:27 27.10.2021
5781 Clouds 22 1017 71 10000 1.98 136 15:32 27.10.2021
5782 Clouds 22 1012 73 10000 2.4 123 14:40 27.10.2021
5783 Clouds 21 1014 76 10000 2.15 116 12:32 27.10.2021
5784 Clouds 21 1013 84 10000 1.67 120 10:58 27.10.2021
5785 Clouds 20 1014 89 10000 2.18 89 09:51 27.10.2021
5786 Clouds 18 1013 92 10000 3.38 79 08:22 27.10.2021
5787 Clouds 18 1013 91 10000 3.62 81 07:22 27.10.2021
5788 Clouds 18 1012 92 10000 3.51 66 02:24 27.10.2021
5789 Rain 18 1013 93 10000 4.75 64 00:56 27.10.2021
5790 Rain 18 1012 93 8232 4.59 67 00:28 27.10.2021
5791 Rain 18 1012 93 8232 4.59 67 00:28 27.10.2021
5792 Clouds 18 1012 91 8232 4.59 67 23:41 26.10.2021
5793 Clouds 18 1012 92 10000 4.25 75 22:38 26.10.2021
5794 Clouds 18 1012 92 10000 4.06 85 21:59 26.10.2021
5795 Clouds 19 1012 92 10000 3.48 90 20:36 26.10.2021
5796 Clouds 19 1012 91 10000 0.65 91 19:30 26.10.2021
5797 Clouds 19 1011 91 10000 0.83 72 18:41 26.10.2021
5798 Clouds 20 1010 88 10000 2.51 61 16:28 26.10.2021
5799 Clouds 21 1009 87 10000 0.89 358 14:30 26.10.2021
5800 Clouds 21 1010 83 10000 4.66 57 11:34 26.10.2021
5801 Clouds 20 1010 89 10000 5.06 76 10:20 26.10.2021
5802 Rain 18 1009 91 10000 4.16 66 07:25 26.10.2021
5803 Rain 18 1009 91 10000 4.16 66 06:40 26.10.2021
5804 Clouds 19 1009 92 10000 2.54 42 23:50 25.10.2021
5805 Clouds 19 1009 91 10000 3.59 64 22:54 25.10.2021
5806 Clouds 19 1009 89 10000 4.52 69 22:19 25.10.2021
5807 Clouds 19 1012 89 10000 1.34 45 21:39 25.10.2021
5808 Clouds 20 1008 86 10000 3.6 80 19:53 25.10.2021
5809 Clouds 20 1011 86 10000 4.68 86 19:25 25.10.2021
5810 Clouds 20 1010 86 10000 4.68 86 18:54 25.10.2021
5811 Clouds 21 1007 82 10000 4.32 76 18:19 25.10.2021
5812 Rain 21 1007 78 10000 3.93 55 16:18 25.10.2021
5813 Clouds 22 1007 78 8126 0.89 4 14:28 25.10.2021
5814 Clouds 22 1008 81 10000 5 69 12:30 25.10.2021
5815 Clouds 20 1008 89 10000 5.37 90 10:20 25.10.2021
5816 Clouds 19 1007 90 10000 5.97 87 08:34 25.10.2021
5817 Clouds 19 1007 88 10000 4.58 93 06:24 25.10.2021
5818 Clouds 18 1012 80 10000 3 113 00:58 25.10.2021
5819 Rain 18 1012 80 10000 3 113 00:37 25.10.2021
5820 Rain 18 1012 81 10000 3.95 109 23:47 24.10.2021
5821 Rain 18 1012 81 10000 3.95 109 23:47 24.10.2021
5822 Rain 18 1013 79 10000 3.45 103 22:56 24.10.2021
5823 Clouds 18 1013 79 10000 3.45 103 22:31 24.10.2021
5824 Rain 18 1012 77 10000 2.86 103 21:57 24.10.2021
5825 Rain 17 1015 80 10000 1.79 292 20:45 24.10.2021
5826 Rain 16 1015 84 10000 4.02 315 20:23 24.10.2021
5827 Rain 22 1006 79 10000 2.97 91 18:52 24.10.2021
5828 Clouds 22 1006 76 10000 3.07 101 17:57 24.10.2021
5829 Clouds 23 1006 71 10000 3.19 100 16:52 24.10.2021
5830 Clouds 23 1007 74 10000 1.89 94 15:37 24.10.2021
5831 Clouds 24 1007 75 10000 2.64 62 13:49 24.10.2021
5832 Clouds 24 1008 77 10000 2.42 69 12:41 24.10.2021
5833 Clouds 23 1008 77 10000 2.68 81 11:40 24.10.2021
5834 Clouds 23 1008 83 10000 2.71 112 10:43 24.10.2021
5835 Clouds 22 1009 90 10000 2.45 126 09:38 24.10.2021
5836 Clouds 20 1008 89 10000 2.4 86 05:35 24.10.2021
5837 Clouds 21 1011 94 10000 2.41 84 00:40 24.10.2021
5838 Clouds 21 1012 93 10000 3.35 65 23:24 23.10.2021
5839 Clouds 22 1011 90 10000 3.05 86 21:45 23.10.2021
5840 Clouds 22 1011 88 10000 2.8 91 19:39 23.10.2021
5841 Clouds 22 1011 83 10000 2.77 96 18:46 23.10.2021
5842 Clouds 22 1011 83 10000 2.77 96 18:46 23.10.2021
5843 Clouds 23 1011 76 10000 2.71 92 17:48 23.10.2021
5844 Clouds 23 1011 75 10000 2.72 94 17:26 23.10.2021
5845 Clouds 24 1011 70 10000 2.67 96 16:18 23.10.2021
5846 Clouds 24 1014 68 10000 2.24 90 13:51 23.10.2021
5847 Clouds 20 1014 78 10000 1.61 165 02:36 23.10.2021
5848 Clouds 20 1015 77 10000 0.89 315 23:41 22.10.2021
5849 Clouds 22 1011 71 10000 2.42 189 21:39 22.10.2021
5850 Clouds 23 1014 66 10000 0.89 45 19:49 22.10.2021
5851 Clouds 24 1013 63 10000 0.89 0 18:33 22.10.2021
5852 Clouds 25 1013 56 10000 3.58 270 17:19 22.10.2021
5853 Clouds 25 1018 53 10000 2.24 315 14:58 22.10.2021
5854 Clouds 25 1019 52 10000 3.58 180 12:53 22.10.2021
5855 Clouds 25 1014 58 10000 0.89 234 10:58 22.10.2021
5856 Clouds 24 1014 58 10000 0.45 214 10:36 22.10.2021
5857 Clouds 23 1014 62 10000 0.45 265 09:36 22.10.2021
5858 Clouds 22 1010 66 10000 0.45 223 07:46 22.10.2021
5859 Clouds 22 1010 66 10000 0.45 213 07:21 22.10.2021
5860 Clouds 21 1012 69 10000 3.39 183 02:37 22.10.2021
5861 Clouds 22 1011 68 10000 0.45 207 02:37 22.10.2021
5862 Clouds 21 1012 69 10000 3.39 183 02:37 22.10.2021
5863 Clear 20 1016 72 10000 5.36 225 23:51 21.10.2021
5864 Clear 20 1013 70 10000 3.28 180 22:47 21.10.2021
5865 Clear 20 1016 68 10000 3.13 225 21:39 21.10.2021
5866 Clear 20 1016 65 10000 2.68 270 20:26 21.10.2021
5867 Clear 20 1016 64 10000 1.34 158 19:56 21.10.2021
5868 Clear 21 1016 63 10000 0.45 225 19:26 21.10.2021
5869 Clear 22 1016 58 10000 2.02 146 18:34 21.10.2021
5870 Clear 22 1016 54 10000 0.89 225 17:53 21.10.2021
5871 Clear 23 1017 49 10000 1.79 180 17:18 21.10.2021
5872 Clear 24 1022 46 10000 1.79 68 15:33 21.10.2021
5873 Clear 24 1017 45 10000 0.89 90 14:57 21.10.2021
5874 Clear 24 1017 47 10000 0.45 193 14:37 21.10.2021
5875 Clear 23 1018 51 10000 0.89 249 12:37 21.10.2021
5876 Clear 20 1020 64 10000 0.45 337 09:55 21.10.2021
5877 Clear 18 1020 74 10000 0.45 315 08:20 21.10.2021
5878 Clear 17 1020 76 10000 1.34 315 06:54 21.10.2021
5879 Clear 17 1022 87 10000 2.19 199 00:51 21.10.2021
5880 Clear 18 1020 87 10000 1.85 177 22:41 20.10.2021
5881 Clear 18 1020 84 10000 1.69 166 21:51 20.10.2021
5882 Clear 19 1021 83 10000 1.33 152 21:18 20.10.2021
5883 Clear 19 1021 81 10000 1.33 152 20:39 20.10.2021
5884 Clouds 18 1023 83 10000 0.76 122 20:21 20.10.2021
5885 Clouds 18 1023 81 10000 0.45 90 19:26 20.10.2021
5886 Clouds 20 1021 77 10000 0.88 75 18:45 20.10.2021
5887 Clouds 19 1021 77 10000 0.88 74 18:45 20.10.2021
5888 Clouds 20 1021 76 10000 1.45 348 17:36 20.10.2021
5889 Clouds 21 1024 71 10000 0.89 90 15:26 20.10.2021
5890 Clear 20 1023 79 10000 0.75 210 10:21 20.10.2021
5891 Clouds 15 1028 81 10000 0.82 204 07:43 20.10.2021
5892 Clear 16 1023 90 10000 1.39 189 02:38 20.10.2021
5893 Clear 16 1023 89 10000 1.21 167 00:34 20.10.2021
5894 Clear 17 1023 90 10000 1.46 162 23:32 19.10.2021
5895 Clear 17 1023 85 10000 1.2 115 21:40 19.10.2021
5896 Clear 18 1023 83 10000 1.36 97 20:36 19.10.2021
5897 Clouds 18 1023 82 10000 1.71 67 20:18 19.10.2021
5898 Clouds 19 1023 80 10000 1.76 66 19:37 19.10.2021
5899 Clouds 19 1022 77 10000 1.95 58 18:45 19.10.2021
5900 Clouds 20 1022 75 10000 1.8 69 17:56 19.10.2021
5901 Clouds 21 1022 71 10000 2.65 35 15:31 19.10.2021
5902 Clouds 21 1022 73 10000 0.45 21 14:46 19.10.2021
5903 Clouds 21 1022 73 10000 0.45 21 14:46 19.10.2021
5904 Clouds 21 1024 75 10000 0.89 180 13:56 19.10.2021
5905 Clouds 21 1023 84 10000 2.01 62 12:24 19.10.2021
5906 Clouds 19 1023 90 10000 2.18 58 11:30 19.10.2021
5907 Clouds 18 1022 93 10000 2.16 73 09:55 19.10.2021
5908 Clouds 18 1022 93 10000 2.13 60 08:57 19.10.2021
5909 Clouds 17 1022 92 10000 1.65 78 04:25 19.10.2021
5910 Clear 17 1022 89 10000 0.45 90 00:22 19.10.2021
5911 Clear 17 1022 88 10000 1.34 90 23:49 18.10.2021
5912 Clear 17 1022 87 10000 0.45 90 22:59 18.10.2021
5913 Clear 18 1019 85 10000 1.78 96 22:31 18.10.2021
5914 Clear 18 1018 82 10000 2.31 83 20:53 18.10.2021
5915 Clear 18 1018 80 10000 2.26 83 20:32 18.10.2021
5916 Clouds 18 1017 79 10000 2.86 71 19:49 18.10.2021
5917 Clouds 18 1017 77 10000 2.79 58 19:22 18.10.2021
5918 Clouds 19 1017 76 10000 2.79 58 18:49 18.10.2021
5919 Clear 21 1016 68 10000 0.89 10 14:58 18.10.2021
5920 Clear 21 1017 65 10000 0.45 334 12:53 18.10.2021
5921 Clear 20 1017 76 10000 1.23 284 10:26 18.10.2021
5922 Clear 18 1016 87 10000 1.12 266 09:26 18.10.2021
5923 Clear 17 1015 88 10000 1.07 283 01:35 18.10.2021
5924 Clear 17 1014 89 10000 0.88 262 23:20 17.10.2021
5925 Clear 18 1014 90 10000 0.51 264 21:46 17.10.2021
5926 Clear 18 1014 90 10000 0.29 349 20:59 17.10.2021
5927 Clouds 18 1013 89 10000 0.88 8 20:31 17.10.2021
5928 Rain 19 1013 88 10000 0.57 7 19:39 17.10.2021
5929 Rain 19 1013 86 10000 0.99 355 18:57 17.10.2021
5930 Rain 19 1012 80 10000 1.25 333 17:32 17.10.2021
5931 Clouds 21 1017 65 10000 2.52 321 15:19 17.10.2021
5932 Clouds 22 1011 65 10000 2.23 306 14:24 17.10.2021
5933 Clouds 21 1012 66 10000 0.89 16 13:38 17.10.2021
5934 Clouds 21 1012 63 10000 1.47 251 11:55 17.10.2021
5935 Clouds 20 1013 69 10000 1.86 224 10:34 17.10.2021
5936 Clouds 19 1012 80 10000 2.43 208 09:30 17.10.2021
5937 Clouds 17 1011 87 10000 2.56 229 07:19 17.10.2021
5938 Clouds 18 1011 77 10000 2.76 214 00:53 17.10.2021
5939 Clouds 18 1011 79 10000 2.75 210 00:22 17.10.2021
5940 Clouds 18 1011 82 10000 2.47 219 21:49 16.10.2021
5941 Clouds 18 1011 79 10000 2.35 250 20:32 16.10.2021
5942 Clouds 18 1011 76 10000 2.35 250 19:46 16.10.2021
5943 Clouds 19 1011 74 10000 2.61 269 19:23 16.10.2021
5944 Clouds 19 1011 72 10000 2.61 269 18:56 16.10.2021
5945 Clouds 19 1011 70 10000 2.61 269 18:37 16.10.2021
5946 Clouds 20 1011 69 10000 3.29 283 18:18 16.10.2021
5947 Clouds 20 1010 69 10000 3.58 288 17:25 16.10.2021
5948 Clouds 21 1010 64 10000 4.57 287 15:25 16.10.2021
5949 Clouds 21 1011 61 10000 4.62 265 11:55 16.10.2021
5950 Clouds 20 1011 62 10000 0.89 12 10:47 16.10.2021
5951 Clouds 18 1010 68 10000 3.83 297 08:23 16.10.2021
5952 Clouds 17 1010 65 10000 5.89 320 01:25 16.10.2021
5953 Clouds 17 1010 65 10000 5.89 320 01:25 16.10.2021
5954 Clouds 16 1010 66 10000 5.76 325 23:57 15.10.2021
5955 Clouds 16 1010 65 10000 6.32 333 23:24 15.10.2021
5956 Clouds 17 1010 62 10000 7.49 338 22:19 15.10.2021
5957 Clouds 17 1009 61 10000 1.34 19 21:29 15.10.2021
5958 Clouds 17 1009 60 10000 0.45 7 20:49 15.10.2021
5959 Clouds 17 1008 60 10000 0.89 44 19:37 15.10.2021
5960 Clouds 17 1008 64 10000 0.89 340 18:41 15.10.2021
5961 Clouds 18 1007 57 10000 0.45 333 16:43 15.10.2021
5962 Clouds 19 1007 54 10000 0.45 350 15:36 15.10.2021
5963 Clear 17 1008 80 10000 4.72 317 13:31 15.10.2021
5964 Clouds 17 1008 60 10000 0.89 22 11:40 15.10.2021
5965 Clouds 17 1008 58 10000 5.36 336 10:58 15.10.2021
5966 Clear 17 1008 56 10000 0.89 7 09:59 15.10.2021
5967 Clear 15 1008 56 10000 1.34 358 05:44 15.10.2021
5968 Clouds 16 1009 57 10000 0.45 15 01:48 15.10.2021
5969 Clouds 16 1010 55 10000 0.45 3 00:22 15.10.2021
5970 Clouds 16 1010 52 10000 0.45 4 22:52 14.10.2021
5971 Clouds 16 1010 54 10000 1.34 349 21:45 14.10.2021
5972 Clouds 16 1010 54 10000 1.34 33 20:50 14.10.2021
5973 Clouds 16 1010 54 10000 0.45 33 20:50 14.10.2021
5974 Clouds 16 1010 54 10000 1.34 30 20:19 14.10.2021
5975 Clouds 16 1009 56 10000 1.34 46 19:38 14.10.2021
5976 Clouds 16 1008 75 10000 0.45 33 17:39 14.10.2021
5977 Clouds 15 1008 88 10000 9 21 16:56 14.10.2021
5978 Clouds 16 1014 81 10000 8.37 26 16:21 14.10.2021
5979 Clouds 15 1008 90 10000 7.59 24 14:43 14.10.2021
5980 Clouds 15 1014 80 10000 7.98 27 14:24 14.10.2021
5981 Clouds 14 1014 84 10000 6.7 45 11:50 14.10.2021
5982 Clouds 15 1014 86 10000 6.71 45 10:43 14.10.2021
5983 Clouds 13 1013 71 10000 5.91 47 07:37 14.10.2021
5984 Clouds 16 1006 85 10000 6.61 38 02:41 14.10.2021
5985 Clouds 15 1007 93 10000 7.07 49 00:29 14.10.2021
5986 Clouds 16 1006 96 8854 4.9 44 22:32 13.10.2021
5987 Clouds 16 1006 95 8790 4.91 44 21:34 13.10.2021
5988 Clouds 15 1006 95 2920 3.92 52 20:22 13.10.2021
5989 Clouds 16 1005 94 7163 3.66 69 19:19 13.10.2021
5990 Clouds 16 1005 94 7163 3.66 69 18:37 13.10.2021
5991 Clouds 18 1004 90 7645 0.45 6 15:53 13.10.2021
5992 Clouds 19 1004 78 8552 0.89 308 14:46 13.10.2021
5993 Clouds 20 1004 79 10000 0.45 352 14:22 13.10.2021
5994 Clouds 22 1005 54 10000 0.89 291 12:23 13.10.2021
5995 Clouds 22 1005 58 10000 4.06 255 11:35 13.10.2021
5996 Clouds 22 1005 58 10000 4.06 255 11:35 13.10.2021
5997 Clouds 19 1005 68 10000 3.21 215 08:57 13.10.2021
5998 Clouds 18 1005 77 10000 3.54 214 07:43 13.10.2021
5999 Clouds 17 1007 78 10000 3.08 218 02:51 13.10.2021
6000 Clouds 17 1007 77 10000 3.52 230 02:19 13.10.2021
6001 Clouds 18 1007 73 10000 3.21 245 23:31 12.10.2021
6002 Clouds 18 1008 71 10000 3.19 251 22:48 12.10.2021
6003 Clouds 18 1008 70 10000 3.09 261 22:23 12.10.2021
6004 Clouds 19 1008 68 10000 2.81 262 20:48 12.10.2021
6005 Clouds 19 1008 68 10000 3.04 276 20:19 12.10.2021
6006 Clouds 20 1008 69 10000 3.48 288 18:57 12.10.2021
6007 Clouds 20 1007 68 10000 3.66 301 18:18 12.10.2021
6008 Clouds 21 1007 63 10000 0.89 303 16:47 12.10.2021
6009 Clouds 21 1007 62 10000 0.45 335 16:18 12.10.2021
6010 Clouds 21 1008 61 10000 0.45 303 14:51 12.10.2021
6011 Clouds 21 1008 60 10000 0.45 9 13:45 12.10.2021
6012 Clouds 20 1009 60 10000 2.71 311 12:40 12.10.2021
6013 Clouds 20 1009 60 10000 2.71 311 12:40 12.10.2021
6014 Clouds 20 1010 62 10000 0.45 351 10:38 12.10.2021
6015 Clouds 19 1010 65 10000 2.47 314 08:49 12.10.2021
6016 Clouds 18 1009 66 10000 2.6 313 08:00 12.10.2021
6017 Clouds 17 1012 67 10000 1.34 315 06:42 12.10.2021
6018 Clouds 18 1010 69 10000 0.45 351 04:35 12.10.2021
6019 Clouds 19 1011 67 10000 0.45 1 01:30 12.10.2021
6020 Clouds 18 1011 66 10000 5.62 325 23:41 11.10.2021
6021 Clouds 17 1014 71 10000 0.89 15 22:59 11.10.2021
6022 Clouds 18 1011 69 10000 6.72 324 22:30 11.10.2021
6023 Clouds 18 1013 64 10000 0.45 18 21:19 11.10.2021
6024 Clouds 17 1013 73 10000 2.68 315 19:46 11.10.2021
6025 Clouds 17 1013 72 10000 4.92 315 19:22 11.10.2021
6026 Clouds 17 1011 74 10000 8.55 305 18:18 11.10.2021
6027 Clouds 18 1011 70 10000 0.45 342 16:39 11.10.2021
6028 Clouds 20 1011 63 10000 1.79 12 16:19 11.10.2021
6029 Clouds 20 1016 60 10000 8.35 297 15:37 11.10.2021
6030 Clouds 21 1011 47 10000 0.45 51 14:53 11.10.2021
6031 Clouds 21 1011 49 10000 1.34 276 13:39 11.10.2021
6032 Clouds 20 1012 50 10000 0.89 324 12:20 11.10.2021
6033 Clouds 19 1012 54 10000 0.89 37 10:49 11.10.2021
6034 Clouds 19 1012 55 10000 8.99 308 09:45 11.10.2021
6035 Clouds 18 1013 61 10000 0.45 6 07:56 11.10.2021
6036 Clear 18 1013 56 10000 0.89 323 01:42 11.10.2021
6037 Clear 18 1011 58 10000 7.16 302 00:53 11.10.2021
6038 Clear 18 1011 58 10000 7.16 302 00:31 11.10.2021
6039 Clear 18 1011 60 10000 6.52 303 22:22 10.10.2021
6040 Clear 19 1011 58 10000 0.89 13 21:35 10.10.2021
6041 Clear 19 1010 57 10000 6.43 307 20:48 10.10.2021
6042 Clear 19 1010 56 10000 6.98 307 20:22 10.10.2021
6043 Clear 19 1010 57 10000 0.45 335 20:00 10.10.2021
6044 Clear 19 1010 57 10000 0.45 286 19:38 10.10.2021
6045 Clear 19 1010 59 10000 7.08 305 18:41 10.10.2021
6046 Clear 20 1009 57 10000 7.69 305 17:50 10.10.2021
6047 Clear 21 1015 55 10000 8.45 303 15:47 10.10.2021
6048 Clear 21 1009 56 10000 0.89 270 14:44 10.10.2021
6049 Clouds 22 1009 59 10000 2.68 302 13:34 10.10.2021
6050 Clouds 21 1009 64 10000 1.34 325 12:41 10.10.2021
6051 Clouds 21 1009 72 9522 4.62 285 11:29 10.10.2021
6052 Clouds 21 1009 72 9522 4.62 285 11:29 10.10.2021
6053 Clouds 19 1009 87 10000 4.31 280 09:51 10.10.2021
6054 Clouds 18 1008 87 10000 4.01 273 08:54 10.10.2021
6055 Clouds 18 1008 88 10000 3.8 275 07:56 10.10.2021
6056 Clouds 19 1008 77 10000 3.21 220 03:47 10.10.2021
6057 Clouds 19 1009 81 10000 2.84 216 01:39 10.10.2021
6058 Clouds 19 1008 84 10000 2.57 208 00:37 10.10.2021
6059 Clouds 19 1009 85 10000 2.33 194 23:22 09.10.2021
6060 Clouds 19 1009 85 10000 2.03 180 21:52 09.10.2021
6061 Clouds 19 1009 85 10000 1.56 167 21:29 09.10.2021
6062 Clouds 19 1009 86 10000 1.4 277 19:47 09.10.2021
6063 Clouds 19 1009 85 10000 1.4 295 19:22 09.10.2021
6064 Clouds 20 1009 85 10000 1.4 295 18:34 09.10.2021
6065 Clear 20 1009 84 10000 2 314 17:43 09.10.2021
6066 Clear 20 1009 83 10000 2.84 312 16:19 09.10.2021
6067 Clear 22 1009 65 10000 2.21 303 13:47 09.10.2021
6068 Clear 22 1009 64 10000 1.69 291 13:24 09.10.2021
6069 Clear 22 1010 66 10000 0.45 351 11:56 09.10.2021
6070 Clear 21 1010 75 10000 1.31 279 10:43 09.10.2021
6071 Clear 20 1010 86 10000 1.36 265 09:54 09.10.2021
6072 Clear 18 1015 78 10000 0.9 228 08:33 09.10.2021
6073 Clear 17 1014 79 10000 1.15 223 07:49 09.10.2021
6074 Clear 17 1008 88 10000 1.08 238 05:55 09.10.2021
6075 Clear 16 1008 90 10000 0.98 250 04:18 09.10.2021
6076 Clear 17 1008 89 10000 1.18 263 02:43 09.10.2021
6077 Clouds 18 1014 81 10000 1.72 260 23:55 08.10.2021
6078 Clouds 18 1014 82 10000 1.72 260 23:31 08.10.2021
6079 Clouds 18 1009 84 10000 2.28 268 22:25 08.10.2021
6080 Clouds 19 1008 80 10000 2.28 268 21:35 08.10.2021
6081 Clouds 19 1007 77 10000 0.45 335 19:44 08.10.2021
6082 Clouds 20 1006 73 10000 2.88 284 17:36 08.10.2021
6083 Clouds 20 1006 69 10000 0.45 293 16:53 08.10.2021
6084 Clouds 20 1012 70 10000 3.17 284 16:53 08.10.2021
6085 Clouds 20 1012 69 10000 3.47 293 16:24 08.10.2021
6086 Clouds 20 1006 76 10000 0.89 295 14:18 08.10.2021
6087 Clouds 20 1006 79 10000 3.97 313 13:36 08.10.2021
6088 Clouds 19 1006 86 10000 0.45 304 11:40 08.10.2021
6089 Clouds 19 1006 86 10000 1.34 358 10:41 08.10.2021
6090 Clouds 18 1006 85 10000 4.09 263 09:46 08.10.2021
6091 Clouds 17 1004 82 10000 0.45 329 00:35 08.10.2021
6092 Clouds 17 1004 76 10000 5.57 265 23:22 07.10.2021
6093 Rain 18 1005 72 10000 0.89 295 21:46 07.10.2021
6094 Rain 19 1005 69 10000 0.45 264 21:27 07.10.2021
6095 Clouds 18 1006 73 10000 5.36 315 20:28 07.10.2021
6096 Clouds 18 1006 78 10000 0.45 339 19:31 07.10.2021
6097 Clouds 18 1009 67 10000 7.89 282 18:27 07.10.2021
6098 Clouds 20 1004 64 10000 0.45 256 17:27 07.10.2021
6099 Clouds 19 1004 70 10000 0.89 4 15:55 07.10.2021
6100 Clouds 21 1004 63 10000 1.34 355 14:24 07.10.2021
6101 Clouds 21 1004 56 10000 1.34 8 13:43 07.10.2021
6102 Clouds 21 1004 63 10000 0.89 227 12:48 07.10.2021
6103 Clouds 21 1004 50 10000 1.34 242 10:57 07.10.2021
6104 Clouds 20 1006 53 10000 4.47 315 10:20 07.10.2021
6105 Clouds 20 1007 55 10000 0.45 329 09:34 07.10.2021
6106 Clouds 20 1005 56 10000 0.89 339 08:52 07.10.2021
6107 Clouds 20 1005 53 10000 0.89 295 07:56 07.10.2021
6108 Clouds 20 1005 53 10000 1.34 328 07:36 07.10.2021
6109 Clouds 20 1006 54 10000 1.79 324 04:24 07.10.2021
6110 Clouds 21 1011 64 10000 1.34 325 00:29 07.10.2021
6111 Clouds 21 1011 71 10000 0.45 346 22:55 06.10.2021
6112 Clouds 21 1011 70 10000 0.45 12 22:23 06.10.2021
6113 Clouds 21 1009 65 10000 4.04 257 20:51 06.10.2021
6114 Clouds 21 1012 66 10000 3.13 315 20:26 06.10.2021
6115 Clouds 23 1009 63 10000 3.24 282 18:43 06.10.2021
6116 Clouds 24 1010 65 10000 0.45 321 16:58 06.10.2021
6117 Clouds 24 1010 65 10000 0.45 321 16:58 06.10.2021
6118 Clouds 25 1010 62 10000 0.45 313 15:33 06.10.2021
6119 Clouds 24 1011 67 10000 0.45 246 14:30 06.10.2021
6120 Clouds 25 1011 68 10000 3.25 281 13:23 06.10.2021
6121 Clouds 24 1012 69 10000 3.26 281 12:45 06.10.2021
6122 Clouds 24 1012 69 10000 2.5 275 12:22 06.10.2021
6123 Clouds 23 1015 74 10000 1.79 225 10:36 06.10.2021
6124 Clouds 22 1016 87 10000 1.34 270 09:39 06.10.2021
6125 Clouds 21 1015 88 10000 2.24 292 08:57 06.10.2021
6126 Clouds 21 1015 90 10000 1.34 292 07:53 06.10.2021
6127 Clouds 21 1015 84 10000 0.89 344 05:37 06.10.2021
6128 Clouds 21 1016 76 10000 2.24 270 01:23 06.10.2021
6129 Clouds 21 1014 73 10000 2.9 246 00:20 06.10.2021
6130 Clouds 21 1014 73 10000 2.9 246 00:20 06.10.2021
6131 Clouds 21 1014 72 10000 2.9 246 23:48 05.10.2021
6132 Clouds 21 1017 71 10000 4.02 315 23:29 05.10.2021
6133 Clouds 21 1014 69 10000 2.43 223 22:30 05.10.2021
6134 Clouds 21 1016 70 10000 3.13 0 21:50 05.10.2021
6135 Clouds 21 1015 69 10000 1.34 270 20:51 05.10.2021
6136 Clouds 21 1015 69 10000 2.68 315 20:25 05.10.2021
6137 Clouds 21 1015 75 10000 3.58 315 19:50 05.10.2021
6138 Clouds 21 1011 79 10000 2.6 190 19:21 05.10.2021
6139 Clouds 20 1011 85 10000 4.44 166 17:23 05.10.2021
6140 Rain 20 1014 90 9501 6.02 149 15:22 05.10.2021
6141 Rain 19 1015 93 2504 4.59 328 13:43 05.10.2021
6142 Rain 19 1019 71 7715 5.95 289 12:57 05.10.2021
6143 Rain 19 1019 71 7715 5.95 289 12:32 05.10.2021
6144 Rain 20 1019 58 10000 0.98 116 11:22 05.10.2021
6145 Clouds 25 1014 66 10000 0.68 152 09:50 05.10.2021
6146 Clouds 24 1010 59 10000 0.45 8 05:56 05.10.2021
6147 Clouds 23 1014 72 10000 2.18 212 00:37 05.10.2021
6148 Clouds 24 1013 70 10000 2.01 181 22:49 04.10.2021
6149 Clouds 24 1015 70 10000 0.45 270 20:45 04.10.2021
6150 Clouds 25 1012 70 10000 1.73 140 18:47 04.10.2021
6151 Clouds 26 1020 63 10000 0.45 90 16:44 04.10.2021
6152 Clear 27 1020 55 10000 1.17 121 15:32 04.10.2021
6153 Clouds 28 1015 53 10000 0.89 135 14:44 04.10.2021
6154 Clouds 28 1015 49 10000 0.89 135 13:58 04.10.2021
6155 Clouds 28 1016 48 10000 0.45 90 13:31 04.10.2021
6156 Clouds 27 1016 50 10000 0.89 135 12:31 04.10.2021
6157 Clouds 26 1016 53 10000 1.79 90 11:32 04.10.2021
6158 Clouds 25 1016 56 10000 0.89 135 10:41 04.10.2021
6159 Clear 23 1016 63 10000 0.45 90 09:26 04.10.2021
6160 Clear 21 1013 73 10000 1.9 175 07:52 04.10.2021
6161 Clear 20 1015 77 10000 0.89 225 03:44 04.10.2021
6162 Clear 22 1013 75 10000 2.5 145 22:48 03.10.2021
6163 Clear 22 1013 73 10000 2.23 139 21:43 03.10.2021
6164 Clear 23 1013 73 10000 2 126 21:24 03.10.2021
6165 Clear 23 1013 75 10000 2 126 20:43 03.10.2021
6166 Clouds 24 1012 73 10000 2.03 116 19:33 03.10.2021
6167 Clouds 24 1012 70 10000 2.3 102 18:28 03.10.2021
6168 Clouds 25 1012 67 10000 2.3 102 17:31 03.10.2021
6169 Clouds 26 1015 60 10000 0.89 135 14:49 03.10.2021
6170 Clouds 26 1015 60 10000 2.24 90 14:28 03.10.2021
6171 Clouds 26 1012 58 10000 0.45 1 13:35 03.10.2021
6172 Clouds 26 1015 57 10000 0.89 90 12:43 03.10.2021
6173 Clouds 24 1015 63 10000 0.45 90 10:57 03.10.2021
6174 Clear 21 1015 77 10000 2.24 315 09:34 03.10.2021
6175 Clouds 20 1012 87 10000 1.84 173 05:25 03.10.2021
6176 Clouds 20 1013 89 10000 1.67 106 22:49 02.10.2021
6177 Rain 20 1015 88 10000 2.24 270 21:35 02.10.2021
6178 Clouds 20 1012 91 10000 1.74 28 20:18 02.10.2021
6179 Clouds 20 1012 91 10000 1.74 28 20:18 02.10.2021
6180 Clouds 21 1018 84 10000 1.61 9 18:56 02.10.2021
6181 Clouds 21 1018 84 10000 1.61 9 18:56 02.10.2021
6182 Clouds 22 1017 85 10000 1.41 0 18:18 02.10.2021
6183 Clouds 21 1017 82 10000 1.41 0 17:36 02.10.2021
6184 Clouds 24 1012 75 10000 1.19 357 16:22 02.10.2021
6185 Clouds 21 1011 81 10000 1.86 200 06:39 02.10.2021
6186 Clouds 25 1013 70 10000 0.89 12 15:37 30.09.2021
6187 Clouds 25 1014 69 10000 1.34 7 13:54 30.09.2021
6188 Clouds 25 1015 77 10000 1.34 28 11:43 30.09.2021
6189 Clouds 24 1015 80 10000 2.65 9 10:52 30.09.2021
6190 Clouds 23 1017 81 10000 3.29 13 10:20 30.09.2021
6191 Clouds 23 1016 78 10000 1.79 45 08:30 30.09.2021
6192 Clouds 22 1016 79 10000 0.89 338 07:34 30.09.2021
6193 Clouds 23 1015 77 10000 0.45 33 05:23 30.09.2021
6194 Clear 23 1016 79 10000 4.02 270 01:41 30.09.2021
6195 Clear 23 1016 82 10000 2.24 315 00:29 30.09.2021
6196 Clear 24 1014 78 10000 0.45 299 22:38 29.09.2021
6197 Clear 23 1016 80 10000 1.79 270 21:27 29.09.2021
6198 Clear 24 1013 75 10000 2.08 342 20:28 29.09.2021
6199 Clear 24 1013 74 10000 2.08 342 19:55 29.09.2021
6200 Clear 25 1013 72 10000 2.55 341 18:52 29.09.2021
6201 Clear 25 1012 68 10000 3 345 17:52 29.09.2021
6202 Clear 26 1012 65 10000 3.26 344 16:51 29.09.2021
6203 Clear 27 1012 63 10000 0.45 34 16:21 29.09.2021
6204 Clear 27 1012 61 10000 0.89 320 14:39 29.09.2021
6205 Clouds 27 1012 61 10000 0.89 322 13:58 29.09.2021
6206 Clouds 27 1013 62 10000 0.45 304 13:22 29.09.2021
6207 Clouds 27 1013 59 10000 3.2 327 12:36 29.09.2021
6208 Clouds 26 1013 69 10000 1.85 320 10:50 29.09.2021
6209 Clouds 26 1013 69 10000 1.85 320 10:50 29.09.2021
6210 Clouds 25 1013 73 10000 1.06 299 09:58 29.09.2021
6211 Clouds 25 1013 75 10000 1.06 299 09:35 29.09.2021
6212 Clouds 22 1012 84 10000 0.52 260 07:39 29.09.2021
6213 Clouds 23 1012 83 10000 0.75 319 04:39 29.09.2021
6214 Clouds 23 1013 88 10000 1.54 5 23:29 28.09.2021
6215 Clouds 24 1013 89 10000 1.92 0 22:24 28.09.2021
6216 Clouds 24 1013 89 10000 1.92 0 21:45 28.09.2021
6217 Clouds 24 1012 89 10000 2.58 358 20:43 28.09.2021
6218 Clouds 24 1012 89 10000 2.97 353 19:46 28.09.2021
6219 Clouds 25 1011 88 10000 1.34 4 18:51 28.09.2021
6220 Clouds 25 1011 87 10000 1.34 354 18:18 28.09.2021
6221 Clouds 26 1011 80 10000 1.79 5 16:38 28.09.2021
6222 Clear 26 1011 84 10000 4.03 328 14:37 28.09.2021
6223 Clear 26 1012 79 10000 3.83 316 13:19 28.09.2021
6224 Clouds 27 1011 70 10000 0.45 334 12:21 28.09.2021
6225 Clouds 27 1011 68 10000 0.45 300 11:47 28.09.2021
6226 Clouds 27 1011 68 10000 0.89 318 11:22 28.09.2021
6227 Clouds 26 1011 69 10000 3.24 304 10:21 28.09.2021
6228 Clouds 26 1011 69 10000 3.24 304 10:21 28.09.2021
6229 Clouds 26 1012 69 10000 0.89 13 10:21 28.09.2021
6230 Clouds 25 1011 74 10000 3.11 306 09:18 28.09.2021
6231 Clouds 25 1011 78 10000 3.11 306 08:39 28.09.2021
6232 Clouds 24 1011 80 10000 2.59 305 07:49 28.09.2021
6233 Clouds 24 1011 77 10000 0.45 281 05:41 28.09.2021
6234 Clouds 26 1011 75 10000 3.41 280 01:26 28.09.2021
6235 Clouds 26 1011 79 10000 3.09 248 00:26 28.09.2021
6236 Clouds 26 1012 75 10000 3.09 248 23:42 27.09.2021
6237 Clouds 26 1012 74 10000 0.45 353 23:22 27.09.2021
6238 Clouds 26 1011 69 10000 1.69 252 22:19 27.09.2021
6239 Clouds 26 1013 74 10000 1.79 248 20:45 27.09.2021
6240 Clouds 26 1013 74 10000 1.79 225 20:23 27.09.2021
6241 Clouds 26 1013 78 10000 2.24 315 19:30 27.09.2021
6242 Clouds 26 1013 78 10000 2.24 270 18:52 27.09.2021
6243 Clouds 27 1011 76 10000 0.51 267 17:33 27.09.2021
6244 Clouds 27 1011 75 10000 0.59 291 16:51 27.09.2021
6245 Clouds 28 1014 70 10000 0.89 180 15:46 27.09.2021
6246 Clouds 28 1014 71 10000 0.89 180 15:27 27.09.2021
6247 Clouds 28 1015 64 10000 0.45 90 13:35 27.09.2021
6248 Clouds 27 1015 69 10000 1.34 1 12:20 27.09.2021
6249 Clouds 26 1015 72 10000 1.34 90 10:42 27.09.2021
6250 Clouds 26 1012 86 10000 1.03 247 09:31 27.09.2021
6251 Clouds 23 1015 85 10000 1.97 136 06:33 27.09.2021
6252 Clouds 24 1016 81 10000 0.89 270 03:29 27.09.2021
6253 Clouds 25 1014 80 10000 2.66 225 23:41 26.09.2021
6254 Clouds 25 1015 78 10000 1.98 290 21:55 26.09.2021
6255 Clouds 25 1017 80 10000 0.45 90 21:26 26.09.2021
6256 Clouds 25 1017 79 10000 0.89 90 20:24 26.09.2021
6257 Clouds 25 1017 79 10000 1.34 90 19:53 26.09.2021
6258 Clouds 26 1017 79 10000 0.89 45 18:52 26.09.2021
6259 Clouds 26 1018 77 10000 0.45 15 17:59 26.09.2021
6260 Clouds 26 1015 76 10000 1.34 22 17:37 26.09.2021
6261 Clouds 27 1015 73 10000 1.34 4 17:18 26.09.2021
6262 Clouds 28 1017 67 10000 0.45 14 16:22 26.09.2021
6263 Clouds 28 1017 64 10000 0.89 2 15:22 26.09.2021
6264 Clouds 28 1018 66 10000 1.34 359 14:18 26.09.2021
6265 Clouds 28 1018 66 10000 1.79 2 13:42 26.09.2021
6266 Clouds 28 1018 64 10000 1.34 352 12:26 26.09.2021
6267 Clouds 28 1018 63 10000 0.45 90 11:53 26.09.2021
6268 Clouds 27 1018 68 10000 0.45 90 10:59 26.09.2021
6269 Clouds 26 1018 75 10000 0.89 90 09:38 26.09.2021
6270 Clouds 24 1018 80 10000 0.89 90 08:41 26.09.2021
6271 Clouds 25 1016 77 10000 1.7 134 00:29 26.09.2021
6272 Clouds 25 1015 77 10000 1.7 134 23:43 25.09.2021
6273 Clouds 25 1016 78 10000 2.07 130 22:39 25.09.2021
6274 Clear 25 1016 78 10000 1.44 118 22:18 25.09.2021
6275 Clear 25 1016 78 10000 1.44 118 22:18 25.09.2021
6276 Clear 25 1016 77 10000 1.44 118 21:40 25.09.2021
6277 Clouds 26 1015 75 10000 2 118 20:52 25.09.2021
6278 Clear 26 1015 74 10000 1.69 115 19:40 25.09.2021
6279 Clear 27 1015 71 10000 1.35 81 18:28 25.09.2021
6280 Clear 28 1014 68 10000 1.94 72 17:23 25.09.2021
6281 Clear 29 1017 64 10000 0.89 135 14:38 25.09.2021
6282 Clear 29 1017 62 10000 0.89 90 13:55 25.09.2021
6283 Clear 28 1017 62 10000 0.89 135 12:45 25.09.2021
6284 Clear 27 1017 64 10000 0.89 135 11:27 25.09.2021
6285 Clear 26 1017 69 10000 0.89 90 10:18 25.09.2021
6286 Clear 24 1017 77 10000 0.45 90 08:55 25.09.2021
6287 Clouds 23 1014 81 10000 2.04 131 07:47 25.09.2021
6288 Clear 23 1014 79 10000 2.1 123 00:52 25.09.2021
6289 Clear 24 1014 76 10000 2.91 122 22:18 24.09.2021
6290 Clear 24 1014 75 10000 2.91 122 21:32 24.09.2021
6291 Clear 24 1014 75 10000 3.04 115 20:32 24.09.2021
6292 Clear 25 1014 73 10000 2.65 106 19:31 24.09.2021
6293 Clear 26 1013 69 10000 1.62 79 18:20 24.09.2021
6294 Clear 26 1013 67 10000 1.63 79 17:50 24.09.2021
6295 Clear 27 1013 66 10000 1.63 79 17:31 24.09.2021
6296 Clear 27 1016 65 10000 0.45 90 15:39 24.09.2021
6297 Clear 27 1016 64 10000 1.34 90 13:27 24.09.2021
6298 Clear 26 1016 66 10000 0.89 135 12:43 24.09.2021
6299 Clear 26 1016 66 10000 0.89 90 12:25 24.09.2021
6300 Clear 25 1022 66 10000 0.89 135 10:53 24.09.2021
6301 Clear 24 1022 69 10000 1.34 180 09:55 24.09.2021
6302 Clear 22 1020 72 10000 1.86 137 08:21 24.09.2021
6303 Clear 20 1021 78 10000 0.45 270 06:59 24.09.2021
6304 Clear 20 1020 78 10000 2.06 113 05:57 24.09.2021
6305 Clear 20 1020 78 10000 0.45 270 05:57 24.09.2021
6306 Clear 22 1020 70 10000 1.56 144 03:56 24.09.2021
6307 Clear 22 1022 70 10000 2.04 124 22:38 23.09.2021
6308 Clear 22 1022 69 10000 2.65 103 21:59 23.09.2021
6309 Clear 22 1022 69 10000 2.65 103 21:59 23.09.2021
6310 Clear 22 1022 68 10000 0.89 90 21:20 23.09.2021
6311 Clear 22 1022 68 10000 0.89 90 21:20 23.09.2021
6312 Clear 24 1020 63 10000 2.75 86 20:32 23.09.2021
6313 Clear 24 1021 64 10000 1.79 90 18:36 23.09.2021
6314 Clear 25 1021 60 10000 1.34 135 16:39 23.09.2021
6315 Clear 26 1021 58 10000 0.89 180 15:19 23.09.2021
6316 Clear 26 1021 59 10000 2.68 180 14:52 23.09.2021
6317 Clear 26 1021 62 10000 3.58 135 13:27 23.09.2021
6318 Clear 25 1021 63 10000 4.02 135 12:57 23.09.2021
6319 Clear 26 1021 63 10000 3.58 90 12:37 23.09.2021
6320 Clear 26 1021 61 10000 2.68 180 12:18 23.09.2021
6321 Clear 26 1019 65 10000 1.27 27 10:31 23.09.2021
6322 Clear 24 1021 72 10000 1.79 90 09:57 23.09.2021
6323 Clear 25 1019 71 10000 1.16 32 09:38 23.09.2021
6324 Clouds 22 1019 82 10000 1.28 87 06:24 23.09.2021
6325 Clouds 22 1019 77 10000 1.31 36 00:21 23.09.2021
6326 Clouds 24 1018 74 10000 1.1 181 22:52 22.09.2021
6327 Clouds 24 1018 75 10000 1.99 151 22:20 22.09.2021
6328 Clouds 24 1018 76 10000 1.99 151 21:44 22.09.2021
6329 Clouds 24 1018 76 10000 2.53 92 20:58 22.09.2021
6330 Clouds 25 1018 74 10000 2.69 70 19:53 22.09.2021
6331 Clouds 25 1018 72 10000 2.24 60 19:27 22.09.2021
6332 Clouds 24 1019 78 10000 2.68 90 18:34 22.09.2021
6333 Clouds 26 1019 69 10000 3.58 292 17:33 22.09.2021
6334 Clouds 27 1018 65 10000 0.45 225 15:51 22.09.2021
6335 Clouds 28 1019 66 10000 0.89 90 14:28 22.09.2021
6336 Clouds 27 1020 72 10000 0.45 90 13:19 22.09.2021
6337 Clouds 27 1020 72 10000 0.45 90 13:19 22.09.2021
6338 Clouds 25 1021 76 10000 1.79 135 11:20 22.09.2021
6339 Clouds 26 1019 73 10000 3.18 98 09:32 22.09.2021
6340 Clouds 24 1020 79 10000 0.89 90 08:45 22.09.2021
6341 Clouds 24 1020 79 10000 0.89 90 08:45 22.09.2021
6342 Clouds 24 1019 76 10000 1.86 104 07:34 22.09.2021
6343 Clouds 23 1020 81 10000 1.36 103 06:51 22.09.2021
6344 Clouds 23 1020 81 10000 1.96 81 05:48 22.09.2021
6345 Clouds 24 1019 74 10000 2.08 76 04:20 22.09.2021
6346 Clouds 24 1019 73 10000 2.67 82 03:23 22.09.2021
6347 Clouds 23 1021 77 10000 2.69 103 23:54 21.09.2021
6348 Clouds 24 1021 76 10000 0.89 90 22:26 21.09.2021
6349 Clouds 25 1020 72 10000 4.19 105 20:43 21.09.2021
6350 Clouds 24 1020 73 10000 2.24 90 19:37 21.09.2021
6351 Clouds 26 1019 69 10000 3.39 95 19:18 21.09.2021
6352 Clear 27 1019 66 10000 3.61 68 16:48 21.09.2021
6353 Clear 26 1021 70 10000 2.68 135 15:57 21.09.2021
6354 Clear 27 1021 68 10000 0.89 135 14:59 21.09.2021
6355 Clear 27 1021 66 10000 1.34 135 14:40 21.09.2021
6356 Clear 27 1021 67 10000 0.89 90 13:40 21.09.2021
6357 Clear 27 1021 67 10000 0.89 135 12:45 21.09.2021
6358 Clear 26 1019 54 10000 2.42 80 10:44 21.09.2021
6359 Clear 25 1019 60 10000 2.29 90 09:28 21.09.2021
6360 Clear 23 1019 64 10000 2.33 89 07:40 21.09.2021
6361 Clear 21 1017 63 10000 1.65 70 05:18 21.09.2021
6362 Clouds 25 1018 61 10000 2.26 99 23:51 20.09.2021
6363 Clouds 25 1019 63 10000 1.98 27 21:52 20.09.2021
6364 Clouds 25 1019 63 10000 1.98 27 21:32 20.09.2021
6365 Clouds 25 1018 70 10000 2.32 27 19:55 20.09.2021
6366 Clouds 26 1017 70 10000 2.73 67 18:37 20.09.2021
6367 Clouds 25 1018 73 10000 3.03 49 17:30 20.09.2021
6368 Clouds 25 1018 72 10000 0.89 270 16:26 20.09.2021
6369 Clouds 26 1018 73 10000 0.89 270 15:47 20.09.2021
6370 Clouds 26 1018 73 10000 0.45 90 14:50 20.09.2021
6371 Clouds 27 1018 70 10000 0.89 315 12:53 20.09.2021
6372 Clouds 26 1018 71 10000 0.89 315 12:29 20.09.2021
6373 Clear 26 1018 76 10000 1.34 315 10:57 20.09.2021
6374 Clear 26 1018 63 10000 2.73 292 09:52 20.09.2021
6375 Clear 26 1018 62 10000 0.45 315 09:33 20.09.2021
6376 Clear 25 1017 62 10000 1.34 225 08:55 20.09.2021
6377 Clear 23 1016 63 10000 1.79 315 06:34 20.09.2021
6378 Clear 24 1017 82 10000 3.13 315 23:28 19.09.2021
6379 Clear 25 1016 81 10000 2.43 274 21:53 19.09.2021
6380 Clear 26 1016 81 10000 2.11 284 21:21 19.09.2021
6381 Clear 26 1016 82 10000 2.11 284 20:32 19.09.2021
6382 Clear 27 1014 79 10000 2.39 302 18:54 19.09.2021
6383 Clear 27 1014 80 10000 2.99 309 17:57 19.09.2021
6384 Clear 27 1016 80 10000 1.79 270 16:52 19.09.2021
6385 Clear 28 1015 73 10000 1.34 270 15:44 19.09.2021
6386 Clear 29 1015 69 10000 0.89 135 14:49 19.09.2021
6387 Clear 29 1015 67 10000 0.45 90 14:24 19.09.2021
6388 Clear 28 1015 69 10000 0.89 68 12:56 19.09.2021
6389 Clear 28 1015 70 10000 0.89 135 12:30 19.09.2021
6390 Clear 28 1015 67 10000 0.89 180 11:25 19.09.2021
6391 Clear 27 1015 67 10000 1.34 270 09:52 19.09.2021
6392 Clear 27 1015 70 10000 0.89 225 09:26 19.09.2021
6393 Clouds 24 1015 87 10000 0.45 315 06:49 19.09.2021
6394 Clouds 26 1015 72 10000 1.22 191 01:39 19.09.2021
6395 Clouds 27 1015 63 10000 2.68 270 23:25 18.09.2021
6396 Clouds 26 1014 60 10000 0.45 270 21:58 18.09.2021
6397 Clouds 27 1014 63 10000 0.89 45 20:48 18.09.2021
6398 Clouds 28 1013 61 10000 1.87 81 19:58 18.09.2021
6399 Clouds 27 1014 75 10000 1.87 81 19:37 18.09.2021
6400 Clouds 27 1014 75 10000 3.05 343 19:19 18.09.2021
6401 Clouds 27 1015 71 10000 3.05 343 18:30 18.09.2021
6402 Clouds 28 1014 67 10000 0.89 270 17:22 18.09.2021
6403 Clouds 29 1015 57 10000 2.68 0 15:45 18.09.2021
6404 Clouds 30 1014 57 10000 1.61 152 13:46 18.09.2021
6405 Clouds 31 1014 58 10000 1.16 150 13:24 18.09.2021
6406 Clouds 30 1015 48 10000 0.89 158 12:23 18.09.2021
6407 Clouds 29 1016 49 10000 1.79 270 11:31 18.09.2021
6408 Clouds 29 1016 49 10000 1.79 270 11:30 18.09.2021
6409 Clouds 28 1015 65 10000 0.89 112 10:31 18.09.2021
6410 Clouds 27 1015 60 10000 0.89 45 09:24 18.09.2021
6411 Clouds 26 1014 71 10000 2.38 146 08:28 18.09.2021
6412 Clouds 29 1014 44 10000 2.68 221 00:53 18.09.2021
6413 Clouds 29 1014 45 10000 2.14 200 23:56 17.09.2021
6414 Clouds 28 1015 45 10000 0.45 248 22:54 17.09.2021
6415 Clouds 28 1014 40 10000 2.5 155 22:25 17.09.2021
6416 Clouds 28 1016 47 10000 0.45 270 21:33 17.09.2021
6417 Clouds 27 1016 60 10000 3.91 154 19:52 17.09.2021
6418 Clouds 28 1016 59 10000 0.45 90 18:42 17.09.2021
6419 Clouds 30 1015 47 10000 0.45 90 16:47 17.09.2021
6420 Clouds 31 1015 42 10000 1.1 353 15:25 17.09.2021
6421 Clouds 31 1017 42 10000 0.45 180 11:53 17.09.2021
6422 Clouds 29 1017 45 10000 0.38 253 10:23 17.09.2021
6423 Clouds 29 1015 27 10000 1.13 269 07:48 17.09.2021
6424 Clouds 27 1014 41 10000 3.76 176 06:27 17.09.2021
6425 Clouds 27 1017 41 10000 4.53 167 00:33 17.09.2021
6426 Clouds 25 1019 60 10000 0.45 90 22:42 16.09.2021
6427 Clouds 25 1019 60 10000 2.14 152 22:24 16.09.2021
6428 Clouds 25 1020 58 10000 0.45 315 21:35 16.09.2021
6429 Clouds 26 1018 67 10000 2.12 145 20:30 16.09.2021
6430 Clouds 27 1020 55 10000 1.22 146 18:52 16.09.2021
6431 Clouds 29 1020 47 10000 0.89 270 18:19 16.09.2021
6432 Clouds 29 1020 52 10000 1.34 156 16:47 16.09.2021
6433 Clouds 29 1020 41 10000 0.89 158 14:51 16.09.2021
6434 Clouds 29 1020 40 10000 0.89 135 13:40 16.09.2021
6435 Clouds 29 1020 42 10000 1.34 135 12:46 16.09.2021
6436 Clouds 28 1020 43 10000 0.89 180 11:50 16.09.2021
6437 Clouds 28 1021 44 10000 0.89 90 10:56 16.09.2021
6438 Clouds 27 1021 46 10000 0.89 90 10:23 16.09.2021
6439 Clouds 27 1021 48 10000 0.45 90 09:31 16.09.2021
6440 Clouds 23 1021 50 10000 2.14 128 07:59 16.09.2021
6441 Clouds 23 1019 56 10000 1.45 154 06:58 16.09.2021
6442 Clouds 23 1019 57 10000 1.45 154 06:38 16.09.2021
6443 Clouds 22 1021 58 10000 0.45 292 03:22 16.09.2021
6444 Clouds 23 1020 63 10000 2.09 120 00:58 16.09.2021
6445 Clouds 23 1022 60 10000 0.45 270 23:30 15.09.2021
6446 Clouds 24 1021 66 10000 0.74 142 22:39 15.09.2021
6447 Clouds 24 1020 66 10000 1.29 164 21:31 15.09.2021
6448 Clouds 24 1020 68 10000 0.9 143 20:49 15.09.2021
6449 Clouds 24 1021 74 10000 0.87 107 19:33 15.09.2021
6450 Clouds 25 1021 71 10000 0.45 90 18:53 15.09.2021
6451 Clouds 26 1021 60 10000 0.45 315 17:42 15.09.2021
6452 Clouds 27 1021 55 10000 2.05 322 16:43 15.09.2021
6453 Clouds 27 1021 55 10000 2.05 322 16:43 15.09.2021
6454 Clouds 27 1020 56 10000 0.89 90 15:22 15.09.2021
6455 Clouds 28 1020 57 10000 0.89 90 14:42 15.09.2021
6456 Clouds 27 1021 62 10000 0.45 315 13:47 15.09.2021
6457 Clouds 27 1021 62 10000 0.89 180 13:28 15.09.2021
6458 Clouds 27 1021 58 10000 0.89 135 12:33 15.09.2021
6459 Clouds 26 1022 62 10000 1.34 135 11:51 15.09.2021
6460 Clouds 26 1022 62 10000 1.34 135 11:51 15.09.2021
6461 Clouds 26 1022 62 10000 0.45 90 10:58 15.09.2021
6462 Clouds 26 1022 63 10000 0.89 90 10:35 15.09.2021
6463 Clouds 24 1022 62 10000 0.89 90 08:51 15.09.2021
6464 Clouds 22 1022 63 10000 0.89 180 07:26 15.09.2021
6465 Clouds 23 1019 72 10000 1.81 138 02:21 15.09.2021
6466 Clouds 23 1020 73 10000 2.45 116 22:26 14.09.2021
6467 Clouds 23 1021 76 10000 1.73 99 21:26 14.09.2021
6468 Clouds 24 1019 71 10000 1.79 85 20:21 14.09.2021
6469 Clouds 25 1019 70 10000 2.06 61 19:23 14.09.2021
6470 Clouds 26 1018 66 10000 2.6 48 17:33 14.09.2021
6471 Clouds 26 1020 66 10000 2.24 135 16:43 14.09.2021
6472 Clear 26 1020 63 10000 0.45 90 15:24 14.09.2021
6473 Clear 27 1020 59 10000 1.34 90 14:19 14.09.2021
6474 Clear 26 1021 61 10000 0.89 180 11:47 14.09.2021
6475 Clear 25 1021 66 10000 2.24 90 10:44 14.09.2021
6476 Clear 25 1019 68 10000 1.33 85 09:49 14.09.2021
6477 Clear 21 1020 84 10000 0.45 90 07:53 14.09.2021
6478 Clear 23 1019 75 10000 0.91 59 02:20 14.09.2021
6479 Clear 24 1019 74 10000 0.24 317 23:29 13.09.2021
6480 Clear 24 1019 77 10000 0.47 13 22:28 13.09.2021
6481 Clear 24 1019 77 10000 0.47 13 21:56 13.09.2021
6482 Clear 23 1020 80 10000 0.45 315 21:32 13.09.2021
6483 Clear 24 1017 74 10000 1.56 1 19:38 13.09.2021
6484 Clear 25 1017 72 10000 1.92 16 18:45 13.09.2021
6485 Clear 26 1017 71 10000 2.72 3 17:28 13.09.2021
6486 Clear 26 1017 71 10000 2.72 3 16:49 13.09.2021
6487 Clear 26 1019 69 10000 2.68 315 14:45 13.09.2021
6488 Clear 26 1019 70 10000 2.68 225 11:44 13.09.2021
6489 Clear 25 1019 70 10000 2.24 270 10:40 13.09.2021
6490 Clear 23 1018 79 10000 2.24 225 08:23 13.09.2021
6491 Clear 23 1017 78 10000 1.79 270 00:34 13.09.2021
6492 Clear 23 1018 78 10000 0.45 315 22:51 12.09.2021
6493 Clear 23 1017 78 10000 0.45 248 22:22 12.09.2021
6494 Clear 23 1017 76 10000 1.79 270 20:53 12.09.2021
6495 Clear 23 1017 76 10000 1.34 315 20:19 12.09.2021
6496 Clear 25 1015 71 10000 2.42 344 19:30 12.09.2021
6497 Clear 25 1015 70 10000 2.77 346 18:55 12.09.2021
6498 Clear 26 1014 69 10000 3.71 353 17:18 12.09.2021
6499 Clear 25 1016 69 10000 2.24 315 15:54 12.09.2021
6500 Clear 27 1015 67 10000 4.22 345 14:39 12.09.2021
6501 Clear 26 1015 70 10000 3.84 335 12:39 12.09.2021
6502 Clear 26 1015 69 10000 2.81 334 10:30 12.09.2021
6503 Clear 23 1016 80 10000 1.79 315 08:39 12.09.2021
6504 Clouds 21 1016 81 10000 0.89 315 07:26 12.09.2021
6505 Clouds 22 1016 78 10000 5.2 28 00:47 12.09.2021
6506 Clouds 22 1016 86 10000 0.45 0 22:39 11.09.2021
6507 Clouds 22 1016 81 10000 1.79 270 21:39 11.09.2021
6508 Clouds 23 1013 73 10000 2.84 17 19:39 11.09.2021
6509 Clouds 24 1012 76 10000 1.79 11 17:57 11.09.2021
6510 Clouds 23 1014 81 10000 1.34 45 17:27 11.09.2021
6511 Clouds 24 1013 80 10000 0.45 90 15:35 11.09.2021
6512 Clouds 26 1013 78 10000 2.33 236 13:22 11.09.2021
6513 Rain 23 1013 63 10000 2.53 226 11:41 11.09.2021
6514 Clouds 26 1014 73 10000 3.63 211 10:27 11.09.2021
6515 Clear 24 1015 78 10000 0.89 90 08:42 11.09.2021
6516 Clouds 23 1014 80 10000 3.46 202 07:43 11.09.2021
6517 Clouds 22 1016 84 10000 0.89 292 04:23 11.09.2021
6518 Rain 23 1016 84 10000 3.51 118 22:37 10.09.2021
6519 Rain 22 1018 86 10000 0.45 0 21:57 10.09.2021
6520 Rain 23 1016 82 10000 3.49 115 21:36 10.09.2021
6521 Clouds 25 1016 72 10000 3.01 88 19:30 10.09.2021
6522 Clouds 25 1016 72 10000 3.01 88 19:30 10.09.2021
6523 Clouds 25 1015 71 10000 1.41 43 17:54 10.09.2021
6524 Clouds 24 1016 79 10000 3.58 90 16:27 10.09.2021
6525 Clouds 29 1015 49 10000 1.76 20 13:26 10.09.2021
6526 Clouds 24 1018 64 10000 0.45 45 10:32 10.09.2021
6527 Clouds 23 1016 64 10000 1.68 151 07:52 10.09.2021
6528 Clouds 23 1015 65 10000 1.74 130 06:37 10.09.2021
6529 Clouds 24 1016 63 10000 2.71 117 23:59 09.09.2021
6530 Clouds 24 1018 66 10000 2.58 130 21:49 09.09.2021
6531 Clear 25 1016 61 10000 2.4 128 20:48 09.09.2021
6532 Clouds 25 1015 61 10000 2.57 112 20:26 09.09.2021
6533 Clouds 26 1015 57 10000 1.63 128 18:41 09.09.2021
6534 Clouds 27 1015 58 10000 1.29 114 17:47 09.09.2021
6535 Clouds 26 1017 58 10000 2.24 90 16:28 09.09.2021
6536 Clouds 27 1016 56 10000 1.13 166 15:24 09.09.2021
6537 Clouds 26 1018 47 10000 0.45 90 12:24 09.09.2021
6538 Clouds 27 1016 50 10000 2.98 95 11:22 09.09.2021
6539 Clouds 25 1017 57 10000 1.05 74 09:35 09.09.2021
6540 Clear 21 1018 66 10000 1.46 185 07:45 09.09.2021
6541 Clear 21 1017 67 10000 1.9 194 05:47 09.09.2021
6542 Clouds 22 1019 70 10000 0.45 90 00:33 09.09.2021
6543 Clouds 23 1017 65 10000 2.04 91 21:49 08.09.2021
6544 Clouds 23 1019 69 10000 0.89 90 20:49 08.09.2021
6545 Clouds 24 1017 61 10000 0.58 320 19:46 08.09.2021
6546 Clouds 25 1017 60 10000 0.34 292 18:47 08.09.2021
6547 Clouds 26 1017 63 10000 1.48 337 18:25 08.09.2021
6548 Clouds 26 1017 65 10000 1.48 337 17:40 08.09.2021
6549 Clouds 26 1017 61 10000 3.05 10 15:35 08.09.2021
6550 Clouds 26 1020 56 10000 1.34 90 13:45 08.09.2021
6551 Clouds 26 1020 52 10000 0.89 315 12:41 08.09.2021
6552 Clouds 26 1020 55 10000 1.34 135 12:23 08.09.2021
6553 Clouds 25 1020 58 10000 0.89 90 11:26 08.09.2021
6554 Clouds 26 1019 57 10000 0.5 140 10:31 08.09.2021
6555 Clouds 26 1019 61 10000 0.5 140 09:56 08.09.2021
6556 Clouds 21 1020 74 10000 1.25 196 07:45 08.09.2021
6557 Clouds 21 1020 75 10000 0.89 248 07:19 08.09.2021
6558 Clouds 22 1021 74 10000 0.45 90 23:32 07.09.2021
6559 Clear 23 1021 73 10000 2.01 86 22:19 07.09.2021
6560 Clear 23 1020 70 10000 2.34 72 20:42 07.09.2021
6561 Clear 25 1018 62 10000 3.55 52 19:26 07.09.2021
6562 Clear 26 1018 59 10000 3.55 52 18:37 07.09.2021
6563 Clear 26 1018 58 10000 3.94 48 17:35 07.09.2021
6564 Clear 27 1018 53 10000 4.39 36 15:57 07.09.2021
6565 Clear 27 1018 57 10000 4.01 34 14:53 07.09.2021
6566 Clear 27 1019 61 10000 3.69 34 13:52 07.09.2021
6567 Clear 25 1021 68 10000 0.89 90 12:20 07.09.2021
6568 Clear 26 1019 68 10000 1.63 47 10:59 07.09.2021
6569 Clear 25 1019 70 10000 1.59 51 10:18 07.09.2021
6570 Clear 22 1020 80 10000 0.45 90 07:47 07.09.2021
6571 Clear 23 1018 72 10000 0.86 31 06:20 07.09.2021
6572 Clear 23 1019 75 10000 1.65 18 02:39 07.09.2021
6573 Clear 22 1020 80 10000 1.79 359 02:19 07.09.2021
6574 Clear 23 1021 78 10000 1.65 17 23:52 06.09.2021
6575 Clear 23 1021 78 10000 1.17 29 23:31 06.09.2021
6576 Clear 24 1019 74 10000 1.17 29 22:51 06.09.2021
6577 Clear 23 1020 76 10000 1.49 38 22:21 06.09.2021
6578 Clear 24 1020 78 10000 1.95 44 20:36 06.09.2021
6579 Clear 25 1019 75 10000 3.01 24 19:20 06.09.2021
6580 Clear 26 1018 71 10000 3.01 24 18:36 06.09.2021
6581 Clear 27 1017 68 10000 3.26 12 17:52 06.09.2021
6582 Clear 27 1017 67 10000 3.35 360 16:23 06.09.2021
6583 Clear 27 1019 67 10000 1.34 315 15:25 06.09.2021
6584 Clear 27 1018 65 10000 3.21 0 13:44 06.09.2021
6585 Clear 27 1018 66 10000 3.05 1 12:45 06.09.2021
6586 Clear 25 1018 75 10000 2.27 4 10:36 06.09.2021
6587 Clear 23 1018 84 10000 2.03 4 07:48 06.09.2021
6588 Clear 23 1018 84 10000 2.24 270 04:36 06.09.2021
6589 Clear 24 1019 80 10000 2.34 13 23:23 05.09.2021
6590 Clear 25 1017 76 10000 2.34 13 22:33 05.09.2021
6591 Clear 24 1018 79 10000 0.89 315 21:56 05.09.2021
6592 Clear 24 1018 78 10000 0.89 315 21:21 05.09.2021
6593 Clear 25 1015 74 10000 3.34 349 19:45 05.09.2021
6594 Clear 27 1015 73 10000 3.97 336 17:53 05.09.2021
6595 Clear 26 1016 73 10000 4.92 315 16:33 05.09.2021
6596 Clear 26 1016 73 10000 1.79 315 15:21 05.09.2021
6597 Clear 27 1017 75 10000 0.89 315 12:45 05.09.2021
6598 Clear 28 1015 73 10000 3.14 329 11:44 05.09.2021
6599 Clear 27 1015 69 10000 2.74 322 10:42 05.09.2021
6600 Clear 27 1015 72 10000 2.5 311 09:35 05.09.2021
6601 Clear 26 1015 76 10000 2.57 296 08:35 05.09.2021
6602 Clear 24 1014 79 10000 2.53 266 06:33 05.09.2021
6603 Clear 23 1015 87 10000 2.68 315 00:41 05.09.2021
6604 Clear 23 1016 88 10000 0.89 315 23:59 04.09.2021
6605 Clear 25 1015 79 10000 0.03 151 23:25 04.09.2021
6606 Clear 25 1015 77 10000 0.03 151 22:35 04.09.2021
6607 Clear 24 1016 81 10000 0.89 90 21:18 04.09.2021
6608 Clouds 27 1014 73 10000 0.9 164 19:33 04.09.2021
6609 Clouds 28 1013 69 10000 0.64 122 17:25 04.09.2021
6610 Clouds 29 1013 63 10000 0.38 350 15:41 04.09.2021
6611 Clouds 27 1015 62 10000 1.13 219 11:54 04.09.2021
6612 Clouds 25 1015 66 10000 2.24 315 10:55 04.09.2021
6613 Rain 18 1019 97 10000 2.68 135 08:18 04.09.2021
6614 Clouds 25 1018 71 10000 1.79 135 00:50 04.09.2021
6615 Clouds 25 1018 69 10000 0.89 90 00:19 04.09.2021
6616 Clouds 26 1019 69 10000 1.98 219 23:22 03.09.2021
6617 Clear 26 1017 67 10000 1.76 150 21:43 03.09.2021
6618 Clouds 26 1016 67 10000 0.89 90 21:23 03.09.2021
6619 Clouds 26 1017 68 10000 0.89 90 20:30 03.09.2021
6620 Clear 26 1016 68 10000 1.34 45 19:38 03.09.2021
6621 Clear 28 1016 62 10000 2.15 73 18:33 03.09.2021
6622 Clear 28 1018 66 10000 0.89 135 17:21 03.09.2021
6623 Clear 29 1018 64 10000 0.89 135 15:42 03.09.2021
6624 Clear 29 1019 62 10000 1.79 90 14:40 03.09.2021
6625 Clouds 30 1019 48 10000 0.86 43 11:21 03.09.2021
6626 Clouds 27 1018 65 10000 0.45 90 10:18 03.09.2021
6627 Clouds 25 1018 76 10000 1.39 136 08:22 03.09.2021
6628 Clouds 24 1018 75 10000 0.59 218 06:50 03.09.2021
6629 Clear 26 1020 68 10000 2.2 137 23:58 02.09.2021
6630 Clear 26 1020 66 10000 1.95 116 22:21 02.09.2021
6631 Clear 26 1020 66 10000 2.23 109 20:59 02.09.2021
6632 Clear 28 1019 59 10000 1.6 57 18:52 02.09.2021
6633 Clear 29 1019 56 10000 2.33 27 16:57 02.09.2021
6634 Clear 28 1021 61 10000 0.89 90 15:32 02.09.2021
6635 Clear 28 1021 60 10000 3.13 135 13:42 02.09.2021
6636 Clear 28 1019 59 10000 1.94 56 11:46 02.09.2021
6637 Clear 28 1020 60 10000 2.1 83 11:24 02.09.2021
6638 Clear 26 1021 70 10000